<?xml version="1.0" encoding="UTF-8" standalone="no" ?><gpx xmlns="http://www.topografix.com/GPX/1/1" xmlns:gpxx="http://www.garmin.com/xmlschemas/GpxExtensions/v3" xmlns:wptx1="http://www.garmin.com/xmlschemas/WaypointExtension/v1" xmlns:gpxtpx="http://www.garmin.com/xmlschemas/TrackPointExtension/v1" creator="GuideVTT.com" version="1.1" xmlns:xsi="http://www.w3.org/2001/XMLSchema-instance" xsi:schemaLocation="http://www.topografix.com/GPX/1/1 http://www.topografix.com/GPX/1/1/gpx.xsd http://www.garmin.com/xmlschemas/GpxExtensions/v3 http://www8.garmin.com/xmlschemas/GpxExtensionsv3.xsd http://www.garmin.com/xmlschemas/WaypointExtension/v1 http://www8.garmin.com/xmlschemas/WaypointExtensionv1.xsd http://www.garmin.com/xmlschemas/TrackPointExtension/v1 http://www.garmin.com/xmlschemas/TrackPointExtensionv1.xsd">
<metadata><link href="http://www.garmin.com"><text>Garmin International</text></link><time>2013-06-22T15:13:50Z</time></metadata>
<trk><name>rp2025-11.gpx</name><extensions><gpxx:TrackExtension><gpxx:DisplayColor>Cyan</gpxx:DisplayColor></gpxx:TrackExtension></extensions><trkseg>
<trkpt lat="46.22459" lon="7.28353"><ele></ele><time>2025-8-26T5:36:59Z</time></trkpt>
<trkpt lat="46.2246" lon="7.28355"><ele></ele><time>2025-8-26T5:37:2Z</time></trkpt>
<trkpt lat="46.22464" lon="7.2837"><ele></ele><time>2025-8-26T5:37:5Z</time></trkpt>
<trkpt lat="46.22468" lon="7.28371"><ele></ele><time>2025-8-26T5:37:8Z</time></trkpt>
<trkpt lat="46.22472" lon="7.2837"><ele></ele><time>2025-8-26T5:37:11Z</time></trkpt>
<trkpt lat="46.22475" lon="7.28369"><ele></ele><time>2025-8-26T5:37:14Z</time></trkpt>
<trkpt lat="46.22489" lon="7.28361"><ele></ele><time>2025-8-26T5:37:17Z</time></trkpt>
<trkpt lat="46.2251" lon="7.28349"><ele></ele><time>2025-8-26T5:37:20Z</time></trkpt>
<trkpt lat="46.22534" lon="7.28338"><ele></ele><time>2025-8-26T5:37:23Z</time></trkpt>
<trkpt lat="46.22551" lon="7.28335"><ele></ele><time>2025-8-26T5:37:26Z</time></trkpt>
<trkpt lat="46.22553" lon="7.28335"><ele></ele><time>2025-8-26T5:37:29Z</time></trkpt>
<trkpt lat="46.22556" lon="7.28334"><ele></ele><time>2025-8-26T5:37:32Z</time></trkpt>
<trkpt lat="46.22563" lon="7.28335"><ele></ele><time>2025-8-26T5:37:35Z</time></trkpt>
<trkpt lat="46.22566" lon="7.28336"><ele></ele><time>2025-8-26T5:37:38Z</time></trkpt>
<trkpt lat="46.22566" lon="7.28336"><ele></ele><time>2025-8-26T5:37:41Z</time></trkpt>
<trkpt lat="46.22566" lon="7.28336"><ele></ele><time>2025-8-26T5:37:44Z</time></trkpt>
<trkpt lat="46.22566" lon="7.28336"><ele></ele><time>2025-8-26T5:37:47Z</time></trkpt>
<trkpt lat="46.22568" lon="7.28337"><ele></ele><time>2025-8-26T5:37:50Z</time></trkpt>
<trkpt lat="46.22572" lon="7.28339"><ele></ele><time>2025-8-26T5:37:53Z</time></trkpt>
<trkpt lat="46.22578" lon="7.2834"><ele></ele><time>2025-8-26T5:37:56Z</time></trkpt>
<trkpt lat="46.22589" lon="7.28342"><ele></ele><time>2025-8-26T5:37:59Z</time></trkpt>
<trkpt lat="46.22608" lon="7.28346"><ele></ele><time>2025-8-26T5:38:2Z</time></trkpt>
<trkpt lat="46.2261" lon="7.28346"><ele></ele><time>2025-8-26T5:38:5Z</time></trkpt>
<trkpt lat="46.22617" lon="7.28351"><ele></ele><time>2025-8-26T5:38:8Z</time></trkpt>
<trkpt lat="46.22617" lon="7.28354"><ele></ele><time>2025-8-26T5:38:11Z</time></trkpt>
<trkpt lat="46.22618" lon="7.28374"><ele></ele><time>2025-8-26T5:38:14Z</time></trkpt>
<trkpt lat="46.22619" lon="7.28381"><ele></ele><time>2025-8-26T5:38:17Z</time></trkpt>
<trkpt lat="46.22621" lon="7.28409"><ele></ele><time>2025-8-26T5:38:20Z</time></trkpt>
<trkpt lat="46.22622" lon="7.28416"><ele></ele><time>2025-8-26T5:38:23Z</time></trkpt>
<trkpt lat="46.22624" lon="7.28445"><ele></ele><time>2025-8-26T5:38:26Z</time></trkpt>
<trkpt lat="46.22623" lon="7.2846"><ele></ele><time>2025-8-26T5:38:29Z</time></trkpt>
<trkpt lat="46.22626" lon="7.28463"><ele></ele><time>2025-8-26T5:38:32Z</time></trkpt>
<trkpt lat="46.22629" lon="7.28464"><ele></ele><time>2025-8-26T5:38:35Z</time></trkpt>
<trkpt lat="46.22634" lon="7.28464"><ele></ele><time>2025-8-26T5:38:38Z</time></trkpt>
<trkpt lat="46.22642" lon="7.28464"><ele></ele><time>2025-8-26T5:38:41Z</time></trkpt>
<trkpt lat="46.22646" lon="7.28465"><ele></ele><time>2025-8-26T5:38:44Z</time></trkpt>
<trkpt lat="46.22657" lon="7.28468"><ele></ele><time>2025-8-26T5:38:47Z</time></trkpt>
<trkpt lat="46.22663" lon="7.2847"><ele></ele><time>2025-8-26T5:38:50Z</time></trkpt>
<trkpt lat="46.22678" lon="7.28474"><ele></ele><time>2025-8-26T5:38:53Z</time></trkpt>
<trkpt lat="46.22689" lon="7.28479"><ele></ele><time>2025-8-26T5:38:56Z</time></trkpt>
<trkpt lat="46.22694" lon="7.28481"><ele></ele><time>2025-8-26T5:38:59Z</time></trkpt>
<trkpt lat="46.227" lon="7.28484"><ele></ele><time>2025-8-26T5:39:2Z</time></trkpt>
<trkpt lat="46.22706" lon="7.28486"><ele></ele><time>2025-8-26T5:39:5Z</time></trkpt>
<trkpt lat="46.22716" lon="7.28489"><ele></ele><time>2025-8-26T5:39:8Z</time></trkpt>
<trkpt lat="46.22719" lon="7.28495"><ele></ele><time>2025-8-26T5:39:11Z</time></trkpt>
<trkpt lat="46.22719" lon="7.28512"><ele></ele><time>2025-8-26T5:39:14Z</time></trkpt>
<trkpt lat="46.22721" lon="7.28546"><ele></ele><time>2025-8-26T5:39:17Z</time></trkpt>
<trkpt lat="46.22729" lon="7.28584"><ele></ele><time>2025-8-26T5:39:20Z</time></trkpt>
<trkpt lat="46.22732" lon="7.286"><ele></ele><time>2025-8-26T5:39:23Z</time></trkpt>
<trkpt lat="46.22734" lon="7.28609"><ele></ele><time>2025-8-26T5:39:26Z</time></trkpt>
<trkpt lat="46.22735" lon="7.28618"><ele></ele><time>2025-8-26T5:39:29Z</time></trkpt>
<trkpt lat="46.22736" lon="7.28638"><ele></ele><time>2025-8-26T5:39:32Z</time></trkpt>
<trkpt lat="46.22737" lon="7.28649"><ele></ele><time>2025-8-26T5:39:35Z</time></trkpt>
<trkpt lat="46.22738" lon="7.28682"><ele></ele><time>2025-8-26T5:39:38Z</time></trkpt>
<trkpt lat="46.2274" lon="7.28725"><ele></ele><time>2025-8-26T5:39:41Z</time></trkpt>
<trkpt lat="46.22748" lon="7.28771"><ele></ele><time>2025-8-26T5:39:44Z</time></trkpt>
<trkpt lat="46.22753" lon="7.28795"><ele></ele><time>2025-8-26T5:39:47Z</time></trkpt>
<trkpt lat="46.22759" lon="7.28836"><ele></ele><time>2025-8-26T5:39:50Z</time></trkpt>
<trkpt lat="46.22762" lon="7.28882"><ele></ele><time>2025-8-26T5:39:53Z</time></trkpt>
<trkpt lat="46.22759" lon="7.28933"><ele></ele><time>2025-8-26T5:39:56Z</time></trkpt>
<trkpt lat="46.22758" lon="7.28987"><ele></ele><time>2025-8-26T5:39:59Z</time></trkpt>
<trkpt lat="46.22764" lon="7.29042"><ele></ele><time>2025-8-26T5:40:2Z</time></trkpt>
<trkpt lat="46.22779" lon="7.29095"><ele></ele><time>2025-8-26T5:40:5Z</time></trkpt>
<trkpt lat="46.22786" lon="7.29117"><ele></ele><time>2025-8-26T5:40:8Z</time></trkpt>
<trkpt lat="46.22794" lon="7.29145"><ele></ele><time>2025-8-26T5:40:11Z</time></trkpt>
<trkpt lat="46.22808" lon="7.29192"><ele></ele><time>2025-8-26T5:40:14Z</time></trkpt>
<trkpt lat="46.2281" lon="7.29199"><ele></ele><time>2025-8-26T5:40:17Z</time></trkpt>
<trkpt lat="46.22831" lon="7.29241"><ele></ele><time>2025-8-26T5:40:20Z</time></trkpt>
<trkpt lat="46.22858" lon="7.29286"><ele></ele><time>2025-8-26T5:40:23Z</time></trkpt>
<trkpt lat="46.2286" lon="7.29294"><ele></ele><time>2025-8-26T5:40:26Z</time></trkpt>
<trkpt lat="46.22862" lon="7.29301"><ele></ele><time>2025-8-26T5:40:29Z</time></trkpt>
<trkpt lat="46.22862" lon="7.29317"><ele></ele><time>2025-8-26T5:40:32Z</time></trkpt>
<trkpt lat="46.22861" lon="7.29324"><ele></ele><time>2025-8-26T5:40:35Z</time></trkpt>
<trkpt lat="46.22859" lon="7.29332"><ele></ele><time>2025-8-26T5:40:38Z</time></trkpt>
<trkpt lat="46.22851" lon="7.2936"><ele></ele><time>2025-8-26T5:40:41Z</time></trkpt>
<trkpt lat="46.22843" lon="7.29396"><ele></ele><time>2025-8-26T5:40:44Z</time></trkpt>
<trkpt lat="46.22838" lon="7.29419"><ele></ele><time>2025-8-26T5:40:47Z</time></trkpt>
<trkpt lat="46.22838" lon="7.29427"><ele></ele><time>2025-8-26T5:40:50Z</time></trkpt>
<trkpt lat="46.22839" lon="7.29455"><ele></ele><time>2025-8-26T5:40:53Z</time></trkpt>
<trkpt lat="46.22845" lon="7.29487"><ele></ele><time>2025-8-26T5:40:56Z</time></trkpt>
<trkpt lat="46.22845" lon="7.29489"><ele></ele><time>2025-8-26T5:40:59Z</time></trkpt>
<trkpt lat="46.22844" lon="7.29494"><ele></ele><time>2025-8-26T5:41:2Z</time></trkpt>
<trkpt lat="46.22846" lon="7.29507"><ele></ele><time>2025-8-26T5:41:5Z</time></trkpt>
<trkpt lat="46.22854" lon="7.2953"><ele></ele><time>2025-8-26T5:41:8Z</time></trkpt>
<trkpt lat="46.22857" lon="7.29535"><ele></ele><time>2025-8-26T5:41:11Z</time></trkpt>
<trkpt lat="46.22874" lon="7.29571"><ele></ele><time>2025-8-26T5:41:14Z</time></trkpt>
<trkpt lat="46.22876" lon="7.29577"><ele></ele><time>2025-8-26T5:41:17Z</time></trkpt>
<trkpt lat="46.22881" lon="7.29625"><ele></ele><time>2025-8-26T5:41:20Z</time></trkpt>
<trkpt lat="46.22884" lon="7.29659"><ele></ele><time>2025-8-26T5:41:23Z</time></trkpt>
<trkpt lat="46.22887" lon="7.29679"><ele></ele><time>2025-8-26T5:41:26Z</time></trkpt>
<trkpt lat="46.229" lon="7.29727"><ele></ele><time>2025-8-26T5:41:29Z</time></trkpt>
<trkpt lat="46.22911" lon="7.29762"><ele></ele><time>2025-8-26T5:41:32Z</time></trkpt>
<trkpt lat="46.22925" lon="7.29818"><ele></ele><time>2025-8-26T5:41:35Z</time></trkpt>
<trkpt lat="46.22927" lon="7.29833"><ele></ele><time>2025-8-26T5:41:38Z</time></trkpt>
<trkpt lat="46.22927" lon="7.29864"><ele></ele><time>2025-8-26T5:41:41Z</time></trkpt>
<trkpt lat="46.22927" lon="7.29871"><ele></ele><time>2025-8-26T5:41:44Z</time></trkpt>
<trkpt lat="46.22927" lon="7.29878"><ele></ele><time>2025-8-26T5:41:47Z</time></trkpt>
<trkpt lat="46.22928" lon="7.29901"><ele></ele><time>2025-8-26T5:41:50Z</time></trkpt>
<trkpt lat="46.2293" lon="7.29908"><ele></ele><time>2025-8-26T5:41:53Z</time></trkpt>
<trkpt lat="46.22933" lon="7.29915"><ele></ele><time>2025-8-26T5:41:56Z</time></trkpt>
<trkpt lat="46.22946" lon="7.29948"><ele></ele><time>2025-8-26T5:41:59Z</time></trkpt>
<trkpt lat="46.22967" lon="7.30015"><ele></ele><time>2025-8-26T5:42:2Z</time></trkpt>
<trkpt lat="46.22968" lon="7.30022"><ele></ele><time>2025-8-26T5:42:5Z</time></trkpt>
<trkpt lat="46.22986" lon="7.30079"><ele></ele><time>2025-8-26T5:42:8Z</time></trkpt>
<trkpt lat="46.22992" lon="7.30104"><ele></ele><time>2025-8-26T5:42:11Z</time></trkpt>
<trkpt lat="46.22994" lon="7.30128"><ele></ele><time>2025-8-26T5:42:14Z</time></trkpt>
<trkpt lat="46.22995" lon="7.30171"><ele></ele><time>2025-8-26T5:42:17Z</time></trkpt>
<trkpt lat="46.22995" lon="7.30189"><ele></ele><time>2025-8-26T5:42:20Z</time></trkpt>
<trkpt lat="46.22995" lon="7.30214"><ele></ele><time>2025-8-26T5:42:23Z</time></trkpt>
<trkpt lat="46.22998" lon="7.30273"><ele></ele><time>2025-8-26T5:42:26Z</time></trkpt>
<trkpt lat="46.22999" lon="7.30294"><ele></ele><time>2025-8-26T5:42:29Z</time></trkpt>
<trkpt lat="46.22999" lon="7.30319"><ele></ele><time>2025-8-26T5:42:32Z</time></trkpt>
<trkpt lat="46.23002" lon="7.30336"><ele></ele><time>2025-8-26T5:42:35Z</time></trkpt>
<trkpt lat="46.23008" lon="7.3036"><ele></ele><time>2025-8-26T5:42:38Z</time></trkpt>
<trkpt lat="46.23016" lon="7.30398"><ele></ele><time>2025-8-26T5:42:41Z</time></trkpt>
<trkpt lat="46.23017" lon="7.30405"><ele></ele><time>2025-8-26T5:42:44Z</time></trkpt>
<trkpt lat="46.23029" lon="7.30462"><ele></ele><time>2025-8-26T5:42:47Z</time></trkpt>
<trkpt lat="46.23039" lon="7.30499"><ele></ele><time>2025-8-26T5:42:50Z</time></trkpt>
<trkpt lat="46.23041" lon="7.30512"><ele></ele><time>2025-8-26T5:42:53Z</time></trkpt>
<trkpt lat="46.23055" lon="7.30565"><ele></ele><time>2025-8-26T5:42:56Z</time></trkpt>
<trkpt lat="46.2306" lon="7.30583"><ele></ele><time>2025-8-26T5:42:59Z</time></trkpt>
<trkpt lat="46.23066" lon="7.306"><ele></ele><time>2025-8-26T5:43:2Z</time></trkpt>
<trkpt lat="46.23067" lon="7.30606"><ele></ele><time>2025-8-26T5:43:5Z</time></trkpt>
<trkpt lat="46.23075" lon="7.30654"><ele></ele><time>2025-8-26T5:43:8Z</time></trkpt>
<trkpt lat="46.23084" lon="7.30712"><ele></ele><time>2025-8-26T5:43:11Z</time></trkpt>
<trkpt lat="46.23086" lon="7.30718"><ele></ele><time>2025-8-26T5:43:14Z</time></trkpt>
<trkpt lat="46.23101" lon="7.30774"><ele></ele><time>2025-8-26T5:43:17Z</time></trkpt>
<trkpt lat="46.23111" lon="7.30801"><ele></ele><time>2025-8-26T5:43:20Z</time></trkpt>
<trkpt lat="46.23121" lon="7.30821"><ele></ele><time>2025-8-26T5:43:23Z</time></trkpt>
<trkpt lat="46.23141" lon="7.30858"><ele></ele><time>2025-8-26T5:43:26Z</time></trkpt>
<trkpt lat="46.23146" lon="7.30869"><ele></ele><time>2025-8-26T5:43:29Z</time></trkpt>
<trkpt lat="46.23147" lon="7.30874"><ele></ele><time>2025-8-26T5:43:32Z</time></trkpt>
<trkpt lat="46.23148" lon="7.30886"><ele></ele><time>2025-8-26T5:43:35Z</time></trkpt>
<trkpt lat="46.23149" lon="7.30892"><ele></ele><time>2025-8-26T5:43:38Z</time></trkpt>
<trkpt lat="46.23155" lon="7.30909"><ele></ele><time>2025-8-26T5:43:41Z</time></trkpt>
<trkpt lat="46.23158" lon="7.30926"><ele></ele><time>2025-8-26T5:43:44Z</time></trkpt>
<trkpt lat="46.23159" lon="7.30937"><ele></ele><time>2025-8-26T5:43:47Z</time></trkpt>
<trkpt lat="46.23159" lon="7.30943"><ele></ele><time>2025-8-26T5:43:50Z</time></trkpt>
<trkpt lat="46.23162" lon="7.3099"><ele></ele><time>2025-8-26T5:43:53Z</time></trkpt>
<trkpt lat="46.2317" lon="7.31016"><ele></ele><time>2025-8-26T5:43:56Z</time></trkpt>
<trkpt lat="46.23175" lon="7.31026"><ele></ele><time>2025-8-26T5:43:59Z</time></trkpt>
<trkpt lat="46.23197" lon="7.31078"><ele></ele><time>2025-8-26T5:44:2Z</time></trkpt>
<trkpt lat="46.23209" lon="7.31107"><ele></ele><time>2025-8-26T5:44:5Z</time></trkpt>
<trkpt lat="46.23212" lon="7.31114"><ele></ele><time>2025-8-26T5:44:8Z</time></trkpt>
<trkpt lat="46.23216" lon="7.31119"><ele></ele><time>2025-8-26T5:44:11Z</time></trkpt>
<trkpt lat="46.23219" lon="7.31122"><ele></ele><time>2025-8-26T5:44:14Z</time></trkpt>
<trkpt lat="46.23222" lon="7.31126"><ele></ele><time>2025-8-26T5:44:17Z</time></trkpt>
<trkpt lat="46.2323" lon="7.31144"><ele></ele><time>2025-8-26T5:44:20Z</time></trkpt>
<trkpt lat="46.23233" lon="7.31152"><ele></ele><time>2025-8-26T5:44:23Z</time></trkpt>
<trkpt lat="46.23235" lon="7.3116"><ele></ele><time>2025-8-26T5:44:26Z</time></trkpt>
<trkpt lat="46.23241" lon="7.31184"><ele></ele><time>2025-8-26T5:44:29Z</time></trkpt>
<trkpt lat="46.23251" lon="7.31219"><ele></ele><time>2025-8-26T5:44:32Z</time></trkpt>
<trkpt lat="46.23253" lon="7.31225"><ele></ele><time>2025-8-26T5:44:35Z</time></trkpt>
<trkpt lat="46.23256" lon="7.31238"><ele></ele><time>2025-8-26T5:44:38Z</time></trkpt>
<trkpt lat="46.23257" lon="7.31239"><ele></ele><time>2025-8-26T5:44:41Z</time></trkpt>
<trkpt lat="46.23265" lon="7.31241"><ele></ele><time>2025-8-26T5:44:44Z</time></trkpt>
<trkpt lat="46.23279" lon="7.31237"><ele></ele><time>2025-8-26T5:44:47Z</time></trkpt>
<trkpt lat="46.23282" lon="7.31236"><ele></ele><time>2025-8-26T5:44:50Z</time></trkpt>
<trkpt lat="46.23313" lon="7.31223"><ele></ele><time>2025-8-26T5:44:53Z</time></trkpt>
<trkpt lat="46.23323" lon="7.31219"><ele></ele><time>2025-8-26T5:44:56Z</time></trkpt>
<trkpt lat="46.23342" lon="7.3121"><ele></ele><time>2025-8-26T5:44:59Z</time></trkpt>
<trkpt lat="46.23358" lon="7.31202"><ele></ele><time>2025-8-26T5:45:2Z</time></trkpt>
<trkpt lat="46.23364" lon="7.31199"><ele></ele><time>2025-8-26T5:45:5Z</time></trkpt>
<trkpt lat="46.23393" lon="7.31188"><ele></ele><time>2025-8-26T5:45:8Z</time></trkpt>
<trkpt lat="46.23421" lon="7.31175"><ele></ele><time>2025-8-26T5:45:11Z</time></trkpt>
<trkpt lat="46.23427" lon="7.31173"><ele></ele><time>2025-8-26T5:45:14Z</time></trkpt>
<trkpt lat="46.23445" lon="7.31167"><ele></ele><time>2025-8-26T5:45:17Z</time></trkpt>
<trkpt lat="46.23456" lon="7.3117"><ele></ele><time>2025-8-26T5:45:20Z</time></trkpt>
<trkpt lat="46.23458" lon="7.31171"><ele></ele><time>2025-8-26T5:45:23Z</time></trkpt>
<trkpt lat="46.23466" lon="7.31178"><ele></ele><time>2025-8-26T5:45:26Z</time></trkpt>
<trkpt lat="46.2347" lon="7.31182"><ele></ele><time>2025-8-26T5:45:29Z</time></trkpt>
<trkpt lat="46.23473" lon="7.31184"><ele></ele><time>2025-8-26T5:45:32Z</time></trkpt>
<trkpt lat="46.2348" lon="7.31194"><ele></ele><time>2025-8-26T5:45:35Z</time></trkpt>
<trkpt lat="46.23487" lon="7.31203"><ele></ele><time>2025-8-26T5:45:38Z</time></trkpt>
<trkpt lat="46.23488" lon="7.31205"><ele></ele><time>2025-8-26T5:45:41Z</time></trkpt>
<trkpt lat="46.2349" lon="7.31207"><ele></ele><time>2025-8-26T5:45:44Z</time></trkpt>
<trkpt lat="46.23495" lon="7.31215"><ele></ele><time>2025-8-26T5:45:47Z</time></trkpt>
<trkpt lat="46.23498" lon="7.31219"><ele></ele><time>2025-8-26T5:45:50Z</time></trkpt>
<trkpt lat="46.23501" lon="7.31222"><ele></ele><time>2025-8-26T5:45:53Z</time></trkpt>
<trkpt lat="46.23506" lon="7.31228"><ele></ele><time>2025-8-26T5:45:56Z</time></trkpt>
<trkpt lat="46.23509" lon="7.31231"><ele></ele><time>2025-8-26T5:45:59Z</time></trkpt>
<trkpt lat="46.23515" lon="7.31237"><ele></ele><time>2025-8-26T5:46:2Z</time></trkpt>
<trkpt lat="46.23526" lon="7.31246"><ele></ele><time>2025-8-26T5:46:5Z</time></trkpt>
<trkpt lat="46.23528" lon="7.31247"><ele></ele><time>2025-8-26T5:46:8Z</time></trkpt>
<trkpt lat="46.23536" lon="7.31255"><ele></ele><time>2025-8-26T5:46:11Z</time></trkpt>
<trkpt lat="46.2354" lon="7.31259"><ele></ele><time>2025-8-26T5:46:14Z</time></trkpt>
<trkpt lat="46.23549" lon="7.31265"><ele></ele><time>2025-8-26T5:46:17Z</time></trkpt>
<trkpt lat="46.23551" lon="7.31266"><ele></ele><time>2025-8-26T5:46:20Z</time></trkpt>
<trkpt lat="46.23561" lon="7.31273"><ele></ele><time>2025-8-26T5:46:23Z</time></trkpt>
<trkpt lat="46.23564" lon="7.31275"><ele></ele><time>2025-8-26T5:46:26Z</time></trkpt>
<trkpt lat="46.23573" lon="7.31283"><ele></ele><time>2025-8-26T5:46:29Z</time></trkpt>
<trkpt lat="46.23578" lon="7.31287"><ele></ele><time>2025-8-26T5:46:32Z</time></trkpt>
<trkpt lat="46.23584" lon="7.3129"><ele></ele><time>2025-8-26T5:46:35Z</time></trkpt>
<trkpt lat="46.23592" lon="7.31297"><ele></ele><time>2025-8-26T5:46:38Z</time></trkpt>
<trkpt lat="46.23597" lon="7.31301"><ele></ele><time>2025-8-26T5:46:41Z</time></trkpt>
<trkpt lat="46.23608" lon="7.31312"><ele></ele><time>2025-8-26T5:46:44Z</time></trkpt>
<trkpt lat="46.23621" lon="7.31324"><ele></ele><time>2025-8-26T5:46:47Z</time></trkpt>
<trkpt lat="46.23623" lon="7.31326"><ele></ele><time>2025-8-26T5:46:50Z</time></trkpt>
<trkpt lat="46.23634" lon="7.31337"><ele></ele><time>2025-8-26T5:46:53Z</time></trkpt>
<trkpt lat="46.23646" lon="7.31349"><ele></ele><time>2025-8-26T5:46:56Z</time></trkpt>
<trkpt lat="46.23647" lon="7.3135"><ele></ele><time>2025-8-26T5:46:59Z</time></trkpt>
<trkpt lat="46.23658" lon="7.31361"><ele></ele><time>2025-8-26T5:47:2Z</time></trkpt>
<trkpt lat="46.23661" lon="7.31364"><ele></ele><time>2025-8-26T5:47:5Z</time></trkpt>
<trkpt lat="46.2367" lon="7.31372"><ele></ele><time>2025-8-26T5:47:8Z</time></trkpt>
<trkpt lat="46.23678" lon="7.31379"><ele></ele><time>2025-8-26T5:47:11Z</time></trkpt>
<trkpt lat="46.23681" lon="7.31381"><ele></ele><time>2025-8-26T5:47:14Z</time></trkpt>
<trkpt lat="46.23686" lon="7.31386"><ele></ele><time>2025-8-26T5:47:17Z</time></trkpt>
<trkpt lat="46.2369" lon="7.31389"><ele></ele><time>2025-8-26T5:47:20Z</time></trkpt>
<trkpt lat="46.237" lon="7.31395"><ele></ele><time>2025-8-26T5:47:23Z</time></trkpt>
<trkpt lat="46.23701" lon="7.31396"><ele></ele><time>2025-8-26T5:47:26Z</time></trkpt>
<trkpt lat="46.23712" lon="7.31399"><ele></ele><time>2025-8-26T5:47:29Z</time></trkpt>
<trkpt lat="46.23713" lon="7.31399"><ele></ele><time>2025-8-26T5:47:32Z</time></trkpt>
<trkpt lat="46.23722" lon="7.314"><ele></ele><time>2025-8-26T5:47:35Z</time></trkpt>
<trkpt lat="46.23729" lon="7.31399"><ele></ele><time>2025-8-26T5:47:38Z</time></trkpt>
<trkpt lat="46.23734" lon="7.31399"><ele></ele><time>2025-8-26T5:47:41Z</time></trkpt>
<trkpt lat="46.23747" lon="7.31397"><ele></ele><time>2025-8-26T5:47:44Z</time></trkpt>
<trkpt lat="46.23759" lon="7.31398"><ele></ele><time>2025-8-26T5:47:47Z</time></trkpt>
<trkpt lat="46.23761" lon="7.31399"><ele></ele><time>2025-8-26T5:47:50Z</time></trkpt>
<trkpt lat="46.23777" lon="7.31403"><ele></ele><time>2025-8-26T5:47:53Z</time></trkpt>
<trkpt lat="46.23788" lon="7.31403"><ele></ele><time>2025-8-26T5:47:56Z</time></trkpt>
<trkpt lat="46.23796" lon="7.31405"><ele></ele><time>2025-8-26T5:47:59Z</time></trkpt>
<trkpt lat="46.23803" lon="7.31406"><ele></ele><time>2025-8-26T5:48:2Z</time></trkpt>
<trkpt lat="46.23808" lon="7.31407"><ele></ele><time>2025-8-26T5:48:5Z</time></trkpt>
<trkpt lat="46.23816" lon="7.31408"><ele></ele><time>2025-8-26T5:48:8Z</time></trkpt>
<trkpt lat="46.23827" lon="7.31411"><ele></ele><time>2025-8-26T5:48:11Z</time></trkpt>
<trkpt lat="46.23831" lon="7.31412"><ele></ele><time>2025-8-26T5:48:14Z</time></trkpt>
<trkpt lat="46.23839" lon="7.31413"><ele></ele><time>2025-8-26T5:48:17Z</time></trkpt>
<trkpt lat="46.23843" lon="7.31413"><ele></ele><time>2025-8-26T5:48:20Z</time></trkpt>
<trkpt lat="46.23857" lon="7.31411"><ele></ele><time>2025-8-26T5:48:23Z</time></trkpt>
<trkpt lat="46.2386" lon="7.3141"><ele></ele><time>2025-8-26T5:48:26Z</time></trkpt>
<trkpt lat="46.23876" lon="7.31406"><ele></ele><time>2025-8-26T5:48:29Z</time></trkpt>
<trkpt lat="46.23892" lon="7.31402"><ele></ele><time>2025-8-26T5:48:32Z</time></trkpt>
<trkpt lat="46.23896" lon="7.31402"><ele></ele><time>2025-8-26T5:48:35Z</time></trkpt>
<trkpt lat="46.2391" lon="7.31404"><ele></ele><time>2025-8-26T5:48:38Z</time></trkpt>
<trkpt lat="46.23914" lon="7.31405"><ele></ele><time>2025-8-26T5:48:41Z</time></trkpt>
<trkpt lat="46.2392" lon="7.3141"><ele></ele><time>2025-8-26T5:48:44Z</time></trkpt>
<trkpt lat="46.23929" lon="7.31415"><ele></ele><time>2025-8-26T5:48:47Z</time></trkpt>
<trkpt lat="46.2393" lon="7.31416"><ele></ele><time>2025-8-26T5:48:50Z</time></trkpt>
<trkpt lat="46.23942" lon="7.31424"><ele></ele><time>2025-8-26T5:48:53Z</time></trkpt>
<trkpt lat="46.23944" lon="7.31425"><ele></ele><time>2025-8-26T5:48:56Z</time></trkpt>
<trkpt lat="46.23954" lon="7.31431"><ele></ele><time>2025-8-26T5:48:59Z</time></trkpt>
<trkpt lat="46.23967" lon="7.31441"><ele></ele><time>2025-8-26T5:49:2Z</time></trkpt>
<trkpt lat="46.23979" lon="7.31449"><ele></ele><time>2025-8-26T5:49:5Z</time></trkpt>
<trkpt lat="46.23989" lon="7.31452"><ele></ele><time>2025-8-26T5:49:8Z</time></trkpt>
<trkpt lat="46.23996" lon="7.31454"><ele></ele><time>2025-8-26T5:49:11Z</time></trkpt>
<trkpt lat="46.24003" lon="7.31457"><ele></ele><time>2025-8-26T5:49:14Z</time></trkpt>
<trkpt lat="46.24007" lon="7.31458"><ele></ele><time>2025-8-26T5:49:17Z</time></trkpt>
<trkpt lat="46.24017" lon="7.31462"><ele></ele><time>2025-8-26T5:49:20Z</time></trkpt>
<trkpt lat="46.24022" lon="7.31463"><ele></ele><time>2025-8-26T5:49:23Z</time></trkpt>
<trkpt lat="46.24031" lon="7.31468"><ele></ele><time>2025-8-26T5:49:26Z</time></trkpt>
<trkpt lat="46.24033" lon="7.31471"><ele></ele><time>2025-8-26T5:49:29Z</time></trkpt>
<trkpt lat="46.24036" lon="7.31483"><ele></ele><time>2025-8-26T5:49:32Z</time></trkpt>
<trkpt lat="46.24036" lon="7.31489"><ele></ele><time>2025-8-26T5:49:35Z</time></trkpt>
<trkpt lat="46.24033" lon="7.31499"><ele></ele><time>2025-8-26T5:49:38Z</time></trkpt>
<trkpt lat="46.2403" lon="7.31503"><ele></ele><time>2025-8-26T5:49:41Z</time></trkpt>
<trkpt lat="46.24026" lon="7.31507"><ele></ele><time>2025-8-26T5:49:44Z</time></trkpt>
<trkpt lat="46.24017" lon="7.31515"><ele></ele><time>2025-8-26T5:49:47Z</time></trkpt>
<trkpt lat="46.24016" lon="7.31517"><ele></ele><time>2025-8-26T5:49:50Z</time></trkpt>
<trkpt lat="46.24009" lon="7.31524"><ele></ele><time>2025-8-26T5:49:53Z</time></trkpt>
<trkpt lat="46.24008" lon="7.31524"><ele></ele><time>2025-8-26T5:49:56Z</time></trkpt>
<trkpt lat="46.23999" lon="7.31532"><ele></ele><time>2025-8-26T5:49:59Z</time></trkpt>
<trkpt lat="46.23998" lon="7.31534"><ele></ele><time>2025-8-26T5:50:2Z</time></trkpt>
<trkpt lat="46.2399" lon="7.31541"><ele></ele><time>2025-8-26T5:50:5Z</time></trkpt>
<trkpt lat="46.23989" lon="7.31542"><ele></ele><time>2025-8-26T5:50:8Z</time></trkpt>
<trkpt lat="46.23982" lon="7.3155"><ele></ele><time>2025-8-26T5:50:11Z</time></trkpt>
<trkpt lat="46.23981" lon="7.31551"><ele></ele><time>2025-8-26T5:50:14Z</time></trkpt>
<trkpt lat="46.23974" lon="7.31563"><ele></ele><time>2025-8-26T5:50:17Z</time></trkpt>
<trkpt lat="46.23972" lon="7.31566"><ele></ele><time>2025-8-26T5:50:20Z</time></trkpt>
<trkpt lat="46.23963" lon="7.31581"><ele></ele><time>2025-8-26T5:50:23Z</time></trkpt>
<trkpt lat="46.23962" lon="7.31583"><ele></ele><time>2025-8-26T5:50:26Z</time></trkpt>
<trkpt lat="46.23957" lon="7.31593"><ele></ele><time>2025-8-26T5:50:29Z</time></trkpt>
<trkpt lat="46.23954" lon="7.316"><ele></ele><time>2025-8-26T5:50:32Z</time></trkpt>
<trkpt lat="46.23956" lon="7.31612"><ele></ele><time>2025-8-26T5:50:35Z</time></trkpt>
<trkpt lat="46.23965" lon="7.31617"><ele></ele><time>2025-8-26T5:50:38Z</time></trkpt>
<trkpt lat="46.23967" lon="7.31616"><ele></ele><time>2025-8-26T5:50:41Z</time></trkpt>
<trkpt lat="46.2398" lon="7.31616"><ele></ele><time>2025-8-26T5:50:44Z</time></trkpt>
<trkpt lat="46.23981" lon="7.31617"><ele></ele><time>2025-8-26T5:50:47Z</time></trkpt>
<trkpt lat="46.2399" lon="7.31625"><ele></ele><time>2025-8-26T5:50:50Z</time></trkpt>
<trkpt lat="46.23993" lon="7.31627"><ele></ele><time>2025-8-26T5:50:53Z</time></trkpt>
<trkpt lat="46.23998" lon="7.31633"><ele></ele><time>2025-8-26T5:50:56Z</time></trkpt>
<trkpt lat="46.24005" lon="7.31637"><ele></ele><time>2025-8-26T5:50:59Z</time></trkpt>
<trkpt lat="46.2401" lon="7.31638"><ele></ele><time>2025-8-26T5:51:2Z</time></trkpt>
<trkpt lat="46.2402" lon="7.31641"><ele></ele><time>2025-8-26T5:51:5Z</time></trkpt>
<trkpt lat="46.24023" lon="7.31641"><ele></ele><time>2025-8-26T5:51:8Z</time></trkpt>
<trkpt lat="46.24034" lon="7.31642"><ele></ele><time>2025-8-26T5:51:11Z</time></trkpt>
<trkpt lat="46.24035" lon="7.31643"><ele></ele><time>2025-8-26T5:51:14Z</time></trkpt>
<trkpt lat="46.24046" lon="7.31646"><ele></ele><time>2025-8-26T5:51:17Z</time></trkpt>
<trkpt lat="46.24048" lon="7.31647"><ele></ele><time>2025-8-26T5:51:20Z</time></trkpt>
<trkpt lat="46.24054" lon="7.3165"><ele></ele><time>2025-8-26T5:51:23Z</time></trkpt>
<trkpt lat="46.24059" lon="7.31653"><ele></ele><time>2025-8-26T5:51:26Z</time></trkpt>
<trkpt lat="46.24062" lon="7.31655"><ele></ele><time>2025-8-26T5:51:29Z</time></trkpt>
<trkpt lat="46.2407" lon="7.3166"><ele></ele><time>2025-8-26T5:51:32Z</time></trkpt>
<trkpt lat="46.24072" lon="7.3166"><ele></ele><time>2025-8-26T5:51:35Z</time></trkpt>
<trkpt lat="46.24081" lon="7.31658"><ele></ele><time>2025-8-26T5:51:38Z</time></trkpt>
<trkpt lat="46.24083" lon="7.31658"><ele></ele><time>2025-8-26T5:51:41Z</time></trkpt>
<trkpt lat="46.24088" lon="7.31653"><ele></ele><time>2025-8-26T5:51:44Z</time></trkpt>
<trkpt lat="46.24094" lon="7.31647"><ele></ele><time>2025-8-26T5:51:47Z</time></trkpt>
<trkpt lat="46.24099" lon="7.31642"><ele></ele><time>2025-8-26T5:51:50Z</time></trkpt>
<trkpt lat="46.24103" lon="7.3164"><ele></ele><time>2025-8-26T5:51:53Z</time></trkpt>
<trkpt lat="46.2411" lon="7.31639"><ele></ele><time>2025-8-26T5:51:56Z</time></trkpt>
<trkpt lat="46.24112" lon="7.31639"><ele></ele><time>2025-8-26T5:51:59Z</time></trkpt>
<trkpt lat="46.24122" lon="7.31644"><ele></ele><time>2025-8-26T5:52:2Z</time></trkpt>
<trkpt lat="46.24123" lon="7.31645"><ele></ele><time>2025-8-26T5:52:5Z</time></trkpt>
<trkpt lat="46.24132" lon="7.3165"><ele></ele><time>2025-8-26T5:52:8Z</time></trkpt>
<trkpt lat="46.24137" lon="7.31653"><ele></ele><time>2025-8-26T5:52:11Z</time></trkpt>
<trkpt lat="46.24144" lon="7.31658"><ele></ele><time>2025-8-26T5:52:14Z</time></trkpt>
<trkpt lat="46.24151" lon="7.31662"><ele></ele><time>2025-8-26T5:52:17Z</time></trkpt>
<trkpt lat="46.24153" lon="7.31664"><ele></ele><time>2025-8-26T5:52:20Z</time></trkpt>
<trkpt lat="46.24159" lon="7.31669"><ele></ele><time>2025-8-26T5:52:23Z</time></trkpt>
<trkpt lat="46.24162" lon="7.31672"><ele></ele><time>2025-8-26T5:52:26Z</time></trkpt>
<trkpt lat="46.24163" lon="7.3168"><ele></ele><time>2025-8-26T5:52:29Z</time></trkpt>
<trkpt lat="46.24163" lon="7.31686"><ele></ele><time>2025-8-26T5:52:32Z</time></trkpt>
<trkpt lat="46.24161" lon="7.31691"><ele></ele><time>2025-8-26T5:52:35Z</time></trkpt>
<trkpt lat="46.24158" lon="7.31695"><ele></ele><time>2025-8-26T5:52:38Z</time></trkpt>
<trkpt lat="46.24151" lon="7.317"><ele></ele><time>2025-8-26T5:52:41Z</time></trkpt>
<trkpt lat="46.24141" lon="7.31715"><ele></ele><time>2025-8-26T5:52:44Z</time></trkpt>
<trkpt lat="46.2414" lon="7.31721"><ele></ele><time>2025-8-26T5:52:47Z</time></trkpt>
<trkpt lat="46.24141" lon="7.31735"><ele></ele><time>2025-8-26T5:52:50Z</time></trkpt>
<trkpt lat="46.24143" lon="7.31744"><ele></ele><time>2025-8-26T5:52:53Z</time></trkpt>
<trkpt lat="46.24145" lon="7.31751"><ele></ele><time>2025-8-26T5:52:56Z</time></trkpt>
<trkpt lat="46.2415" lon="7.31764"><ele></ele><time>2025-8-26T5:52:59Z</time></trkpt>
<trkpt lat="46.24152" lon="7.31768"><ele></ele><time>2025-8-26T5:53:2Z</time></trkpt>
<trkpt lat="46.24156" lon="7.31773"><ele></ele><time>2025-8-26T5:53:5Z</time></trkpt>
<trkpt lat="46.2416" lon="7.31776"><ele></ele><time>2025-8-26T5:53:8Z</time></trkpt>
<trkpt lat="46.24164" lon="7.31779"><ele></ele><time>2025-8-26T5:53:11Z</time></trkpt>
<trkpt lat="46.24168" lon="7.31781"><ele></ele><time>2025-8-26T5:53:14Z</time></trkpt>
<trkpt lat="46.24176" lon="7.31782"><ele></ele><time>2025-8-26T5:53:17Z</time></trkpt>
<trkpt lat="46.24181" lon="7.31781"><ele></ele><time>2025-8-26T5:53:20Z</time></trkpt>
<trkpt lat="46.24189" lon="7.31782"><ele></ele><time>2025-8-26T5:53:23Z</time></trkpt>
<trkpt lat="46.24191" lon="7.31782"><ele></ele><time>2025-8-26T5:53:26Z</time></trkpt>
<trkpt lat="46.242" lon="7.31782"><ele></ele><time>2025-8-26T5:53:29Z</time></trkpt>
<trkpt lat="46.24201" lon="7.31782"><ele></ele><time>2025-8-26T5:53:32Z</time></trkpt>
<trkpt lat="46.24211" lon="7.31786"><ele></ele><time>2025-8-26T5:53:35Z</time></trkpt>
<trkpt lat="46.24223" lon="7.31791"><ele></ele><time>2025-8-26T5:53:38Z</time></trkpt>
<trkpt lat="46.24225" lon="7.31791"><ele></ele><time>2025-8-26T5:53:41Z</time></trkpt>
<trkpt lat="46.24234" lon="7.31795"><ele></ele><time>2025-8-26T5:53:44Z</time></trkpt>
<trkpt lat="46.2424" lon="7.31796"><ele></ele><time>2025-8-26T5:53:47Z</time></trkpt>
<trkpt lat="46.24244" lon="7.31798"><ele></ele><time>2025-8-26T5:53:50Z</time></trkpt>
<trkpt lat="46.24253" lon="7.31802"><ele></ele><time>2025-8-26T5:53:53Z</time></trkpt>
<trkpt lat="46.24254" lon="7.31803"><ele></ele><time>2025-8-26T5:53:56Z</time></trkpt>
<trkpt lat="46.24265" lon="7.31808"><ele></ele><time>2025-8-26T5:53:59Z</time></trkpt>
<trkpt lat="46.24268" lon="7.31809"><ele></ele><time>2025-8-26T5:54:2Z</time></trkpt>
<trkpt lat="46.24277" lon="7.31812"><ele></ele><time>2025-8-26T5:54:5Z</time></trkpt>
<trkpt lat="46.2428" lon="7.31813"><ele></ele><time>2025-8-26T5:54:8Z</time></trkpt>
<trkpt lat="46.24288" lon="7.31817"><ele></ele><time>2025-8-26T5:54:11Z</time></trkpt>
<trkpt lat="46.24291" lon="7.31819"><ele></ele><time>2025-8-26T5:54:14Z</time></trkpt>
<trkpt lat="46.24298" lon="7.31823"><ele></ele><time>2025-8-26T5:54:17Z</time></trkpt>
<trkpt lat="46.24303" lon="7.31828"><ele></ele><time>2025-8-26T5:54:20Z</time></trkpt>
<trkpt lat="46.24307" lon="7.31832"><ele></ele><time>2025-8-26T5:54:23Z</time></trkpt>
<trkpt lat="46.24315" lon="7.31839"><ele></ele><time>2025-8-26T5:54:26Z</time></trkpt>
<trkpt lat="46.24317" lon="7.31842"><ele></ele><time>2025-8-26T5:54:29Z</time></trkpt>
<trkpt lat="46.24322" lon="7.31848"><ele></ele><time>2025-8-26T5:54:32Z</time></trkpt>
<trkpt lat="46.24327" lon="7.31851"><ele></ele><time>2025-8-26T5:54:35Z</time></trkpt>
<trkpt lat="46.24332" lon="7.31854"><ele></ele><time>2025-8-26T5:54:38Z</time></trkpt>
<trkpt lat="46.24339" lon="7.31854"><ele></ele><time>2025-8-26T5:54:41Z</time></trkpt>
<trkpt lat="46.24344" lon="7.31851"><ele></ele><time>2025-8-26T5:54:44Z</time></trkpt>
<trkpt lat="46.24352" lon="7.31846"><ele></ele><time>2025-8-26T5:54:47Z</time></trkpt>
<trkpt lat="46.24357" lon="7.31842"><ele></ele><time>2025-8-26T5:54:50Z</time></trkpt>
<trkpt lat="46.24363" lon="7.31837"><ele></ele><time>2025-8-26T5:54:53Z</time></trkpt>
<trkpt lat="46.2437" lon="7.31833"><ele></ele><time>2025-8-26T5:54:56Z</time></trkpt>
<trkpt lat="46.24374" lon="7.31829"><ele></ele><time>2025-8-26T5:54:59Z</time></trkpt>
<trkpt lat="46.24378" lon="7.31825"><ele></ele><time>2025-8-26T5:55:2Z</time></trkpt>
<trkpt lat="46.24386" lon="7.31817"><ele></ele><time>2025-8-26T5:55:5Z</time></trkpt>
<trkpt lat="46.24387" lon="7.31816"><ele></ele><time>2025-8-26T5:55:8Z</time></trkpt>
<trkpt lat="46.24394" lon="7.31809"><ele></ele><time>2025-8-26T5:55:11Z</time></trkpt>
<trkpt lat="46.244" lon="7.31804"><ele></ele><time>2025-8-26T5:55:14Z</time></trkpt>
<trkpt lat="46.24405" lon="7.31799"><ele></ele><time>2025-8-26T5:55:17Z</time></trkpt>
<trkpt lat="46.24412" lon="7.31792"><ele></ele><time>2025-8-26T5:55:20Z</time></trkpt>
<trkpt lat="46.24413" lon="7.31791"><ele></ele><time>2025-8-26T5:55:23Z</time></trkpt>
<trkpt lat="46.24418" lon="7.31785"><ele></ele><time>2025-8-26T5:55:26Z</time></trkpt>
<trkpt lat="46.24421" lon="7.3178"><ele></ele><time>2025-8-26T5:55:29Z</time></trkpt>
<trkpt lat="46.24424" lon="7.31774"><ele></ele><time>2025-8-26T5:55:32Z</time></trkpt>
<trkpt lat="46.24426" lon="7.31769"><ele></ele><time>2025-8-26T5:55:35Z</time></trkpt>
<trkpt lat="46.24427" lon="7.31761"><ele></ele><time>2025-8-26T5:55:38Z</time></trkpt>
<trkpt lat="46.24427" lon="7.31753"><ele></ele><time>2025-8-26T5:55:41Z</time></trkpt>
<trkpt lat="46.24426" lon="7.31742"><ele></ele><time>2025-8-26T5:55:44Z</time></trkpt>
<trkpt lat="46.24425" lon="7.31735"><ele></ele><time>2025-8-26T5:55:47Z</time></trkpt>
<trkpt lat="46.24423" lon="7.31724"><ele></ele><time>2025-8-26T5:55:50Z</time></trkpt>
<trkpt lat="46.24422" lon="7.3172"><ele></ele><time>2025-8-26T5:55:53Z</time></trkpt>
<trkpt lat="46.2442" lon="7.31703"><ele></ele><time>2025-8-26T5:55:56Z</time></trkpt>
<trkpt lat="46.24419" lon="7.31701"><ele></ele><time>2025-8-26T5:55:59Z</time></trkpt>
<trkpt lat="46.24416" lon="7.31688"><ele></ele><time>2025-8-26T5:56:2Z</time></trkpt>
<trkpt lat="46.24415" lon="7.3168"><ele></ele><time>2025-8-26T5:56:5Z</time></trkpt>
<trkpt lat="46.24414" lon="7.31673"><ele></ele><time>2025-8-26T5:56:8Z</time></trkpt>
<trkpt lat="46.24411" lon="7.31661"><ele></ele><time>2025-8-26T5:56:11Z</time></trkpt>
<trkpt lat="46.2441" lon="7.31658"><ele></ele><time>2025-8-26T5:56:14Z</time></trkpt>
<trkpt lat="46.24408" lon="7.31643"><ele></ele><time>2025-8-26T5:56:17Z</time></trkpt>
<trkpt lat="46.24405" lon="7.31629"><ele></ele><time>2025-8-26T5:56:20Z</time></trkpt>
<trkpt lat="46.24405" lon="7.31627"><ele></ele><time>2025-8-26T5:56:23Z</time></trkpt>
<trkpt lat="46.24403" lon="7.31615"><ele></ele><time>2025-8-26T5:56:26Z</time></trkpt>
<trkpt lat="46.24402" lon="7.31613"><ele></ele><time>2025-8-26T5:56:29Z</time></trkpt>
<trkpt lat="46.244" lon="7.31597"><ele></ele><time>2025-8-26T5:56:32Z</time></trkpt>
<trkpt lat="46.244" lon="7.31595"><ele></ele><time>2025-8-26T5:56:35Z</time></trkpt>
<trkpt lat="46.24398" lon="7.31582"><ele></ele><time>2025-8-26T5:56:38Z</time></trkpt>
<trkpt lat="46.24398" lon="7.31579"><ele></ele><time>2025-8-26T5:56:41Z</time></trkpt>
<trkpt lat="46.24397" lon="7.31565"><ele></ele><time>2025-8-26T5:56:44Z</time></trkpt>
<trkpt lat="46.24396" lon="7.31561"><ele></ele><time>2025-8-26T5:56:47Z</time></trkpt>
<trkpt lat="46.24394" lon="7.31551"><ele></ele><time>2025-8-26T5:56:50Z</time></trkpt>
<trkpt lat="46.24393" lon="7.31536"><ele></ele><time>2025-8-26T5:56:53Z</time></trkpt>
<trkpt lat="46.2439" lon="7.31519"><ele></ele><time>2025-8-26T5:56:56Z</time></trkpt>
<trkpt lat="46.24391" lon="7.3151"><ele></ele><time>2025-8-26T5:56:59Z</time></trkpt>
<trkpt lat="46.24391" lon="7.31508"><ele></ele><time>2025-8-26T5:57:2Z</time></trkpt>
<trkpt lat="46.24396" lon="7.31494"><ele></ele><time>2025-8-26T5:57:5Z</time></trkpt>
<trkpt lat="46.24398" lon="7.31489"><ele></ele><time>2025-8-26T5:57:8Z</time></trkpt>
<trkpt lat="46.24401" lon="7.31481"><ele></ele><time>2025-8-26T5:57:11Z</time></trkpt>
<trkpt lat="46.24404" lon="7.31474"><ele></ele><time>2025-8-26T5:57:14Z</time></trkpt>
<trkpt lat="46.24406" lon="7.31469"><ele></ele><time>2025-8-26T5:57:17Z</time></trkpt>
<trkpt lat="46.24409" lon="7.31461"><ele></ele><time>2025-8-26T5:57:20Z</time></trkpt>
<trkpt lat="46.2441" lon="7.31457"><ele></ele><time>2025-8-26T5:57:23Z</time></trkpt>
<trkpt lat="46.2441" lon="7.31449"><ele></ele><time>2025-8-26T5:57:26Z</time></trkpt>
<trkpt lat="46.2441" lon="7.3144"><ele></ele><time>2025-8-26T5:57:29Z</time></trkpt>
<trkpt lat="46.24408" lon="7.31431"><ele></ele><time>2025-8-26T5:57:32Z</time></trkpt>
<trkpt lat="46.24406" lon="7.31422"><ele></ele><time>2025-8-26T5:57:35Z</time></trkpt>
<trkpt lat="46.24405" lon="7.31413"><ele></ele><time>2025-8-26T5:57:38Z</time></trkpt>
<trkpt lat="46.24403" lon="7.31407"><ele></ele><time>2025-8-26T5:57:41Z</time></trkpt>
<trkpt lat="46.24402" lon="7.31394"><ele></ele><time>2025-8-26T5:57:44Z</time></trkpt>
<trkpt lat="46.24402" lon="7.31392"><ele></ele><time>2025-8-26T5:57:47Z</time></trkpt>
<trkpt lat="46.24402" lon="7.31377"><ele></ele><time>2025-8-26T5:57:50Z</time></trkpt>
<trkpt lat="46.24403" lon="7.31374"><ele></ele><time>2025-8-26T5:57:53Z</time></trkpt>
<trkpt lat="46.24404" lon="7.31362"><ele></ele><time>2025-8-26T5:57:56Z</time></trkpt>
<trkpt lat="46.24405" lon="7.31355"><ele></ele><time>2025-8-26T5:57:59Z</time></trkpt>
<trkpt lat="46.24407" lon="7.31346"><ele></ele><time>2025-8-26T5:58:2Z</time></trkpt>
<trkpt lat="46.24409" lon="7.31337"><ele></ele><time>2025-8-26T5:58:5Z</time></trkpt>
<trkpt lat="46.24409" lon="7.31332"><ele></ele><time>2025-8-26T5:58:8Z</time></trkpt>
<trkpt lat="46.24411" lon="7.31318"><ele></ele><time>2025-8-26T5:58:11Z</time></trkpt>
<trkpt lat="46.24413" lon="7.31312"><ele></ele><time>2025-8-26T5:58:14Z</time></trkpt>
<trkpt lat="46.24413" lon="7.31303"><ele></ele><time>2025-8-26T5:58:17Z</time></trkpt>
<trkpt lat="46.24414" lon="7.31298"><ele></ele><time>2025-8-26T5:58:20Z</time></trkpt>
<trkpt lat="46.24417" lon="7.31282"><ele></ele><time>2025-8-26T5:58:23Z</time></trkpt>
<trkpt lat="46.24422" lon="7.31272"><ele></ele><time>2025-8-26T5:58:26Z</time></trkpt>
<trkpt lat="46.24423" lon="7.3127"><ele></ele><time>2025-8-26T5:58:29Z</time></trkpt>
<trkpt lat="46.24431" lon="7.31266"><ele></ele><time>2025-8-26T5:58:32Z</time></trkpt>
<trkpt lat="46.24432" lon="7.31265"><ele></ele><time>2025-8-26T5:58:35Z</time></trkpt>
<trkpt lat="46.24443" lon="7.31263"><ele></ele><time>2025-8-26T5:58:38Z</time></trkpt>
<trkpt lat="46.24444" lon="7.31263"><ele></ele><time>2025-8-26T5:58:41Z</time></trkpt>
<trkpt lat="46.24453" lon="7.3126"><ele></ele><time>2025-8-26T5:58:44Z</time></trkpt>
<trkpt lat="46.24455" lon="7.3126"><ele></ele><time>2025-8-26T5:58:47Z</time></trkpt>
<trkpt lat="46.24463" lon="7.31258"><ele></ele><time>2025-8-26T5:58:50Z</time></trkpt>
<trkpt lat="46.24467" lon="7.31257"><ele></ele><time>2025-8-26T5:58:53Z</time></trkpt>
<trkpt lat="46.24469" lon="7.31257"><ele></ele><time>2025-8-26T5:58:56Z</time></trkpt>
<trkpt lat="46.24477" lon="7.3126"><ele></ele><time>2025-8-26T5:58:59Z</time></trkpt>
<trkpt lat="46.24478" lon="7.31263"><ele></ele><time>2025-8-26T5:59:2Z</time></trkpt>
<trkpt lat="46.24479" lon="7.31265"><ele></ele><time>2025-8-26T5:59:5Z</time></trkpt>
<trkpt lat="46.24475" lon="7.31275"><ele></ele><time>2025-8-26T5:59:8Z</time></trkpt>
<trkpt lat="46.2447" lon="7.3128"><ele></ele><time>2025-8-26T5:59:11Z</time></trkpt>
<trkpt lat="46.24468" lon="7.31281"><ele></ele><time>2025-8-26T5:59:14Z</time></trkpt>
<trkpt lat="46.24464" lon="7.31285"><ele></ele><time>2025-8-26T5:59:17Z</time></trkpt>
<trkpt lat="46.24461" lon="7.3129"><ele></ele><time>2025-8-26T5:59:20Z</time></trkpt>
<trkpt lat="46.24459" lon="7.31293"><ele></ele><time>2025-8-26T5:59:23Z</time></trkpt>
<trkpt lat="46.24456" lon="7.31303"><ele></ele><time>2025-8-26T5:59:26Z</time></trkpt>
<trkpt lat="46.24458" lon="7.31312"><ele></ele><time>2025-8-26T5:59:29Z</time></trkpt>
<trkpt lat="46.24458" lon="7.31314"><ele></ele><time>2025-8-26T5:59:32Z</time></trkpt>
<trkpt lat="46.24461" lon="7.31328"><ele></ele><time>2025-8-26T5:59:35Z</time></trkpt>
<trkpt lat="46.24462" lon="7.31332"><ele></ele><time>2025-8-26T5:59:38Z</time></trkpt>
<trkpt lat="46.24465" lon="7.31342"><ele></ele><time>2025-8-26T5:59:41Z</time></trkpt>
<trkpt lat="46.24468" lon="7.31354"><ele></ele><time>2025-8-26T5:59:44Z</time></trkpt>
<trkpt lat="46.2447" lon="7.31357"><ele></ele><time>2025-8-26T5:59:47Z</time></trkpt>
<trkpt lat="46.24473" lon="7.31369"><ele></ele><time>2025-8-26T5:59:50Z</time></trkpt>
<trkpt lat="46.24473" lon="7.31371"><ele></ele><time>2025-8-26T5:59:53Z</time></trkpt>
<trkpt lat="46.24476" lon="7.3138"><ele></ele><time>2025-8-26T5:59:56Z</time></trkpt>
<trkpt lat="46.24477" lon="7.31382"><ele></ele><time>2025-8-26T5:59:59Z</time></trkpt>
<trkpt lat="46.24477" lon="7.31384"><ele></ele><time>2025-8-26T6:0:2Z</time></trkpt>
<trkpt lat="46.2448" lon="7.31392"><ele></ele><time>2025-8-26T6:0:5Z</time></trkpt>
<trkpt lat="46.24482" lon="7.31398"><ele></ele><time>2025-8-26T6:0:8Z</time></trkpt>
<trkpt lat="46.24483" lon="7.31404"><ele></ele><time>2025-8-26T6:0:11Z</time></trkpt>
<trkpt lat="46.24486" lon="7.31415"><ele></ele><time>2025-8-26T6:0:14Z</time></trkpt>
<trkpt lat="46.24487" lon="7.31419"><ele></ele><time>2025-8-26T6:0:17Z</time></trkpt>
<trkpt lat="46.24491" lon="7.31431"><ele></ele><time>2025-8-26T6:0:20Z</time></trkpt>
<trkpt lat="46.24493" lon="7.31442"><ele></ele><time>2025-8-26T6:0:23Z</time></trkpt>
<trkpt lat="46.24494" lon="7.31444"><ele></ele><time>2025-8-26T6:0:26Z</time></trkpt>
<trkpt lat="46.24498" lon="7.31455"><ele></ele><time>2025-8-26T6:0:29Z</time></trkpt>
<trkpt lat="46.24499" lon="7.31458"><ele></ele><time>2025-8-26T6:0:32Z</time></trkpt>
<trkpt lat="46.24501" lon="7.31466"><ele></ele><time>2025-8-26T6:0:35Z</time></trkpt>
<trkpt lat="46.24503" lon="7.31474"><ele></ele><time>2025-8-26T6:0:38Z</time></trkpt>
<trkpt lat="46.24505" lon="7.31481"><ele></ele><time>2025-8-26T6:0:41Z</time></trkpt>
<trkpt lat="46.24506" lon="7.3149"><ele></ele><time>2025-8-26T6:0:44Z</time></trkpt>
<trkpt lat="46.24508" lon="7.315"><ele></ele><time>2025-8-26T6:0:47Z</time></trkpt>
<trkpt lat="46.2451" lon="7.31506"><ele></ele><time>2025-8-26T6:0:50Z</time></trkpt>
<trkpt lat="46.24513" lon="7.31516"><ele></ele><time>2025-8-26T6:0:53Z</time></trkpt>
<trkpt lat="46.24513" lon="7.3152"><ele></ele><time>2025-8-26T6:0:56Z</time></trkpt>
<trkpt lat="46.24515" lon="7.3153"><ele></ele><time>2025-8-26T6:0:59Z</time></trkpt>
<trkpt lat="46.24517" lon="7.31536"><ele></ele><time>2025-8-26T6:1:2Z</time></trkpt>
<trkpt lat="46.24519" lon="7.31547"><ele></ele><time>2025-8-26T6:1:5Z</time></trkpt>
<trkpt lat="46.24521" lon="7.31553"><ele></ele><time>2025-8-26T6:1:8Z</time></trkpt>
<trkpt lat="46.24523" lon="7.31563"><ele></ele><time>2025-8-26T6:1:11Z</time></trkpt>
<trkpt lat="46.24523" lon="7.31567"><ele></ele><time>2025-8-26T6:1:14Z</time></trkpt>
<trkpt lat="46.24527" lon="7.31583"><ele></ele><time>2025-8-26T6:1:17Z</time></trkpt>
<trkpt lat="46.24528" lon="7.31585"><ele></ele><time>2025-8-26T6:1:20Z</time></trkpt>
<trkpt lat="46.2453" lon="7.31597"><ele></ele><time>2025-8-26T6:1:23Z</time></trkpt>
<trkpt lat="46.24533" lon="7.31612"><ele></ele><time>2025-8-26T6:1:26Z</time></trkpt>
<trkpt lat="46.24534" lon="7.31617"><ele></ele><time>2025-8-26T6:1:29Z</time></trkpt>
<trkpt lat="46.24536" lon="7.31629"><ele></ele><time>2025-8-26T6:1:32Z</time></trkpt>
<trkpt lat="46.24537" lon="7.31636"><ele></ele><time>2025-8-26T6:1:35Z</time></trkpt>
<trkpt lat="46.24538" lon="7.31642"><ele></ele><time>2025-8-26T6:1:38Z</time></trkpt>
<trkpt lat="46.24538" lon="7.31648"><ele></ele><time>2025-8-26T6:1:41Z</time></trkpt>
<trkpt lat="46.24541" lon="7.3166"><ele></ele><time>2025-8-26T6:1:44Z</time></trkpt>
<trkpt lat="46.24541" lon="7.31662"><ele></ele><time>2025-8-26T6:1:47Z</time></trkpt>
<trkpt lat="46.24543" lon="7.31672"><ele></ele><time>2025-8-26T6:1:50Z</time></trkpt>
<trkpt lat="46.24543" lon="7.3168"><ele></ele><time>2025-8-26T6:1:53Z</time></trkpt>
<trkpt lat="46.24543" lon="7.31691"><ele></ele><time>2025-8-26T6:1:56Z</time></trkpt>
<trkpt lat="46.24544" lon="7.31696"><ele></ele><time>2025-8-26T6:1:59Z</time></trkpt>
<trkpt lat="46.24544" lon="7.31706"><ele></ele><time>2025-8-26T6:2:2Z</time></trkpt>
<trkpt lat="46.24545" lon="7.31708"><ele></ele><time>2025-8-26T6:2:5Z</time></trkpt>
<trkpt lat="46.24546" lon="7.31724"><ele></ele><time>2025-8-26T6:2:8Z</time></trkpt>
<trkpt lat="46.24547" lon="7.31739"><ele></ele><time>2025-8-26T6:2:11Z</time></trkpt>
<trkpt lat="46.24549" lon="7.31754"><ele></ele><time>2025-8-26T6:2:14Z</time></trkpt>
<trkpt lat="46.2455" lon="7.31758"><ele></ele><time>2025-8-26T6:2:17Z</time></trkpt>
<trkpt lat="46.24555" lon="7.31763"><ele></ele><time>2025-8-26T6:2:20Z</time></trkpt>
<trkpt lat="46.24561" lon="7.31762"><ele></ele><time>2025-8-26T6:2:23Z</time></trkpt>
<trkpt lat="46.24562" lon="7.31761"><ele></ele><time>2025-8-26T6:2:26Z</time></trkpt>
<trkpt lat="46.24563" lon="7.31747"><ele></ele><time>2025-8-26T6:2:29Z</time></trkpt>
<trkpt lat="46.24564" lon="7.31744"><ele></ele><time>2025-8-26T6:2:32Z</time></trkpt>
<trkpt lat="46.24563" lon="7.31727"><ele></ele><time>2025-8-26T6:2:35Z</time></trkpt>
<trkpt lat="46.24565" lon="7.31713"><ele></ele><time>2025-8-26T6:2:38Z</time></trkpt>
<trkpt lat="46.24566" lon="7.31709"><ele></ele><time>2025-8-26T6:2:41Z</time></trkpt>
<trkpt lat="46.24568" lon="7.31696"><ele></ele><time>2025-8-26T6:2:44Z</time></trkpt>
<trkpt lat="46.24569" lon="7.3169"><ele></ele><time>2025-8-26T6:2:47Z</time></trkpt>
<trkpt lat="46.24571" lon="7.31679"><ele></ele><time>2025-8-26T6:2:50Z</time></trkpt>
<trkpt lat="46.24573" lon="7.31667"><ele></ele><time>2025-8-26T6:2:53Z</time></trkpt>
<trkpt lat="46.24573" lon="7.31663"><ele></ele><time>2025-8-26T6:2:56Z</time></trkpt>
<trkpt lat="46.24578" lon="7.31647"><ele></ele><time>2025-8-26T6:2:59Z</time></trkpt>
<trkpt lat="46.24581" lon="7.31634"><ele></ele><time>2025-8-26T6:3:2Z</time></trkpt>
<trkpt lat="46.24582" lon="7.31632"><ele></ele><time>2025-8-26T6:3:5Z</time></trkpt>
<trkpt lat="46.24586" lon="7.31615"><ele></ele><time>2025-8-26T6:3:8Z</time></trkpt>
<trkpt lat="46.24588" lon="7.31612"><ele></ele><time>2025-8-26T6:3:11Z</time></trkpt>
<trkpt lat="46.2459" lon="7.31601"><ele></ele><time>2025-8-26T6:3:14Z</time></trkpt>
<trkpt lat="46.24591" lon="7.31591"><ele></ele><time>2025-8-26T6:3:17Z</time></trkpt>
<trkpt lat="46.24592" lon="7.31587"><ele></ele><time>2025-8-26T6:3:20Z</time></trkpt>
<trkpt lat="46.24594" lon="7.31572"><ele></ele><time>2025-8-26T6:3:23Z</time></trkpt>
<trkpt lat="46.24594" lon="7.3157"><ele></ele><time>2025-8-26T6:3:26Z</time></trkpt>
<trkpt lat="46.24596" lon="7.31555"><ele></ele><time>2025-8-26T6:3:29Z</time></trkpt>
<trkpt lat="46.24597" lon="7.31548"><ele></ele><time>2025-8-26T6:3:32Z</time></trkpt>
<trkpt lat="46.24599" lon="7.31539"><ele></ele><time>2025-8-26T6:3:35Z</time></trkpt>
<trkpt lat="46.246" lon="7.31528"><ele></ele><time>2025-8-26T6:3:38Z</time></trkpt>
<trkpt lat="46.246" lon="7.31524"><ele></ele><time>2025-8-26T6:3:41Z</time></trkpt>
<trkpt lat="46.24603" lon="7.31509"><ele></ele><time>2025-8-26T6:3:44Z</time></trkpt>
<trkpt lat="46.24603" lon="7.31508"><ele></ele><time>2025-8-26T6:3:47Z</time></trkpt>
<trkpt lat="46.24605" lon="7.31493"><ele></ele><time>2025-8-26T6:3:50Z</time></trkpt>
<trkpt lat="46.24606" lon="7.31489"><ele></ele><time>2025-8-26T6:3:53Z</time></trkpt>
<trkpt lat="46.24607" lon="7.31478"><ele></ele><time>2025-8-26T6:3:56Z</time></trkpt>
<trkpt lat="46.24609" lon="7.31471"><ele></ele><time>2025-8-26T6:3:59Z</time></trkpt>
<trkpt lat="46.24611" lon="7.31461"><ele></ele><time>2025-8-26T6:4:2Z</time></trkpt>
<trkpt lat="46.24614" lon="7.31449"><ele></ele><time>2025-8-26T6:4:5Z</time></trkpt>
<trkpt lat="46.24614" lon="7.31447"><ele></ele><time>2025-8-26T6:4:8Z</time></trkpt>
<trkpt lat="46.24621" lon="7.31431"><ele></ele><time>2025-8-26T6:4:11Z</time></trkpt>
<trkpt lat="46.24627" lon="7.31419"><ele></ele><time>2025-8-26T6:4:14Z</time></trkpt>
<trkpt lat="46.24632" lon="7.31409"><ele></ele><time>2025-8-26T6:4:17Z</time></trkpt>
<trkpt lat="46.24634" lon="7.31406"><ele></ele><time>2025-8-26T6:4:20Z</time></trkpt>
<trkpt lat="46.24642" lon="7.31394"><ele></ele><time>2025-8-26T6:4:23Z</time></trkpt>
<trkpt lat="46.24643" lon="7.31392"><ele></ele><time>2025-8-26T6:4:26Z</time></trkpt>
<trkpt lat="46.2465" lon="7.31381"><ele></ele><time>2025-8-26T6:4:29Z</time></trkpt>
<trkpt lat="46.24651" lon="7.31379"><ele></ele><time>2025-8-26T6:4:32Z</time></trkpt>
<trkpt lat="46.24659" lon="7.31365"><ele></ele><time>2025-8-26T6:4:35Z</time></trkpt>
<trkpt lat="46.24669" lon="7.31354"><ele></ele><time>2025-8-26T6:4:38Z</time></trkpt>
<trkpt lat="46.24677" lon="7.31349"><ele></ele><time>2025-8-26T6:4:41Z</time></trkpt>
<trkpt lat="46.2468" lon="7.31349"><ele></ele><time>2025-8-26T6:4:44Z</time></trkpt>
<trkpt lat="46.24687" lon="7.3135"><ele></ele><time>2025-8-26T6:4:47Z</time></trkpt>
<trkpt lat="46.2469" lon="7.31352"><ele></ele><time>2025-8-26T6:4:50Z</time></trkpt>
<trkpt lat="46.24698" lon="7.31356"><ele></ele><time>2025-8-26T6:4:53Z</time></trkpt>
<trkpt lat="46.24705" lon="7.31361"><ele></ele><time>2025-8-26T6:4:56Z</time></trkpt>
<trkpt lat="46.24715" lon="7.31369"><ele></ele><time>2025-8-26T6:4:59Z</time></trkpt>
<trkpt lat="46.24724" lon="7.31379"><ele></ele><time>2025-8-26T6:5:2Z</time></trkpt>
<trkpt lat="46.24731" lon="7.31387"><ele></ele><time>2025-8-26T6:5:5Z</time></trkpt>
<trkpt lat="46.24733" lon="7.31391"><ele></ele><time>2025-8-26T6:5:8Z</time></trkpt>
<trkpt lat="46.24734" lon="7.31397"><ele></ele><time>2025-8-26T6:5:11Z</time></trkpt>
<trkpt lat="46.24731" lon="7.31403"><ele></ele><time>2025-8-26T6:5:14Z</time></trkpt>
<trkpt lat="46.24729" lon="7.31406"><ele></ele><time>2025-8-26T6:5:17Z</time></trkpt>
<trkpt lat="46.24725" lon="7.3141"><ele></ele><time>2025-8-26T6:5:20Z</time></trkpt>
<trkpt lat="46.24722" lon="7.31411"><ele></ele><time>2025-8-26T6:5:23Z</time></trkpt>
<trkpt lat="46.24721" lon="7.31411"><ele></ele><time>2025-8-26T6:5:26Z</time></trkpt>
<trkpt lat="46.24715" lon="7.31411"><ele></ele><time>2025-8-26T6:5:29Z</time></trkpt>
<trkpt lat="46.24711" lon="7.31413"><ele></ele><time>2025-8-26T6:5:32Z</time></trkpt>
<trkpt lat="46.24706" lon="7.31416"><ele></ele><time>2025-8-26T6:5:35Z</time></trkpt>
<trkpt lat="46.247" lon="7.31425"><ele></ele><time>2025-8-26T6:5:38Z</time></trkpt>
<trkpt lat="46.24699" lon="7.31429"><ele></ele><time>2025-8-26T6:5:41Z</time></trkpt>
<trkpt lat="46.24694" lon="7.31444"><ele></ele><time>2025-8-26T6:5:44Z</time></trkpt>
<trkpt lat="46.24693" lon="7.31448"><ele></ele><time>2025-8-26T6:5:47Z</time></trkpt>
<trkpt lat="46.2469" lon="7.31461"><ele></ele><time>2025-8-26T6:5:50Z</time></trkpt>
<trkpt lat="46.24689" lon="7.31463"><ele></ele><time>2025-8-26T6:5:53Z</time></trkpt>
<trkpt lat="46.24686" lon="7.31474"><ele></ele><time>2025-8-26T6:5:56Z</time></trkpt>
<trkpt lat="46.24686" lon="7.31476"><ele></ele><time>2025-8-26T6:5:59Z</time></trkpt>
<trkpt lat="46.24682" lon="7.31488"><ele></ele><time>2025-8-26T6:6:2Z</time></trkpt>
<trkpt lat="46.24682" lon="7.31491"><ele></ele><time>2025-8-26T6:6:5Z</time></trkpt>
<trkpt lat="46.2468" lon="7.315"><ele></ele><time>2025-8-26T6:6:8Z</time></trkpt>
<trkpt lat="46.2468" lon="7.31506"><ele></ele><time>2025-8-26T6:6:11Z</time></trkpt>
<trkpt lat="46.24679" lon="7.31517"><ele></ele><time>2025-8-26T6:6:14Z</time></trkpt>
<trkpt lat="46.2468" lon="7.31527"><ele></ele><time>2025-8-26T6:6:17Z</time></trkpt>
<trkpt lat="46.24682" lon="7.31537"><ele></ele><time>2025-8-26T6:6:20Z</time></trkpt>
<trkpt lat="46.24683" lon="7.31544"><ele></ele><time>2025-8-26T6:6:23Z</time></trkpt>
<trkpt lat="46.24686" lon="7.31556"><ele></ele><time>2025-8-26T6:6:26Z</time></trkpt>
<trkpt lat="46.24687" lon="7.31562"><ele></ele><time>2025-8-26T6:6:29Z</time></trkpt>
<trkpt lat="46.24691" lon="7.31579"><ele></ele><time>2025-8-26T6:6:32Z</time></trkpt>
<trkpt lat="46.24694" lon="7.31591"><ele></ele><time>2025-8-26T6:6:35Z</time></trkpt>
<trkpt lat="46.24696" lon="7.31596"><ele></ele><time>2025-8-26T6:6:38Z</time></trkpt>
<trkpt lat="46.24698" lon="7.31604"><ele></ele><time>2025-8-26T6:6:41Z</time></trkpt>
<trkpt lat="46.24701" lon="7.31615"><ele></ele><time>2025-8-26T6:6:44Z</time></trkpt>
<trkpt lat="46.24702" lon="7.31618"><ele></ele><time>2025-8-26T6:6:47Z</time></trkpt>
<trkpt lat="46.24704" lon="7.31629"><ele></ele><time>2025-8-26T6:6:50Z</time></trkpt>
<trkpt lat="46.24705" lon="7.31633"><ele></ele><time>2025-8-26T6:6:53Z</time></trkpt>
<trkpt lat="46.2471" lon="7.31646"><ele></ele><time>2025-8-26T6:6:56Z</time></trkpt>
<trkpt lat="46.24712" lon="7.31651"><ele></ele><time>2025-8-26T6:6:59Z</time></trkpt>
<trkpt lat="46.24715" lon="7.31662"><ele></ele><time>2025-8-26T6:7:2Z</time></trkpt>
<trkpt lat="46.24715" lon="7.31664"><ele></ele><time>2025-8-26T6:7:5Z</time></trkpt>
<trkpt lat="46.2472" lon="7.31678"><ele></ele><time>2025-8-26T6:7:8Z</time></trkpt>
<trkpt lat="46.24722" lon="7.31693"><ele></ele><time>2025-8-26T6:7:11Z</time></trkpt>
<trkpt lat="46.24723" lon="7.31712"><ele></ele><time>2025-8-26T6:7:14Z</time></trkpt>
<trkpt lat="46.24724" lon="7.31726"><ele></ele><time>2025-8-26T6:7:17Z</time></trkpt>
<trkpt lat="46.24724" lon="7.31728"><ele></ele><time>2025-8-26T6:7:20Z</time></trkpt>
<trkpt lat="46.24724" lon="7.31744"><ele></ele><time>2025-8-26T6:7:23Z</time></trkpt>
<trkpt lat="46.24725" lon="7.31746"><ele></ele><time>2025-8-26T6:7:26Z</time></trkpt>
<trkpt lat="46.24725" lon="7.31757"><ele></ele><time>2025-8-26T6:7:29Z</time></trkpt>
<trkpt lat="46.24726" lon="7.31764"><ele></ele><time>2025-8-26T6:7:32Z</time></trkpt>
<trkpt lat="46.24726" lon="7.31771"><ele></ele><time>2025-8-26T6:7:35Z</time></trkpt>
<trkpt lat="46.24727" lon="7.31779"><ele></ele><time>2025-8-26T6:7:38Z</time></trkpt>
<trkpt lat="46.24728" lon="7.31784"><ele></ele><time>2025-8-26T6:7:41Z</time></trkpt>
<trkpt lat="46.2473" lon="7.31797"><ele></ele><time>2025-8-26T6:7:44Z</time></trkpt>
<trkpt lat="46.24731" lon="7.31798"><ele></ele><time>2025-8-26T6:7:47Z</time></trkpt>
<trkpt lat="46.24735" lon="7.31812"><ele></ele><time>2025-8-26T6:7:50Z</time></trkpt>
<trkpt lat="46.24736" lon="7.31815"><ele></ele><time>2025-8-26T6:7:53Z</time></trkpt>
<trkpt lat="46.2474" lon="7.31824"><ele></ele><time>2025-8-26T6:7:56Z</time></trkpt>
<trkpt lat="46.24742" lon="7.31829"><ele></ele><time>2025-8-26T6:7:59Z</time></trkpt>
<trkpt lat="46.24749" lon="7.31841"><ele></ele><time>2025-8-26T6:8:2Z</time></trkpt>
<trkpt lat="46.2475" lon="7.31843"><ele></ele><time>2025-8-26T6:8:5Z</time></trkpt>
<trkpt lat="46.24757" lon="7.31854"><ele></ele><time>2025-8-26T6:8:8Z</time></trkpt>
<trkpt lat="46.24757" lon="7.31856"><ele></ele><time>2025-8-26T6:8:11Z</time></trkpt>
<trkpt lat="46.24763" lon="7.31867"><ele></ele><time>2025-8-26T6:8:14Z</time></trkpt>
<trkpt lat="46.24764" lon="7.31869"><ele></ele><time>2025-8-26T6:8:17Z</time></trkpt>
<trkpt lat="46.24768" lon="7.31881"><ele></ele><time>2025-8-26T6:8:20Z</time></trkpt>
<trkpt lat="46.24768" lon="7.31883"><ele></ele><time>2025-8-26T6:8:23Z</time></trkpt>
<trkpt lat="46.24766" lon="7.31894"><ele></ele><time>2025-8-26T6:8:26Z</time></trkpt>
<trkpt lat="46.24765" lon="7.31895"><ele></ele><time>2025-8-26T6:8:29Z</time></trkpt>
<trkpt lat="46.24759" lon="7.31904"><ele></ele><time>2025-8-26T6:8:32Z</time></trkpt>
<trkpt lat="46.24758" lon="7.31905"><ele></ele><time>2025-8-26T6:8:35Z</time></trkpt>
<trkpt lat="46.24754" lon="7.31913"><ele></ele><time>2025-8-26T6:8:38Z</time></trkpt>
<trkpt lat="46.24753" lon="7.31916"><ele></ele><time>2025-8-26T6:8:41Z</time></trkpt>
<trkpt lat="46.24749" lon="7.31927"><ele></ele><time>2025-8-26T6:8:44Z</time></trkpt>
<trkpt lat="46.24748" lon="7.3193"><ele></ele><time>2025-8-26T6:8:47Z</time></trkpt>
<trkpt lat="46.24746" lon="7.31941"><ele></ele><time>2025-8-26T6:8:50Z</time></trkpt>
<trkpt lat="46.24746" lon="7.31943"><ele></ele><time>2025-8-26T6:8:53Z</time></trkpt>
<trkpt lat="46.24747" lon="7.31958"><ele></ele><time>2025-8-26T6:8:56Z</time></trkpt>
<trkpt lat="46.24752" lon="7.31974"><ele></ele><time>2025-8-26T6:8:59Z</time></trkpt>
<trkpt lat="46.24752" lon="7.31976"><ele></ele><time>2025-8-26T6:9:2Z</time></trkpt>
<trkpt lat="46.24756" lon="7.31987"><ele></ele><time>2025-8-26T6:9:5Z</time></trkpt>
<trkpt lat="46.24757" lon="7.31991"><ele></ele><time>2025-8-26T6:9:8Z</time></trkpt>
<trkpt lat="46.24761" lon="7.32003"><ele></ele><time>2025-8-26T6:9:11Z</time></trkpt>
<trkpt lat="46.24763" lon="7.3201"><ele></ele><time>2025-8-26T6:9:14Z</time></trkpt>
<trkpt lat="46.24766" lon="7.32017"><ele></ele><time>2025-8-26T6:9:17Z</time></trkpt>
<trkpt lat="46.24769" lon="7.32024"><ele></ele><time>2025-8-26T6:9:20Z</time></trkpt>
<trkpt lat="46.24771" lon="7.32029"><ele></ele><time>2025-8-26T6:9:23Z</time></trkpt>
<trkpt lat="46.24777" lon="7.32041"><ele></ele><time>2025-8-26T6:9:26Z</time></trkpt>
<trkpt lat="46.24782" lon="7.32053"><ele></ele><time>2025-8-26T6:9:29Z</time></trkpt>
<trkpt lat="46.24783" lon="7.32054"><ele></ele><time>2025-8-26T6:9:32Z</time></trkpt>
<trkpt lat="46.24788" lon="7.32068"><ele></ele><time>2025-8-26T6:9:35Z</time></trkpt>
<trkpt lat="46.24789" lon="7.3207"><ele></ele><time>2025-8-26T6:9:38Z</time></trkpt>
<trkpt lat="46.24792" lon="7.32084"><ele></ele><time>2025-8-26T6:9:41Z</time></trkpt>
<trkpt lat="46.24793" lon="7.32087"><ele></ele><time>2025-8-26T6:9:44Z</time></trkpt>
<trkpt lat="46.24795" lon="7.32098"><ele></ele><time>2025-8-26T6:9:47Z</time></trkpt>
<trkpt lat="46.24797" lon="7.32103"><ele></ele><time>2025-8-26T6:9:50Z</time></trkpt>
<trkpt lat="46.248" lon="7.32105"><ele></ele><time>2025-8-26T6:9:53Z</time></trkpt>
<trkpt lat="46.24805" lon="7.32102"><ele></ele><time>2025-8-26T6:9:56Z</time></trkpt>
<trkpt lat="46.24805" lon="7.32089"><ele></ele><time>2025-8-26T6:9:59Z</time></trkpt>
<trkpt lat="46.24802" lon="7.3207"><ele></ele><time>2025-8-26T6:10:2Z</time></trkpt>
<trkpt lat="46.24802" lon="7.32067"><ele></ele><time>2025-8-26T6:10:5Z</time></trkpt>
<trkpt lat="46.24802" lon="7.32053"><ele></ele><time>2025-8-26T6:10:8Z</time></trkpt>
<trkpt lat="46.24801" lon="7.32048"><ele></ele><time>2025-8-26T6:10:11Z</time></trkpt>
<trkpt lat="46.24801" lon="7.32038"><ele></ele><time>2025-8-26T6:10:14Z</time></trkpt>
<trkpt lat="46.24801" lon="7.32028"><ele></ele><time>2025-8-26T6:10:17Z</time></trkpt>
<trkpt lat="46.24801" lon="7.32019"><ele></ele><time>2025-8-26T6:10:20Z</time></trkpt>
<trkpt lat="46.24801" lon="7.32011"><ele></ele><time>2025-8-26T6:10:23Z</time></trkpt>
<trkpt lat="46.248" lon="7.32004"><ele></ele><time>2025-8-26T6:10:26Z</time></trkpt>
<trkpt lat="46.248" lon="7.31997"><ele></ele><time>2025-8-26T6:10:29Z</time></trkpt>
<trkpt lat="46.24802" lon="7.31979"><ele></ele><time>2025-8-26T6:10:32Z</time></trkpt>
<trkpt lat="46.24803" lon="7.31976"><ele></ele><time>2025-8-26T6:10:35Z</time></trkpt>
<trkpt lat="46.24808" lon="7.31965"><ele></ele><time>2025-8-26T6:10:38Z</time></trkpt>
<trkpt lat="46.24818" lon="7.3195"><ele></ele><time>2025-8-26T6:10:41Z</time></trkpt>
<trkpt lat="46.24832" lon="7.3193"><ele></ele><time>2025-8-26T6:10:44Z</time></trkpt>
<trkpt lat="46.24836" lon="7.31923"><ele></ele><time>2025-8-26T6:10:47Z</time></trkpt>
<trkpt lat="46.24837" lon="7.31907"><ele></ele><time>2025-8-26T6:10:50Z</time></trkpt>
<trkpt lat="46.24832" lon="7.31892"><ele></ele><time>2025-8-26T6:10:53Z</time></trkpt>
<trkpt lat="46.2483" lon="7.31884"><ele></ele><time>2025-8-26T6:10:56Z</time></trkpt>
<trkpt lat="46.24828" lon="7.31865"><ele></ele><time>2025-8-26T6:10:59Z</time></trkpt>
<trkpt lat="46.24828" lon="7.31858"><ele></ele><time>2025-8-26T6:11:2Z</time></trkpt>
<trkpt lat="46.24834" lon="7.31839"><ele></ele><time>2025-8-26T6:11:5Z</time></trkpt>
<trkpt lat="46.24839" lon="7.31834"><ele></ele><time>2025-8-26T6:11:8Z</time></trkpt>
<trkpt lat="46.2484" lon="7.31833"><ele></ele><time>2025-8-26T6:11:11Z</time></trkpt>
<trkpt lat="46.24841" lon="7.31832"><ele></ele><time>2025-8-26T6:11:14Z</time></trkpt>
<trkpt lat="46.24842" lon="7.3183"><ele></ele><time>2025-8-26T6:11:17Z</time></trkpt>
<trkpt lat="46.24843" lon="7.31827"><ele></ele><time>2025-8-26T6:11:20Z</time></trkpt>
<trkpt lat="46.24846" lon="7.31817"><ele></ele><time>2025-8-26T6:11:23Z</time></trkpt>
<trkpt lat="46.24848" lon="7.31811"><ele></ele><time>2025-8-26T6:11:26Z</time></trkpt>
<trkpt lat="46.2485" lon="7.318"><ele></ele><time>2025-8-26T6:11:29Z</time></trkpt>
<trkpt lat="46.24853" lon="7.31786"><ele></ele><time>2025-8-26T6:11:32Z</time></trkpt>
<trkpt lat="46.24853" lon="7.31784"><ele></ele><time>2025-8-26T6:11:35Z</time></trkpt>
<trkpt lat="46.24856" lon="7.3177"><ele></ele><time>2025-8-26T6:11:38Z</time></trkpt>
<trkpt lat="46.24857" lon="7.31768"><ele></ele><time>2025-8-26T6:11:41Z</time></trkpt>
<trkpt lat="46.24859" lon="7.31753"><ele></ele><time>2025-8-26T6:11:44Z</time></trkpt>
<trkpt lat="46.2486" lon="7.3175"><ele></ele><time>2025-8-26T6:11:47Z</time></trkpt>
<trkpt lat="46.24861" lon="7.31736"><ele></ele><time>2025-8-26T6:11:50Z</time></trkpt>
<trkpt lat="46.24861" lon="7.31733"><ele></ele><time>2025-8-26T6:11:53Z</time></trkpt>
<trkpt lat="46.24863" lon="7.31718"><ele></ele><time>2025-8-26T6:11:56Z</time></trkpt>
<trkpt lat="46.24864" lon="7.31714"><ele></ele><time>2025-8-26T6:11:59Z</time></trkpt>
<trkpt lat="46.24868" lon="7.31696"><ele></ele><time>2025-8-26T6:12:2Z</time></trkpt>
<trkpt lat="46.24868" lon="7.31693"><ele></ele><time>2025-8-26T6:12:5Z</time></trkpt>
<trkpt lat="46.24874" lon="7.31675"><ele></ele><time>2025-8-26T6:12:8Z</time></trkpt>
<trkpt lat="46.24875" lon="7.31673"><ele></ele><time>2025-8-26T6:12:11Z</time></trkpt>
<trkpt lat="46.2488" lon="7.31665"><ele></ele><time>2025-8-26T6:12:14Z</time></trkpt>
<trkpt lat="46.24881" lon="7.31663"><ele></ele><time>2025-8-26T6:12:17Z</time></trkpt>
<trkpt lat="46.24886" lon="7.31653"><ele></ele><time>2025-8-26T6:12:20Z</time></trkpt>
<trkpt lat="46.24887" lon="7.31651"><ele></ele><time>2025-8-26T6:12:23Z</time></trkpt>
<trkpt lat="46.24899" lon="7.31637"><ele></ele><time>2025-8-26T6:12:26Z</time></trkpt>
<trkpt lat="46.24917" lon="7.31621"><ele></ele><time>2025-8-26T6:12:29Z</time></trkpt>
<trkpt lat="46.24925" lon="7.31612"><ele></ele><time>2025-8-26T6:12:32Z</time></trkpt>
<trkpt lat="46.24941" lon="7.31596"><ele></ele><time>2025-8-26T6:12:35Z</time></trkpt>
<trkpt lat="46.24956" lon="7.31585"><ele></ele><time>2025-8-26T6:12:38Z</time></trkpt>
<trkpt lat="46.24965" lon="7.31582"><ele></ele><time>2025-8-26T6:12:41Z</time></trkpt>
<trkpt lat="46.24974" lon="7.3158"><ele></ele><time>2025-8-26T6:12:44Z</time></trkpt>
<trkpt lat="46.24994" lon="7.31577"><ele></ele><time>2025-8-26T6:12:47Z</time></trkpt>
<trkpt lat="46.25005" lon="7.31576"><ele></ele><time>2025-8-26T6:12:50Z</time></trkpt>
<trkpt lat="46.25016" lon="7.31575"><ele></ele><time>2025-8-26T6:12:53Z</time></trkpt>
<trkpt lat="46.25028" lon="7.31574"><ele></ele><time>2025-8-26T6:12:56Z</time></trkpt>
<trkpt lat="46.25052" lon="7.31572"><ele></ele><time>2025-8-26T6:12:59Z</time></trkpt>
<trkpt lat="46.25075" lon="7.3157"><ele></ele><time>2025-8-26T6:13:2Z</time></trkpt>
<trkpt lat="46.25086" lon="7.31572"><ele></ele><time>2025-8-26T6:13:5Z</time></trkpt>
<trkpt lat="46.25096" lon="7.31579"><ele></ele><time>2025-8-26T6:13:8Z</time></trkpt>
<trkpt lat="46.25106" lon="7.31589"><ele></ele><time>2025-8-26T6:13:11Z</time></trkpt>
<trkpt lat="46.25116" lon="7.31598"><ele></ele><time>2025-8-26T6:13:14Z</time></trkpt>
<trkpt lat="46.25136" lon="7.31614"><ele></ele><time>2025-8-26T6:13:17Z</time></trkpt>
<trkpt lat="46.25158" lon="7.31626"><ele></ele><time>2025-8-26T6:13:20Z</time></trkpt>
<trkpt lat="46.2519" lon="7.31638"><ele></ele><time>2025-8-26T6:13:23Z</time></trkpt>
<trkpt lat="46.25211" lon="7.31644"><ele></ele><time>2025-8-26T6:13:26Z</time></trkpt>
<trkpt lat="46.25222" lon="7.31646"><ele></ele><time>2025-8-26T6:13:29Z</time></trkpt>
<trkpt lat="46.25254" lon="7.31655"><ele></ele><time>2025-8-26T6:13:32Z</time></trkpt>
<trkpt lat="46.25274" lon="7.31661"><ele></ele><time>2025-8-26T6:13:35Z</time></trkpt>
<trkpt lat="46.25284" lon="7.31662"><ele></ele><time>2025-8-26T6:13:38Z</time></trkpt>
<trkpt lat="46.25303" lon="7.31661"><ele></ele><time>2025-8-26T6:13:41Z</time></trkpt>
<trkpt lat="46.25321" lon="7.31655"><ele></ele><time>2025-8-26T6:13:44Z</time></trkpt>
<trkpt lat="46.25337" lon="7.31643"><ele></ele><time>2025-8-26T6:13:47Z</time></trkpt>
<trkpt lat="46.25344" lon="7.31634"><ele></ele><time>2025-8-26T6:13:50Z</time></trkpt>
<trkpt lat="46.25349" lon="7.31624"><ele></ele><time>2025-8-26T6:13:53Z</time></trkpt>
<trkpt lat="46.25355" lon="7.31613"><ele></ele><time>2025-8-26T6:13:56Z</time></trkpt>
<trkpt lat="46.25367" lon="7.3159"><ele></ele><time>2025-8-26T6:13:59Z</time></trkpt>
<trkpt lat="46.25375" lon="7.31581"><ele></ele><time>2025-8-26T6:14:2Z</time></trkpt>
<trkpt lat="46.25385" lon="7.31575"><ele></ele><time>2025-8-26T6:14:5Z</time></trkpt>
<trkpt lat="46.25395" lon="7.31575"><ele></ele><time>2025-8-26T6:14:8Z</time></trkpt>
<trkpt lat="46.25406" lon="7.31577"><ele></ele><time>2025-8-26T6:14:11Z</time></trkpt>
<trkpt lat="46.25426" lon="7.31583"><ele></ele><time>2025-8-26T6:14:14Z</time></trkpt>
<trkpt lat="46.25443" lon="7.31602"><ele></ele><time>2025-8-26T6:14:17Z</time></trkpt>
<trkpt lat="46.25457" lon="7.31627"><ele></ele><time>2025-8-26T6:14:20Z</time></trkpt>
<trkpt lat="46.25466" lon="7.31656"><ele></ele><time>2025-8-26T6:14:23Z</time></trkpt>
<trkpt lat="46.25472" lon="7.3167"><ele></ele><time>2025-8-26T6:14:26Z</time></trkpt>
<trkpt lat="46.2548" lon="7.31682"><ele></ele><time>2025-8-26T6:14:29Z</time></trkpt>
<trkpt lat="46.25489" lon="7.31693"><ele></ele><time>2025-8-26T6:14:32Z</time></trkpt>
<trkpt lat="46.25507" lon="7.31715"><ele></ele><time>2025-8-26T6:14:35Z</time></trkpt>
<trkpt lat="46.25521" lon="7.31743"><ele></ele><time>2025-8-26T6:14:38Z</time></trkpt>
<trkpt lat="46.25529" lon="7.31755"><ele></ele><time>2025-8-26T6:14:41Z</time></trkpt>
<trkpt lat="46.25539" lon="7.31765"><ele></ele><time>2025-8-26T6:14:44Z</time></trkpt>
<trkpt lat="46.25549" lon="7.31773"><ele></ele><time>2025-8-26T6:14:47Z</time></trkpt>
<trkpt lat="46.2556" lon="7.31778"><ele></ele><time>2025-8-26T6:14:50Z</time></trkpt>
<trkpt lat="46.25572" lon="7.31778"><ele></ele><time>2025-8-26T6:14:53Z</time></trkpt>
<trkpt lat="46.25593" lon="7.31767"><ele></ele><time>2025-8-26T6:14:56Z</time></trkpt>
<trkpt lat="46.2561" lon="7.31749"><ele></ele><time>2025-8-26T6:14:59Z</time></trkpt>
<trkpt lat="46.2562" lon="7.31744"><ele></ele><time>2025-8-26T6:15:2Z</time></trkpt>
<trkpt lat="46.2564" lon="7.31747"><ele></ele><time>2025-8-26T6:15:5Z</time></trkpt>
<trkpt lat="46.2565" lon="7.31751"><ele></ele><time>2025-8-26T6:15:8Z</time></trkpt>
<trkpt lat="46.25661" lon="7.31752"><ele></ele><time>2025-8-26T6:15:11Z</time></trkpt>
<trkpt lat="46.25672" lon="7.3175"><ele></ele><time>2025-8-26T6:15:14Z</time></trkpt>
<trkpt lat="46.25682" lon="7.31747"><ele></ele><time>2025-8-26T6:15:17Z</time></trkpt>
<trkpt lat="46.25693" lon="7.31747"><ele></ele><time>2025-8-26T6:15:20Z</time></trkpt>
<trkpt lat="46.25704" lon="7.31748"><ele></ele><time>2025-8-26T6:15:23Z</time></trkpt>
<trkpt lat="46.25715" lon="7.31751"><ele></ele><time>2025-8-26T6:15:26Z</time></trkpt>
<trkpt lat="46.25726" lon="7.31753"><ele></ele><time>2025-8-26T6:15:29Z</time></trkpt>
<trkpt lat="46.25749" lon="7.31758"><ele></ele><time>2025-8-26T6:15:32Z</time></trkpt>
<trkpt lat="46.2577" lon="7.31775"><ele></ele><time>2025-8-26T6:15:35Z</time></trkpt>
<trkpt lat="46.25781" lon="7.31784"><ele></ele><time>2025-8-26T6:15:38Z</time></trkpt>
<trkpt lat="46.25793" lon="7.31792"><ele></ele><time>2025-8-26T6:15:41Z</time></trkpt>
<trkpt lat="46.25826" lon="7.31805"><ele></ele><time>2025-8-26T6:15:44Z</time></trkpt>
<trkpt lat="46.25845" lon="7.318"><ele></ele><time>2025-8-26T6:15:47Z</time></trkpt>
<trkpt lat="46.25855" lon="7.31794"><ele></ele><time>2025-8-26T6:15:50Z</time></trkpt>
<trkpt lat="46.25889" lon="7.31778"><ele></ele><time>2025-8-26T6:15:53Z</time></trkpt>
<trkpt lat="46.25906" lon="7.31783"><ele></ele><time>2025-8-26T6:15:56Z</time></trkpt>
<trkpt lat="46.25913" lon="7.3179"><ele></ele><time>2025-8-26T6:15:59Z</time></trkpt>
<trkpt lat="46.25919" lon="7.31795"><ele></ele><time>2025-8-26T6:16:2Z</time></trkpt>
<trkpt lat="46.25934" lon="7.31814"><ele></ele><time>2025-8-26T6:16:5Z</time></trkpt>
<trkpt lat="46.25938" lon="7.31819"><ele></ele><time>2025-8-26T6:16:8Z</time></trkpt>
<trkpt lat="46.25954" lon="7.31833"><ele></ele><time>2025-8-26T6:16:11Z</time></trkpt>
<trkpt lat="46.25965" lon="7.3184"><ele></ele><time>2025-8-26T6:16:14Z</time></trkpt>
<trkpt lat="46.2597" lon="7.31843"><ele></ele><time>2025-8-26T6:16:17Z</time></trkpt>
<trkpt lat="46.2598" lon="7.31849"><ele></ele><time>2025-8-26T6:16:20Z</time></trkpt>
<trkpt lat="46.25986" lon="7.31852"><ele></ele><time>2025-8-26T6:16:23Z</time></trkpt>
<trkpt lat="46.25996" lon="7.31856"><ele></ele><time>2025-8-26T6:16:26Z</time></trkpt>
<trkpt lat="46.26001" lon="7.31859"><ele></ele><time>2025-8-26T6:16:29Z</time></trkpt>
<trkpt lat="46.26012" lon="7.31868"><ele></ele><time>2025-8-26T6:16:32Z</time></trkpt>
<trkpt lat="46.26017" lon="7.31875"><ele></ele><time>2025-8-26T6:16:35Z</time></trkpt>
<trkpt lat="46.26022" lon="7.31885"><ele></ele><time>2025-8-26T6:16:38Z</time></trkpt>
<trkpt lat="46.26029" lon="7.31898"><ele></ele><time>2025-8-26T6:16:41Z</time></trkpt>
<trkpt lat="46.26035" lon="7.31905"><ele></ele><time>2025-8-26T6:16:44Z</time></trkpt>
<trkpt lat="46.2604" lon="7.31909"><ele></ele><time>2025-8-26T6:16:47Z</time></trkpt>
<trkpt lat="46.26045" lon="7.31913"><ele></ele><time>2025-8-26T6:16:50Z</time></trkpt>
<trkpt lat="46.26064" lon="7.3192"><ele></ele><time>2025-8-26T6:16:53Z</time></trkpt>
<trkpt lat="46.26074" lon="7.31919"><ele></ele><time>2025-8-26T6:16:56Z</time></trkpt>
<trkpt lat="46.26086" lon="7.31917"><ele></ele><time>2025-8-26T6:16:59Z</time></trkpt>
<trkpt lat="46.26105" lon="7.31914"><ele></ele><time>2025-8-26T6:17:2Z</time></trkpt>
<trkpt lat="46.26121" lon="7.31912"><ele></ele><time>2025-8-26T6:17:5Z</time></trkpt>
<trkpt lat="46.26134" lon="7.31914"><ele></ele><time>2025-8-26T6:17:8Z</time></trkpt>
<trkpt lat="46.26138" lon="7.31916"><ele></ele><time>2025-8-26T6:17:11Z</time></trkpt>
<trkpt lat="46.26143" lon="7.31916"><ele></ele><time>2025-8-26T6:17:14Z</time></trkpt>
<trkpt lat="46.26148" lon="7.31916"><ele></ele><time>2025-8-26T6:17:17Z</time></trkpt>
<trkpt lat="46.26155" lon="7.31919"><ele></ele><time>2025-8-26T6:17:20Z</time></trkpt>
<trkpt lat="46.26164" lon="7.31922"><ele></ele><time>2025-8-26T6:17:23Z</time></trkpt>
<trkpt lat="46.26167" lon="7.31923"><ele></ele><time>2025-8-26T6:17:26Z</time></trkpt>
<trkpt lat="46.26177" lon="7.3192"><ele></ele><time>2025-8-26T6:17:29Z</time></trkpt>
<trkpt lat="46.26179" lon="7.31919"><ele></ele><time>2025-8-26T6:17:32Z</time></trkpt>
<trkpt lat="46.2619" lon="7.3192"><ele></ele><time>2025-8-26T6:17:35Z</time></trkpt>
<trkpt lat="46.26199" lon="7.3193"><ele></ele><time>2025-8-26T6:17:38Z</time></trkpt>
<trkpt lat="46.26203" lon="7.31934"><ele></ele><time>2025-8-26T6:17:41Z</time></trkpt>
<trkpt lat="46.26211" lon="7.3194"><ele></ele><time>2025-8-26T6:17:44Z</time></trkpt>
<trkpt lat="46.26213" lon="7.31941"><ele></ele><time>2025-8-26T6:17:47Z</time></trkpt>
<trkpt lat="46.26221" lon="7.3195"><ele></ele><time>2025-8-26T6:17:50Z</time></trkpt>
<trkpt lat="46.26223" lon="7.31952"><ele></ele><time>2025-8-26T6:17:53Z</time></trkpt>
<trkpt lat="46.26233" lon="7.31959"><ele></ele><time>2025-8-26T6:17:56Z</time></trkpt>
<trkpt lat="46.26234" lon="7.3196"><ele></ele><time>2025-8-26T6:17:59Z</time></trkpt>
<trkpt lat="46.26245" lon="7.31965"><ele></ele><time>2025-8-26T6:18:2Z</time></trkpt>
<trkpt lat="46.26247" lon="7.31966"><ele></ele><time>2025-8-26T6:18:5Z</time></trkpt>
<trkpt lat="46.26257" lon="7.31971"><ele></ele><time>2025-8-26T6:18:8Z</time></trkpt>
<trkpt lat="46.26259" lon="7.31972"><ele></ele><time>2025-8-26T6:18:11Z</time></trkpt>
<trkpt lat="46.26269" lon="7.31979"><ele></ele><time>2025-8-26T6:18:14Z</time></trkpt>
<trkpt lat="46.26282" lon="7.31986"><ele></ele><time>2025-8-26T6:18:17Z</time></trkpt>
<trkpt lat="46.26284" lon="7.31987"><ele></ele><time>2025-8-26T6:18:20Z</time></trkpt>
<trkpt lat="46.26295" lon="7.31998"><ele></ele><time>2025-8-26T6:18:23Z</time></trkpt>
<trkpt lat="46.26297" lon="7.32001"><ele></ele><time>2025-8-26T6:18:26Z</time></trkpt>
<trkpt lat="46.26302" lon="7.32011"><ele></ele><time>2025-8-26T6:18:29Z</time></trkpt>
<trkpt lat="46.26304" lon="7.32016"><ele></ele><time>2025-8-26T6:18:32Z</time></trkpt>
<trkpt lat="46.26307" lon="7.32021"><ele></ele><time>2025-8-26T6:18:35Z</time></trkpt>
<trkpt lat="46.26312" lon="7.32026"><ele></ele><time>2025-8-26T6:18:38Z</time></trkpt>
<trkpt lat="46.26316" lon="7.3203"><ele></ele><time>2025-8-26T6:18:41Z</time></trkpt>
<trkpt lat="46.26322" lon="7.32034"><ele></ele><time>2025-8-26T6:18:44Z</time></trkpt>
<trkpt lat="46.26323" lon="7.32035"><ele></ele><time>2025-8-26T6:18:47Z</time></trkpt>
<trkpt lat="46.2633" lon="7.32038"><ele></ele><time>2025-8-26T6:18:50Z</time></trkpt>
<trkpt lat="46.26332" lon="7.32039"><ele></ele><time>2025-8-26T6:18:53Z</time></trkpt>
<trkpt lat="46.26336" lon="7.32039"><ele></ele><time>2025-8-26T6:18:56Z</time></trkpt>
<trkpt lat="46.26341" lon="7.32038"><ele></ele><time>2025-8-26T6:18:59Z</time></trkpt>
<trkpt lat="46.26344" lon="7.32038"><ele></ele><time>2025-8-26T6:19:2Z</time></trkpt>
<trkpt lat="46.26348" lon="7.32037"><ele></ele><time>2025-8-26T6:19:5Z</time></trkpt>
<trkpt lat="46.26352" lon="7.32036"><ele></ele><time>2025-8-26T6:19:8Z</time></trkpt>
<trkpt lat="46.2636" lon="7.32037"><ele></ele><time>2025-8-26T6:19:11Z</time></trkpt>
<trkpt lat="46.26361" lon="7.32037"><ele></ele><time>2025-8-26T6:19:14Z</time></trkpt>
<trkpt lat="46.26368" lon="7.32036"><ele></ele><time>2025-8-26T6:19:17Z</time></trkpt>
<trkpt lat="46.26371" lon="7.32037"><ele></ele><time>2025-8-26T6:19:20Z</time></trkpt>
<trkpt lat="46.26375" lon="7.32037"><ele></ele><time>2025-8-26T6:19:23Z</time></trkpt>
<trkpt lat="46.2638" lon="7.32037"><ele></ele><time>2025-8-26T6:19:26Z</time></trkpt>
<trkpt lat="46.26385" lon="7.32036"><ele></ele><time>2025-8-26T6:19:29Z</time></trkpt>
<trkpt lat="46.26387" lon="7.32036"><ele></ele><time>2025-8-26T6:19:32Z</time></trkpt>
<trkpt lat="46.26392" lon="7.32036"><ele></ele><time>2025-8-26T6:19:35Z</time></trkpt>
<trkpt lat="46.26396" lon="7.32036"><ele></ele><time>2025-8-26T6:19:38Z</time></trkpt>
<trkpt lat="46.264" lon="7.32036"><ele></ele><time>2025-8-26T6:19:41Z</time></trkpt>
<trkpt lat="46.26403" lon="7.32035"><ele></ele><time>2025-8-26T6:19:44Z</time></trkpt>
<trkpt lat="46.2641" lon="7.32035"><ele></ele><time>2025-8-26T6:19:47Z</time></trkpt>
<trkpt lat="46.26412" lon="7.32035"><ele></ele><time>2025-8-26T6:19:50Z</time></trkpt>
<trkpt lat="46.26415" lon="7.32035"><ele></ele><time>2025-8-26T6:19:53Z</time></trkpt>
<trkpt lat="46.26419" lon="7.32037"><ele></ele><time>2025-8-26T6:19:56Z</time></trkpt>
<trkpt lat="46.26422" lon="7.32038"><ele></ele><time>2025-8-26T6:19:59Z</time></trkpt>
<trkpt lat="46.26428" lon="7.32042"><ele></ele><time>2025-8-26T6:20:2Z</time></trkpt>
<trkpt lat="46.26434" lon="7.32048"><ele></ele><time>2025-8-26T6:20:5Z</time></trkpt>
<trkpt lat="46.26435" lon="7.32049"><ele></ele><time>2025-8-26T6:20:8Z</time></trkpt>
<trkpt lat="46.26441" lon="7.32055"><ele></ele><time>2025-8-26T6:20:11Z</time></trkpt>
<trkpt lat="46.26447" lon="7.3206"><ele></ele><time>2025-8-26T6:20:14Z</time></trkpt>
<trkpt lat="46.26448" lon="7.32061"><ele></ele><time>2025-8-26T6:20:17Z</time></trkpt>
<trkpt lat="46.26454" lon="7.32067"><ele></ele><time>2025-8-26T6:20:20Z</time></trkpt>
<trkpt lat="46.26455" lon="7.32068"><ele></ele><time>2025-8-26T6:20:23Z</time></trkpt>
<trkpt lat="46.26459" lon="7.32073"><ele></ele><time>2025-8-26T6:20:26Z</time></trkpt>
<trkpt lat="46.26461" lon="7.32075"><ele></ele><time>2025-8-26T6:20:29Z</time></trkpt>
<trkpt lat="46.26465" lon="7.3208"><ele></ele><time>2025-8-26T6:20:32Z</time></trkpt>
<trkpt lat="46.26466" lon="7.32081"><ele></ele><time>2025-8-26T6:20:35Z</time></trkpt>
<trkpt lat="46.26468" lon="7.32082"><ele></ele><time>2025-8-26T6:20:38Z</time></trkpt>
<trkpt lat="46.26474" lon="7.32086"><ele></ele><time>2025-8-26T6:20:41Z</time></trkpt>
<trkpt lat="46.26475" lon="7.32087"><ele></ele><time>2025-8-26T6:20:44Z</time></trkpt>
<trkpt lat="46.26482" lon="7.32089"><ele></ele><time>2025-8-26T6:20:47Z</time></trkpt>
<trkpt lat="46.26483" lon="7.3209"><ele></ele><time>2025-8-26T6:20:50Z</time></trkpt>
<trkpt lat="46.2649" lon="7.32094"><ele></ele><time>2025-8-26T6:20:53Z</time></trkpt>
<trkpt lat="46.26496" lon="7.32091"><ele></ele><time>2025-8-26T6:20:56Z</time></trkpt>
<trkpt lat="46.26501" lon="7.32091"><ele></ele><time>2025-8-26T6:20:59Z</time></trkpt>
<trkpt lat="46.26504" lon="7.32092"><ele></ele><time>2025-8-26T6:21:2Z</time></trkpt>
<trkpt lat="46.26509" lon="7.32096"><ele></ele><time>2025-8-26T6:21:5Z</time></trkpt>
<trkpt lat="46.2651" lon="7.32097"><ele></ele><time>2025-8-26T6:21:8Z</time></trkpt>
<trkpt lat="46.26514" lon="7.32101"><ele></ele><time>2025-8-26T6:21:11Z</time></trkpt>
<trkpt lat="46.26519" lon="7.32105"><ele></ele><time>2025-8-26T6:21:14Z</time></trkpt>
<trkpt lat="46.26523" lon="7.32107"><ele></ele><time>2025-8-26T6:21:17Z</time></trkpt>
<trkpt lat="46.2653" lon="7.3211"><ele></ele><time>2025-8-26T6:21:20Z</time></trkpt>
<trkpt lat="46.26531" lon="7.32111"><ele></ele><time>2025-8-26T6:21:23Z</time></trkpt>
<trkpt lat="46.26539" lon="7.32116"><ele></ele><time>2025-8-26T6:21:26Z</time></trkpt>
<trkpt lat="46.26545" lon="7.32123"><ele></ele><time>2025-8-26T6:21:29Z</time></trkpt>
<trkpt lat="46.26546" lon="7.32124"><ele></ele><time>2025-8-26T6:21:32Z</time></trkpt>
<trkpt lat="46.2655" lon="7.32132"><ele></ele><time>2025-8-26T6:21:35Z</time></trkpt>
<trkpt lat="46.26551" lon="7.32134"><ele></ele><time>2025-8-26T6:21:38Z</time></trkpt>
<trkpt lat="46.26555" lon="7.32144"><ele></ele><time>2025-8-26T6:21:41Z</time></trkpt>
<trkpt lat="46.26556" lon="7.32147"><ele></ele><time>2025-8-26T6:21:44Z</time></trkpt>
<trkpt lat="46.26558" lon="7.32154"><ele></ele><time>2025-8-26T6:21:47Z</time></trkpt>
<trkpt lat="46.26559" lon="7.32157"><ele></ele><time>2025-8-26T6:21:50Z</time></trkpt>
<trkpt lat="46.26563" lon="7.32163"><ele></ele><time>2025-8-26T6:21:53Z</time></trkpt>
<trkpt lat="46.26565" lon="7.32166"><ele></ele><time>2025-8-26T6:21:56Z</time></trkpt>
<trkpt lat="46.26568" lon="7.32169"><ele></ele><time>2025-8-26T6:21:59Z</time></trkpt>
<trkpt lat="46.2657" lon="7.3217"><ele></ele><time>2025-8-26T6:22:2Z</time></trkpt>
<trkpt lat="46.26572" lon="7.32172"><ele></ele><time>2025-8-26T6:22:5Z</time></trkpt>
<trkpt lat="46.26577" lon="7.32173"><ele></ele><time>2025-8-26T6:22:8Z</time></trkpt>
<trkpt lat="46.26578" lon="7.32173"><ele></ele><time>2025-8-26T6:22:11Z</time></trkpt>
<trkpt lat="46.26586" lon="7.32168"><ele></ele><time>2025-8-26T6:22:14Z</time></trkpt>
<trkpt lat="46.26592" lon="7.32162"><ele></ele><time>2025-8-26T6:22:17Z</time></trkpt>
<trkpt lat="46.26594" lon="7.3216"><ele></ele><time>2025-8-26T6:22:20Z</time></trkpt>
<trkpt lat="46.266" lon="7.32159"><ele></ele><time>2025-8-26T6:22:23Z</time></trkpt>
<trkpt lat="46.26602" lon="7.32159"><ele></ele><time>2025-8-26T6:22:26Z</time></trkpt>
<trkpt lat="46.26606" lon="7.32159"><ele></ele><time>2025-8-26T6:22:29Z</time></trkpt>
<trkpt lat="46.2661" lon="7.3216"><ele></ele><time>2025-8-26T6:22:32Z</time></trkpt>
<trkpt lat="46.26611" lon="7.32161"><ele></ele><time>2025-8-26T6:22:35Z</time></trkpt>
<trkpt lat="46.26616" lon="7.32163"><ele></ele><time>2025-8-26T6:22:38Z</time></trkpt>
<trkpt lat="46.26618" lon="7.32163"><ele></ele><time>2025-8-26T6:22:41Z</time></trkpt>
<trkpt lat="46.26621" lon="7.32164"><ele></ele><time>2025-8-26T6:22:44Z</time></trkpt>
<trkpt lat="46.26622" lon="7.32165"><ele></ele><time>2025-8-26T6:22:47Z</time></trkpt>
<trkpt lat="46.26626" lon="7.32166"><ele></ele><time>2025-8-26T6:22:50Z</time></trkpt>
<trkpt lat="46.26628" lon="7.32167"><ele></ele><time>2025-8-26T6:22:53Z</time></trkpt>
<trkpt lat="46.2663" lon="7.32167"><ele></ele><time>2025-8-26T6:22:56Z</time></trkpt>
<trkpt lat="46.26635" lon="7.32167"><ele></ele><time>2025-8-26T6:22:59Z</time></trkpt>
<trkpt lat="46.26638" lon="7.32167"><ele></ele><time>2025-8-26T6:23:2Z</time></trkpt>
<trkpt lat="46.26642" lon="7.32167"><ele></ele><time>2025-8-26T6:23:5Z</time></trkpt>
<trkpt lat="46.26647" lon="7.32164"><ele></ele><time>2025-8-26T6:23:8Z</time></trkpt>
<trkpt lat="46.2665" lon="7.32163"><ele></ele><time>2025-8-26T6:23:11Z</time></trkpt>
<trkpt lat="46.26657" lon="7.3216"><ele></ele><time>2025-8-26T6:23:14Z</time></trkpt>
<trkpt lat="46.2666" lon="7.32158"><ele></ele><time>2025-8-26T6:23:17Z</time></trkpt>
<trkpt lat="46.26665" lon="7.32156"><ele></ele><time>2025-8-26T6:23:20Z</time></trkpt>
<trkpt lat="46.26667" lon="7.32155"><ele></ele><time>2025-8-26T6:23:23Z</time></trkpt>
<trkpt lat="46.26671" lon="7.32154"><ele></ele><time>2025-8-26T6:23:26Z</time></trkpt>
<trkpt lat="46.26674" lon="7.32154"><ele></ele><time>2025-8-26T6:23:29Z</time></trkpt>
<trkpt lat="46.2668" lon="7.32154"><ele></ele><time>2025-8-26T6:23:32Z</time></trkpt>
<trkpt lat="46.26683" lon="7.32154"><ele></ele><time>2025-8-26T6:23:35Z</time></trkpt>
<trkpt lat="46.2669" lon="7.32157"><ele></ele><time>2025-8-26T6:23:38Z</time></trkpt>
<trkpt lat="46.26696" lon="7.32158"><ele></ele><time>2025-8-26T6:23:41Z</time></trkpt>
<trkpt lat="46.26699" lon="7.32159"><ele></ele><time>2025-8-26T6:23:44Z</time></trkpt>
<trkpt lat="46.26706" lon="7.32165"><ele></ele><time>2025-8-26T6:23:47Z</time></trkpt>
<trkpt lat="46.26713" lon="7.32171"><ele></ele><time>2025-8-26T6:23:50Z</time></trkpt>
<trkpt lat="46.26716" lon="7.32172"><ele></ele><time>2025-8-26T6:23:53Z</time></trkpt>
<trkpt lat="46.2672" lon="7.32177"><ele></ele><time>2025-8-26T6:23:56Z</time></trkpt>
<trkpt lat="46.26724" lon="7.32183"><ele></ele><time>2025-8-26T6:23:59Z</time></trkpt>
<trkpt lat="46.26727" lon="7.32188"><ele></ele><time>2025-8-26T6:24:2Z</time></trkpt>
<trkpt lat="46.26733" lon="7.32196"><ele></ele><time>2025-8-26T6:24:5Z</time></trkpt>
<trkpt lat="46.26734" lon="7.32198"><ele></ele><time>2025-8-26T6:24:8Z</time></trkpt>
<trkpt lat="46.26739" lon="7.32208"><ele></ele><time>2025-8-26T6:24:11Z</time></trkpt>
<trkpt lat="46.26741" lon="7.3221"><ele></ele><time>2025-8-26T6:24:14Z</time></trkpt>
<trkpt lat="46.26746" lon="7.32216"><ele></ele><time>2025-8-26T6:24:17Z</time></trkpt>
<trkpt lat="46.26748" lon="7.32218"><ele></ele><time>2025-8-26T6:24:20Z</time></trkpt>
<trkpt lat="46.26753" lon="7.32225"><ele></ele><time>2025-8-26T6:24:23Z</time></trkpt>
<trkpt lat="46.26755" lon="7.32226"><ele></ele><time>2025-8-26T6:24:26Z</time></trkpt>
<trkpt lat="46.26761" lon="7.32234"><ele></ele><time>2025-8-26T6:24:29Z</time></trkpt>
<trkpt lat="46.26762" lon="7.32235"><ele></ele><time>2025-8-26T6:24:32Z</time></trkpt>
<trkpt lat="46.26769" lon="7.32244"><ele></ele><time>2025-8-26T6:24:35Z</time></trkpt>
<trkpt lat="46.26776" lon="7.32253"><ele></ele><time>2025-8-26T6:24:38Z</time></trkpt>
<trkpt lat="46.26777" lon="7.32254"><ele></ele><time>2025-8-26T6:24:41Z</time></trkpt>
<trkpt lat="46.26784" lon="7.32263"><ele></ele><time>2025-8-26T6:24:44Z</time></trkpt>
<trkpt lat="46.26785" lon="7.32264"><ele></ele><time>2025-8-26T6:24:47Z</time></trkpt>
<trkpt lat="46.26792" lon="7.32268"><ele></ele><time>2025-8-26T6:24:50Z</time></trkpt>
<trkpt lat="46.26796" lon="7.32269"><ele></ele><time>2025-8-26T6:24:53Z</time></trkpt>
<trkpt lat="46.26802" lon="7.32271"><ele></ele><time>2025-8-26T6:24:56Z</time></trkpt>
<trkpt lat="46.26807" lon="7.32274"><ele></ele><time>2025-8-26T6:24:59Z</time></trkpt>
<trkpt lat="46.26816" lon="7.32278"><ele></ele><time>2025-8-26T6:25:2Z</time></trkpt>
<trkpt lat="46.26826" lon="7.32274"><ele></ele><time>2025-8-26T6:25:5Z</time></trkpt>
<trkpt lat="46.26827" lon="7.32273"><ele></ele><time>2025-8-26T6:25:8Z</time></trkpt>
<trkpt lat="46.26835" lon="7.32275"><ele></ele><time>2025-8-26T6:25:11Z</time></trkpt>
<trkpt lat="46.26836" lon="7.32275"><ele></ele><time>2025-8-26T6:25:14Z</time></trkpt>
<trkpt lat="46.26841" lon="7.32276"><ele></ele><time>2025-8-26T6:25:17Z</time></trkpt>
<trkpt lat="46.26844" lon="7.32277"><ele></ele><time>2025-8-26T6:25:20Z</time></trkpt>
<trkpt lat="46.26846" lon="7.32279"><ele></ele><time>2025-8-26T6:25:23Z</time></trkpt>
<trkpt lat="46.26847" lon="7.3228"><ele></ele><time>2025-8-26T6:25:26Z</time></trkpt>
<trkpt lat="46.2685" lon="7.32287"><ele></ele><time>2025-8-26T6:25:29Z</time></trkpt>
<trkpt lat="46.26852" lon="7.32299"><ele></ele><time>2025-8-26T6:25:32Z</time></trkpt>
<trkpt lat="46.26854" lon="7.32302"><ele></ele><time>2025-8-26T6:25:35Z</time></trkpt>
<trkpt lat="46.26862" lon="7.32315"><ele></ele><time>2025-8-26T6:25:38Z</time></trkpt>
<trkpt lat="46.2687" lon="7.32325"><ele></ele><time>2025-8-26T6:25:41Z</time></trkpt>
<trkpt lat="46.26872" lon="7.32328"><ele></ele><time>2025-8-26T6:25:44Z</time></trkpt>
<trkpt lat="46.26876" lon="7.32335"><ele></ele><time>2025-8-26T6:25:47Z</time></trkpt>
<trkpt lat="46.26879" lon="7.32338"><ele></ele><time>2025-8-26T6:25:50Z</time></trkpt>
<trkpt lat="46.26884" lon="7.32347"><ele></ele><time>2025-8-26T6:25:53Z</time></trkpt>
<trkpt lat="46.26886" lon="7.32352"><ele></ele><time>2025-8-26T6:25:56Z</time></trkpt>
<trkpt lat="46.26888" lon="7.32356"><ele></ele><time>2025-8-26T6:25:59Z</time></trkpt>
<trkpt lat="46.2689" lon="7.3236"><ele></ele><time>2025-8-26T6:26:2Z</time></trkpt>
<trkpt lat="46.26892" lon="7.32363"><ele></ele><time>2025-8-26T6:26:5Z</time></trkpt>
<trkpt lat="46.26896" lon="7.32367"><ele></ele><time>2025-8-26T6:26:8Z</time></trkpt>
<trkpt lat="46.26897" lon="7.32368"><ele></ele><time>2025-8-26T6:26:11Z</time></trkpt>
<trkpt lat="46.26902" lon="7.32376"><ele></ele><time>2025-8-26T6:26:14Z</time></trkpt>
<trkpt lat="46.26903" lon="7.32377"><ele></ele><time>2025-8-26T6:26:17Z</time></trkpt>
<trkpt lat="46.26907" lon="7.3238"><ele></ele><time>2025-8-26T6:26:20Z</time></trkpt>
<trkpt lat="46.26912" lon="7.32382"><ele></ele><time>2025-8-26T6:26:23Z</time></trkpt>
<trkpt lat="46.26916" lon="7.32385"><ele></ele><time>2025-8-26T6:26:26Z</time></trkpt>
<trkpt lat="46.26918" lon="7.32387"><ele></ele><time>2025-8-26T6:26:29Z</time></trkpt>
<trkpt lat="46.26921" lon="7.32389"><ele></ele><time>2025-8-26T6:26:32Z</time></trkpt>
<trkpt lat="46.26922" lon="7.32388"><ele></ele><time>2025-8-26T6:26:35Z</time></trkpt>
<trkpt lat="46.26926" lon="7.32388"><ele></ele><time>2025-8-26T6:26:38Z</time></trkpt>
<trkpt lat="46.26927" lon="7.32388"><ele></ele><time>2025-8-26T6:26:41Z</time></trkpt>
<trkpt lat="46.26932" lon="7.32388"><ele></ele><time>2025-8-26T6:26:44Z</time></trkpt>
<trkpt lat="46.26933" lon="7.32388"><ele></ele><time>2025-8-26T6:26:47Z</time></trkpt>
<trkpt lat="46.26938" lon="7.32386"><ele></ele><time>2025-8-26T6:26:50Z</time></trkpt>
<trkpt lat="46.26941" lon="7.32385"><ele></ele><time>2025-8-26T6:26:53Z</time></trkpt>
<trkpt lat="46.26945" lon="7.32384"><ele></ele><time>2025-8-26T6:26:56Z</time></trkpt>
<trkpt lat="46.2695" lon="7.32383"><ele></ele><time>2025-8-26T6:26:59Z</time></trkpt>
<trkpt lat="46.26951" lon="7.32383"><ele></ele><time>2025-8-26T6:27:2Z</time></trkpt>
<trkpt lat="46.26957" lon="7.32382"><ele></ele><time>2025-8-26T6:27:5Z</time></trkpt>
<trkpt lat="46.26958" lon="7.32382"><ele></ele><time>2025-8-26T6:27:8Z</time></trkpt>
<trkpt lat="46.26964" lon="7.32382"><ele></ele><time>2025-8-26T6:27:11Z</time></trkpt>
<trkpt lat="46.26965" lon="7.32382"><ele></ele><time>2025-8-26T6:27:14Z</time></trkpt>
<trkpt lat="46.26971" lon="7.32384"><ele></ele><time>2025-8-26T6:27:17Z</time></trkpt>
<trkpt lat="46.26972" lon="7.32384"><ele></ele><time>2025-8-26T6:27:20Z</time></trkpt>
<trkpt lat="46.26978" lon="7.32387"><ele></ele><time>2025-8-26T6:27:23Z</time></trkpt>
<trkpt lat="46.26979" lon="7.32387"><ele></ele><time>2025-8-26T6:27:26Z</time></trkpt>
<trkpt lat="46.26987" lon="7.3239"><ele></ele><time>2025-8-26T6:27:29Z</time></trkpt>
<trkpt lat="46.2699" lon="7.32392"><ele></ele><time>2025-8-26T6:27:32Z</time></trkpt>
<trkpt lat="46.26993" lon="7.32391"><ele></ele><time>2025-8-26T6:27:35Z</time></trkpt>
<trkpt lat="46.26998" lon="7.32391"><ele></ele><time>2025-8-26T6:27:38Z</time></trkpt>
<trkpt lat="46.27005" lon="7.32387"><ele></ele><time>2025-8-26T6:27:41Z</time></trkpt>
<trkpt lat="46.27015" lon="7.32374"><ele></ele><time>2025-8-26T6:27:44Z</time></trkpt>
<trkpt lat="46.27018" lon="7.32369"><ele></ele><time>2025-8-26T6:27:47Z</time></trkpt>
<trkpt lat="46.27023" lon="7.32356"><ele></ele><time>2025-8-26T6:27:50Z</time></trkpt>
<trkpt lat="46.27025" lon="7.32349"><ele></ele><time>2025-8-26T6:27:53Z</time></trkpt>
<trkpt lat="46.27028" lon="7.32333"><ele></ele><time>2025-8-26T6:27:56Z</time></trkpt>
<trkpt lat="46.27029" lon="7.32328"><ele></ele><time>2025-8-26T6:27:59Z</time></trkpt>
<trkpt lat="46.27031" lon="7.32314"><ele></ele><time>2025-8-26T6:28:2Z</time></trkpt>
<trkpt lat="46.27032" lon="7.32311"><ele></ele><time>2025-8-26T6:28:5Z</time></trkpt>
<trkpt lat="46.27036" lon="7.32296"><ele></ele><time>2025-8-26T6:28:8Z</time></trkpt>
<trkpt lat="46.27037" lon="7.32292"><ele></ele><time>2025-8-26T6:28:11Z</time></trkpt>
<trkpt lat="46.27044" lon="7.32282"><ele></ele><time>2025-8-26T6:28:14Z</time></trkpt>
<trkpt lat="46.27045" lon="7.32281"><ele></ele><time>2025-8-26T6:28:17Z</time></trkpt>
<trkpt lat="46.27053" lon="7.3227"><ele></ele><time>2025-8-26T6:28:20Z</time></trkpt>
<trkpt lat="46.27055" lon="7.32269"><ele></ele><time>2025-8-26T6:28:23Z</time></trkpt>
<trkpt lat="46.27063" lon="7.32262"><ele></ele><time>2025-8-26T6:28:26Z</time></trkpt>
<trkpt lat="46.27066" lon="7.32258"><ele></ele><time>2025-8-26T6:28:29Z</time></trkpt>
<trkpt lat="46.27073" lon="7.32253"><ele></ele><time>2025-8-26T6:28:32Z</time></trkpt>
<trkpt lat="46.27079" lon="7.32246"><ele></ele><time>2025-8-26T6:28:35Z</time></trkpt>
<trkpt lat="46.27083" lon="7.3224"><ele></ele><time>2025-8-26T6:28:38Z</time></trkpt>
<trkpt lat="46.27085" lon="7.32235"><ele></ele><time>2025-8-26T6:28:41Z</time></trkpt>
<trkpt lat="46.27086" lon="7.32227"><ele></ele><time>2025-8-26T6:28:44Z</time></trkpt>
<trkpt lat="46.27086" lon="7.32225"><ele></ele><time>2025-8-26T6:28:47Z</time></trkpt>
<trkpt lat="46.27086" lon="7.32221"><ele></ele><time>2025-8-26T6:28:50Z</time></trkpt>
<trkpt lat="46.27086" lon="7.32224"><ele></ele><time>2025-8-26T6:28:53Z</time></trkpt>
<trkpt lat="46.27086" lon="7.32223"><ele></ele><time>2025-8-26T6:28:56Z</time></trkpt>
<trkpt lat="46.27086" lon="7.32223"><ele></ele><time>2025-8-26T6:28:59Z</time></trkpt>
<trkpt lat="46.27086" lon="7.32221"><ele></ele><time>2025-8-26T6:29:2Z</time></trkpt>
<trkpt lat="46.27086" lon="7.32219"><ele></ele><time>2025-8-26T6:29:5Z</time></trkpt>
<trkpt lat="46.27087" lon="7.32217"><ele></ele><time>2025-8-26T6:29:8Z</time></trkpt>
<trkpt lat="46.27087" lon="7.32215"><ele></ele><time>2025-8-26T6:29:11Z</time></trkpt>
<trkpt lat="46.27086" lon="7.32217"><ele></ele><time>2025-8-26T6:29:14Z</time></trkpt>
<trkpt lat="46.27085" lon="7.32218"><ele></ele><time>2025-8-26T6:29:17Z</time></trkpt>
<trkpt lat="46.27085" lon="7.32216"><ele></ele><time>2025-8-26T6:29:20Z</time></trkpt>
<trkpt lat="46.27082" lon="7.32212"><ele></ele><time>2025-8-26T6:29:23Z</time></trkpt>
<trkpt lat="46.27076" lon="7.32199"><ele></ele><time>2025-8-26T6:29:26Z</time></trkpt>
<trkpt lat="46.27072" lon="7.32196"><ele></ele><time>2025-8-26T6:29:29Z</time></trkpt>
<trkpt lat="46.27061" lon="7.32177"><ele></ele><time>2025-8-26T6:29:32Z</time></trkpt>
<trkpt lat="46.27052" lon="7.32164"><ele></ele><time>2025-8-26T6:29:35Z</time></trkpt>
<trkpt lat="46.27052" lon="7.32164"><ele></ele><time>2025-8-26T6:29:38Z</time></trkpt>
<trkpt lat="46.27052" lon="7.32164"><ele></ele><time>2025-8-26T6:29:41Z</time></trkpt>
<trkpt lat="46.27052" lon="7.32164"><ele></ele><time>2025-8-26T6:29:44Z</time></trkpt>
<trkpt lat="46.27041" lon="7.32127"><ele></ele><time>2025-8-26T6:29:47Z</time></trkpt>
<trkpt lat="46.27043" lon="7.32117"><ele></ele><time>2025-8-26T6:29:50Z</time></trkpt>
<trkpt lat="46.27042" lon="7.32116"><ele></ele><time>2025-8-26T6:29:53Z</time></trkpt>
<trkpt lat="46.27036" lon="7.32108"><ele></ele><time>2025-8-26T6:29:56Z</time></trkpt>
<trkpt lat="46.27032" lon="7.32101"><ele></ele><time>2025-8-26T6:29:59Z</time></trkpt>
<trkpt lat="46.27031" lon="7.32099"><ele></ele><time>2025-8-26T6:30:2Z</time></trkpt>
<trkpt lat="46.27033" lon="7.32102"><ele></ele><time>2025-8-26T6:30:5Z</time></trkpt>
<trkpt lat="46.27033" lon="7.32106"><ele></ele><time>2025-8-26T6:30:8Z</time></trkpt>
<trkpt lat="46.27032" lon="7.32106"><ele></ele><time>2025-8-26T6:30:11Z</time></trkpt>
<trkpt lat="46.2702" lon="7.3209"><ele></ele><time>2025-8-26T6:30:14Z</time></trkpt>
<trkpt lat="46.27017" lon="7.32077"><ele></ele><time>2025-8-26T6:30:17Z</time></trkpt>
<trkpt lat="46.27014" lon="7.32075"><ele></ele><time>2025-8-26T6:30:20Z</time></trkpt>
<trkpt lat="46.27007" lon="7.32069"><ele></ele><time>2025-8-26T6:30:23Z</time></trkpt>
<trkpt lat="46.27006" lon="7.32069"><ele></ele><time>2025-8-26T6:30:26Z</time></trkpt>
<trkpt lat="46.26995" lon="7.32068"><ele></ele><time>2025-8-26T6:30:29Z</time></trkpt>
<trkpt lat="46.26992" lon="7.32068"><ele></ele><time>2025-8-26T6:30:32Z</time></trkpt>
<trkpt lat="46.26984" lon="7.32068"><ele></ele><time>2025-8-26T6:30:35Z</time></trkpt>
<trkpt lat="46.26979" lon="7.32067"><ele></ele><time>2025-8-26T6:30:38Z</time></trkpt>
<trkpt lat="46.26974" lon="7.32068"><ele></ele><time>2025-8-26T6:30:41Z</time></trkpt>
<trkpt lat="46.26965" lon="7.32066"><ele></ele><time>2025-8-26T6:30:44Z</time></trkpt>
<trkpt lat="46.26964" lon="7.32065"><ele></ele><time>2025-8-26T6:30:47Z</time></trkpt>
<trkpt lat="46.26953" lon="7.32059"><ele></ele><time>2025-8-26T6:30:50Z</time></trkpt>
<trkpt lat="46.26943" lon="7.32053"><ele></ele><time>2025-8-26T6:30:53Z</time></trkpt>
<trkpt lat="46.26942" lon="7.32052"><ele></ele><time>2025-8-26T6:30:56Z</time></trkpt>
<trkpt lat="46.26933" lon="7.32042"><ele></ele><time>2025-8-26T6:30:59Z</time></trkpt>
<trkpt lat="46.26932" lon="7.3204"><ele></ele><time>2025-8-26T6:31:2Z</time></trkpt>
<trkpt lat="46.26931" lon="7.32038"><ele></ele><time>2025-8-26T6:31:5Z</time></trkpt>
<trkpt lat="46.26924" lon="7.32027"><ele></ele><time>2025-8-26T6:31:8Z</time></trkpt>
<trkpt lat="46.26922" lon="7.32024"><ele></ele><time>2025-8-26T6:31:11Z</time></trkpt>
<trkpt lat="46.26914" lon="7.32012"><ele></ele><time>2025-8-26T6:31:14Z</time></trkpt>
<trkpt lat="46.26911" lon="7.32008"><ele></ele><time>2025-8-26T6:31:17Z</time></trkpt>
<trkpt lat="46.26904" lon="7.32002"><ele></ele><time>2025-8-26T6:31:20Z</time></trkpt>
<trkpt lat="46.26897" lon="7.31993"><ele></ele><time>2025-8-26T6:31:23Z</time></trkpt>
<trkpt lat="46.26894" lon="7.31991"><ele></ele><time>2025-8-26T6:31:26Z</time></trkpt>
<trkpt lat="46.26888" lon="7.31987"><ele></ele><time>2025-8-26T6:31:29Z</time></trkpt>
<trkpt lat="46.26883" lon="7.31982"><ele></ele><time>2025-8-26T6:31:32Z</time></trkpt>
<trkpt lat="46.26878" lon="7.31977"><ele></ele><time>2025-8-26T6:31:35Z</time></trkpt>
<trkpt lat="46.26873" lon="7.3197"><ele></ele><time>2025-8-26T6:31:38Z</time></trkpt>
<trkpt lat="46.26871" lon="7.31966"><ele></ele><time>2025-8-26T6:31:41Z</time></trkpt>
<trkpt lat="46.26868" lon="7.31957"><ele></ele><time>2025-8-26T6:31:44Z</time></trkpt>
<trkpt lat="46.26865" lon="7.31949"><ele></ele><time>2025-8-26T6:31:47Z</time></trkpt>
<trkpt lat="46.26862" lon="7.31942"><ele></ele><time>2025-8-26T6:31:50Z</time></trkpt>
<trkpt lat="46.26859" lon="7.31936"><ele></ele><time>2025-8-26T6:31:53Z</time></trkpt>
<trkpt lat="46.26856" lon="7.3193"><ele></ele><time>2025-8-26T6:31:56Z</time></trkpt>
<trkpt lat="46.26854" lon="7.31927"><ele></ele><time>2025-8-26T6:31:59Z</time></trkpt>
<trkpt lat="46.26847" lon="7.31917"><ele></ele><time>2025-8-26T6:32:2Z</time></trkpt>
<trkpt lat="46.26842" lon="7.3191"><ele></ele><time>2025-8-26T6:32:5Z</time></trkpt>
<trkpt lat="46.26839" lon="7.31907"><ele></ele><time>2025-8-26T6:32:8Z</time></trkpt>
<trkpt lat="46.26831" lon="7.319"><ele></ele><time>2025-8-26T6:32:11Z</time></trkpt>
<trkpt lat="46.26827" lon="7.31896"><ele></ele><time>2025-8-26T6:32:14Z</time></trkpt>
<trkpt lat="46.26821" lon="7.31889"><ele></ele><time>2025-8-26T6:32:17Z</time></trkpt>
<trkpt lat="46.26814" lon="7.3188"><ele></ele><time>2025-8-26T6:32:20Z</time></trkpt>
<trkpt lat="46.26814" lon="7.31877"><ele></ele><time>2025-8-26T6:32:23Z</time></trkpt>
<trkpt lat="46.26815" lon="7.3187"><ele></ele><time>2025-8-26T6:32:26Z</time></trkpt>
<trkpt lat="46.26819" lon="7.31867"><ele></ele><time>2025-8-26T6:32:29Z</time></trkpt>
<trkpt lat="46.26822" lon="7.31866"><ele></ele><time>2025-8-26T6:32:32Z</time></trkpt>
<trkpt lat="46.26826" lon="7.3187"><ele></ele><time>2025-8-26T6:32:35Z</time></trkpt>
<trkpt lat="46.26835" lon="7.31881"><ele></ele><time>2025-8-26T6:32:38Z</time></trkpt>
<trkpt lat="46.26837" lon="7.31885"><ele></ele><time>2025-8-26T6:32:41Z</time></trkpt>
<trkpt lat="46.26845" lon="7.31894"><ele></ele><time>2025-8-26T6:32:44Z</time></trkpt>
<trkpt lat="46.26847" lon="7.31895"><ele></ele><time>2025-8-26T6:32:47Z</time></trkpt>
<trkpt lat="46.26848" lon="7.31897"><ele></ele><time>2025-8-26T6:32:50Z</time></trkpt>
<trkpt lat="46.26855" lon="7.31906"><ele></ele><time>2025-8-26T6:32:53Z</time></trkpt>
<trkpt lat="46.26859" lon="7.31911"><ele></ele><time>2025-8-26T6:32:56Z</time></trkpt>
<trkpt lat="46.26866" lon="7.31916"><ele></ele><time>2025-8-26T6:32:59Z</time></trkpt>
<trkpt lat="46.26869" lon="7.3192"><ele></ele><time>2025-8-26T6:33:2Z</time></trkpt>
<trkpt lat="46.26875" lon="7.31926"><ele></ele><time>2025-8-26T6:33:5Z</time></trkpt>
<trkpt lat="46.2688" lon="7.31928"><ele></ele><time>2025-8-26T6:33:8Z</time></trkpt>
<trkpt lat="46.26886" lon="7.31932"><ele></ele><time>2025-8-26T6:33:11Z</time></trkpt>
<trkpt lat="46.26892" lon="7.31935"><ele></ele><time>2025-8-26T6:33:14Z</time></trkpt>
<trkpt lat="46.26897" lon="7.31938"><ele></ele><time>2025-8-26T6:33:17Z</time></trkpt>
<trkpt lat="46.26901" lon="7.3194"><ele></ele><time>2025-8-26T6:33:20Z</time></trkpt>
<trkpt lat="46.26908" lon="7.31944"><ele></ele><time>2025-8-26T6:33:23Z</time></trkpt>
<trkpt lat="46.26914" lon="7.31948"><ele></ele><time>2025-8-26T6:33:26Z</time></trkpt>
<trkpt lat="46.26921" lon="7.3195"><ele></ele><time>2025-8-26T6:33:29Z</time></trkpt>
<trkpt lat="46.26923" lon="7.31951"><ele></ele><time>2025-8-26T6:33:32Z</time></trkpt>
<trkpt lat="46.26932" lon="7.31957"><ele></ele><time>2025-8-26T6:33:35Z</time></trkpt>
<trkpt lat="46.26933" lon="7.31958"><ele></ele><time>2025-8-26T6:33:38Z</time></trkpt>
<trkpt lat="46.26942" lon="7.31962"><ele></ele><time>2025-8-26T6:33:41Z</time></trkpt>
<trkpt lat="46.26944" lon="7.31963"><ele></ele><time>2025-8-26T6:33:44Z</time></trkpt>
<trkpt lat="46.26954" lon="7.31966"><ele></ele><time>2025-8-26T6:33:47Z</time></trkpt>
<trkpt lat="46.26965" lon="7.31965"><ele></ele><time>2025-8-26T6:33:50Z</time></trkpt>
<trkpt lat="46.26967" lon="7.31964"><ele></ele><time>2025-8-26T6:33:53Z</time></trkpt>
<trkpt lat="46.26977" lon="7.3196"><ele></ele><time>2025-8-26T6:33:56Z</time></trkpt>
<trkpt lat="46.26979" lon="7.3196"><ele></ele><time>2025-8-26T6:33:59Z</time></trkpt>
<trkpt lat="46.2699" lon="7.3196"><ele></ele><time>2025-8-26T6:34:2Z</time></trkpt>
<trkpt lat="46.26992" lon="7.3196"><ele></ele><time>2025-8-26T6:34:5Z</time></trkpt>
<trkpt lat="46.27002" lon="7.31961"><ele></ele><time>2025-8-26T6:34:8Z</time></trkpt>
<trkpt lat="46.27004" lon="7.31962"><ele></ele><time>2025-8-26T6:34:11Z</time></trkpt>
<trkpt lat="46.27013" lon="7.3197"><ele></ele><time>2025-8-26T6:34:14Z</time></trkpt>
<trkpt lat="46.27022" lon="7.31981"><ele></ele><time>2025-8-26T6:34:17Z</time></trkpt>
<trkpt lat="46.27024" lon="7.31983"><ele></ele><time>2025-8-26T6:34:20Z</time></trkpt>
<trkpt lat="46.27033" lon="7.31989"><ele></ele><time>2025-8-26T6:34:23Z</time></trkpt>
<trkpt lat="46.27035" lon="7.3199"><ele></ele><time>2025-8-26T6:34:26Z</time></trkpt>
<trkpt lat="46.27047" lon="7.31997"><ele></ele><time>2025-8-26T6:34:29Z</time></trkpt>
<trkpt lat="46.27049" lon="7.31998"><ele></ele><time>2025-8-26T6:34:32Z</time></trkpt>
<trkpt lat="46.27058" lon="7.32002"><ele></ele><time>2025-8-26T6:34:35Z</time></trkpt>
<trkpt lat="46.27061" lon="7.32003"><ele></ele><time>2025-8-26T6:34:38Z</time></trkpt>
<trkpt lat="46.27071" lon="7.32006"><ele></ele><time>2025-8-26T6:34:41Z</time></trkpt>
<trkpt lat="46.27072" lon="7.32007"><ele></ele><time>2025-8-26T6:34:44Z</time></trkpt>
<trkpt lat="46.27086" lon="7.32011"><ele></ele><time>2025-8-26T6:34:47Z</time></trkpt>
<trkpt lat="46.27098" lon="7.32015"><ele></ele><time>2025-8-26T6:34:50Z</time></trkpt>
<trkpt lat="46.27099" lon="7.32015"><ele></ele><time>2025-8-26T6:34:53Z</time></trkpt>
<trkpt lat="46.27109" lon="7.32018"><ele></ele><time>2025-8-26T6:34:56Z</time></trkpt>
<trkpt lat="46.2711" lon="7.32019"><ele></ele><time>2025-8-26T6:34:59Z</time></trkpt>
<trkpt lat="46.27121" lon="7.32022"><ele></ele><time>2025-8-26T6:35:2Z</time></trkpt>
<trkpt lat="46.27122" lon="7.32023"><ele></ele><time>2025-8-26T6:35:5Z</time></trkpt>
<trkpt lat="46.27128" lon="7.32025"><ele></ele><time>2025-8-26T6:35:8Z</time></trkpt>
<trkpt lat="46.27133" lon="7.32027"><ele></ele><time>2025-8-26T6:35:11Z</time></trkpt>
<trkpt lat="46.27137" lon="7.32027"><ele></ele><time>2025-8-26T6:35:14Z</time></trkpt>
<trkpt lat="46.27143" lon="7.32024"><ele></ele><time>2025-8-26T6:35:17Z</time></trkpt>
<trkpt lat="46.27146" lon="7.32023"><ele></ele><time>2025-8-26T6:35:20Z</time></trkpt>
<trkpt lat="46.27156" lon="7.32018"><ele></ele><time>2025-8-26T6:35:23Z</time></trkpt>
<trkpt lat="46.27162" lon="7.32015"><ele></ele><time>2025-8-26T6:35:26Z</time></trkpt>
<trkpt lat="46.27166" lon="7.32014"><ele></ele><time>2025-8-26T6:35:29Z</time></trkpt>
<trkpt lat="46.27173" lon="7.32013"><ele></ele><time>2025-8-26T6:35:32Z</time></trkpt>
<trkpt lat="46.27183" lon="7.32019"><ele></ele><time>2025-8-26T6:35:35Z</time></trkpt>
<trkpt lat="46.27185" lon="7.3202"><ele></ele><time>2025-8-26T6:35:38Z</time></trkpt>
<trkpt lat="46.27192" lon="7.32023"><ele></ele><time>2025-8-26T6:35:41Z</time></trkpt>
<trkpt lat="46.27194" lon="7.32023"><ele></ele><time>2025-8-26T6:35:44Z</time></trkpt>
<trkpt lat="46.27203" lon="7.32032"><ele></ele><time>2025-8-26T6:35:47Z</time></trkpt>
<trkpt lat="46.27204" lon="7.32033"><ele></ele><time>2025-8-26T6:35:50Z</time></trkpt>
<trkpt lat="46.27211" lon="7.32043"><ele></ele><time>2025-8-26T6:35:53Z</time></trkpt>
<trkpt lat="46.27212" lon="7.32043"><ele></ele><time>2025-8-26T6:35:56Z</time></trkpt>
<trkpt lat="46.2722" lon="7.32052"><ele></ele><time>2025-8-26T6:35:59Z</time></trkpt>
<trkpt lat="46.27221" lon="7.32053"><ele></ele><time>2025-8-26T6:36:2Z</time></trkpt>
<trkpt lat="46.27229" lon="7.32061"><ele></ele><time>2025-8-26T6:36:5Z</time></trkpt>
<trkpt lat="46.2723" lon="7.32062"><ele></ele><time>2025-8-26T6:36:8Z</time></trkpt>
<trkpt lat="46.27238" lon="7.3207"><ele></ele><time>2025-8-26T6:36:11Z</time></trkpt>
<trkpt lat="46.27242" lon="7.32074"><ele></ele><time>2025-8-26T6:36:14Z</time></trkpt>
<trkpt lat="46.2725" lon="7.32081"><ele></ele><time>2025-8-26T6:36:17Z</time></trkpt>
<trkpt lat="46.27259" lon="7.32087"><ele></ele><time>2025-8-26T6:36:20Z</time></trkpt>
<trkpt lat="46.2726" lon="7.32087"><ele></ele><time>2025-8-26T6:36:23Z</time></trkpt>
<trkpt lat="46.2727" lon="7.32095"><ele></ele><time>2025-8-26T6:36:26Z</time></trkpt>
<trkpt lat="46.27271" lon="7.32096"><ele></ele><time>2025-8-26T6:36:29Z</time></trkpt>
<trkpt lat="46.2728" lon="7.32102"><ele></ele><time>2025-8-26T6:36:32Z</time></trkpt>
<trkpt lat="46.27283" lon="7.32105"><ele></ele><time>2025-8-26T6:36:35Z</time></trkpt>
<trkpt lat="46.27289" lon="7.32111"><ele></ele><time>2025-8-26T6:36:38Z</time></trkpt>
<trkpt lat="46.27293" lon="7.32113"><ele></ele><time>2025-8-26T6:36:41Z</time></trkpt>
<trkpt lat="46.27301" lon="7.3212"><ele></ele><time>2025-8-26T6:36:44Z</time></trkpt>
<trkpt lat="46.27302" lon="7.32121"><ele></ele><time>2025-8-26T6:36:47Z</time></trkpt>
<trkpt lat="46.27308" lon="7.32126"><ele></ele><time>2025-8-26T6:36:50Z</time></trkpt>
<trkpt lat="46.27311" lon="7.32129"><ele></ele><time>2025-8-26T6:36:53Z</time></trkpt>
<trkpt lat="46.27316" lon="7.32135"><ele></ele><time>2025-8-26T6:36:56Z</time></trkpt>
<trkpt lat="46.2732" lon="7.3214"><ele></ele><time>2025-8-26T6:36:59Z</time></trkpt>
<trkpt lat="46.27323" lon="7.32143"><ele></ele><time>2025-8-26T6:37:2Z</time></trkpt>
<trkpt lat="46.27329" lon="7.32151"><ele></ele><time>2025-8-26T6:37:5Z</time></trkpt>
<trkpt lat="46.27329" lon="7.32153"><ele></ele><time>2025-8-26T6:37:8Z</time></trkpt>
<trkpt lat="46.27336" lon="7.32163"><ele></ele><time>2025-8-26T6:37:11Z</time></trkpt>
<trkpt lat="46.27336" lon="7.32164"><ele></ele><time>2025-8-26T6:37:14Z</time></trkpt>
<trkpt lat="46.27343" lon="7.32176"><ele></ele><time>2025-8-26T6:37:17Z</time></trkpt>
<trkpt lat="46.27345" lon="7.3218"><ele></ele><time>2025-8-26T6:37:20Z</time></trkpt>
<trkpt lat="46.2735" lon="7.32188"><ele></ele><time>2025-8-26T6:37:23Z</time></trkpt>
<trkpt lat="46.27352" lon="7.32191"><ele></ele><time>2025-8-26T6:37:26Z</time></trkpt>
<trkpt lat="46.27358" lon="7.32203"><ele></ele><time>2025-8-26T6:37:29Z</time></trkpt>
<trkpt lat="46.2736" lon="7.32205"><ele></ele><time>2025-8-26T6:37:32Z</time></trkpt>
<trkpt lat="46.27364" lon="7.32217"><ele></ele><time>2025-8-26T6:37:35Z</time></trkpt>
<trkpt lat="46.27365" lon="7.3222"><ele></ele><time>2025-8-26T6:37:38Z</time></trkpt>
<trkpt lat="46.27366" lon="7.32231"><ele></ele><time>2025-8-26T6:37:41Z</time></trkpt>
<trkpt lat="46.27366" lon="7.32232"><ele></ele><time>2025-8-26T6:37:44Z</time></trkpt>
<trkpt lat="46.27367" lon="7.32241"><ele></ele><time>2025-8-26T6:37:47Z</time></trkpt>
<trkpt lat="46.27367" lon="7.32243"><ele></ele><time>2025-8-26T6:37:50Z</time></trkpt>
<trkpt lat="46.27367" lon="7.32248"><ele></ele><time>2025-8-26T6:37:53Z</time></trkpt>
<trkpt lat="46.27369" lon="7.32254"><ele></ele><time>2025-8-26T6:37:56Z</time></trkpt>
<trkpt lat="46.27372" lon="7.32261"><ele></ele><time>2025-8-26T6:37:59Z</time></trkpt>
<trkpt lat="46.27376" lon="7.3227"><ele></ele><time>2025-8-26T6:38:2Z</time></trkpt>
<trkpt lat="46.27377" lon="7.32274"><ele></ele><time>2025-8-26T6:38:5Z</time></trkpt>
<trkpt lat="46.27378" lon="7.32276"><ele></ele><time>2025-8-26T6:38:8Z</time></trkpt>
<trkpt lat="46.2738" lon="7.3228"><ele></ele><time>2025-8-26T6:38:11Z</time></trkpt>
<trkpt lat="46.27387" lon="7.32288"><ele></ele><time>2025-8-26T6:38:14Z</time></trkpt>
<trkpt lat="46.27388" lon="7.3229"><ele></ele><time>2025-8-26T6:38:17Z</time></trkpt>
<trkpt lat="46.27396" lon="7.32299"><ele></ele><time>2025-8-26T6:38:20Z</time></trkpt>
<trkpt lat="46.27397" lon="7.32302"><ele></ele><time>2025-8-26T6:38:23Z</time></trkpt>
<trkpt lat="46.27399" lon="7.32304"><ele></ele><time>2025-8-26T6:38:26Z</time></trkpt>
<trkpt lat="46.274" lon="7.32304"><ele></ele><time>2025-8-26T6:38:29Z</time></trkpt>
<trkpt lat="46.27401" lon="7.32303"><ele></ele><time>2025-8-26T6:38:32Z</time></trkpt>
<trkpt lat="46.27402" lon="7.32301"><ele></ele><time>2025-8-26T6:38:35Z</time></trkpt>
<trkpt lat="46.27403" lon="7.32296"><ele></ele><time>2025-8-26T6:38:38Z</time></trkpt>
<trkpt lat="46.27407" lon="7.32282"><ele></ele><time>2025-8-26T6:38:41Z</time></trkpt>
<trkpt lat="46.27402" lon="7.32273"><ele></ele><time>2025-8-26T6:38:44Z</time></trkpt>
<trkpt lat="46.274" lon="7.3227"><ele></ele><time>2025-8-26T6:38:47Z</time></trkpt>
<trkpt lat="46.27393" lon="7.32257"><ele></ele><time>2025-8-26T6:38:50Z</time></trkpt>
<trkpt lat="46.27392" lon="7.32254"><ele></ele><time>2025-8-26T6:38:53Z</time></trkpt>
<trkpt lat="46.27387" lon="7.32238"><ele></ele><time>2025-8-26T6:38:56Z</time></trkpt>
<trkpt lat="46.27385" lon="7.32222"><ele></ele><time>2025-8-26T6:38:59Z</time></trkpt>
<trkpt lat="46.27384" lon="7.32216"><ele></ele><time>2025-8-26T6:39:2Z</time></trkpt>
<trkpt lat="46.27383" lon="7.32207"><ele></ele><time>2025-8-26T6:39:5Z</time></trkpt>
<trkpt lat="46.27382" lon="7.32198"><ele></ele><time>2025-8-26T6:39:8Z</time></trkpt>
<trkpt lat="46.2738" lon="7.3219"><ele></ele><time>2025-8-26T6:39:11Z</time></trkpt>
<trkpt lat="46.27378" lon="7.32183"><ele></ele><time>2025-8-26T6:39:14Z</time></trkpt>
<trkpt lat="46.27373" lon="7.32173"><ele></ele><time>2025-8-26T6:39:17Z</time></trkpt>
<trkpt lat="46.27372" lon="7.32171"><ele></ele><time>2025-8-26T6:39:20Z</time></trkpt>
<trkpt lat="46.27367" lon="7.32159"><ele></ele><time>2025-8-26T6:39:23Z</time></trkpt>
<trkpt lat="46.27365" lon="7.32155"><ele></ele><time>2025-8-26T6:39:26Z</time></trkpt>
<trkpt lat="46.27363" lon="7.32151"><ele></ele><time>2025-8-26T6:39:29Z</time></trkpt>
<trkpt lat="46.27358" lon="7.32142"><ele></ele><time>2025-8-26T6:39:32Z</time></trkpt>
<trkpt lat="46.27356" lon="7.32139"><ele></ele><time>2025-8-26T6:39:35Z</time></trkpt>
<trkpt lat="46.27351" lon="7.32128"><ele></ele><time>2025-8-26T6:39:38Z</time></trkpt>
<trkpt lat="46.2735" lon="7.32125"><ele></ele><time>2025-8-26T6:39:41Z</time></trkpt>
<trkpt lat="46.27343" lon="7.32112"><ele></ele><time>2025-8-26T6:39:44Z</time></trkpt>
<trkpt lat="46.27342" lon="7.32111"><ele></ele><time>2025-8-26T6:39:47Z</time></trkpt>
<trkpt lat="46.27337" lon="7.32098"><ele></ele><time>2025-8-26T6:39:50Z</time></trkpt>
<trkpt lat="46.27336" lon="7.32097"><ele></ele><time>2025-8-26T6:39:53Z</time></trkpt>
<trkpt lat="46.2733" lon="7.32086"><ele></ele><time>2025-8-26T6:39:56Z</time></trkpt>
<trkpt lat="46.27328" lon="7.32083"><ele></ele><time>2025-8-26T6:39:59Z</time></trkpt>
<trkpt lat="46.27323" lon="7.32077"><ele></ele><time>2025-8-26T6:40:2Z</time></trkpt>
<trkpt lat="46.27319" lon="7.32069"><ele></ele><time>2025-8-26T6:40:5Z</time></trkpt>
<trkpt lat="46.27317" lon="7.32067"><ele></ele><time>2025-8-26T6:40:8Z</time></trkpt>
<trkpt lat="46.27311" lon="7.32057"><ele></ele><time>2025-8-26T6:40:11Z</time></trkpt>
<trkpt lat="46.2731" lon="7.32056"><ele></ele><time>2025-8-26T6:40:14Z</time></trkpt>
<trkpt lat="46.27302" lon="7.32047"><ele></ele><time>2025-8-26T6:40:17Z</time></trkpt>
<trkpt lat="46.27292" lon="7.32035"><ele></ele><time>2025-8-26T6:40:20Z</time></trkpt>
<trkpt lat="46.27291" lon="7.32034"><ele></ele><time>2025-8-26T6:40:23Z</time></trkpt>
<trkpt lat="46.27285" lon="7.32027"><ele></ele><time>2025-8-26T6:40:26Z</time></trkpt>
<trkpt lat="46.27283" lon="7.32024"><ele></ele><time>2025-8-26T6:40:29Z</time></trkpt>
<trkpt lat="46.27276" lon="7.32015"><ele></ele><time>2025-8-26T6:40:32Z</time></trkpt>
<trkpt lat="46.27275" lon="7.32012"><ele></ele><time>2025-8-26T6:40:35Z</time></trkpt>
<trkpt lat="46.27271" lon="7.32007"><ele></ele><time>2025-8-26T6:40:38Z</time></trkpt>
<trkpt lat="46.27268" lon="7.32002"><ele></ele><time>2025-8-26T6:40:41Z</time></trkpt>
<trkpt lat="46.27264" lon="7.31996"><ele></ele><time>2025-8-26T6:40:44Z</time></trkpt>
<trkpt lat="46.27261" lon="7.31989"><ele></ele><time>2025-8-26T6:40:47Z</time></trkpt>
<trkpt lat="46.27257" lon="7.31984"><ele></ele><time>2025-8-26T6:40:50Z</time></trkpt>
<trkpt lat="46.27253" lon="7.31978"><ele></ele><time>2025-8-26T6:40:53Z</time></trkpt>
<trkpt lat="46.27251" lon="7.31974"><ele></ele><time>2025-8-26T6:40:56Z</time></trkpt>
<trkpt lat="46.27245" lon="7.31967"><ele></ele><time>2025-8-26T6:40:59Z</time></trkpt>
<trkpt lat="46.27244" lon="7.31964"><ele></ele><time>2025-8-26T6:41:2Z</time></trkpt>
<trkpt lat="46.27237" lon="7.31954"><ele></ele><time>2025-8-26T6:41:5Z</time></trkpt>
<trkpt lat="46.27235" lon="7.31952"><ele></ele><time>2025-8-26T6:41:8Z</time></trkpt>
<trkpt lat="46.27229" lon="7.31944"><ele></ele><time>2025-8-26T6:41:11Z</time></trkpt>
<trkpt lat="46.27219" lon="7.31937"><ele></ele><time>2025-8-26T6:41:14Z</time></trkpt>
<trkpt lat="46.27217" lon="7.31936"><ele></ele><time>2025-8-26T6:41:17Z</time></trkpt>
<trkpt lat="46.27206" lon="7.31933"><ele></ele><time>2025-8-26T6:41:20Z</time></trkpt>
<trkpt lat="46.27205" lon="7.31932"><ele></ele><time>2025-8-26T6:41:23Z</time></trkpt>
<trkpt lat="46.27198" lon="7.31927"><ele></ele><time>2025-8-26T6:41:26Z</time></trkpt>
<trkpt lat="46.27198" lon="7.31923"><ele></ele><time>2025-8-26T6:41:29Z</time></trkpt>
<trkpt lat="46.272" lon="7.31917"><ele></ele><time>2025-8-26T6:41:32Z</time></trkpt>
<trkpt lat="46.27202" lon="7.31917"><ele></ele><time>2025-8-26T6:41:35Z</time></trkpt>
<trkpt lat="46.27203" lon="7.31917"><ele></ele><time>2025-8-26T6:41:38Z</time></trkpt>
<trkpt lat="46.27206" lon="7.31917"><ele></ele><time>2025-8-26T6:41:41Z</time></trkpt>
<trkpt lat="46.27217" lon="7.31922"><ele></ele><time>2025-8-26T6:41:44Z</time></trkpt>
<trkpt lat="46.27228" lon="7.3193"><ele></ele><time>2025-8-26T6:41:47Z</time></trkpt>
<trkpt lat="46.2723" lon="7.31932"><ele></ele><time>2025-8-26T6:41:50Z</time></trkpt>
<trkpt lat="46.27238" lon="7.31938"><ele></ele><time>2025-8-26T6:41:53Z</time></trkpt>
<trkpt lat="46.27241" lon="7.3194"><ele></ele><time>2025-8-26T6:41:56Z</time></trkpt>
<trkpt lat="46.27247" lon="7.31945"><ele></ele><time>2025-8-26T6:41:59Z</time></trkpt>
<trkpt lat="46.27249" lon="7.31947"><ele></ele><time>2025-8-26T6:42:2Z</time></trkpt>
<trkpt lat="46.27255" lon="7.31956"><ele></ele><time>2025-8-26T6:42:5Z</time></trkpt>
<trkpt lat="46.27259" lon="7.3196"><ele></ele><time>2025-8-26T6:42:8Z</time></trkpt>
<trkpt lat="46.27264" lon="7.31965"><ele></ele><time>2025-8-26T6:42:11Z</time></trkpt>
<trkpt lat="46.27269" lon="7.31973"><ele></ele><time>2025-8-26T6:42:14Z</time></trkpt>
<trkpt lat="46.27274" lon="7.31978"><ele></ele><time>2025-8-26T6:42:17Z</time></trkpt>
<trkpt lat="46.27276" lon="7.3198"><ele></ele><time>2025-8-26T6:42:20Z</time></trkpt>
<trkpt lat="46.27282" lon="7.31987"><ele></ele><time>2025-8-26T6:42:23Z</time></trkpt>
<trkpt lat="46.27284" lon="7.31988"><ele></ele><time>2025-8-26T6:42:26Z</time></trkpt>
<trkpt lat="46.27291" lon="7.31994"><ele></ele><time>2025-8-26T6:42:29Z</time></trkpt>
<trkpt lat="46.27294" lon="7.31995"><ele></ele><time>2025-8-26T6:42:32Z</time></trkpt>
<trkpt lat="46.27301" lon="7.32002"><ele></ele><time>2025-8-26T6:42:35Z</time></trkpt>
<trkpt lat="46.27303" lon="7.32002"><ele></ele><time>2025-8-26T6:42:38Z</time></trkpt>
<trkpt lat="46.27311" lon="7.32008"><ele></ele><time>2025-8-26T6:42:41Z</time></trkpt>
<trkpt lat="46.27313" lon="7.3201"><ele></ele><time>2025-8-26T6:42:44Z</time></trkpt>
<trkpt lat="46.2732" lon="7.32017"><ele></ele><time>2025-8-26T6:42:47Z</time></trkpt>
<trkpt lat="46.27326" lon="7.32023"><ele></ele><time>2025-8-26T6:42:50Z</time></trkpt>
<trkpt lat="46.27328" lon="7.32027"><ele></ele><time>2025-8-26T6:42:53Z</time></trkpt>
<trkpt lat="46.27331" lon="7.3203"><ele></ele><time>2025-8-26T6:42:56Z</time></trkpt>
<trkpt lat="46.27337" lon="7.32035"><ele></ele><time>2025-8-26T6:42:59Z</time></trkpt>
<trkpt lat="46.27338" lon="7.32036"><ele></ele><time>2025-8-26T6:43:2Z</time></trkpt>
<trkpt lat="46.27346" lon="7.32044"><ele></ele><time>2025-8-26T6:43:5Z</time></trkpt>
<trkpt lat="46.27351" lon="7.32052"><ele></ele><time>2025-8-26T6:43:8Z</time></trkpt>
<trkpt lat="46.27356" lon="7.32057"><ele></ele><time>2025-8-26T6:43:11Z</time></trkpt>
<trkpt lat="46.27358" lon="7.32059"><ele></ele><time>2025-8-26T6:43:14Z</time></trkpt>
<trkpt lat="46.27365" lon="7.32067"><ele></ele><time>2025-8-26T6:43:17Z</time></trkpt>
<trkpt lat="46.27366" lon="7.32068"><ele></ele><time>2025-8-26T6:43:20Z</time></trkpt>
<trkpt lat="46.27374" lon="7.32077"><ele></ele><time>2025-8-26T6:43:23Z</time></trkpt>
<trkpt lat="46.27375" lon="7.32078"><ele></ele><time>2025-8-26T6:43:26Z</time></trkpt>
<trkpt lat="46.27384" lon="7.32088"><ele></ele><time>2025-8-26T6:43:29Z</time></trkpt>
<trkpt lat="46.27385" lon="7.32089"><ele></ele><time>2025-8-26T6:43:32Z</time></trkpt>
<trkpt lat="46.27391" lon="7.32097"><ele></ele><time>2025-8-26T6:43:35Z</time></trkpt>
<trkpt lat="46.27392" lon="7.321"><ele></ele><time>2025-8-26T6:43:38Z</time></trkpt>
<trkpt lat="46.27399" lon="7.32111"><ele></ele><time>2025-8-26T6:43:41Z</time></trkpt>
<trkpt lat="46.274" lon="7.32112"><ele></ele><time>2025-8-26T6:43:44Z</time></trkpt>
<trkpt lat="46.27407" lon="7.32122"><ele></ele><time>2025-8-26T6:43:47Z</time></trkpt>
<trkpt lat="46.2741" lon="7.32126"><ele></ele><time>2025-8-26T6:43:50Z</time></trkpt>
<trkpt lat="46.27415" lon="7.32132"><ele></ele><time>2025-8-26T6:43:53Z</time></trkpt>
<trkpt lat="46.27416" lon="7.32135"><ele></ele><time>2025-8-26T6:43:56Z</time></trkpt>
<trkpt lat="46.27422" lon="7.32144"><ele></ele><time>2025-8-26T6:43:59Z</time></trkpt>
<trkpt lat="46.27425" lon="7.32149"><ele></ele><time>2025-8-26T6:44:2Z</time></trkpt>
<trkpt lat="46.2743" lon="7.32156"><ele></ele><time>2025-8-26T6:44:5Z</time></trkpt>
<trkpt lat="46.27433" lon="7.32161"><ele></ele><time>2025-8-26T6:44:8Z</time></trkpt>
<trkpt lat="46.27436" lon="7.32167"><ele></ele><time>2025-8-26T6:44:11Z</time></trkpt>
<trkpt lat="46.27443" lon="7.32177"><ele></ele><time>2025-8-26T6:44:14Z</time></trkpt>
<trkpt lat="46.27446" lon="7.32182"><ele></ele><time>2025-8-26T6:44:17Z</time></trkpt>
<trkpt lat="46.27452" lon="7.32191"><ele></ele><time>2025-8-26T6:44:20Z</time></trkpt>
<trkpt lat="46.27454" lon="7.32193"><ele></ele><time>2025-8-26T6:44:23Z</time></trkpt>
<trkpt lat="46.27462" lon="7.32202"><ele></ele><time>2025-8-26T6:44:26Z</time></trkpt>
<trkpt lat="46.2747" lon="7.32212"><ele></ele><time>2025-8-26T6:44:29Z</time></trkpt>
<trkpt lat="46.27472" lon="7.32215"><ele></ele><time>2025-8-26T6:44:32Z</time></trkpt>
<trkpt lat="46.27481" lon="7.32223"><ele></ele><time>2025-8-26T6:44:35Z</time></trkpt>
<trkpt lat="46.27482" lon="7.32224"><ele></ele><time>2025-8-26T6:44:38Z</time></trkpt>
<trkpt lat="46.27488" lon="7.32231"><ele></ele><time>2025-8-26T6:44:41Z</time></trkpt>
<trkpt lat="46.27492" lon="7.32234"><ele></ele><time>2025-8-26T6:44:44Z</time></trkpt>
<trkpt lat="46.27498" lon="7.3224"><ele></ele><time>2025-8-26T6:44:47Z</time></trkpt>
<trkpt lat="46.27501" lon="7.32244"><ele></ele><time>2025-8-26T6:44:50Z</time></trkpt>
<trkpt lat="46.27506" lon="7.32249"><ele></ele><time>2025-8-26T6:44:53Z</time></trkpt>
<trkpt lat="46.2751" lon="7.32255"><ele></ele><time>2025-8-26T6:44:56Z</time></trkpt>
<trkpt lat="46.27514" lon="7.3226"><ele></ele><time>2025-8-26T6:44:59Z</time></trkpt>
<trkpt lat="46.27519" lon="7.32267"><ele></ele><time>2025-8-26T6:45:2Z</time></trkpt>
<trkpt lat="46.27523" lon="7.32271"><ele></ele><time>2025-8-26T6:45:5Z</time></trkpt>
<trkpt lat="46.2753" lon="7.32278"><ele></ele><time>2025-8-26T6:45:8Z</time></trkpt>
<trkpt lat="46.27532" lon="7.32281"><ele></ele><time>2025-8-26T6:45:11Z</time></trkpt>
<trkpt lat="46.2754" lon="7.3229"><ele></ele><time>2025-8-26T6:45:14Z</time></trkpt>
<trkpt lat="46.27543" lon="7.32293"><ele></ele><time>2025-8-26T6:45:17Z</time></trkpt>
<trkpt lat="46.27549" lon="7.32302"><ele></ele><time>2025-8-26T6:45:20Z</time></trkpt>
<trkpt lat="46.2755" lon="7.32303"><ele></ele><time>2025-8-26T6:45:23Z</time></trkpt>
<trkpt lat="46.27553" lon="7.32307"><ele></ele><time>2025-8-26T6:45:26Z</time></trkpt>
<trkpt lat="46.27553" lon="7.32307"><ele></ele><time>2025-8-26T6:45:29Z</time></trkpt>
<trkpt lat="46.27553" lon="7.32307"><ele></ele><time>2025-8-26T6:45:32Z</time></trkpt>
<trkpt lat="46.27553" lon="7.32307"><ele></ele><time>2025-8-26T6:45:35Z</time></trkpt>
<trkpt lat="46.27553" lon="7.32307"><ele></ele><time>2025-8-26T6:45:38Z</time></trkpt>
<trkpt lat="46.27553" lon="7.32307"><ele></ele><time>2025-8-26T6:45:41Z</time></trkpt>
<trkpt lat="46.27552" lon="7.32307"><ele></ele><time>2025-8-26T6:45:44Z</time></trkpt>
<trkpt lat="46.27552" lon="7.32307"><ele></ele><time>2025-8-26T6:45:47Z</time></trkpt>
<trkpt lat="46.27552" lon="7.32307"><ele></ele><time>2025-8-26T6:45:50Z</time></trkpt>
<trkpt lat="46.27552" lon="7.32307"><ele></ele><time>2025-8-26T6:45:53Z</time></trkpt>
<trkpt lat="46.27552" lon="7.32307"><ele></ele><time>2025-8-26T6:45:56Z</time></trkpt>
<trkpt lat="46.27552" lon="7.32307"><ele></ele><time>2025-8-26T6:45:59Z</time></trkpt>
<trkpt lat="46.27557" lon="7.32307"><ele></ele><time>2025-8-26T6:46:2Z</time></trkpt>
<trkpt lat="46.2756" lon="7.32311"><ele></ele><time>2025-8-26T6:46:5Z</time></trkpt>
<trkpt lat="46.27564" lon="7.32318"><ele></ele><time>2025-8-26T6:46:8Z</time></trkpt>
<trkpt lat="46.27567" lon="7.3232"><ele></ele><time>2025-8-26T6:46:11Z</time></trkpt>
<trkpt lat="46.27569" lon="7.32323"><ele></ele><time>2025-8-26T6:46:14Z</time></trkpt>
<trkpt lat="46.27577" lon="7.32331"><ele></ele><time>2025-8-26T6:46:17Z</time></trkpt>
<trkpt lat="46.27585" lon="7.32339"><ele></ele><time>2025-8-26T6:46:20Z</time></trkpt>
<trkpt lat="46.27588" lon="7.32342"><ele></ele><time>2025-8-26T6:46:23Z</time></trkpt>
<trkpt lat="46.27593" lon="7.32348"><ele></ele><time>2025-8-26T6:46:26Z</time></trkpt>
<trkpt lat="46.27599" lon="7.32353"><ele></ele><time>2025-8-26T6:46:29Z</time></trkpt>
<trkpt lat="46.27602" lon="7.32356"><ele></ele><time>2025-8-26T6:46:32Z</time></trkpt>
<trkpt lat="46.27609" lon="7.32362"><ele></ele><time>2025-8-26T6:46:35Z</time></trkpt>
<trkpt lat="46.27615" lon="7.32368"><ele></ele><time>2025-8-26T6:46:38Z</time></trkpt>
<trkpt lat="46.27618" lon="7.32371"><ele></ele><time>2025-8-26T6:46:41Z</time></trkpt>
<trkpt lat="46.27625" lon="7.32379"><ele></ele><time>2025-8-26T6:46:44Z</time></trkpt>
<trkpt lat="46.27628" lon="7.32384"><ele></ele><time>2025-8-26T6:46:47Z</time></trkpt>
<trkpt lat="46.27632" lon="7.32388"><ele></ele><time>2025-8-26T6:46:50Z</time></trkpt>
<trkpt lat="46.27636" lon="7.32392"><ele></ele><time>2025-8-26T6:46:53Z</time></trkpt>
<trkpt lat="46.27641" lon="7.324"><ele></ele><time>2025-8-26T6:46:56Z</time></trkpt>
<trkpt lat="46.27645" lon="7.32403"><ele></ele><time>2025-8-26T6:46:59Z</time></trkpt>
<trkpt lat="46.27651" lon="7.32408"><ele></ele><time>2025-8-26T6:47:2Z</time></trkpt>
<trkpt lat="46.27655" lon="7.32414"><ele></ele><time>2025-8-26T6:47:5Z</time></trkpt>
<trkpt lat="46.27662" lon="7.32423"><ele></ele><time>2025-8-26T6:47:8Z</time></trkpt>
<trkpt lat="46.27664" lon="7.32424"><ele></ele><time>2025-8-26T6:47:11Z</time></trkpt>
<trkpt lat="46.2767" lon="7.32429"><ele></ele><time>2025-8-26T6:47:14Z</time></trkpt>
<trkpt lat="46.27673" lon="7.32432"><ele></ele><time>2025-8-26T6:47:17Z</time></trkpt>
<trkpt lat="46.27677" lon="7.32436"><ele></ele><time>2025-8-26T6:47:20Z</time></trkpt>
<trkpt lat="46.27681" lon="7.3244"><ele></ele><time>2025-8-26T6:47:23Z</time></trkpt>
<trkpt lat="46.27685" lon="7.32443"><ele></ele><time>2025-8-26T6:47:26Z</time></trkpt>
<trkpt lat="46.27689" lon="7.32446"><ele></ele><time>2025-8-26T6:47:29Z</time></trkpt>
<trkpt lat="46.27692" lon="7.32448"><ele></ele><time>2025-8-26T6:47:32Z</time></trkpt>
<trkpt lat="46.27701" lon="7.32459"><ele></ele><time>2025-8-26T6:47:35Z</time></trkpt>
<trkpt lat="46.27702" lon="7.3246"><ele></ele><time>2025-8-26T6:47:38Z</time></trkpt>
<trkpt lat="46.27708" lon="7.32468"><ele></ele><time>2025-8-26T6:47:41Z</time></trkpt>
<trkpt lat="46.27709" lon="7.32469"><ele></ele><time>2025-8-26T6:47:44Z</time></trkpt>
<trkpt lat="46.27716" lon="7.32476"><ele></ele><time>2025-8-26T6:47:47Z</time></trkpt>
<trkpt lat="46.27718" lon="7.32479"><ele></ele><time>2025-8-26T6:47:50Z</time></trkpt>
<trkpt lat="46.27724" lon="7.32485"><ele></ele><time>2025-8-26T6:47:53Z</time></trkpt>
<trkpt lat="46.27726" lon="7.3249"><ele></ele><time>2025-8-26T6:47:56Z</time></trkpt>
<trkpt lat="46.27731" lon="7.32497"><ele></ele><time>2025-8-26T6:47:59Z</time></trkpt>
<trkpt lat="46.27733" lon="7.32499"><ele></ele><time>2025-8-26T6:48:2Z</time></trkpt>
<trkpt lat="46.27737" lon="7.32506"><ele></ele><time>2025-8-26T6:48:5Z</time></trkpt>
<trkpt lat="46.2774" lon="7.3251"><ele></ele><time>2025-8-26T6:48:8Z</time></trkpt>
<trkpt lat="46.27743" lon="7.32515"><ele></ele><time>2025-8-26T6:48:11Z</time></trkpt>
<trkpt lat="46.27746" lon="7.32521"><ele></ele><time>2025-8-26T6:48:14Z</time></trkpt>
<trkpt lat="46.27748" lon="7.32524"><ele></ele><time>2025-8-26T6:48:17Z</time></trkpt>
<trkpt lat="46.27754" lon="7.32536"><ele></ele><time>2025-8-26T6:48:20Z</time></trkpt>
<trkpt lat="46.2776" lon="7.32548"><ele></ele><time>2025-8-26T6:48:23Z</time></trkpt>
<trkpt lat="46.27761" lon="7.3255"><ele></ele><time>2025-8-26T6:48:26Z</time></trkpt>
<trkpt lat="46.27767" lon="7.32561"><ele></ele><time>2025-8-26T6:48:29Z</time></trkpt>
<trkpt lat="46.27768" lon="7.32563"><ele></ele><time>2025-8-26T6:48:32Z</time></trkpt>
<trkpt lat="46.27775" lon="7.32575"><ele></ele><time>2025-8-26T6:48:35Z</time></trkpt>
<trkpt lat="46.27776" lon="7.32578"><ele></ele><time>2025-8-26T6:48:38Z</time></trkpt>
<trkpt lat="46.27782" lon="7.3259"><ele></ele><time>2025-8-26T6:48:41Z</time></trkpt>
<trkpt lat="46.27783" lon="7.32594"><ele></ele><time>2025-8-26T6:48:44Z</time></trkpt>
<trkpt lat="46.27789" lon="7.32605"><ele></ele><time>2025-8-26T6:48:47Z</time></trkpt>
<trkpt lat="46.27794" lon="7.3261"><ele></ele><time>2025-8-26T6:48:50Z</time></trkpt>
<trkpt lat="46.27796" lon="7.32615"><ele></ele><time>2025-8-26T6:48:53Z</time></trkpt>
<trkpt lat="46.27801" lon="7.32622"><ele></ele><time>2025-8-26T6:48:56Z</time></trkpt>
<trkpt lat="46.27803" lon="7.32625"><ele></ele><time>2025-8-26T6:48:59Z</time></trkpt>
<trkpt lat="46.2781" lon="7.32634"><ele></ele><time>2025-8-26T6:49:2Z</time></trkpt>
<trkpt lat="46.27811" lon="7.32635"><ele></ele><time>2025-8-26T6:49:5Z</time></trkpt>
<trkpt lat="46.2782" lon="7.32643"><ele></ele><time>2025-8-26T6:49:8Z</time></trkpt>
<trkpt lat="46.2783" lon="7.32648"><ele></ele><time>2025-8-26T6:49:11Z</time></trkpt>
<trkpt lat="46.27831" lon="7.32648"><ele></ele><time>2025-8-26T6:49:14Z</time></trkpt>
<trkpt lat="46.27838" lon="7.32654"><ele></ele><time>2025-8-26T6:49:17Z</time></trkpt>
<trkpt lat="46.27849" lon="7.32661"><ele></ele><time>2025-8-26T6:49:20Z</time></trkpt>
<trkpt lat="46.2785" lon="7.32663"><ele></ele><time>2025-8-26T6:49:23Z</time></trkpt>
<trkpt lat="46.27854" lon="7.32666"><ele></ele><time>2025-8-26T6:49:26Z</time></trkpt>
<trkpt lat="46.27857" lon="7.32668"><ele></ele><time>2025-8-26T6:49:29Z</time></trkpt>
<trkpt lat="46.27862" lon="7.32671"><ele></ele><time>2025-8-26T6:49:32Z</time></trkpt>
<trkpt lat="46.27867" lon="7.32673"><ele></ele><time>2025-8-26T6:49:35Z</time></trkpt>
<trkpt lat="46.2787" lon="7.32675"><ele></ele><time>2025-8-26T6:49:38Z</time></trkpt>
<trkpt lat="46.27878" lon="7.32682"><ele></ele><time>2025-8-26T6:49:41Z</time></trkpt>
<trkpt lat="46.27882" lon="7.32684"><ele></ele><time>2025-8-26T6:49:44Z</time></trkpt>
<trkpt lat="46.27889" lon="7.3269"><ele></ele><time>2025-8-26T6:49:47Z</time></trkpt>
<trkpt lat="46.27893" lon="7.32691"><ele></ele><time>2025-8-26T6:49:50Z</time></trkpt>
<trkpt lat="46.27897" lon="7.32693"><ele></ele><time>2025-8-26T6:49:53Z</time></trkpt>
<trkpt lat="46.279" lon="7.32696"><ele></ele><time>2025-8-26T6:49:56Z</time></trkpt>
<trkpt lat="46.27907" lon="7.327"><ele></ele><time>2025-8-26T6:49:59Z</time></trkpt>
<trkpt lat="46.27911" lon="7.32703"><ele></ele><time>2025-8-26T6:50:2Z</time></trkpt>
<trkpt lat="46.27917" lon="7.32705"><ele></ele><time>2025-8-26T6:50:5Z</time></trkpt>
<trkpt lat="46.27919" lon="7.32706"><ele></ele><time>2025-8-26T6:50:8Z</time></trkpt>
<trkpt lat="46.27928" lon="7.32709"><ele></ele><time>2025-8-26T6:50:11Z</time></trkpt>
<trkpt lat="46.27929" lon="7.32709"><ele></ele><time>2025-8-26T6:50:14Z</time></trkpt>
<trkpt lat="46.27937" lon="7.32711"><ele></ele><time>2025-8-26T6:50:17Z</time></trkpt>
<trkpt lat="46.27939" lon="7.32711"><ele></ele><time>2025-8-26T6:50:20Z</time></trkpt>
<trkpt lat="46.27948" lon="7.32712"><ele></ele><time>2025-8-26T6:50:23Z</time></trkpt>
<trkpt lat="46.27949" lon="7.32712"><ele></ele><time>2025-8-26T6:50:26Z</time></trkpt>
<trkpt lat="46.27958" lon="7.32715"><ele></ele><time>2025-8-26T6:50:29Z</time></trkpt>
<trkpt lat="46.2796" lon="7.32715"><ele></ele><time>2025-8-26T6:50:32Z</time></trkpt>
<trkpt lat="46.27971" lon="7.32719"><ele></ele><time>2025-8-26T6:50:35Z</time></trkpt>
<trkpt lat="46.27972" lon="7.3272"><ele></ele><time>2025-8-26T6:50:38Z</time></trkpt>
<trkpt lat="46.27983" lon="7.32725"><ele></ele><time>2025-8-26T6:50:41Z</time></trkpt>
<trkpt lat="46.27992" lon="7.32731"><ele></ele><time>2025-8-26T6:50:44Z</time></trkpt>
<trkpt lat="46.27993" lon="7.32732"><ele></ele><time>2025-8-26T6:50:47Z</time></trkpt>
<trkpt lat="46.28001" lon="7.32738"><ele></ele><time>2025-8-26T6:50:50Z</time></trkpt>
<trkpt lat="46.28003" lon="7.3274"><ele></ele><time>2025-8-26T6:50:53Z</time></trkpt>
<trkpt lat="46.2801" lon="7.32743"><ele></ele><time>2025-8-26T6:50:56Z</time></trkpt>
<trkpt lat="46.28014" lon="7.32745"><ele></ele><time>2025-8-26T6:50:59Z</time></trkpt>
<trkpt lat="46.2802" lon="7.32749"><ele></ele><time>2025-8-26T6:51:2Z</time></trkpt>
<trkpt lat="46.28024" lon="7.32751"><ele></ele><time>2025-8-26T6:51:5Z</time></trkpt>
<trkpt lat="46.28028" lon="7.32754"><ele></ele><time>2025-8-26T6:51:8Z</time></trkpt>
<trkpt lat="46.28034" lon="7.32757"><ele></ele><time>2025-8-26T6:51:11Z</time></trkpt>
<trkpt lat="46.28039" lon="7.3276"><ele></ele><time>2025-8-26T6:51:14Z</time></trkpt>
<trkpt lat="46.28044" lon="7.32763"><ele></ele><time>2025-8-26T6:51:17Z</time></trkpt>
<trkpt lat="46.28047" lon="7.32765"><ele></ele><time>2025-8-26T6:51:20Z</time></trkpt>
<trkpt lat="46.28057" lon="7.32771"><ele></ele><time>2025-8-26T6:51:23Z</time></trkpt>
<trkpt lat="46.2806" lon="7.32773"><ele></ele><time>2025-8-26T6:51:26Z</time></trkpt>
<trkpt lat="46.28068" lon="7.32776"><ele></ele><time>2025-8-26T6:51:29Z</time></trkpt>
<trkpt lat="46.2807" lon="7.32777"><ele></ele><time>2025-8-26T6:51:32Z</time></trkpt>
<trkpt lat="46.28079" lon="7.32782"><ele></ele><time>2025-8-26T6:51:35Z</time></trkpt>
<trkpt lat="46.2808" lon="7.32783"><ele></ele><time>2025-8-26T6:51:38Z</time></trkpt>
<trkpt lat="46.28089" lon="7.32788"><ele></ele><time>2025-8-26T6:51:41Z</time></trkpt>
<trkpt lat="46.2809" lon="7.32789"><ele></ele><time>2025-8-26T6:51:44Z</time></trkpt>
<trkpt lat="46.28099" lon="7.32795"><ele></ele><time>2025-8-26T6:51:47Z</time></trkpt>
<trkpt lat="46.28102" lon="7.32797"><ele></ele><time>2025-8-26T6:51:50Z</time></trkpt>
<trkpt lat="46.2811" lon="7.32803"><ele></ele><time>2025-8-26T6:51:53Z</time></trkpt>
<trkpt lat="46.28111" lon="7.32804"><ele></ele><time>2025-8-26T6:51:56Z</time></trkpt>
<trkpt lat="46.28118" lon="7.32813"><ele></ele><time>2025-8-26T6:51:59Z</time></trkpt>
<trkpt lat="46.2812" lon="7.32815"><ele></ele><time>2025-8-26T6:52:2Z</time></trkpt>
<trkpt lat="46.28126" lon="7.32829"><ele></ele><time>2025-8-26T6:52:5Z</time></trkpt>
<trkpt lat="46.28135" lon="7.32843"><ele></ele><time>2025-8-26T6:52:8Z</time></trkpt>
<trkpt lat="46.28137" lon="7.32844"><ele></ele><time>2025-8-26T6:52:11Z</time></trkpt>
<trkpt lat="46.28149" lon="7.32841"><ele></ele><time>2025-8-26T6:52:14Z</time></trkpt>
<trkpt lat="46.28151" lon="7.32828"><ele></ele><time>2025-8-26T6:52:17Z</time></trkpt>
<trkpt lat="46.28149" lon="7.3282"><ele></ele><time>2025-8-26T6:52:20Z</time></trkpt>
<trkpt lat="46.28146" lon="7.32817"><ele></ele><time>2025-8-26T6:52:23Z</time></trkpt>
<trkpt lat="46.28136" lon="7.32809"><ele></ele><time>2025-8-26T6:52:26Z</time></trkpt>
<trkpt lat="46.28133" lon="7.32806"><ele></ele><time>2025-8-26T6:52:29Z</time></trkpt>
<trkpt lat="46.28126" lon="7.32797"><ele></ele><time>2025-8-26T6:52:32Z</time></trkpt>
<trkpt lat="46.28124" lon="7.32795"><ele></ele><time>2025-8-26T6:52:35Z</time></trkpt>
<trkpt lat="46.28123" lon="7.32793"><ele></ele><time>2025-8-26T6:52:38Z</time></trkpt>
<trkpt lat="46.28118" lon="7.32787"><ele></ele><time>2025-8-26T6:52:41Z</time></trkpt>
<trkpt lat="46.28114" lon="7.32781"><ele></ele><time>2025-8-26T6:52:44Z</time></trkpt>
<trkpt lat="46.28113" lon="7.32779"><ele></ele><time>2025-8-26T6:52:47Z</time></trkpt>
<trkpt lat="46.28106" lon="7.32771"><ele></ele><time>2025-8-26T6:52:50Z</time></trkpt>
<trkpt lat="46.28104" lon="7.3277"><ele></ele><time>2025-8-26T6:52:53Z</time></trkpt>
<trkpt lat="46.28101" lon="7.32766"><ele></ele><time>2025-8-26T6:52:56Z</time></trkpt>
<trkpt lat="46.28097" lon="7.32761"><ele></ele><time>2025-8-26T6:52:59Z</time></trkpt>
<trkpt lat="46.28095" lon="7.32759"><ele></ele><time>2025-8-26T6:53:2Z</time></trkpt>
<trkpt lat="46.28091" lon="7.32754"><ele></ele><time>2025-8-26T6:53:5Z</time></trkpt>
<trkpt lat="46.28085" lon="7.32746"><ele></ele><time>2025-8-26T6:53:8Z</time></trkpt>
<trkpt lat="46.28083" lon="7.32744"><ele></ele><time>2025-8-26T6:53:11Z</time></trkpt>
<trkpt lat="46.28075" lon="7.32737"><ele></ele><time>2025-8-26T6:53:14Z</time></trkpt>
<trkpt lat="46.28068" lon="7.3273"><ele></ele><time>2025-8-26T6:53:17Z</time></trkpt>
<trkpt lat="46.28064" lon="7.32728"><ele></ele><time>2025-8-26T6:53:20Z</time></trkpt>
<trkpt lat="46.28058" lon="7.32722"><ele></ele><time>2025-8-26T6:53:23Z</time></trkpt>
<trkpt lat="46.28055" lon="7.3272"><ele></ele><time>2025-8-26T6:53:26Z</time></trkpt>
<trkpt lat="46.28045" lon="7.3271"><ele></ele><time>2025-8-26T6:53:29Z</time></trkpt>
<trkpt lat="46.28044" lon="7.32709"><ele></ele><time>2025-8-26T6:53:32Z</time></trkpt>
<trkpt lat="46.28035" lon="7.32697"><ele></ele><time>2025-8-26T6:53:35Z</time></trkpt>
<trkpt lat="46.28035" lon="7.32696"><ele></ele><time>2025-8-26T6:53:38Z</time></trkpt>
<trkpt lat="46.28026" lon="7.32685"><ele></ele><time>2025-8-26T6:53:41Z</time></trkpt>
<trkpt lat="46.28018" lon="7.32674"><ele></ele><time>2025-8-26T6:53:44Z</time></trkpt>
<trkpt lat="46.2801" lon="7.32662"><ele></ele><time>2025-8-26T6:53:47Z</time></trkpt>
<trkpt lat="46.28" lon="7.3265"><ele></ele><time>2025-8-26T6:53:50Z</time></trkpt>
<trkpt lat="46.27993" lon="7.32637"><ele></ele><time>2025-8-26T6:53:53Z</time></trkpt>
<trkpt lat="46.27984" lon="7.32625"><ele></ele><time>2025-8-26T6:53:56Z</time></trkpt>
<trkpt lat="46.27983" lon="7.32623"><ele></ele><time>2025-8-26T6:53:59Z</time></trkpt>
<trkpt lat="46.27976" lon="7.32615"><ele></ele><time>2025-8-26T6:54:2Z</time></trkpt>
<trkpt lat="46.27975" lon="7.32613"><ele></ele><time>2025-8-26T6:54:5Z</time></trkpt>
<trkpt lat="46.27967" lon="7.32602"><ele></ele><time>2025-8-26T6:54:8Z</time></trkpt>
<trkpt lat="46.27959" lon="7.32591"><ele></ele><time>2025-8-26T6:54:11Z</time></trkpt>
<trkpt lat="46.27958" lon="7.3259"><ele></ele><time>2025-8-26T6:54:14Z</time></trkpt>
<trkpt lat="46.27953" lon="7.32585"><ele></ele><time>2025-8-26T6:54:17Z</time></trkpt>
<trkpt lat="46.27947" lon="7.32576"><ele></ele><time>2025-8-26T6:54:20Z</time></trkpt>
<trkpt lat="46.27945" lon="7.32573"><ele></ele><time>2025-8-26T6:54:23Z</time></trkpt>
<trkpt lat="46.27938" lon="7.32566"><ele></ele><time>2025-8-26T6:54:26Z</time></trkpt>
<trkpt lat="46.2793" lon="7.32557"><ele></ele><time>2025-8-26T6:54:29Z</time></trkpt>
<trkpt lat="46.27928" lon="7.32555"><ele></ele><time>2025-8-26T6:54:32Z</time></trkpt>
<trkpt lat="46.27919" lon="7.32546"><ele></ele><time>2025-8-26T6:54:35Z</time></trkpt>
<trkpt lat="46.27918" lon="7.32545"><ele></ele><time>2025-8-26T6:54:38Z</time></trkpt>
<trkpt lat="46.2791" lon="7.32535"><ele></ele><time>2025-8-26T6:54:41Z</time></trkpt>
<trkpt lat="46.27901" lon="7.32526"><ele></ele><time>2025-8-26T6:54:44Z</time></trkpt>
<trkpt lat="46.27897" lon="7.32517"><ele></ele><time>2025-8-26T6:54:47Z</time></trkpt>
<trkpt lat="46.27896" lon="7.32511"><ele></ele><time>2025-8-26T6:54:50Z</time></trkpt>
<trkpt lat="46.27892" lon="7.32502"><ele></ele><time>2025-8-26T6:54:53Z</time></trkpt>
<trkpt lat="46.27889" lon="7.32494"><ele></ele><time>2025-8-26T6:54:56Z</time></trkpt>
<trkpt lat="46.27887" lon="7.32487"><ele></ele><time>2025-8-26T6:54:59Z</time></trkpt>
<trkpt lat="46.27884" lon="7.32478"><ele></ele><time>2025-8-26T6:55:2Z</time></trkpt>
<trkpt lat="46.27881" lon="7.32473"><ele></ele><time>2025-8-26T6:55:5Z</time></trkpt>
<trkpt lat="46.27876" lon="7.32462"><ele></ele><time>2025-8-26T6:55:8Z</time></trkpt>
<trkpt lat="46.27875" lon="7.32459"><ele></ele><time>2025-8-26T6:55:11Z</time></trkpt>
<trkpt lat="46.27869" lon="7.32449"><ele></ele><time>2025-8-26T6:55:14Z</time></trkpt>
<trkpt lat="46.27868" lon="7.32448"><ele></ele><time>2025-8-26T6:55:17Z</time></trkpt>
<trkpt lat="46.27861" lon="7.32435"><ele></ele><time>2025-8-26T6:55:20Z</time></trkpt>
<trkpt lat="46.27855" lon="7.32426"><ele></ele><time>2025-8-26T6:55:23Z</time></trkpt>
<trkpt lat="46.27854" lon="7.32424"><ele></ele><time>2025-8-26T6:55:26Z</time></trkpt>
<trkpt lat="46.27849" lon="7.32413"><ele></ele><time>2025-8-26T6:55:29Z</time></trkpt>
<trkpt lat="46.27847" lon="7.32411"><ele></ele><time>2025-8-26T6:55:32Z</time></trkpt>
<trkpt lat="46.27843" lon="7.32403"><ele></ele><time>2025-8-26T6:55:35Z</time></trkpt>
<trkpt lat="46.27839" lon="7.32393"><ele></ele><time>2025-8-26T6:55:38Z</time></trkpt>
<trkpt lat="46.27835" lon="7.3239"><ele></ele><time>2025-8-26T6:55:41Z</time></trkpt>
<trkpt lat="46.2783" lon="7.32384"><ele></ele><time>2025-8-26T6:55:44Z</time></trkpt>
<trkpt lat="46.27825" lon="7.3238"><ele></ele><time>2025-8-26T6:55:47Z</time></trkpt>
<trkpt lat="46.27821" lon="7.32372"><ele></ele><time>2025-8-26T6:55:50Z</time></trkpt>
<trkpt lat="46.27821" lon="7.32366"><ele></ele><time>2025-8-26T6:55:53Z</time></trkpt>
<trkpt lat="46.27828" lon="7.3236"><ele></ele><time>2025-8-26T6:55:56Z</time></trkpt>
<trkpt lat="46.27836" lon="7.32365"><ele></ele><time>2025-8-26T6:55:59Z</time></trkpt>
<trkpt lat="46.27841" lon="7.32376"><ele></ele><time>2025-8-26T6:56:2Z</time></trkpt>
<trkpt lat="46.27842" lon="7.32378"><ele></ele><time>2025-8-26T6:56:5Z</time></trkpt>
<trkpt lat="46.27845" lon="7.32384"><ele></ele><time>2025-8-26T6:56:8Z</time></trkpt>
<trkpt lat="46.27846" lon="7.32387"><ele></ele><time>2025-8-26T6:56:11Z</time></trkpt>
<trkpt lat="46.27849" lon="7.32391"><ele></ele><time>2025-8-26T6:56:14Z</time></trkpt>
<trkpt lat="46.27852" lon="7.32395"><ele></ele><time>2025-8-26T6:56:17Z</time></trkpt>
<trkpt lat="46.27854" lon="7.32396"><ele></ele><time>2025-8-26T6:56:20Z</time></trkpt>
<trkpt lat="46.27859" lon="7.32402"><ele></ele><time>2025-8-26T6:56:23Z</time></trkpt>
<trkpt lat="46.27863" lon="7.32406"><ele></ele><time>2025-8-26T6:56:26Z</time></trkpt>
<trkpt lat="46.27865" lon="7.32409"><ele></ele><time>2025-8-26T6:56:29Z</time></trkpt>
<trkpt lat="46.27867" lon="7.32412"><ele></ele><time>2025-8-26T6:56:32Z</time></trkpt>
<trkpt lat="46.2787" lon="7.32416"><ele></ele><time>2025-8-26T6:56:35Z</time></trkpt>
<trkpt lat="46.27872" lon="7.32417"><ele></ele><time>2025-8-26T6:56:38Z</time></trkpt>
<trkpt lat="46.27876" lon="7.3242"><ele></ele><time>2025-8-26T6:56:41Z</time></trkpt>
<trkpt lat="46.2788" lon="7.32425"><ele></ele><time>2025-8-26T6:56:44Z</time></trkpt>
<trkpt lat="46.27885" lon="7.32429"><ele></ele><time>2025-8-26T6:56:47Z</time></trkpt>
<trkpt lat="46.27887" lon="7.32431"><ele></ele><time>2025-8-26T6:56:50Z</time></trkpt>
<trkpt lat="46.27892" lon="7.32436"><ele></ele><time>2025-8-26T6:56:53Z</time></trkpt>
<trkpt lat="46.27894" lon="7.32437"><ele></ele><time>2025-8-26T6:56:56Z</time></trkpt>
<trkpt lat="46.27898" lon="7.32441"><ele></ele><time>2025-8-26T6:56:59Z</time></trkpt>
<trkpt lat="46.27901" lon="7.32445"><ele></ele><time>2025-8-26T6:57:2Z</time></trkpt>
<trkpt lat="46.27905" lon="7.32448"><ele></ele><time>2025-8-26T6:57:5Z</time></trkpt>
<trkpt lat="46.27907" lon="7.3245"><ele></ele><time>2025-8-26T6:57:8Z</time></trkpt>
<trkpt lat="46.27912" lon="7.32456"><ele></ele><time>2025-8-26T6:57:11Z</time></trkpt>
<trkpt lat="46.27913" lon="7.32457"><ele></ele><time>2025-8-26T6:57:14Z</time></trkpt>
<trkpt lat="46.27918" lon="7.32462"><ele></ele><time>2025-8-26T6:57:17Z</time></trkpt>
<trkpt lat="46.2792" lon="7.32465"><ele></ele><time>2025-8-26T6:57:20Z</time></trkpt>
<trkpt lat="46.27923" lon="7.32468"><ele></ele><time>2025-8-26T6:57:23Z</time></trkpt>
<trkpt lat="46.27927" lon="7.32472"><ele></ele><time>2025-8-26T6:57:26Z</time></trkpt>
<trkpt lat="46.27929" lon="7.32474"><ele></ele><time>2025-8-26T6:57:29Z</time></trkpt>
<trkpt lat="46.27931" lon="7.32475"><ele></ele><time>2025-8-26T6:57:32Z</time></trkpt>
<trkpt lat="46.27932" lon="7.32477"><ele></ele><time>2025-8-26T6:57:35Z</time></trkpt>
<trkpt lat="46.27934" lon="7.32478"><ele></ele><time>2025-8-26T6:57:38Z</time></trkpt>
<trkpt lat="46.2794" lon="7.32481"><ele></ele><time>2025-8-26T6:57:41Z</time></trkpt>
<trkpt lat="46.27941" lon="7.32482"><ele></ele><time>2025-8-26T6:57:44Z</time></trkpt>
<trkpt lat="46.27947" lon="7.32487"><ele></ele><time>2025-8-26T6:57:47Z</time></trkpt>
<trkpt lat="46.27948" lon="7.32488"><ele></ele><time>2025-8-26T6:57:50Z</time></trkpt>
<trkpt lat="46.27954" lon="7.32491"><ele></ele><time>2025-8-26T6:57:53Z</time></trkpt>
<trkpt lat="46.27956" lon="7.32492"><ele></ele><time>2025-8-26T6:57:56Z</time></trkpt>
<trkpt lat="46.2796" lon="7.32496"><ele></ele><time>2025-8-26T6:57:59Z</time></trkpt>
<trkpt lat="46.27963" lon="7.32498"><ele></ele><time>2025-8-26T6:58:2Z</time></trkpt>
<trkpt lat="46.27965" lon="7.325"><ele></ele><time>2025-8-26T6:58:5Z</time></trkpt>
<trkpt lat="46.2797" lon="7.32503"><ele></ele><time>2025-8-26T6:58:8Z</time></trkpt>
<trkpt lat="46.27973" lon="7.32505"><ele></ele><time>2025-8-26T6:58:11Z</time></trkpt>
<trkpt lat="46.27977" lon="7.32508"><ele></ele><time>2025-8-26T6:58:14Z</time></trkpt>
<trkpt lat="46.2798" lon="7.32509"><ele></ele><time>2025-8-26T6:58:17Z</time></trkpt>
<trkpt lat="46.27985" lon="7.32512"><ele></ele><time>2025-8-26T6:58:20Z</time></trkpt>
<trkpt lat="46.27987" lon="7.32512"><ele></ele><time>2025-8-26T6:58:23Z</time></trkpt>
<trkpt lat="46.27993" lon="7.32514"><ele></ele><time>2025-8-26T6:58:26Z</time></trkpt>
<trkpt lat="46.27995" lon="7.32514"><ele></ele><time>2025-8-26T6:58:29Z</time></trkpt>
<trkpt lat="46.28002" lon="7.32517"><ele></ele><time>2025-8-26T6:58:32Z</time></trkpt>
<trkpt lat="46.28003" lon="7.32517"><ele></ele><time>2025-8-26T6:58:35Z</time></trkpt>
<trkpt lat="46.28009" lon="7.32518"><ele></ele><time>2025-8-26T6:58:38Z</time></trkpt>
<trkpt lat="46.2801" lon="7.32518"><ele></ele><time>2025-8-26T6:58:41Z</time></trkpt>
<trkpt lat="46.28018" lon="7.32521"><ele></ele><time>2025-8-26T6:58:44Z</time></trkpt>
<trkpt lat="46.28019" lon="7.32521"><ele></ele><time>2025-8-26T6:58:47Z</time></trkpt>
<trkpt lat="46.28027" lon="7.32525"><ele></ele><time>2025-8-26T6:58:50Z</time></trkpt>
<trkpt lat="46.28034" lon="7.32527"><ele></ele><time>2025-8-26T6:58:53Z</time></trkpt>
<trkpt lat="46.28035" lon="7.32528"><ele></ele><time>2025-8-26T6:58:56Z</time></trkpt>
<trkpt lat="46.28041" lon="7.32533"><ele></ele><time>2025-8-26T6:58:59Z</time></trkpt>
<trkpt lat="46.28044" lon="7.32533"><ele></ele><time>2025-8-26T6:59:2Z</time></trkpt>
<trkpt lat="46.28049" lon="7.32536"><ele></ele><time>2025-8-26T6:59:5Z</time></trkpt>
<trkpt lat="46.28051" lon="7.32537"><ele></ele><time>2025-8-26T6:59:8Z</time></trkpt>
<trkpt lat="46.28057" lon="7.32539"><ele></ele><time>2025-8-26T6:59:11Z</time></trkpt>
<trkpt lat="46.28059" lon="7.3254"><ele></ele><time>2025-8-26T6:59:14Z</time></trkpt>
<trkpt lat="46.28064" lon="7.32542"><ele></ele><time>2025-8-26T6:59:17Z</time></trkpt>
<trkpt lat="46.28068" lon="7.32544"><ele></ele><time>2025-8-26T6:59:20Z</time></trkpt>
<trkpt lat="46.28069" lon="7.32544"><ele></ele><time>2025-8-26T6:59:23Z</time></trkpt>
<trkpt lat="46.28074" lon="7.32546"><ele></ele><time>2025-8-26T6:59:26Z</time></trkpt>
<trkpt lat="46.28078" lon="7.32547"><ele></ele><time>2025-8-26T6:59:29Z</time></trkpt>
<trkpt lat="46.28083" lon="7.3255"><ele></ele><time>2025-8-26T6:59:32Z</time></trkpt>
<trkpt lat="46.28086" lon="7.3255"><ele></ele><time>2025-8-26T6:59:35Z</time></trkpt>
<trkpt lat="46.28092" lon="7.32552"><ele></ele><time>2025-8-26T6:59:38Z</time></trkpt>
<trkpt lat="46.28095" lon="7.32555"><ele></ele><time>2025-8-26T6:59:41Z</time></trkpt>
<trkpt lat="46.281" lon="7.32558"><ele></ele><time>2025-8-26T6:59:44Z</time></trkpt>
<trkpt lat="46.28104" lon="7.32559"><ele></ele><time>2025-8-26T6:59:47Z</time></trkpt>
<trkpt lat="46.28109" lon="7.3256"><ele></ele><time>2025-8-26T6:59:50Z</time></trkpt>
<trkpt lat="46.28114" lon="7.32562"><ele></ele><time>2025-8-26T6:59:53Z</time></trkpt>
<trkpt lat="46.28118" lon="7.32563"><ele></ele><time>2025-8-26T6:59:56Z</time></trkpt>
<trkpt lat="46.28125" lon="7.32567"><ele></ele><time>2025-8-26T6:59:59Z</time></trkpt>
<trkpt lat="46.28127" lon="7.32568"><ele></ele><time>2025-8-26T7:0:2Z</time></trkpt>
<trkpt lat="46.28132" lon="7.32572"><ele></ele><time>2025-8-26T7:0:5Z</time></trkpt>
<trkpt lat="46.28135" lon="7.32573"><ele></ele><time>2025-8-26T7:0:8Z</time></trkpt>
<trkpt lat="46.2814" lon="7.32576"><ele></ele><time>2025-8-26T7:0:11Z</time></trkpt>
<trkpt lat="46.28145" lon="7.32579"><ele></ele><time>2025-8-26T7:0:14Z</time></trkpt>
<trkpt lat="46.28149" lon="7.3258"><ele></ele><time>2025-8-26T7:0:17Z</time></trkpt>
<trkpt lat="46.28155" lon="7.32584"><ele></ele><time>2025-8-26T7:0:20Z</time></trkpt>
<trkpt lat="46.28156" lon="7.32584"><ele></ele><time>2025-8-26T7:0:23Z</time></trkpt>
<trkpt lat="46.28159" lon="7.32587"><ele></ele><time>2025-8-26T7:0:26Z</time></trkpt>
<trkpt lat="46.28166" lon="7.32588"><ele></ele><time>2025-8-26T7:0:29Z</time></trkpt>
<trkpt lat="46.28167" lon="7.32588"><ele></ele><time>2025-8-26T7:0:32Z</time></trkpt>
<trkpt lat="46.28168" lon="7.32589"><ele></ele><time>2025-8-26T7:0:35Z</time></trkpt>
<trkpt lat="46.28174" lon="7.32591"><ele></ele><time>2025-8-26T7:0:38Z</time></trkpt>
<trkpt lat="46.28175" lon="7.32591"><ele></ele><time>2025-8-26T7:0:41Z</time></trkpt>
<trkpt lat="46.28183" lon="7.32592"><ele></ele><time>2025-8-26T7:0:44Z</time></trkpt>
<trkpt lat="46.28186" lon="7.32593"><ele></ele><time>2025-8-26T7:0:47Z</time></trkpt>
<trkpt lat="46.2819" lon="7.32595"><ele></ele><time>2025-8-26T7:0:50Z</time></trkpt>
<trkpt lat="46.28191" lon="7.32596"><ele></ele><time>2025-8-26T7:0:53Z</time></trkpt>
<trkpt lat="46.28193" lon="7.32596"><ele></ele><time>2025-8-26T7:0:56Z</time></trkpt>
<trkpt lat="46.28196" lon="7.32597"><ele></ele><time>2025-8-26T7:0:59Z</time></trkpt>
<trkpt lat="46.28197" lon="7.32598"><ele></ele><time>2025-8-26T7:1:2Z</time></trkpt>
<trkpt lat="46.28205" lon="7.32602"><ele></ele><time>2025-8-26T7:1:5Z</time></trkpt>
<trkpt lat="46.28214" lon="7.32608"><ele></ele><time>2025-8-26T7:1:8Z</time></trkpt>
<trkpt lat="46.28223" lon="7.32611"><ele></ele><time>2025-8-26T7:1:11Z</time></trkpt>
<trkpt lat="46.28232" lon="7.32612"><ele></ele><time>2025-8-26T7:1:14Z</time></trkpt>
<trkpt lat="46.28233" lon="7.32612"><ele></ele><time>2025-8-26T7:1:17Z</time></trkpt>
<trkpt lat="46.28241" lon="7.32611"><ele></ele><time>2025-8-26T7:1:20Z</time></trkpt>
<trkpt lat="46.28243" lon="7.32611"><ele></ele><time>2025-8-26T7:1:23Z</time></trkpt>
<trkpt lat="46.28249" lon="7.32611"><ele></ele><time>2025-8-26T7:1:26Z</time></trkpt>
<trkpt lat="46.28255" lon="7.3261"><ele></ele><time>2025-8-26T7:1:29Z</time></trkpt>
<trkpt lat="46.28259" lon="7.32609"><ele></ele><time>2025-8-26T7:1:32Z</time></trkpt>
<trkpt lat="46.28263" lon="7.32609"><ele></ele><time>2025-8-26T7:1:35Z</time></trkpt>
<trkpt lat="46.28266" lon="7.32609"><ele></ele><time>2025-8-26T7:1:38Z</time></trkpt>
<trkpt lat="46.28273" lon="7.32609"><ele></ele><time>2025-8-26T7:1:41Z</time></trkpt>
<trkpt lat="46.28275" lon="7.32609"><ele></ele><time>2025-8-26T7:1:44Z</time></trkpt>
<trkpt lat="46.28281" lon="7.3261"><ele></ele><time>2025-8-26T7:1:47Z</time></trkpt>
<trkpt lat="46.28286" lon="7.3261"><ele></ele><time>2025-8-26T7:1:50Z</time></trkpt>
<trkpt lat="46.28289" lon="7.32609"><ele></ele><time>2025-8-26T7:1:53Z</time></trkpt>
<trkpt lat="46.28294" lon="7.32609"><ele></ele><time>2025-8-26T7:1:56Z</time></trkpt>
<trkpt lat="46.28297" lon="7.32609"><ele></ele><time>2025-8-26T7:1:59Z</time></trkpt>
<trkpt lat="46.28303" lon="7.32609"><ele></ele><time>2025-8-26T7:2:2Z</time></trkpt>
<trkpt lat="46.28306" lon="7.32609"><ele></ele><time>2025-8-26T7:2:5Z</time></trkpt>
<trkpt lat="46.28315" lon="7.3261"><ele></ele><time>2025-8-26T7:2:8Z</time></trkpt>
<trkpt lat="46.28317" lon="7.3261"><ele></ele><time>2025-8-26T7:2:11Z</time></trkpt>
<trkpt lat="46.28325" lon="7.32609"><ele></ele><time>2025-8-26T7:2:14Z</time></trkpt>
<trkpt lat="46.28332" lon="7.32609"><ele></ele><time>2025-8-26T7:2:17Z</time></trkpt>
<trkpt lat="46.28336" lon="7.32609"><ele></ele><time>2025-8-26T7:2:20Z</time></trkpt>
<trkpt lat="46.28341" lon="7.32609"><ele></ele><time>2025-8-26T7:2:23Z</time></trkpt>
<trkpt lat="46.28349" lon="7.32609"><ele></ele><time>2025-8-26T7:2:26Z</time></trkpt>
<trkpt lat="46.28353" lon="7.32608"><ele></ele><time>2025-8-26T7:2:29Z</time></trkpt>
<trkpt lat="46.28359" lon="7.32608"><ele></ele><time>2025-8-26T7:2:32Z</time></trkpt>
<trkpt lat="46.28365" lon="7.32607"><ele></ele><time>2025-8-26T7:2:35Z</time></trkpt>
<trkpt lat="46.28371" lon="7.32607"><ele></ele><time>2025-8-26T7:2:38Z</time></trkpt>
<trkpt lat="46.28377" lon="7.32608"><ele></ele><time>2025-8-26T7:2:41Z</time></trkpt>
<trkpt lat="46.28383" lon="7.3261"><ele></ele><time>2025-8-26T7:2:44Z</time></trkpt>
<trkpt lat="46.28387" lon="7.3261"><ele></ele><time>2025-8-26T7:2:47Z</time></trkpt>
<trkpt lat="46.28394" lon="7.3261"><ele></ele><time>2025-8-26T7:2:50Z</time></trkpt>
<trkpt lat="46.28397" lon="7.32611"><ele></ele><time>2025-8-26T7:2:53Z</time></trkpt>
<trkpt lat="46.28408" lon="7.3261"><ele></ele><time>2025-8-26T7:2:56Z</time></trkpt>
<trkpt lat="46.2841" lon="7.32609"><ele></ele><time>2025-8-26T7:2:59Z</time></trkpt>
<trkpt lat="46.28424" lon="7.32607"><ele></ele><time>2025-8-26T7:3:2Z</time></trkpt>
<trkpt lat="46.28433" lon="7.32602"><ele></ele><time>2025-8-26T7:3:5Z</time></trkpt>
<trkpt lat="46.2844" lon="7.32595"><ele></ele><time>2025-8-26T7:3:8Z</time></trkpt>
<trkpt lat="46.28441" lon="7.32594"><ele></ele><time>2025-8-26T7:3:11Z</time></trkpt>
<trkpt lat="46.28451" lon="7.32584"><ele></ele><time>2025-8-26T7:3:14Z</time></trkpt>
<trkpt lat="46.28461" lon="7.32577"><ele></ele><time>2025-8-26T7:3:17Z</time></trkpt>
<trkpt lat="46.28464" lon="7.32575"><ele></ele><time>2025-8-26T7:3:20Z</time></trkpt>
<trkpt lat="46.28473" lon="7.32574"><ele></ele><time>2025-8-26T7:3:23Z</time></trkpt>
<trkpt lat="46.28476" lon="7.32573"><ele></ele><time>2025-8-26T7:3:26Z</time></trkpt>
<trkpt lat="46.28483" lon="7.3257"><ele></ele><time>2025-8-26T7:3:29Z</time></trkpt>
<trkpt lat="46.28484" lon="7.3257"><ele></ele><time>2025-8-26T7:3:32Z</time></trkpt>
<trkpt lat="46.28492" lon="7.32569"><ele></ele><time>2025-8-26T7:3:35Z</time></trkpt>
<trkpt lat="46.28493" lon="7.3257"><ele></ele><time>2025-8-26T7:3:38Z</time></trkpt>
<trkpt lat="46.28501" lon="7.3257"><ele></ele><time>2025-8-26T7:3:41Z</time></trkpt>
<trkpt lat="46.28505" lon="7.3257"><ele></ele><time>2025-8-26T7:3:44Z</time></trkpt>
<trkpt lat="46.28508" lon="7.3257"><ele></ele><time>2025-8-26T7:3:47Z</time></trkpt>
<trkpt lat="46.28514" lon="7.32568"><ele></ele><time>2025-8-26T7:3:50Z</time></trkpt>
<trkpt lat="46.28516" lon="7.32568"><ele></ele><time>2025-8-26T7:3:53Z</time></trkpt>
<trkpt lat="46.28523" lon="7.32565"><ele></ele><time>2025-8-26T7:3:56Z</time></trkpt>
<trkpt lat="46.28525" lon="7.32563"><ele></ele><time>2025-8-26T7:3:59Z</time></trkpt>
<trkpt lat="46.2853" lon="7.32561"><ele></ele><time>2025-8-26T7:4:2Z</time></trkpt>
<trkpt lat="46.28536" lon="7.32555"><ele></ele><time>2025-8-26T7:4:5Z</time></trkpt>
<trkpt lat="46.28537" lon="7.32554"><ele></ele><time>2025-8-26T7:4:8Z</time></trkpt>
<trkpt lat="46.28544" lon="7.32548"><ele></ele><time>2025-8-26T7:4:11Z</time></trkpt>
<trkpt lat="46.28546" lon="7.32545"><ele></ele><time>2025-8-26T7:4:14Z</time></trkpt>
<trkpt lat="46.28548" lon="7.32541"><ele></ele><time>2025-8-26T7:4:17Z</time></trkpt>
<trkpt lat="46.28555" lon="7.32537"><ele></ele><time>2025-8-26T7:4:20Z</time></trkpt>
<trkpt lat="46.28557" lon="7.32536"><ele></ele><time>2025-8-26T7:4:23Z</time></trkpt>
<trkpt lat="46.28567" lon="7.32536"><ele></ele><time>2025-8-26T7:4:26Z</time></trkpt>
<trkpt lat="46.28575" lon="7.32536"><ele></ele><time>2025-8-26T7:4:29Z</time></trkpt>
<trkpt lat="46.28577" lon="7.32536"><ele></ele><time>2025-8-26T7:4:32Z</time></trkpt>
<trkpt lat="46.28583" lon="7.32536"><ele></ele><time>2025-8-26T7:4:35Z</time></trkpt>
<trkpt lat="46.28591" lon="7.32534"><ele></ele><time>2025-8-26T7:4:38Z</time></trkpt>
<trkpt lat="46.28594" lon="7.32534"><ele></ele><time>2025-8-26T7:4:41Z</time></trkpt>
<trkpt lat="46.28601" lon="7.32533"><ele></ele><time>2025-8-26T7:4:44Z</time></trkpt>
<trkpt lat="46.28604" lon="7.32533"><ele></ele><time>2025-8-26T7:4:47Z</time></trkpt>
<trkpt lat="46.2861" lon="7.32533"><ele></ele><time>2025-8-26T7:4:50Z</time></trkpt>
<trkpt lat="46.28619" lon="7.32532"><ele></ele><time>2025-8-26T7:4:53Z</time></trkpt>
<trkpt lat="46.2862" lon="7.32533"><ele></ele><time>2025-8-26T7:4:56Z</time></trkpt>
<trkpt lat="46.28629" lon="7.32534"><ele></ele><time>2025-8-26T7:4:59Z</time></trkpt>
<trkpt lat="46.28631" lon="7.32533"><ele></ele><time>2025-8-26T7:5:2Z</time></trkpt>
<trkpt lat="46.28635" lon="7.3253"><ele></ele><time>2025-8-26T7:5:5Z</time></trkpt>
<trkpt lat="46.28643" lon="7.32522"><ele></ele><time>2025-8-26T7:5:8Z</time></trkpt>
<trkpt lat="46.28649" lon="7.32512"><ele></ele><time>2025-8-26T7:5:11Z</time></trkpt>
<trkpt lat="46.2865" lon="7.32509"><ele></ele><time>2025-8-26T7:5:14Z</time></trkpt>
<trkpt lat="46.28661" lon="7.32495"><ele></ele><time>2025-8-26T7:5:17Z</time></trkpt>
<trkpt lat="46.28671" lon="7.32482"><ele></ele><time>2025-8-26T7:5:20Z</time></trkpt>
<trkpt lat="46.28684" lon="7.32472"><ele></ele><time>2025-8-26T7:5:23Z</time></trkpt>
<trkpt lat="46.28689" lon="7.32462"><ele></ele><time>2025-8-26T7:5:26Z</time></trkpt>
<trkpt lat="46.2869" lon="7.32457"><ele></ele><time>2025-8-26T7:5:29Z</time></trkpt>
<trkpt lat="46.28688" lon="7.32452"><ele></ele><time>2025-8-26T7:5:32Z</time></trkpt>
<trkpt lat="46.28686" lon="7.32452"><ele></ele><time>2025-8-26T7:5:35Z</time></trkpt>
<trkpt lat="46.2868" lon="7.32456"><ele></ele><time>2025-8-26T7:5:38Z</time></trkpt>
<trkpt lat="46.28678" lon="7.32462"><ele></ele><time>2025-8-26T7:5:41Z</time></trkpt>
<trkpt lat="46.28673" lon="7.32468"><ele></ele><time>2025-8-26T7:5:44Z</time></trkpt>
<trkpt lat="46.28671" lon="7.32471"><ele></ele><time>2025-8-26T7:5:47Z</time></trkpt>
<trkpt lat="46.2867" lon="7.32473"><ele></ele><time>2025-8-26T7:5:50Z</time></trkpt>
<trkpt lat="46.28664" lon="7.32481"><ele></ele><time>2025-8-26T7:5:53Z</time></trkpt>
<trkpt lat="46.28663" lon="7.32482"><ele></ele><time>2025-8-26T7:5:56Z</time></trkpt>
<trkpt lat="46.28659" lon="7.32487"><ele></ele><time>2025-8-26T7:5:59Z</time></trkpt>
<trkpt lat="46.28654" lon="7.3249"><ele></ele><time>2025-8-26T7:6:2Z</time></trkpt>
<trkpt lat="46.28651" lon="7.32492"><ele></ele><time>2025-8-26T7:6:5Z</time></trkpt>
<trkpt lat="46.28644" lon="7.32493"><ele></ele><time>2025-8-26T7:6:8Z</time></trkpt>
<trkpt lat="46.28641" lon="7.32493"><ele></ele><time>2025-8-26T7:6:11Z</time></trkpt>
<trkpt lat="46.28633" lon="7.32492"><ele></ele><time>2025-8-26T7:6:14Z</time></trkpt>
<trkpt lat="46.28631" lon="7.32493"><ele></ele><time>2025-8-26T7:6:17Z</time></trkpt>
<trkpt lat="46.28623" lon="7.32494"><ele></ele><time>2025-8-26T7:6:20Z</time></trkpt>
<trkpt lat="46.28617" lon="7.32498"><ele></ele><time>2025-8-26T7:6:23Z</time></trkpt>
<trkpt lat="46.28614" lon="7.32499"><ele></ele><time>2025-8-26T7:6:26Z</time></trkpt>
<trkpt lat="46.28613" lon="7.32498"><ele></ele><time>2025-8-26T7:6:29Z</time></trkpt>
<trkpt lat="46.28611" lon="7.32498"><ele></ele><time>2025-8-26T7:6:32Z</time></trkpt>
<trkpt lat="46.28604" lon="7.32495"><ele></ele><time>2025-8-26T7:6:35Z</time></trkpt>
<trkpt lat="46.28602" lon="7.32494"><ele></ele><time>2025-8-26T7:6:38Z</time></trkpt>
<trkpt lat="46.28595" lon="7.3249"><ele></ele><time>2025-8-26T7:6:41Z</time></trkpt>
<trkpt lat="46.28594" lon="7.32489"><ele></ele><time>2025-8-26T7:6:44Z</time></trkpt>
<trkpt lat="46.28587" lon="7.32483"><ele></ele><time>2025-8-26T7:6:47Z</time></trkpt>
<trkpt lat="46.28577" lon="7.32478"><ele></ele><time>2025-8-26T7:6:50Z</time></trkpt>
<trkpt lat="46.28571" lon="7.32476"><ele></ele><time>2025-8-26T7:6:53Z</time></trkpt>
<trkpt lat="46.28566" lon="7.32477"><ele></ele><time>2025-8-26T7:6:56Z</time></trkpt>
<trkpt lat="46.28565" lon="7.32477"><ele></ele><time>2025-8-26T7:6:59Z</time></trkpt>
<trkpt lat="46.28561" lon="7.32478"><ele></ele><time>2025-8-26T7:7:2Z</time></trkpt>
<trkpt lat="46.2856" lon="7.32479"><ele></ele><time>2025-8-26T7:7:5Z</time></trkpt>
<trkpt lat="46.28558" lon="7.3248"><ele></ele><time>2025-8-26T7:7:8Z</time></trkpt>
<trkpt lat="46.28553" lon="7.3248"><ele></ele><time>2025-8-26T7:7:11Z</time></trkpt>
<trkpt lat="46.28551" lon="7.32481"><ele></ele><time>2025-8-26T7:7:14Z</time></trkpt>
<trkpt lat="46.28547" lon="7.32482"><ele></ele><time>2025-8-26T7:7:17Z</time></trkpt>
<trkpt lat="46.28545" lon="7.32483"><ele></ele><time>2025-8-26T7:7:20Z</time></trkpt>
<trkpt lat="46.28538" lon="7.32489"><ele></ele><time>2025-8-26T7:7:23Z</time></trkpt>
<trkpt lat="46.28528" lon="7.32491"><ele></ele><time>2025-8-26T7:7:26Z</time></trkpt>
<trkpt lat="46.28527" lon="7.32492"><ele></ele><time>2025-8-26T7:7:29Z</time></trkpt>
<trkpt lat="46.28521" lon="7.32491"><ele></ele><time>2025-8-26T7:7:32Z</time></trkpt>
<trkpt lat="46.28517" lon="7.32491"><ele></ele><time>2025-8-26T7:7:35Z</time></trkpt>
<trkpt lat="46.28511" lon="7.32488"><ele></ele><time>2025-8-26T7:7:38Z</time></trkpt>
<trkpt lat="46.28508" lon="7.32486"><ele></ele><time>2025-8-26T7:7:41Z</time></trkpt>
<trkpt lat="46.28505" lon="7.32485"><ele></ele><time>2025-8-26T7:7:44Z</time></trkpt>
<trkpt lat="46.285" lon="7.32482"><ele></ele><time>2025-8-26T7:7:47Z</time></trkpt>
<trkpt lat="46.28499" lon="7.32481"><ele></ele><time>2025-8-26T7:7:50Z</time></trkpt>
<trkpt lat="46.28498" lon="7.32481"><ele></ele><time>2025-8-26T7:7:53Z</time></trkpt>
<trkpt lat="46.28492" lon="7.32479"><ele></ele><time>2025-8-26T7:7:56Z</time></trkpt>
<trkpt lat="46.28488" lon="7.32478"><ele></ele><time>2025-8-26T7:7:59Z</time></trkpt>
<trkpt lat="46.28484" lon="7.32476"><ele></ele><time>2025-8-26T7:8:2Z</time></trkpt>
<trkpt lat="46.28479" lon="7.32476"><ele></ele><time>2025-8-26T7:8:5Z</time></trkpt>
<trkpt lat="46.28478" lon="7.32476"><ele></ele><time>2025-8-26T7:8:8Z</time></trkpt>
<trkpt lat="46.28471" lon="7.32475"><ele></ele><time>2025-8-26T7:8:11Z</time></trkpt>
<trkpt lat="46.28469" lon="7.32476"><ele></ele><time>2025-8-26T7:8:14Z</time></trkpt>
<trkpt lat="46.28467" lon="7.32475"><ele></ele><time>2025-8-26T7:8:17Z</time></trkpt>
<trkpt lat="46.28465" lon="7.32476"><ele></ele><time>2025-8-26T7:8:20Z</time></trkpt>
<trkpt lat="46.28462" lon="7.32474"><ele></ele><time>2025-8-26T7:8:23Z</time></trkpt>
<trkpt lat="46.28457" lon="7.32474"><ele></ele><time>2025-8-26T7:8:26Z</time></trkpt>
<trkpt lat="46.28451" lon="7.32474"><ele></ele><time>2025-8-26T7:8:29Z</time></trkpt>
<trkpt lat="46.28448" lon="7.32473"><ele></ele><time>2025-8-26T7:8:32Z</time></trkpt>
<trkpt lat="46.28442" lon="7.32469"><ele></ele><time>2025-8-26T7:8:35Z</time></trkpt>
<trkpt lat="46.28441" lon="7.32467"><ele></ele><time>2025-8-26T7:8:38Z</time></trkpt>
<trkpt lat="46.28439" lon="7.32467"><ele></ele><time>2025-8-26T7:8:41Z</time></trkpt>
<trkpt lat="46.28436" lon="7.32468"><ele></ele><time>2025-8-26T7:8:44Z</time></trkpt>
<trkpt lat="46.28433" lon="7.32467"><ele></ele><time>2025-8-26T7:8:47Z</time></trkpt>
<trkpt lat="46.28432" lon="7.32464"><ele></ele><time>2025-8-26T7:8:50Z</time></trkpt>
<trkpt lat="46.28432" lon="7.32463"><ele></ele><time>2025-8-26T7:8:53Z</time></trkpt>
<trkpt lat="46.28431" lon="7.32463"><ele></ele><time>2025-8-26T7:8:56Z</time></trkpt>
<trkpt lat="46.28428" lon="7.32464"><ele></ele><time>2025-8-26T7:8:59Z</time></trkpt>
<trkpt lat="46.28426" lon="7.32462"><ele></ele><time>2025-8-26T7:9:2Z</time></trkpt>
<trkpt lat="46.28421" lon="7.3246"><ele></ele><time>2025-8-26T7:9:5Z</time></trkpt>
<trkpt lat="46.28416" lon="7.32458"><ele></ele><time>2025-8-26T7:9:8Z</time></trkpt>
<trkpt lat="46.28412" lon="7.32459"><ele></ele><time>2025-8-26T7:9:11Z</time></trkpt>
<trkpt lat="46.28408" lon="7.32457"><ele></ele><time>2025-8-26T7:9:14Z</time></trkpt>
<trkpt lat="46.28406" lon="7.32455"><ele></ele><time>2025-8-26T7:9:17Z</time></trkpt>
<trkpt lat="46.28398" lon="7.32453"><ele></ele><time>2025-8-26T7:9:20Z</time></trkpt>
<trkpt lat="46.28388" lon="7.3245"><ele></ele><time>2025-8-26T7:9:23Z</time></trkpt>
<trkpt lat="46.28382" lon="7.32449"><ele></ele><time>2025-8-26T7:9:26Z</time></trkpt>
<trkpt lat="46.28378" lon="7.32449"><ele></ele><time>2025-8-26T7:9:29Z</time></trkpt>
<trkpt lat="46.28375" lon="7.32448"><ele></ele><time>2025-8-26T7:9:32Z</time></trkpt>
<trkpt lat="46.28369" lon="7.32448"><ele></ele><time>2025-8-26T7:9:35Z</time></trkpt>
<trkpt lat="46.28368" lon="7.32448"><ele></ele><time>2025-8-26T7:9:38Z</time></trkpt>
<trkpt lat="46.2836" lon="7.32448"><ele></ele><time>2025-8-26T7:9:41Z</time></trkpt>
<trkpt lat="46.28359" lon="7.32448"><ele></ele><time>2025-8-26T7:9:44Z</time></trkpt>
<trkpt lat="46.2835" lon="7.32448"><ele></ele><time>2025-8-26T7:9:47Z</time></trkpt>
<trkpt lat="46.28348" lon="7.32447"><ele></ele><time>2025-8-26T7:9:50Z</time></trkpt>
<trkpt lat="46.28342" lon="7.32445"><ele></ele><time>2025-8-26T7:9:53Z</time></trkpt>
<trkpt lat="46.28341" lon="7.32445"><ele></ele><time>2025-8-26T7:9:56Z</time></trkpt>
<trkpt lat="46.28336" lon="7.32442"><ele></ele><time>2025-8-26T7:9:59Z</time></trkpt>
<trkpt lat="46.28333" lon="7.32439"><ele></ele><time>2025-8-26T7:10:2Z</time></trkpt>
<trkpt lat="46.2833" lon="7.32438"><ele></ele><time>2025-8-26T7:10:5Z</time></trkpt>
<trkpt lat="46.28325" lon="7.32435"><ele></ele><time>2025-8-26T7:10:8Z</time></trkpt>
<trkpt lat="46.28325" lon="7.32435"><ele></ele><time>2025-8-26T7:10:11Z</time></trkpt>
<trkpt lat="46.28321" lon="7.32434"><ele></ele><time>2025-8-26T7:10:14Z</time></trkpt>
<trkpt lat="46.28316" lon="7.32432"><ele></ele><time>2025-8-26T7:10:17Z</time></trkpt>
<trkpt lat="46.28315" lon="7.32431"><ele></ele><time>2025-8-26T7:10:20Z</time></trkpt>
<trkpt lat="46.28309" lon="7.3243"><ele></ele><time>2025-8-26T7:10:23Z</time></trkpt>
<trkpt lat="46.28308" lon="7.32431"><ele></ele><time>2025-8-26T7:10:26Z</time></trkpt>
<trkpt lat="46.28304" lon="7.32429"><ele></ele><time>2025-8-26T7:10:29Z</time></trkpt>
<trkpt lat="46.28302" lon="7.32426"><ele></ele><time>2025-8-26T7:10:32Z</time></trkpt>
<trkpt lat="46.28299" lon="7.32426"><ele></ele><time>2025-8-26T7:10:35Z</time></trkpt>
<trkpt lat="46.28297" lon="7.32425"><ele></ele><time>2025-8-26T7:10:38Z</time></trkpt>
<trkpt lat="46.28296" lon="7.32421"><ele></ele><time>2025-8-26T7:10:41Z</time></trkpt>
<trkpt lat="46.28295" lon="7.32421"><ele></ele><time>2025-8-26T7:10:44Z</time></trkpt>
<trkpt lat="46.28295" lon="7.3242"><ele></ele><time>2025-8-26T7:10:47Z</time></trkpt>
<trkpt lat="46.28293" lon="7.32418"><ele></ele><time>2025-8-26T7:10:50Z</time></trkpt>
<trkpt lat="46.28292" lon="7.32417"><ele></ele><time>2025-8-26T7:10:53Z</time></trkpt>
<trkpt lat="46.28289" lon="7.32416"><ele></ele><time>2025-8-26T7:10:56Z</time></trkpt>
<trkpt lat="46.28286" lon="7.32414"><ele></ele><time>2025-8-26T7:10:59Z</time></trkpt>
<trkpt lat="46.28284" lon="7.32412"><ele></ele><time>2025-8-26T7:11:2Z</time></trkpt>
<trkpt lat="46.28283" lon="7.32411"><ele></ele><time>2025-8-26T7:11:5Z</time></trkpt>
<trkpt lat="46.28279" lon="7.32407"><ele></ele><time>2025-8-26T7:11:8Z</time></trkpt>
<trkpt lat="46.28274" lon="7.32404"><ele></ele><time>2025-8-26T7:11:11Z</time></trkpt>
<trkpt lat="46.28272" lon="7.32401"><ele></ele><time>2025-8-26T7:11:14Z</time></trkpt>
<trkpt lat="46.28269" lon="7.32399"><ele></ele><time>2025-8-26T7:11:17Z</time></trkpt>
<trkpt lat="46.28265" lon="7.32393"><ele></ele><time>2025-8-26T7:11:20Z</time></trkpt>
<trkpt lat="46.28265" lon="7.32392"><ele></ele><time>2025-8-26T7:11:23Z</time></trkpt>
<trkpt lat="46.28263" lon="7.3239"><ele></ele><time>2025-8-26T7:11:26Z</time></trkpt>
<trkpt lat="46.28262" lon="7.32387"><ele></ele><time>2025-8-26T7:11:29Z</time></trkpt>
<trkpt lat="46.28261" lon="7.32385"><ele></ele><time>2025-8-26T7:11:32Z</time></trkpt>
<trkpt lat="46.28258" lon="7.32381"><ele></ele><time>2025-8-26T7:11:35Z</time></trkpt>
<trkpt lat="46.28256" lon="7.32379"><ele></ele><time>2025-8-26T7:11:38Z</time></trkpt>
<trkpt lat="46.28252" lon="7.32373"><ele></ele><time>2025-8-26T7:11:41Z</time></trkpt>
<trkpt lat="46.28251" lon="7.32373"><ele></ele><time>2025-8-26T7:11:44Z</time></trkpt>
<trkpt lat="46.2825" lon="7.32371"><ele></ele><time>2025-8-26T7:11:47Z</time></trkpt>
<trkpt lat="46.28247" lon="7.32367"><ele></ele><time>2025-8-26T7:11:50Z</time></trkpt>
<trkpt lat="46.28244" lon="7.32362"><ele></ele><time>2025-8-26T7:11:53Z</time></trkpt>
<trkpt lat="46.28244" lon="7.32361"><ele></ele><time>2025-8-26T7:11:56Z</time></trkpt>
<trkpt lat="46.28241" lon="7.32354"><ele></ele><time>2025-8-26T7:11:59Z</time></trkpt>
<trkpt lat="46.2824" lon="7.32351"><ele></ele><time>2025-8-26T7:12:2Z</time></trkpt>
<trkpt lat="46.28239" lon="7.32349"><ele></ele><time>2025-8-26T7:12:5Z</time></trkpt>
<trkpt lat="46.28238" lon="7.32347"><ele></ele><time>2025-8-26T7:12:8Z</time></trkpt>
<trkpt lat="46.28233" lon="7.32341"><ele></ele><time>2025-8-26T7:12:11Z</time></trkpt>
<trkpt lat="46.28226" lon="7.3233"><ele></ele><time>2025-8-26T7:12:14Z</time></trkpt>
<trkpt lat="46.28218" lon="7.32321"><ele></ele><time>2025-8-26T7:12:17Z</time></trkpt>
<trkpt lat="46.28217" lon="7.32319"><ele></ele><time>2025-8-26T7:12:20Z</time></trkpt>
<trkpt lat="46.28212" lon="7.32313"><ele></ele><time>2025-8-26T7:12:23Z</time></trkpt>
<trkpt lat="46.28211" lon="7.32312"><ele></ele><time>2025-8-26T7:12:26Z</time></trkpt>
<trkpt lat="46.28206" lon="7.32305"><ele></ele><time>2025-8-26T7:12:29Z</time></trkpt>
<trkpt lat="46.28205" lon="7.32305"><ele></ele><time>2025-8-26T7:12:32Z</time></trkpt>
<trkpt lat="46.282" lon="7.32298"><ele></ele><time>2025-8-26T7:12:35Z</time></trkpt>
<trkpt lat="46.28198" lon="7.32294"><ele></ele><time>2025-8-26T7:12:38Z</time></trkpt>
<trkpt lat="46.28197" lon="7.32292"><ele></ele><time>2025-8-26T7:12:41Z</time></trkpt>
<trkpt lat="46.28195" lon="7.3229"><ele></ele><time>2025-8-26T7:12:44Z</time></trkpt>
<trkpt lat="46.2819" lon="7.32285"><ele></ele><time>2025-8-26T7:12:47Z</time></trkpt>
<trkpt lat="46.28188" lon="7.32282"><ele></ele><time>2025-8-26T7:12:50Z</time></trkpt>
<trkpt lat="46.28184" lon="7.32277"><ele></ele><time>2025-8-26T7:12:53Z</time></trkpt>
<trkpt lat="46.28183" lon="7.32276"><ele></ele><time>2025-8-26T7:12:56Z</time></trkpt>
<trkpt lat="46.28176" lon="7.32269"><ele></ele><time>2025-8-26T7:12:59Z</time></trkpt>
<trkpt lat="46.2817" lon="7.32261"><ele></ele><time>2025-8-26T7:13:2Z</time></trkpt>
<trkpt lat="46.28168" lon="7.32259"><ele></ele><time>2025-8-26T7:13:5Z</time></trkpt>
<trkpt lat="46.28164" lon="7.32255"><ele></ele><time>2025-8-26T7:13:8Z</time></trkpt>
<trkpt lat="46.2816" lon="7.32251"><ele></ele><time>2025-8-26T7:13:11Z</time></trkpt>
<trkpt lat="46.28157" lon="7.32248"><ele></ele><time>2025-8-26T7:13:14Z</time></trkpt>
<trkpt lat="46.28152" lon="7.32243"><ele></ele><time>2025-8-26T7:13:17Z</time></trkpt>
<trkpt lat="46.28149" lon="7.32239"><ele></ele><time>2025-8-26T7:13:20Z</time></trkpt>
<trkpt lat="46.28144" lon="7.32234"><ele></ele><time>2025-8-26T7:13:23Z</time></trkpt>
<trkpt lat="46.2814" lon="7.32231"><ele></ele><time>2025-8-26T7:13:26Z</time></trkpt>
<trkpt lat="46.28137" lon="7.32226"><ele></ele><time>2025-8-26T7:13:29Z</time></trkpt>
<trkpt lat="46.28134" lon="7.32223"><ele></ele><time>2025-8-26T7:13:32Z</time></trkpt>
<trkpt lat="46.28128" lon="7.32216"><ele></ele><time>2025-8-26T7:13:35Z</time></trkpt>
<trkpt lat="46.28126" lon="7.32215"><ele></ele><time>2025-8-26T7:13:38Z</time></trkpt>
<trkpt lat="46.2812" lon="7.32207"><ele></ele><time>2025-8-26T7:13:41Z</time></trkpt>
<trkpt lat="46.28119" lon="7.32206"><ele></ele><time>2025-8-26T7:13:44Z</time></trkpt>
<trkpt lat="46.28115" lon="7.32199"><ele></ele><time>2025-8-26T7:13:47Z</time></trkpt>
<trkpt lat="46.28115" lon="7.32199"><ele></ele><time>2025-8-26T7:13:50Z</time></trkpt>
<trkpt lat="46.28114" lon="7.32199"><ele></ele><time>2025-8-26T7:13:53Z</time></trkpt>
<trkpt lat="46.28112" lon="7.32198"><ele></ele><time>2025-8-26T7:13:56Z</time></trkpt>
<trkpt lat="46.2811" lon="7.32197"><ele></ele><time>2025-8-26T7:13:59Z</time></trkpt>
<trkpt lat="46.2811" lon="7.32193"><ele></ele><time>2025-8-26T7:14:2Z</time></trkpt>
<trkpt lat="46.2811" lon="7.32191"><ele></ele><time>2025-8-26T7:14:5Z</time></trkpt>
<trkpt lat="46.28109" lon="7.32185"><ele></ele><time>2025-8-26T7:14:8Z</time></trkpt>
<trkpt lat="46.28108" lon="7.32183"><ele></ele><time>2025-8-26T7:14:11Z</time></trkpt>
<trkpt lat="46.28108" lon="7.32183"><ele></ele><time>2025-8-26T7:14:14Z</time></trkpt>
<trkpt lat="46.28108" lon="7.32183"><ele></ele><time>2025-8-26T7:14:17Z</time></trkpt>
<trkpt lat="46.28108" lon="7.32183"><ele></ele><time>2025-8-26T7:14:20Z</time></trkpt>
<trkpt lat="46.28108" lon="7.32183"><ele></ele><time>2025-8-26T7:14:23Z</time></trkpt>
<trkpt lat="46.28108" lon="7.32183"><ele></ele><time>2025-8-26T7:14:26Z</time></trkpt>
<trkpt lat="46.28104" lon="7.32183"><ele></ele><time>2025-8-26T7:14:29Z</time></trkpt>
<trkpt lat="46.28101" lon="7.32179"><ele></ele><time>2025-8-26T7:14:32Z</time></trkpt>
<trkpt lat="46.281" lon="7.32177"><ele></ele><time>2025-8-26T7:14:35Z</time></trkpt>
<trkpt lat="46.28096" lon="7.32168"><ele></ele><time>2025-8-26T7:14:38Z</time></trkpt>
<trkpt lat="46.28091" lon="7.32164"><ele></ele><time>2025-8-26T7:14:41Z</time></trkpt>
<trkpt lat="46.2809" lon="7.32162"><ele></ele><time>2025-8-26T7:14:44Z</time></trkpt>
<trkpt lat="46.28089" lon="7.32161"><ele></ele><time>2025-8-26T7:14:47Z</time></trkpt>
<trkpt lat="46.28083" lon="7.32153"><ele></ele><time>2025-8-26T7:14:50Z</time></trkpt>
<trkpt lat="46.28078" lon="7.32147"><ele></ele><time>2025-8-26T7:14:53Z</time></trkpt>
<trkpt lat="46.28075" lon="7.32146"><ele></ele><time>2025-8-26T7:14:56Z</time></trkpt>
<trkpt lat="46.2807" lon="7.32142"><ele></ele><time>2025-8-26T7:14:59Z</time></trkpt>
<trkpt lat="46.28067" lon="7.32139"><ele></ele><time>2025-8-26T7:15:2Z</time></trkpt>
<trkpt lat="46.28066" lon="7.32138"><ele></ele><time>2025-8-26T7:15:5Z</time></trkpt>
<trkpt lat="46.28057" lon="7.32135"><ele></ele><time>2025-8-26T7:15:8Z</time></trkpt>
<trkpt lat="46.28055" lon="7.32134"><ele></ele><time>2025-8-26T7:15:11Z</time></trkpt>
<trkpt lat="46.28051" lon="7.32133"><ele></ele><time>2025-8-26T7:15:14Z</time></trkpt>
<trkpt lat="46.28044" lon="7.32127"><ele></ele><time>2025-8-26T7:15:17Z</time></trkpt>
<trkpt lat="46.28037" lon="7.3212"><ele></ele><time>2025-8-26T7:15:20Z</time></trkpt>
<trkpt lat="46.28036" lon="7.32118"><ele></ele><time>2025-8-26T7:15:23Z</time></trkpt>
<trkpt lat="46.28031" lon="7.32113"><ele></ele><time>2025-8-26T7:15:26Z</time></trkpt>
<trkpt lat="46.28027" lon="7.32109"><ele></ele><time>2025-8-26T7:15:29Z</time></trkpt>
<trkpt lat="46.28024" lon="7.32106"><ele></ele><time>2025-8-26T7:15:32Z</time></trkpt>
<trkpt lat="46.28023" lon="7.32103"><ele></ele><time>2025-8-26T7:15:35Z</time></trkpt>
<trkpt lat="46.28022" lon="7.32102"><ele></ele><time>2025-8-26T7:15:38Z</time></trkpt>
<trkpt lat="46.28022" lon="7.32099"><ele></ele><time>2025-8-26T7:15:41Z</time></trkpt>
<trkpt lat="46.28019" lon="7.32087"><ele></ele><time>2025-8-26T7:15:44Z</time></trkpt>
<trkpt lat="46.28019" lon="7.32085"><ele></ele><time>2025-8-26T7:15:47Z</time></trkpt>
<trkpt lat="46.28017" lon="7.32074"><ele></ele><time>2025-8-26T7:15:50Z</time></trkpt>
<trkpt lat="46.28015" lon="7.32069"><ele></ele><time>2025-8-26T7:15:53Z</time></trkpt>
<trkpt lat="46.28014" lon="7.32064"><ele></ele><time>2025-8-26T7:15:56Z</time></trkpt>
<trkpt lat="46.28011" lon="7.32057"><ele></ele><time>2025-8-26T7:15:59Z</time></trkpt>
<trkpt lat="46.28007" lon="7.32047"><ele></ele><time>2025-8-26T7:16:2Z</time></trkpt>
<trkpt lat="46.28007" lon="7.32045"><ele></ele><time>2025-8-26T7:16:5Z</time></trkpt>
<trkpt lat="46.28003" lon="7.32035"><ele></ele><time>2025-8-26T7:16:8Z</time></trkpt>
<trkpt lat="46.28003" lon="7.32033"><ele></ele><time>2025-8-26T7:16:11Z</time></trkpt>
<trkpt lat="46.27999" lon="7.32024"><ele></ele><time>2025-8-26T7:16:14Z</time></trkpt>
<trkpt lat="46.27998" lon="7.32021"><ele></ele><time>2025-8-26T7:16:17Z</time></trkpt>
<trkpt lat="46.27996" lon="7.32018"><ele></ele><time>2025-8-26T7:16:20Z</time></trkpt>
<trkpt lat="46.27996" lon="7.32017"><ele></ele><time>2025-8-26T7:16:23Z</time></trkpt>
<trkpt lat="46.27994" lon="7.32013"><ele></ele><time>2025-8-26T7:16:26Z</time></trkpt>
<trkpt lat="46.27993" lon="7.32011"><ele></ele><time>2025-8-26T7:16:29Z</time></trkpt>
<trkpt lat="46.27993" lon="7.32006"><ele></ele><time>2025-8-26T7:16:32Z</time></trkpt>
<trkpt lat="46.27992" lon="7.32005"><ele></ele><time>2025-8-26T7:16:35Z</time></trkpt>
<trkpt lat="46.27991" lon="7.31998"><ele></ele><time>2025-8-26T7:16:38Z</time></trkpt>
<trkpt lat="46.2799" lon="7.31995"><ele></ele><time>2025-8-26T7:16:41Z</time></trkpt>
<trkpt lat="46.27988" lon="7.31988"><ele></ele><time>2025-8-26T7:16:44Z</time></trkpt>
<trkpt lat="46.27988" lon="7.31986"><ele></ele><time>2025-8-26T7:16:47Z</time></trkpt>
<trkpt lat="46.27987" lon="7.31979"><ele></ele><time>2025-8-26T7:16:50Z</time></trkpt>
<trkpt lat="46.27986" lon="7.31973"><ele></ele><time>2025-8-26T7:16:53Z</time></trkpt>
<trkpt lat="46.27987" lon="7.31968"><ele></ele><time>2025-8-26T7:16:56Z</time></trkpt>
<trkpt lat="46.27987" lon="7.31959"><ele></ele><time>2025-8-26T7:16:59Z</time></trkpt>
<trkpt lat="46.27987" lon="7.31958"><ele></ele><time>2025-8-26T7:17:2Z</time></trkpt>
<trkpt lat="46.2799" lon="7.3195"><ele></ele><time>2025-8-26T7:17:5Z</time></trkpt>
<trkpt lat="46.2799" lon="7.31945"><ele></ele><time>2025-8-26T7:17:8Z</time></trkpt>
<trkpt lat="46.27991" lon="7.31941"><ele></ele><time>2025-8-26T7:17:11Z</time></trkpt>
<trkpt lat="46.27992" lon="7.31932"><ele></ele><time>2025-8-26T7:17:14Z</time></trkpt>
<trkpt lat="46.27995" lon="7.31927"><ele></ele><time>2025-8-26T7:17:17Z</time></trkpt>
<trkpt lat="46.27998" lon="7.31926"><ele></ele><time>2025-8-26T7:17:20Z</time></trkpt>
<trkpt lat="46.28" lon="7.31925"><ele></ele><time>2025-8-26T7:17:23Z</time></trkpt>
<trkpt lat="46.28002" lon="7.31922"><ele></ele><time>2025-8-26T7:17:26Z</time></trkpt>
<trkpt lat="46.28004" lon="7.3192"><ele></ele><time>2025-8-26T7:17:29Z</time></trkpt>
<trkpt lat="46.28005" lon="7.3192"><ele></ele><time>2025-8-26T7:17:32Z</time></trkpt>
<trkpt lat="46.28007" lon="7.31922"><ele></ele><time>2025-8-26T7:17:35Z</time></trkpt>
<trkpt lat="46.28013" lon="7.31926"><ele></ele><time>2025-8-26T7:17:38Z</time></trkpt>
<trkpt lat="46.28011" lon="7.31931"><ele></ele><time>2025-8-26T7:17:41Z</time></trkpt>
<trkpt lat="46.28007" lon="7.31933"><ele></ele><time>2025-8-26T7:17:44Z</time></trkpt>
<trkpt lat="46.28006" lon="7.31933"><ele></ele><time>2025-8-26T7:17:47Z</time></trkpt>
<trkpt lat="46.28006" lon="7.31934"><ele></ele><time>2025-8-26T7:17:50Z</time></trkpt>
<trkpt lat="46.28007" lon="7.31933"><ele></ele><time>2025-8-26T7:17:53Z</time></trkpt>
<trkpt lat="46.28007" lon="7.31933"><ele></ele><time>2025-8-26T7:17:56Z</time></trkpt>
<trkpt lat="46.28007" lon="7.31933"><ele></ele><time>2025-8-26T7:17:59Z</time></trkpt>
<trkpt lat="46.28007" lon="7.31933"><ele></ele><time>2025-8-26T7:18:2Z</time></trkpt>
<trkpt lat="46.28007" lon="7.31933"><ele></ele><time>2025-8-26T7:18:5Z</time></trkpt>
<trkpt lat="46.28007" lon="7.31933"><ele></ele><time>2025-8-26T7:18:8Z</time></trkpt>
<trkpt lat="46.28007" lon="7.31933"><ele></ele><time>2025-8-26T7:18:11Z</time></trkpt>
<trkpt lat="46.28007" lon="7.31933"><ele></ele><time>2025-8-26T7:18:14Z</time></trkpt>
<trkpt lat="46.28007" lon="7.31933"><ele></ele><time>2025-8-26T7:18:17Z</time></trkpt>
<trkpt lat="46.28007" lon="7.31933"><ele></ele><time>2025-8-26T7:18:20Z</time></trkpt>
<trkpt lat="46.28007" lon="7.31933"><ele></ele><time>2025-8-26T7:18:23Z</time></trkpt>
<trkpt lat="46.28007" lon="7.31933"><ele></ele><time>2025-8-26T7:18:26Z</time></trkpt>
<trkpt lat="46.28007" lon="7.31933"><ele></ele><time>2025-8-26T7:18:29Z</time></trkpt>
<trkpt lat="46.28007" lon="7.31933"><ele></ele><time>2025-8-26T7:18:32Z</time></trkpt>
<trkpt lat="46.28007" lon="7.31933"><ele></ele><time>2025-8-26T7:18:35Z</time></trkpt>
<trkpt lat="46.28007" lon="7.31933"><ele></ele><time>2025-8-26T7:18:38Z</time></trkpt>
<trkpt lat="46.28007" lon="7.31933"><ele></ele><time>2025-8-26T7:18:41Z</time></trkpt>
<trkpt lat="46.28007" lon="7.31933"><ele></ele><time>2025-8-26T7:18:44Z</time></trkpt>
<trkpt lat="46.28007" lon="7.31933"><ele></ele><time>2025-8-26T7:18:47Z</time></trkpt>
<trkpt lat="46.28007" lon="7.31933"><ele></ele><time>2025-8-26T7:18:50Z</time></trkpt>
<trkpt lat="46.28007" lon="7.31933"><ele></ele><time>2025-8-26T7:18:53Z</time></trkpt>
<trkpt lat="46.28007" lon="7.31933"><ele></ele><time>2025-8-26T7:18:56Z</time></trkpt>
<trkpt lat="46.28007" lon="7.31933"><ele></ele><time>2025-8-26T7:18:59Z</time></trkpt>
<trkpt lat="46.28007" lon="7.31933"><ele></ele><time>2025-8-26T7:19:2Z</time></trkpt>
<trkpt lat="46.28007" lon="7.31933"><ele></ele><time>2025-8-26T7:19:5Z</time></trkpt>
<trkpt lat="46.28007" lon="7.31933"><ele></ele><time>2025-8-26T7:19:8Z</time></trkpt>
<trkpt lat="46.28007" lon="7.31933"><ele></ele><time>2025-8-26T7:19:11Z</time></trkpt>
<trkpt lat="46.28007" lon="7.31933"><ele></ele><time>2025-8-26T7:19:14Z</time></trkpt>
<trkpt lat="46.28007" lon="7.31934"><ele></ele><time>2025-8-26T7:19:17Z</time></trkpt>
<trkpt lat="46.28007" lon="7.31934"><ele></ele><time>2025-8-26T7:19:20Z</time></trkpt>
<trkpt lat="46.28007" lon="7.31934"><ele></ele><time>2025-8-26T7:19:23Z</time></trkpt>
<trkpt lat="46.28007" lon="7.31934"><ele></ele><time>2025-8-26T7:19:26Z</time></trkpt>
<trkpt lat="46.28007" lon="7.31933"><ele></ele><time>2025-8-26T7:19:29Z</time></trkpt>
<trkpt lat="46.28007" lon="7.31933"><ele></ele><time>2025-8-26T7:19:32Z</time></trkpt>
<trkpt lat="46.28007" lon="7.31933"><ele></ele><time>2025-8-26T7:19:35Z</time></trkpt>
<trkpt lat="46.28007" lon="7.31933"><ele></ele><time>2025-8-26T7:19:38Z</time></trkpt>
<trkpt lat="46.28007" lon="7.31933"><ele></ele><time>2025-8-26T7:19:41Z</time></trkpt>
<trkpt lat="46.28007" lon="7.31933"><ele></ele><time>2025-8-26T7:19:44Z</time></trkpt>
<trkpt lat="46.28007" lon="7.31933"><ele></ele><time>2025-8-26T7:19:47Z</time></trkpt>
<trkpt lat="46.28007" lon="7.31934"><ele></ele><time>2025-8-26T7:19:50Z</time></trkpt>
<trkpt lat="46.28007" lon="7.31934"><ele></ele><time>2025-8-26T7:19:53Z</time></trkpt>
<trkpt lat="46.28007" lon="7.31933"><ele></ele><time>2025-8-26T7:19:56Z</time></trkpt>
<trkpt lat="46.28008" lon="7.31934"><ele></ele><time>2025-8-26T7:19:59Z</time></trkpt>
<trkpt lat="46.28008" lon="7.31934"><ele></ele><time>2025-8-26T7:20:2Z</time></trkpt>
<trkpt lat="46.28007" lon="7.31934"><ele></ele><time>2025-8-26T7:20:5Z</time></trkpt>
<trkpt lat="46.28006" lon="7.31933"><ele></ele><time>2025-8-26T7:20:8Z</time></trkpt>
<trkpt lat="46.28007" lon="7.31933"><ele></ele><time>2025-8-26T7:20:11Z</time></trkpt>
<trkpt lat="46.28007" lon="7.31933"><ele></ele><time>2025-8-26T7:20:14Z</time></trkpt>
<trkpt lat="46.28007" lon="7.31933"><ele></ele><time>2025-8-26T7:20:17Z</time></trkpt>
<trkpt lat="46.28007" lon="7.31933"><ele></ele><time>2025-8-26T7:20:20Z</time></trkpt>
<trkpt lat="46.28007" lon="7.31933"><ele></ele><time>2025-8-26T7:20:23Z</time></trkpt>
<trkpt lat="46.28007" lon="7.31933"><ele></ele><time>2025-8-26T7:20:26Z</time></trkpt>
<trkpt lat="46.28007" lon="7.31933"><ele></ele><time>2025-8-26T7:20:29Z</time></trkpt>
<trkpt lat="46.28007" lon="7.31933"><ele></ele><time>2025-8-26T7:20:32Z</time></trkpt>
<trkpt lat="46.28007" lon="7.31933"><ele></ele><time>2025-8-26T7:20:35Z</time></trkpt>
<trkpt lat="46.28007" lon="7.31933"><ele></ele><time>2025-8-26T7:20:38Z</time></trkpt>
<trkpt lat="46.28007" lon="7.31933"><ele></ele><time>2025-8-26T7:20:41Z</time></trkpt>
<trkpt lat="46.28007" lon="7.31933"><ele></ele><time>2025-8-26T7:20:44Z</time></trkpt>
<trkpt lat="46.28007" lon="7.31933"><ele></ele><time>2025-8-26T7:20:47Z</time></trkpt>
<trkpt lat="46.28007" lon="7.31933"><ele></ele><time>2025-8-26T7:20:50Z</time></trkpt>
<trkpt lat="46.28007" lon="7.31933"><ele></ele><time>2025-8-26T7:20:53Z</time></trkpt>
<trkpt lat="46.28007" lon="7.31933"><ele></ele><time>2025-8-26T7:20:56Z</time></trkpt>
<trkpt lat="46.28007" lon="7.31933"><ele></ele><time>2025-8-26T7:20:59Z</time></trkpt>
<trkpt lat="46.28007" lon="7.31933"><ele></ele><time>2025-8-26T7:21:2Z</time></trkpt>
<trkpt lat="46.28007" lon="7.31933"><ele></ele><time>2025-8-26T7:21:5Z</time></trkpt>
<trkpt lat="46.28007" lon="7.31933"><ele></ele><time>2025-8-26T7:21:8Z</time></trkpt>
<trkpt lat="46.28007" lon="7.31934"><ele></ele><time>2025-8-26T7:21:11Z</time></trkpt>
<trkpt lat="46.28007" lon="7.31933"><ele></ele><time>2025-8-26T7:21:14Z</time></trkpt>
<trkpt lat="46.28007" lon="7.31933"><ele></ele><time>2025-8-26T7:21:17Z</time></trkpt>
<trkpt lat="46.28007" lon="7.31934"><ele></ele><time>2025-8-26T7:21:20Z</time></trkpt>
<trkpt lat="46.28006" lon="7.31934"><ele></ele><time>2025-8-26T7:21:23Z</time></trkpt>
<trkpt lat="46.28006" lon="7.31933"><ele></ele><time>2025-8-26T7:21:26Z</time></trkpt>
<trkpt lat="46.28007" lon="7.31933"><ele></ele><time>2025-8-26T7:21:29Z</time></trkpt>
<trkpt lat="46.28007" lon="7.31933"><ele></ele><time>2025-8-26T7:21:32Z</time></trkpt>
<trkpt lat="46.28007" lon="7.31933"><ele></ele><time>2025-8-26T7:21:35Z</time></trkpt>
<trkpt lat="46.28007" lon="7.31933"><ele></ele><time>2025-8-26T7:21:38Z</time></trkpt>
<trkpt lat="46.28007" lon="7.31933"><ele></ele><time>2025-8-26T7:21:41Z</time></trkpt>
<trkpt lat="46.28003" lon="7.3193"><ele></ele><time>2025-8-26T7:21:44Z</time></trkpt>
<trkpt lat="46.27994" lon="7.31929"><ele></ele><time>2025-8-26T7:21:47Z</time></trkpt>
<trkpt lat="46.27989" lon="7.31941"><ele></ele><time>2025-8-26T7:21:50Z</time></trkpt>
<trkpt lat="46.27987" lon="7.31947"><ele></ele><time>2025-8-26T7:21:53Z</time></trkpt>
<trkpt lat="46.27985" lon="7.31961"><ele></ele><time>2025-8-26T7:21:56Z</time></trkpt>
<trkpt lat="46.27986" lon="7.31968"><ele></ele><time>2025-8-26T7:21:59Z</time></trkpt>
<trkpt lat="46.27988" lon="7.31976"><ele></ele><time>2025-8-26T7:22:2Z</time></trkpt>
<trkpt lat="46.2799" lon="7.31984"><ele></ele><time>2025-8-26T7:22:5Z</time></trkpt>
<trkpt lat="46.27993" lon="7.32002"><ele></ele><time>2025-8-26T7:22:8Z</time></trkpt>
<trkpt lat="46.27996" lon="7.32013"><ele></ele><time>2025-8-26T7:22:11Z</time></trkpt>
<trkpt lat="46.28004" lon="7.32035"><ele></ele><time>2025-8-26T7:22:14Z</time></trkpt>
<trkpt lat="46.28008" lon="7.32045"><ele></ele><time>2025-8-26T7:22:17Z</time></trkpt>
<trkpt lat="46.28015" lon="7.32066"><ele></ele><time>2025-8-26T7:22:20Z</time></trkpt>
<trkpt lat="46.28019" lon="7.32086"><ele></ele><time>2025-8-26T7:22:23Z</time></trkpt>
<trkpt lat="46.28022" lon="7.32096"><ele></ele><time>2025-8-26T7:22:26Z</time></trkpt>
<trkpt lat="46.28026" lon="7.32105"><ele></ele><time>2025-8-26T7:22:29Z</time></trkpt>
<trkpt lat="46.28031" lon="7.32112"><ele></ele><time>2025-8-26T7:22:32Z</time></trkpt>
<trkpt lat="46.28038" lon="7.32119"><ele></ele><time>2025-8-26T7:22:35Z</time></trkpt>
<trkpt lat="46.28045" lon="7.32125"><ele></ele><time>2025-8-26T7:22:38Z</time></trkpt>
<trkpt lat="46.28053" lon="7.32129"><ele></ele><time>2025-8-26T7:22:41Z</time></trkpt>
<trkpt lat="46.2807" lon="7.32139"><ele></ele><time>2025-8-26T7:22:44Z</time></trkpt>
<trkpt lat="46.28079" lon="7.32145"><ele></ele><time>2025-8-26T7:22:47Z</time></trkpt>
<trkpt lat="46.28087" lon="7.32154"><ele></ele><time>2025-8-26T7:22:50Z</time></trkpt>
<trkpt lat="46.28094" lon="7.32165"><ele></ele><time>2025-8-26T7:22:53Z</time></trkpt>
<trkpt lat="46.281" lon="7.32177"><ele></ele><time>2025-8-26T7:22:56Z</time></trkpt>
<trkpt lat="46.28107" lon="7.32187"><ele></ele><time>2025-8-26T7:22:59Z</time></trkpt>
<trkpt lat="46.28115" lon="7.32197"><ele></ele><time>2025-8-26T7:23:2Z</time></trkpt>
<trkpt lat="46.28123" lon="7.32206"><ele></ele><time>2025-8-26T7:23:5Z</time></trkpt>
<trkpt lat="46.28132" lon="7.32214"><ele></ele><time>2025-8-26T7:23:8Z</time></trkpt>
<trkpt lat="46.28141" lon="7.32223"><ele></ele><time>2025-8-26T7:23:11Z</time></trkpt>
<trkpt lat="46.2815" lon="7.32233"><ele></ele><time>2025-8-26T7:23:14Z</time></trkpt>
<trkpt lat="46.28159" lon="7.32243"><ele></ele><time>2025-8-26T7:23:17Z</time></trkpt>
<trkpt lat="46.28169" lon="7.32254"><ele></ele><time>2025-8-26T7:23:20Z</time></trkpt>
<trkpt lat="46.28178" lon="7.32265"><ele></ele><time>2025-8-26T7:23:23Z</time></trkpt>
<trkpt lat="46.28188" lon="7.32277"><ele></ele><time>2025-8-26T7:23:26Z</time></trkpt>
<trkpt lat="46.28198" lon="7.32289"><ele></ele><time>2025-8-26T7:23:29Z</time></trkpt>
<trkpt lat="46.28209" lon="7.32301"><ele></ele><time>2025-8-26T7:23:32Z</time></trkpt>
<trkpt lat="46.28219" lon="7.32313"><ele></ele><time>2025-8-26T7:23:35Z</time></trkpt>
<trkpt lat="46.28228" lon="7.32325"><ele></ele><time>2025-8-26T7:23:38Z</time></trkpt>
<trkpt lat="46.28235" lon="7.32338"><ele></ele><time>2025-8-26T7:23:41Z</time></trkpt>
<trkpt lat="46.28241" lon="7.32351"><ele></ele><time>2025-8-26T7:23:44Z</time></trkpt>
<trkpt lat="46.28246" lon="7.32364"><ele></ele><time>2025-8-26T7:23:47Z</time></trkpt>
<trkpt lat="46.28253" lon="7.32376"><ele></ele><time>2025-8-26T7:23:50Z</time></trkpt>
<trkpt lat="46.2826" lon="7.32386"><ele></ele><time>2025-8-26T7:23:53Z</time></trkpt>
<trkpt lat="46.28268" lon="7.32396"><ele></ele><time>2025-8-26T7:23:56Z</time></trkpt>
<trkpt lat="46.28276" lon="7.32405"><ele></ele><time>2025-8-26T7:23:59Z</time></trkpt>
<trkpt lat="46.28285" lon="7.32414"><ele></ele><time>2025-8-26T7:24:2Z</time></trkpt>
<trkpt lat="46.28294" lon="7.32422"><ele></ele><time>2025-8-26T7:24:5Z</time></trkpt>
<trkpt lat="46.28305" lon="7.32427"><ele></ele><time>2025-8-26T7:24:8Z</time></trkpt>
<trkpt lat="46.28316" lon="7.32432"><ele></ele><time>2025-8-26T7:24:11Z</time></trkpt>
<trkpt lat="46.28328" lon="7.32437"><ele></ele><time>2025-8-26T7:24:14Z</time></trkpt>
<trkpt lat="46.28338" lon="7.32442"><ele></ele><time>2025-8-26T7:24:17Z</time></trkpt>
<trkpt lat="46.2835" lon="7.32447"><ele></ele><time>2025-8-26T7:24:20Z</time></trkpt>
<trkpt lat="46.28362" lon="7.32448"><ele></ele><time>2025-8-26T7:24:23Z</time></trkpt>
<trkpt lat="46.28373" lon="7.32449"><ele></ele><time>2025-8-26T7:24:26Z</time></trkpt>
<trkpt lat="46.28385" lon="7.3245"><ele></ele><time>2025-8-26T7:24:29Z</time></trkpt>
<trkpt lat="46.28396" lon="7.32453"><ele></ele><time>2025-8-26T7:24:32Z</time></trkpt>
<trkpt lat="46.28407" lon="7.32457"><ele></ele><time>2025-8-26T7:24:35Z</time></trkpt>
<trkpt lat="46.28419" lon="7.32462"><ele></ele><time>2025-8-26T7:24:38Z</time></trkpt>
<trkpt lat="46.28431" lon="7.32467"><ele></ele><time>2025-8-26T7:24:41Z</time></trkpt>
<trkpt lat="46.28443" lon="7.32471"><ele></ele><time>2025-8-26T7:24:44Z</time></trkpt>
<trkpt lat="46.28455" lon="7.32475"><ele></ele><time>2025-8-26T7:24:47Z</time></trkpt>
<trkpt lat="46.28467" lon="7.32479"><ele></ele><time>2025-8-26T7:24:50Z</time></trkpt>
<trkpt lat="46.28479" lon="7.32484"><ele></ele><time>2025-8-26T7:24:53Z</time></trkpt>
<trkpt lat="46.28491" lon="7.32489"><ele></ele><time>2025-8-26T7:24:56Z</time></trkpt>
<trkpt lat="46.28502" lon="7.32493"><ele></ele><time>2025-8-26T7:24:59Z</time></trkpt>
<trkpt lat="46.28513" lon="7.32498"><ele></ele><time>2025-8-26T7:25:2Z</time></trkpt>
<trkpt lat="46.28522" lon="7.32499"><ele></ele><time>2025-8-26T7:25:5Z</time></trkpt>
<trkpt lat="46.28533" lon="7.32497"><ele></ele><time>2025-8-26T7:25:8Z</time></trkpt>
<trkpt lat="46.2854" lon="7.32494"><ele></ele><time>2025-8-26T7:25:11Z</time></trkpt>
<trkpt lat="46.28552" lon="7.32489"><ele></ele><time>2025-8-26T7:25:14Z</time></trkpt>
<trkpt lat="46.28573" lon="7.32487"><ele></ele><time>2025-8-26T7:25:17Z</time></trkpt>
<trkpt lat="46.2859" lon="7.32496"><ele></ele><time>2025-8-26T7:25:20Z</time></trkpt>
<trkpt lat="46.28599" lon="7.32501"><ele></ele><time>2025-8-26T7:25:23Z</time></trkpt>
<trkpt lat="46.28609" lon="7.32503"><ele></ele><time>2025-8-26T7:25:26Z</time></trkpt>
<trkpt lat="46.28619" lon="7.32504"><ele></ele><time>2025-8-26T7:25:29Z</time></trkpt>
<trkpt lat="46.28628" lon="7.32505"><ele></ele><time>2025-8-26T7:25:32Z</time></trkpt>
<trkpt lat="46.28638" lon="7.32505"><ele></ele><time>2025-8-26T7:25:35Z</time></trkpt>
<trkpt lat="46.28647" lon="7.325"><ele></ele><time>2025-8-26T7:25:38Z</time></trkpt>
<trkpt lat="46.28656" lon="7.32493"><ele></ele><time>2025-8-26T7:25:41Z</time></trkpt>
<trkpt lat="46.28664" lon="7.32484"><ele></ele><time>2025-8-26T7:25:44Z</time></trkpt>
<trkpt lat="46.2867" lon="7.32474"><ele></ele><time>2025-8-26T7:25:47Z</time></trkpt>
<trkpt lat="46.28676" lon="7.32466"><ele></ele><time>2025-8-26T7:25:50Z</time></trkpt>
<trkpt lat="46.28681" lon="7.32462"><ele></ele><time>2025-8-26T7:25:53Z</time></trkpt>
<trkpt lat="46.28686" lon="7.32463"><ele></ele><time>2025-8-26T7:25:56Z</time></trkpt>
<trkpt lat="46.28688" lon="7.32468"><ele></ele><time>2025-8-26T7:25:59Z</time></trkpt>
<trkpt lat="46.28684" lon="7.32475"><ele></ele><time>2025-8-26T7:26:2Z</time></trkpt>
<trkpt lat="46.2868" lon="7.32478"><ele></ele><time>2025-8-26T7:26:5Z</time></trkpt>
<trkpt lat="46.28662" lon="7.32493"><ele></ele><time>2025-8-26T7:26:8Z</time></trkpt>
<trkpt lat="46.2866" lon="7.32499"><ele></ele><time>2025-8-26T7:26:11Z</time></trkpt>
<trkpt lat="46.28648" lon="7.32517"><ele></ele><time>2025-8-26T7:26:14Z</time></trkpt>
<trkpt lat="46.28641" lon="7.32524"><ele></ele><time>2025-8-26T7:26:17Z</time></trkpt>
<trkpt lat="46.28633" lon="7.32527"><ele></ele><time>2025-8-26T7:26:20Z</time></trkpt>
<trkpt lat="46.28622" lon="7.32527"><ele></ele><time>2025-8-26T7:26:23Z</time></trkpt>
<trkpt lat="46.2861" lon="7.32529"><ele></ele><time>2025-8-26T7:26:26Z</time></trkpt>
<trkpt lat="46.28603" lon="7.3253"><ele></ele><time>2025-8-26T7:26:29Z</time></trkpt>
<trkpt lat="46.28581" lon="7.3253"><ele></ele><time>2025-8-26T7:26:32Z</time></trkpt>
<trkpt lat="46.28574" lon="7.32532"><ele></ele><time>2025-8-26T7:26:35Z</time></trkpt>
<trkpt lat="46.28564" lon="7.32533"><ele></ele><time>2025-8-26T7:26:38Z</time></trkpt>
<trkpt lat="46.28555" lon="7.32539"><ele></ele><time>2025-8-26T7:26:41Z</time></trkpt>
<trkpt lat="46.28547" lon="7.32546"><ele></ele><time>2025-8-26T7:26:44Z</time></trkpt>
<trkpt lat="46.28527" lon="7.32559"><ele></ele><time>2025-8-26T7:26:47Z</time></trkpt>
<trkpt lat="46.28516" lon="7.32563"><ele></ele><time>2025-8-26T7:26:50Z</time></trkpt>
<trkpt lat="46.28504" lon="7.32565"><ele></ele><time>2025-8-26T7:26:53Z</time></trkpt>
<trkpt lat="46.28492" lon="7.32566"><ele></ele><time>2025-8-26T7:26:56Z</time></trkpt>
<trkpt lat="46.28481" lon="7.32567"><ele></ele><time>2025-8-26T7:26:59Z</time></trkpt>
<trkpt lat="46.28469" lon="7.3257"><ele></ele><time>2025-8-26T7:27:2Z</time></trkpt>
<trkpt lat="46.28458" lon="7.32578"><ele></ele><time>2025-8-26T7:27:5Z</time></trkpt>
<trkpt lat="46.28447" lon="7.32587"><ele></ele><time>2025-8-26T7:27:8Z</time></trkpt>
<trkpt lat="46.28438" lon="7.32599"><ele></ele><time>2025-8-26T7:27:11Z</time></trkpt>
<trkpt lat="46.28427" lon="7.32607"><ele></ele><time>2025-8-26T7:27:14Z</time></trkpt>
<trkpt lat="46.28414" lon="7.32608"><ele></ele><time>2025-8-26T7:27:17Z</time></trkpt>
<trkpt lat="46.28402" lon="7.32609"><ele></ele><time>2025-8-26T7:27:20Z</time></trkpt>
<trkpt lat="46.2839" lon="7.32608"><ele></ele><time>2025-8-26T7:27:23Z</time></trkpt>
<trkpt lat="46.28378" lon="7.32606"><ele></ele><time>2025-8-26T7:27:26Z</time></trkpt>
<trkpt lat="46.28354" lon="7.32606"><ele></ele><time>2025-8-26T7:27:29Z</time></trkpt>
<trkpt lat="46.28342" lon="7.32609"><ele></ele><time>2025-8-26T7:27:32Z</time></trkpt>
<trkpt lat="46.28329" lon="7.3261"><ele></ele><time>2025-8-26T7:27:35Z</time></trkpt>
<trkpt lat="46.28316" lon="7.32611"><ele></ele><time>2025-8-26T7:27:38Z</time></trkpt>
<trkpt lat="46.28304" lon="7.32611"><ele></ele><time>2025-8-26T7:27:41Z</time></trkpt>
<trkpt lat="46.28291" lon="7.32612"><ele></ele><time>2025-8-26T7:27:44Z</time></trkpt>
<trkpt lat="46.28278" lon="7.32613"><ele></ele><time>2025-8-26T7:27:47Z</time></trkpt>
<trkpt lat="46.28264" lon="7.32615"><ele></ele><time>2025-8-26T7:27:50Z</time></trkpt>
<trkpt lat="46.28251" lon="7.32615"><ele></ele><time>2025-8-26T7:27:53Z</time></trkpt>
<trkpt lat="46.28236" lon="7.32614"><ele></ele><time>2025-8-26T7:27:56Z</time></trkpt>
<trkpt lat="46.28221" lon="7.32612"><ele></ele><time>2025-8-26T7:27:59Z</time></trkpt>
<trkpt lat="46.28206" lon="7.32607"><ele></ele><time>2025-8-26T7:28:2Z</time></trkpt>
<trkpt lat="46.28193" lon="7.32603"><ele></ele><time>2025-8-26T7:28:5Z</time></trkpt>
<trkpt lat="46.28182" lon="7.326"><ele></ele><time>2025-8-26T7:28:8Z</time></trkpt>
<trkpt lat="46.28172" lon="7.32597"><ele></ele><time>2025-8-26T7:28:11Z</time></trkpt>
<trkpt lat="46.28164" lon="7.32593"><ele></ele><time>2025-8-26T7:28:14Z</time></trkpt>
<trkpt lat="46.28148" lon="7.32586"><ele></ele><time>2025-8-26T7:28:17Z</time></trkpt>
<trkpt lat="46.28139" lon="7.32581"><ele></ele><time>2025-8-26T7:28:20Z</time></trkpt>
<trkpt lat="46.2813" lon="7.32576"><ele></ele><time>2025-8-26T7:28:23Z</time></trkpt>
<trkpt lat="46.28121" lon="7.32571"><ele></ele><time>2025-8-26T7:28:26Z</time></trkpt>
<trkpt lat="46.281" lon="7.32561"><ele></ele><time>2025-8-26T7:28:29Z</time></trkpt>
<trkpt lat="46.28091" lon="7.32557"><ele></ele><time>2025-8-26T7:28:32Z</time></trkpt>
<trkpt lat="46.28081" lon="7.32554"><ele></ele><time>2025-8-26T7:28:35Z</time></trkpt>
<trkpt lat="46.28058" lon="7.32547"><ele></ele><time>2025-8-26T7:28:38Z</time></trkpt>
<trkpt lat="46.28046" lon="7.3254"><ele></ele><time>2025-8-26T7:28:41Z</time></trkpt>
<trkpt lat="46.28034" lon="7.32534"><ele></ele><time>2025-8-26T7:28:44Z</time></trkpt>
<trkpt lat="46.28022" lon="7.32529"><ele></ele><time>2025-8-26T7:28:47Z</time></trkpt>
<trkpt lat="46.28008" lon="7.32527"><ele></ele><time>2025-8-26T7:28:50Z</time></trkpt>
<trkpt lat="46.27995" lon="7.32522"><ele></ele><time>2025-8-26T7:28:53Z</time></trkpt>
<trkpt lat="46.27981" lon="7.32516"><ele></ele><time>2025-8-26T7:28:56Z</time></trkpt>
<trkpt lat="46.27968" lon="7.32508"><ele></ele><time>2025-8-26T7:28:59Z</time></trkpt>
<trkpt lat="46.27955" lon="7.32499"><ele></ele><time>2025-8-26T7:29:2Z</time></trkpt>
<trkpt lat="46.27942" lon="7.3249"><ele></ele><time>2025-8-26T7:29:5Z</time></trkpt>
<trkpt lat="46.27929" lon="7.32477"><ele></ele><time>2025-8-26T7:29:8Z</time></trkpt>
<trkpt lat="46.27917" lon="7.32465"><ele></ele><time>2025-8-26T7:29:11Z</time></trkpt>
<trkpt lat="46.27904" lon="7.32453"><ele></ele><time>2025-8-26T7:29:14Z</time></trkpt>
<trkpt lat="46.27891" lon="7.32441"><ele></ele><time>2025-8-26T7:29:17Z</time></trkpt>
<trkpt lat="46.27879" lon="7.32428"><ele></ele><time>2025-8-26T7:29:20Z</time></trkpt>
<trkpt lat="46.27868" lon="7.32415"><ele></ele><time>2025-8-26T7:29:23Z</time></trkpt>
<trkpt lat="46.2786" lon="7.32404"><ele></ele><time>2025-8-26T7:29:26Z</time></trkpt>
<trkpt lat="46.27853" lon="7.32395"><ele></ele><time>2025-8-26T7:29:29Z</time></trkpt>
<trkpt lat="46.27849" lon="7.32385"><ele></ele><time>2025-8-26T7:29:32Z</time></trkpt>
<trkpt lat="46.27846" lon="7.32374"><ele></ele><time>2025-8-26T7:29:35Z</time></trkpt>
<trkpt lat="46.27842" lon="7.32366"><ele></ele><time>2025-8-26T7:29:38Z</time></trkpt>
<trkpt lat="46.27835" lon="7.3236"><ele></ele><time>2025-8-26T7:29:41Z</time></trkpt>
<trkpt lat="46.27828" lon="7.3236"><ele></ele><time>2025-8-26T7:29:44Z</time></trkpt>
<trkpt lat="46.27823" lon="7.32367"><ele></ele><time>2025-8-26T7:29:47Z</time></trkpt>
<trkpt lat="46.27824" lon="7.32376"><ele></ele><time>2025-8-26T7:29:50Z</time></trkpt>
<trkpt lat="46.27828" lon="7.32384"><ele></ele><time>2025-8-26T7:29:53Z</time></trkpt>
<trkpt lat="46.27833" lon="7.32392"><ele></ele><time>2025-8-26T7:29:56Z</time></trkpt>
<trkpt lat="46.27837" lon="7.324"><ele></ele><time>2025-8-26T7:29:59Z</time></trkpt>
<trkpt lat="46.27848" lon="7.32416"><ele></ele><time>2025-8-26T7:30:2Z</time></trkpt>
<trkpt lat="46.27858" lon="7.32436"><ele></ele><time>2025-8-26T7:30:5Z</time></trkpt>
<trkpt lat="46.27869" lon="7.32457"><ele></ele><time>2025-8-26T7:30:8Z</time></trkpt>
<trkpt lat="46.27879" lon="7.32482"><ele></ele><time>2025-8-26T7:30:11Z</time></trkpt>
<trkpt lat="46.27884" lon="7.32496"><ele></ele><time>2025-8-26T7:30:14Z</time></trkpt>
<trkpt lat="46.2789" lon="7.32509"><ele></ele><time>2025-8-26T7:30:17Z</time></trkpt>
<trkpt lat="46.27905" lon="7.32533"><ele></ele><time>2025-8-26T7:30:20Z</time></trkpt>
<trkpt lat="46.27914" lon="7.32543"><ele></ele><time>2025-8-26T7:30:23Z</time></trkpt>
<trkpt lat="46.27923" lon="7.32553"><ele></ele><time>2025-8-26T7:30:26Z</time></trkpt>
<trkpt lat="46.27932" lon="7.32564"><ele></ele><time>2025-8-26T7:30:29Z</time></trkpt>
<trkpt lat="46.27942" lon="7.32575"><ele></ele><time>2025-8-26T7:30:32Z</time></trkpt>
<trkpt lat="46.27951" lon="7.32585"><ele></ele><time>2025-8-26T7:30:35Z</time></trkpt>
<trkpt lat="46.27961" lon="7.32597"><ele></ele><time>2025-8-26T7:30:38Z</time></trkpt>
<trkpt lat="46.27969" lon="7.32609"><ele></ele><time>2025-8-26T7:30:41Z</time></trkpt>
<trkpt lat="46.27988" lon="7.32634"><ele></ele><time>2025-8-26T7:30:44Z</time></trkpt>
<trkpt lat="46.27997" lon="7.32647"><ele></ele><time>2025-8-26T7:30:47Z</time></trkpt>
<trkpt lat="46.28006" lon="7.32661"><ele></ele><time>2025-8-26T7:30:50Z</time></trkpt>
<trkpt lat="46.28015" lon="7.32674"><ele></ele><time>2025-8-26T7:30:53Z</time></trkpt>
<trkpt lat="46.28024" lon="7.32688"><ele></ele><time>2025-8-26T7:30:56Z</time></trkpt>
<trkpt lat="46.28034" lon="7.32701"><ele></ele><time>2025-8-26T7:30:59Z</time></trkpt>
<trkpt lat="46.28044" lon="7.32712"><ele></ele><time>2025-8-26T7:31:2Z</time></trkpt>
<trkpt lat="46.28055" lon="7.32722"><ele></ele><time>2025-8-26T7:31:5Z</time></trkpt>
<trkpt lat="46.28067" lon="7.32732"><ele></ele><time>2025-8-26T7:31:8Z</time></trkpt>
<trkpt lat="46.28078" lon="7.32743"><ele></ele><time>2025-8-26T7:31:11Z</time></trkpt>
<trkpt lat="46.28088" lon="7.32756"><ele></ele><time>2025-8-26T7:31:14Z</time></trkpt>
<trkpt lat="46.28108" lon="7.32782"><ele></ele><time>2025-8-26T7:31:17Z</time></trkpt>
<trkpt lat="46.28126" lon="7.32804"><ele></ele><time>2025-8-26T7:31:20Z</time></trkpt>
<trkpt lat="46.28135" lon="7.32812"><ele></ele><time>2025-8-26T7:31:23Z</time></trkpt>
<trkpt lat="46.28143" lon="7.32818"><ele></ele><time>2025-8-26T7:31:26Z</time></trkpt>
<trkpt lat="46.28149" lon="7.32826"><ele></ele><time>2025-8-26T7:31:29Z</time></trkpt>
<trkpt lat="46.28148" lon="7.32842"><ele></ele><time>2025-8-26T7:31:32Z</time></trkpt>
<trkpt lat="46.28138" lon="7.32841"><ele></ele><time>2025-8-26T7:31:35Z</time></trkpt>
<trkpt lat="46.2813" lon="7.32829"><ele></ele><time>2025-8-26T7:31:38Z</time></trkpt>
<trkpt lat="46.28126" lon="7.32822"><ele></ele><time>2025-8-26T7:31:41Z</time></trkpt>
<trkpt lat="46.28121" lon="7.32816"><ele></ele><time>2025-8-26T7:31:44Z</time></trkpt>
<trkpt lat="46.28115" lon="7.32809"><ele></ele><time>2025-8-26T7:31:47Z</time></trkpt>
<trkpt lat="46.28108" lon="7.32803"><ele></ele><time>2025-8-26T7:31:50Z</time></trkpt>
<trkpt lat="46.28101" lon="7.32798"><ele></ele><time>2025-8-26T7:31:53Z</time></trkpt>
<trkpt lat="46.28084" lon="7.32786"><ele></ele><time>2025-8-26T7:31:56Z</time></trkpt>
<trkpt lat="46.28064" lon="7.32774"><ele></ele><time>2025-8-26T7:31:59Z</time></trkpt>
<trkpt lat="46.28042" lon="7.32762"><ele></ele><time>2025-8-26T7:32:2Z</time></trkpt>
<trkpt lat="46.28031" lon="7.32755"><ele></ele><time>2025-8-26T7:32:5Z</time></trkpt>
<trkpt lat="46.2802" lon="7.32748"><ele></ele><time>2025-8-26T7:32:8Z</time></trkpt>
<trkpt lat="46.28008" lon="7.32742"><ele></ele><time>2025-8-26T7:32:11Z</time></trkpt>
<trkpt lat="46.27997" lon="7.32735"><ele></ele><time>2025-8-26T7:32:14Z</time></trkpt>
<trkpt lat="46.27985" lon="7.32728"><ele></ele><time>2025-8-26T7:32:17Z</time></trkpt>
<trkpt lat="46.27973" lon="7.32722"><ele></ele><time>2025-8-26T7:32:20Z</time></trkpt>
<trkpt lat="46.2796" lon="7.32718"><ele></ele><time>2025-8-26T7:32:23Z</time></trkpt>
<trkpt lat="46.27947" lon="7.32716"><ele></ele><time>2025-8-26T7:32:26Z</time></trkpt>
<trkpt lat="46.27934" lon="7.32714"><ele></ele><time>2025-8-26T7:32:29Z</time></trkpt>
<trkpt lat="46.27921" lon="7.32709"><ele></ele><time>2025-8-26T7:32:32Z</time></trkpt>
<trkpt lat="46.27908" lon="7.32703"><ele></ele><time>2025-8-26T7:32:35Z</time></trkpt>
<trkpt lat="46.27896" lon="7.32696"><ele></ele><time>2025-8-26T7:32:38Z</time></trkpt>
<trkpt lat="46.27884" lon="7.32688"><ele></ele><time>2025-8-26T7:32:41Z</time></trkpt>
<trkpt lat="46.27872" lon="7.3268"><ele></ele><time>2025-8-26T7:32:44Z</time></trkpt>
<trkpt lat="46.2786" lon="7.32672"><ele></ele><time>2025-8-26T7:32:47Z</time></trkpt>
<trkpt lat="46.27848" lon="7.32664"><ele></ele><time>2025-8-26T7:32:50Z</time></trkpt>
<trkpt lat="46.27836" lon="7.32657"><ele></ele><time>2025-8-26T7:32:53Z</time></trkpt>
<trkpt lat="46.27825" lon="7.32648"><ele></ele><time>2025-8-26T7:32:56Z</time></trkpt>
<trkpt lat="46.27814" lon="7.32636"><ele></ele><time>2025-8-26T7:32:59Z</time></trkpt>
<trkpt lat="46.27804" lon="7.32623"><ele></ele><time>2025-8-26T7:33:2Z</time></trkpt>
<trkpt lat="46.27795" lon="7.32608"><ele></ele><time>2025-8-26T7:33:5Z</time></trkpt>
<trkpt lat="46.27786" lon="7.32593"><ele></ele><time>2025-8-26T7:33:8Z</time></trkpt>
<trkpt lat="46.27778" lon="7.32577"><ele></ele><time>2025-8-26T7:33:11Z</time></trkpt>
<trkpt lat="46.27769" lon="7.32562"><ele></ele><time>2025-8-26T7:33:14Z</time></trkpt>
<trkpt lat="46.27752" lon="7.3253"><ele></ele><time>2025-8-26T7:33:17Z</time></trkpt>
<trkpt lat="46.27743" lon="7.32515"><ele></ele><time>2025-8-26T7:33:20Z</time></trkpt>
<trkpt lat="46.27724" lon="7.32486"><ele></ele><time>2025-8-26T7:33:23Z</time></trkpt>
<trkpt lat="46.27713" lon="7.32473"><ele></ele><time>2025-8-26T7:33:26Z</time></trkpt>
<trkpt lat="46.27701" lon="7.32461"><ele></ele><time>2025-8-26T7:33:29Z</time></trkpt>
<trkpt lat="46.2769" lon="7.3245"><ele></ele><time>2025-8-26T7:33:32Z</time></trkpt>
<trkpt lat="46.27679" lon="7.32438"><ele></ele><time>2025-8-26T7:33:35Z</time></trkpt>
<trkpt lat="46.27657" lon="7.32414"><ele></ele><time>2025-8-26T7:33:38Z</time></trkpt>
<trkpt lat="46.27646" lon="7.32401"><ele></ele><time>2025-8-26T7:33:41Z</time></trkpt>
<trkpt lat="46.27635" lon="7.32389"><ele></ele><time>2025-8-26T7:33:44Z</time></trkpt>
<trkpt lat="46.27611" lon="7.32365"><ele></ele><time>2025-8-26T7:33:47Z</time></trkpt>
<trkpt lat="46.276" lon="7.32353"><ele></ele><time>2025-8-26T7:33:50Z</time></trkpt>
<trkpt lat="46.27588" lon="7.32342"><ele></ele><time>2025-8-26T7:33:53Z</time></trkpt>
<trkpt lat="46.27577" lon="7.3233"><ele></ele><time>2025-8-26T7:33:56Z</time></trkpt>
<trkpt lat="46.27566" lon="7.32317"><ele></ele><time>2025-8-26T7:33:59Z</time></trkpt>
<trkpt lat="46.27555" lon="7.32305"><ele></ele><time>2025-8-26T7:34:2Z</time></trkpt>
<trkpt lat="46.27532" lon="7.3228"><ele></ele><time>2025-8-26T7:34:5Z</time></trkpt>
<trkpt lat="46.27521" lon="7.32268"><ele></ele><time>2025-8-26T7:34:8Z</time></trkpt>
<trkpt lat="46.27509" lon="7.32257"><ele></ele><time>2025-8-26T7:34:11Z</time></trkpt>
<trkpt lat="46.27498" lon="7.32245"><ele></ele><time>2025-8-26T7:34:14Z</time></trkpt>
<trkpt lat="46.27487" lon="7.32233"><ele></ele><time>2025-8-26T7:34:17Z</time></trkpt>
<trkpt lat="46.27465" lon="7.32207"><ele></ele><time>2025-8-26T7:34:20Z</time></trkpt>
<trkpt lat="46.27445" lon="7.32179"><ele></ele><time>2025-8-26T7:34:23Z</time></trkpt>
<trkpt lat="46.27435" lon="7.32164"><ele></ele><time>2025-8-26T7:34:26Z</time></trkpt>
<trkpt lat="46.27426" lon="7.32149"><ele></ele><time>2025-8-26T7:34:29Z</time></trkpt>
<trkpt lat="46.27416" lon="7.32134"><ele></ele><time>2025-8-26T7:34:32Z</time></trkpt>
<trkpt lat="46.27407" lon="7.32119"><ele></ele><time>2025-8-26T7:34:35Z</time></trkpt>
<trkpt lat="46.27397" lon="7.32104"><ele></ele><time>2025-8-26T7:34:38Z</time></trkpt>
<trkpt lat="46.27386" lon="7.3209"><ele></ele><time>2025-8-26T7:34:41Z</time></trkpt>
<trkpt lat="46.27375" lon="7.32076"><ele></ele><time>2025-8-26T7:34:44Z</time></trkpt>
<trkpt lat="46.27364" lon="7.32063"><ele></ele><time>2025-8-26T7:34:47Z</time></trkpt>
<trkpt lat="46.27353" lon="7.3205"><ele></ele><time>2025-8-26T7:34:50Z</time></trkpt>
<trkpt lat="46.27342" lon="7.32038"><ele></ele><time>2025-8-26T7:34:53Z</time></trkpt>
<trkpt lat="46.2733" lon="7.32027"><ele></ele><time>2025-8-26T7:34:56Z</time></trkpt>
<trkpt lat="46.27317" lon="7.32017"><ele></ele><time>2025-8-26T7:34:59Z</time></trkpt>
<trkpt lat="46.27304" lon="7.32007"><ele></ele><time>2025-8-26T7:35:2Z</time></trkpt>
<trkpt lat="46.27292" lon="7.31997"><ele></ele><time>2025-8-26T7:35:5Z</time></trkpt>
<trkpt lat="46.27281" lon="7.31985"><ele></ele><time>2025-8-26T7:35:8Z</time></trkpt>
<trkpt lat="46.2727" lon="7.31972"><ele></ele><time>2025-8-26T7:35:11Z</time></trkpt>
<trkpt lat="46.27259" lon="7.31959"><ele></ele><time>2025-8-26T7:35:14Z</time></trkpt>
<trkpt lat="46.27248" lon="7.31946"><ele></ele><time>2025-8-26T7:35:17Z</time></trkpt>
<trkpt lat="46.27236" lon="7.31935"><ele></ele><time>2025-8-26T7:35:20Z</time></trkpt>
<trkpt lat="46.27223" lon="7.31927"><ele></ele><time>2025-8-26T7:35:23Z</time></trkpt>
<trkpt lat="46.2721" lon="7.31922"><ele></ele><time>2025-8-26T7:35:26Z</time></trkpt>
<trkpt lat="46.27197" lon="7.3192"><ele></ele><time>2025-8-26T7:35:29Z</time></trkpt>
<trkpt lat="46.27183" lon="7.31917"><ele></ele><time>2025-8-26T7:35:32Z</time></trkpt>
<trkpt lat="46.27171" lon="7.31911"><ele></ele><time>2025-8-26T7:35:35Z</time></trkpt>
<trkpt lat="46.27147" lon="7.31894"><ele></ele><time>2025-8-26T7:35:38Z</time></trkpt>
<trkpt lat="46.27124" lon="7.31878"><ele></ele><time>2025-8-26T7:35:41Z</time></trkpt>
<trkpt lat="46.27101" lon="7.3186"><ele></ele><time>2025-8-26T7:35:44Z</time></trkpt>
<trkpt lat="46.2708" lon="7.31839"><ele></ele><time>2025-8-26T7:35:47Z</time></trkpt>
<trkpt lat="46.2707" lon="7.31827"><ele></ele><time>2025-8-26T7:35:50Z</time></trkpt>
<trkpt lat="46.27061" lon="7.31813"><ele></ele><time>2025-8-26T7:35:53Z</time></trkpt>
<trkpt lat="46.27052" lon="7.31799"><ele></ele><time>2025-8-26T7:35:56Z</time></trkpt>
<trkpt lat="46.27042" lon="7.31788"><ele></ele><time>2025-8-26T7:35:59Z</time></trkpt>
<trkpt lat="46.27032" lon="7.31777"><ele></ele><time>2025-8-26T7:36:2Z</time></trkpt>
<trkpt lat="46.27021" lon="7.31769"><ele></ele><time>2025-8-26T7:36:5Z</time></trkpt>
<trkpt lat="46.27009" lon="7.31765"><ele></ele><time>2025-8-26T7:36:8Z</time></trkpt>
<trkpt lat="46.26996" lon="7.31764"><ele></ele><time>2025-8-26T7:36:11Z</time></trkpt>
<trkpt lat="46.26971" lon="7.31772"><ele></ele><time>2025-8-26T7:36:14Z</time></trkpt>
<trkpt lat="46.26961" lon="7.31782"><ele></ele><time>2025-8-26T7:36:17Z</time></trkpt>
<trkpt lat="46.26939" lon="7.31802"><ele></ele><time>2025-8-26T7:36:20Z</time></trkpt>
<trkpt lat="46.26926" lon="7.31808"><ele></ele><time>2025-8-26T7:36:23Z</time></trkpt>
<trkpt lat="46.269" lon="7.31807"><ele></ele><time>2025-8-26T7:36:26Z</time></trkpt>
<trkpt lat="46.26879" lon="7.31788"><ele></ele><time>2025-8-26T7:36:29Z</time></trkpt>
<trkpt lat="46.2686" lon="7.31763"><ele></ele><time>2025-8-26T7:36:32Z</time></trkpt>
<trkpt lat="46.2685" lon="7.31751"><ele></ele><time>2025-8-26T7:36:35Z</time></trkpt>
<trkpt lat="46.2684" lon="7.31739"><ele></ele><time>2025-8-26T7:36:38Z</time></trkpt>
<trkpt lat="46.2683" lon="7.31727"><ele></ele><time>2025-8-26T7:36:41Z</time></trkpt>
<trkpt lat="46.26814" lon="7.31702"><ele></ele><time>2025-8-26T7:36:44Z</time></trkpt>
<trkpt lat="46.26807" lon="7.31688"><ele></ele><time>2025-8-26T7:36:47Z</time></trkpt>
<trkpt lat="46.26801" lon="7.31674"><ele></ele><time>2025-8-26T7:36:50Z</time></trkpt>
<trkpt lat="46.26797" lon="7.3166"><ele></ele><time>2025-8-26T7:36:53Z</time></trkpt>
<trkpt lat="46.26793" lon="7.31645"><ele></ele><time>2025-8-26T7:36:56Z</time></trkpt>
<trkpt lat="46.26791" lon="7.31629"><ele></ele><time>2025-8-26T7:36:59Z</time></trkpt>
<trkpt lat="46.26791" lon="7.31613"><ele></ele><time>2025-8-26T7:37:2Z</time></trkpt>
<trkpt lat="46.26793" lon="7.31598"><ele></ele><time>2025-8-26T7:37:5Z</time></trkpt>
<trkpt lat="46.26797" lon="7.31583"><ele></ele><time>2025-8-26T7:37:8Z</time></trkpt>
<trkpt lat="46.26807" lon="7.31554"><ele></ele><time>2025-8-26T7:37:11Z</time></trkpt>
<trkpt lat="46.26814" lon="7.31541"><ele></ele><time>2025-8-26T7:37:14Z</time></trkpt>
<trkpt lat="46.26832" lon="7.31519"><ele></ele><time>2025-8-26T7:37:17Z</time></trkpt>
<trkpt lat="46.2685" lon="7.31497"><ele></ele><time>2025-8-26T7:37:20Z</time></trkpt>
<trkpt lat="46.26859" lon="7.31485"><ele></ele><time>2025-8-26T7:37:23Z</time></trkpt>
<trkpt lat="46.26866" lon="7.31471"><ele></ele><time>2025-8-26T7:37:26Z</time></trkpt>
<trkpt lat="46.26871" lon="7.31455"><ele></ele><time>2025-8-26T7:37:29Z</time></trkpt>
<trkpt lat="46.26875" lon="7.31438"><ele></ele><time>2025-8-26T7:37:32Z</time></trkpt>
<trkpt lat="46.26876" lon="7.3142"><ele></ele><time>2025-8-26T7:37:35Z</time></trkpt>
<trkpt lat="46.26878" lon="7.31402"><ele></ele><time>2025-8-26T7:37:38Z</time></trkpt>
<trkpt lat="46.26885" lon="7.31367"><ele></ele><time>2025-8-26T7:37:41Z</time></trkpt>
<trkpt lat="46.26891" lon="7.31333"><ele></ele><time>2025-8-26T7:37:44Z</time></trkpt>
<trkpt lat="46.26892" lon="7.31316"><ele></ele><time>2025-8-26T7:37:47Z</time></trkpt>
<trkpt lat="46.26889" lon="7.31301"><ele></ele><time>2025-8-26T7:37:50Z</time></trkpt>
<trkpt lat="46.26882" lon="7.31289"><ele></ele><time>2025-8-26T7:37:53Z</time></trkpt>
<trkpt lat="46.26873" lon="7.31281"><ele></ele><time>2025-8-26T7:37:56Z</time></trkpt>
<trkpt lat="46.26863" lon="7.31277"><ele></ele><time>2025-8-26T7:37:59Z</time></trkpt>
<trkpt lat="46.26853" lon="7.31277"><ele></ele><time>2025-8-26T7:38:2Z</time></trkpt>
<trkpt lat="46.26843" lon="7.3128"><ele></ele><time>2025-8-26T7:38:5Z</time></trkpt>
<trkpt lat="46.26827" lon="7.31291"><ele></ele><time>2025-8-26T7:38:8Z</time></trkpt>
<trkpt lat="46.26808" lon="7.31309"><ele></ele><time>2025-8-26T7:38:11Z</time></trkpt>
<trkpt lat="46.26803" lon="7.31314"><ele></ele><time>2025-8-26T7:38:14Z</time></trkpt>
<trkpt lat="46.26794" lon="7.31323"><ele></ele><time>2025-8-26T7:38:17Z</time></trkpt>
<trkpt lat="46.26785" lon="7.31333"><ele></ele><time>2025-8-26T7:38:20Z</time></trkpt>
<trkpt lat="46.26774" lon="7.31346"><ele></ele><time>2025-8-26T7:38:23Z</time></trkpt>
<trkpt lat="46.26765" lon="7.31356"><ele></ele><time>2025-8-26T7:38:26Z</time></trkpt>
<trkpt lat="46.26762" lon="7.31361"><ele></ele><time>2025-8-26T7:38:29Z</time></trkpt>
<trkpt lat="46.26759" lon="7.31365"><ele></ele><time>2025-8-26T7:38:32Z</time></trkpt>
<trkpt lat="46.26749" lon="7.31381"><ele></ele><time>2025-8-26T7:38:35Z</time></trkpt>
<trkpt lat="46.26748" lon="7.31382"><ele></ele><time>2025-8-26T7:38:38Z</time></trkpt>
<trkpt lat="46.26741" lon="7.31393"><ele></ele><time>2025-8-26T7:38:41Z</time></trkpt>
<trkpt lat="46.2674" lon="7.31395"><ele></ele><time>2025-8-26T7:38:44Z</time></trkpt>
<trkpt lat="46.26737" lon="7.314"><ele></ele><time>2025-8-26T7:38:47Z</time></trkpt>
<trkpt lat="46.26733" lon="7.31404"><ele></ele><time>2025-8-26T7:38:50Z</time></trkpt>
<trkpt lat="46.26726" lon="7.31416"><ele></ele><time>2025-8-26T7:38:53Z</time></trkpt>
<trkpt lat="46.26725" lon="7.31418"><ele></ele><time>2025-8-26T7:38:56Z</time></trkpt>
<trkpt lat="46.26722" lon="7.3143"><ele></ele><time>2025-8-26T7:38:59Z</time></trkpt>
<trkpt lat="46.26719" lon="7.31441"><ele></ele><time>2025-8-26T7:39:2Z</time></trkpt>
<trkpt lat="46.26718" lon="7.31443"><ele></ele><time>2025-8-26T7:39:5Z</time></trkpt>
<trkpt lat="46.26716" lon="7.31458"><ele></ele><time>2025-8-26T7:39:8Z</time></trkpt>
<trkpt lat="46.26716" lon="7.31468"><ele></ele><time>2025-8-26T7:39:11Z</time></trkpt>
<trkpt lat="46.26717" lon="7.31474"><ele></ele><time>2025-8-26T7:39:14Z</time></trkpt>
<trkpt lat="46.26716" lon="7.31476"><ele></ele><time>2025-8-26T7:39:17Z</time></trkpt>
<trkpt lat="46.26713" lon="7.31484"><ele></ele><time>2025-8-26T7:39:20Z</time></trkpt>
<trkpt lat="46.26711" lon="7.31489"><ele></ele><time>2025-8-26T7:39:23Z</time></trkpt>
<trkpt lat="46.26707" lon="7.31501"><ele></ele><time>2025-8-26T7:39:26Z</time></trkpt>
<trkpt lat="46.26704" lon="7.31512"><ele></ele><time>2025-8-26T7:39:29Z</time></trkpt>
<trkpt lat="46.26699" lon="7.31519"><ele></ele><time>2025-8-26T7:39:32Z</time></trkpt>
<trkpt lat="46.26686" lon="7.31532"><ele></ele><time>2025-8-26T7:39:35Z</time></trkpt>
<trkpt lat="46.26669" lon="7.31529"><ele></ele><time>2025-8-26T7:39:38Z</time></trkpt>
<trkpt lat="46.26642" lon="7.31514"><ele></ele><time>2025-8-26T7:39:41Z</time></trkpt>
<trkpt lat="46.26609" lon="7.31506"><ele></ele><time>2025-8-26T7:39:44Z</time></trkpt>
<trkpt lat="46.2658" lon="7.3151"><ele></ele><time>2025-8-26T7:39:47Z</time></trkpt>
<trkpt lat="46.26574" lon="7.3151"><ele></ele><time>2025-8-26T7:39:50Z</time></trkpt>
<trkpt lat="46.26561" lon="7.31509"><ele></ele><time>2025-8-26T7:39:53Z</time></trkpt>
<trkpt lat="46.26554" lon="7.31508"><ele></ele><time>2025-8-26T7:39:56Z</time></trkpt>
<trkpt lat="46.26542" lon="7.31508"><ele></ele><time>2025-8-26T7:39:59Z</time></trkpt>
<trkpt lat="46.26536" lon="7.31508"><ele></ele><time>2025-8-26T7:40:2Z</time></trkpt>
<trkpt lat="46.26487" lon="7.31508"><ele></ele><time>2025-8-26T7:40:5Z</time></trkpt>
<trkpt lat="46.26456" lon="7.31509"><ele></ele><time>2025-8-26T7:40:8Z</time></trkpt>
<trkpt lat="46.2645" lon="7.31505"><ele></ele><time>2025-8-26T7:40:11Z</time></trkpt>
<trkpt lat="46.26445" lon="7.31497"><ele></ele><time>2025-8-26T7:40:14Z</time></trkpt>
<trkpt lat="46.26442" lon="7.31488"><ele></ele><time>2025-8-26T7:40:17Z</time></trkpt>
<trkpt lat="46.26439" lon="7.31477"><ele></ele><time>2025-8-26T7:40:20Z</time></trkpt>
<trkpt lat="46.26432" lon="7.31455"><ele></ele><time>2025-8-26T7:40:23Z</time></trkpt>
<trkpt lat="46.26426" lon="7.31444"><ele></ele><time>2025-8-26T7:40:26Z</time></trkpt>
<trkpt lat="46.26419" lon="7.31434"><ele></ele><time>2025-8-26T7:40:29Z</time></trkpt>
<trkpt lat="46.26404" lon="7.31415"><ele></ele><time>2025-8-26T7:40:32Z</time></trkpt>
<trkpt lat="46.26395" lon="7.31406"><ele></ele><time>2025-8-26T7:40:35Z</time></trkpt>
<trkpt lat="46.2637" lon="7.31379"><ele></ele><time>2025-8-26T7:40:38Z</time></trkpt>
<trkpt lat="46.26337" lon="7.31345"><ele></ele><time>2025-8-26T7:40:41Z</time></trkpt>
<trkpt lat="46.2629" lon="7.313"><ele></ele><time>2025-8-26T7:40:44Z</time></trkpt>
<trkpt lat="46.26277" lon="7.31284"><ele></ele><time>2025-8-26T7:40:47Z</time></trkpt>
<trkpt lat="46.26246" lon="7.31235"><ele></ele><time>2025-8-26T7:40:50Z</time></trkpt>
<trkpt lat="46.26218" lon="7.31189"><ele></ele><time>2025-8-26T7:40:53Z</time></trkpt>
<trkpt lat="46.26181" lon="7.31148"><ele></ele><time>2025-8-26T7:40:56Z</time></trkpt>
<trkpt lat="46.2615" lon="7.31116"><ele></ele><time>2025-8-26T7:40:59Z</time></trkpt>
<trkpt lat="46.26136" lon="7.31099"><ele></ele><time>2025-8-26T7:41:2Z</time></trkpt>
<trkpt lat="46.26119" lon="7.31073"><ele></ele><time>2025-8-26T7:41:5Z</time></trkpt>
<trkpt lat="46.26114" lon="7.31067"><ele></ele><time>2025-8-26T7:41:8Z</time></trkpt>
<trkpt lat="46.26109" lon="7.31062"><ele></ele><time>2025-8-26T7:41:11Z</time></trkpt>
<trkpt lat="46.26104" lon="7.31058"><ele></ele><time>2025-8-26T7:41:14Z</time></trkpt>
<trkpt lat="46.26092" lon="7.31054"><ele></ele><time>2025-8-26T7:41:17Z</time></trkpt>
<trkpt lat="46.26086" lon="7.31053"><ele></ele><time>2025-8-26T7:41:20Z</time></trkpt>
<trkpt lat="46.26044" lon="7.31037"><ele></ele><time>2025-8-26T7:41:23Z</time></trkpt>
<trkpt lat="46.26029" lon="7.31032"><ele></ele><time>2025-8-26T7:41:26Z</time></trkpt>
<trkpt lat="46.2602" lon="7.31029"><ele></ele><time>2025-8-26T7:41:29Z</time></trkpt>
<trkpt lat="46.26001" lon="7.31026"><ele></ele><time>2025-8-26T7:41:32Z</time></trkpt>
<trkpt lat="46.25991" lon="7.31025"><ele></ele><time>2025-8-26T7:41:35Z</time></trkpt>
<trkpt lat="46.25969" lon="7.31027"><ele></ele><time>2025-8-26T7:41:38Z</time></trkpt>
<trkpt lat="46.25965" lon="7.31028"><ele></ele><time>2025-8-26T7:41:41Z</time></trkpt>
<trkpt lat="46.25961" lon="7.31031"><ele></ele><time>2025-8-26T7:41:44Z</time></trkpt>
<trkpt lat="46.25956" lon="7.31032"><ele></ele><time>2025-8-26T7:41:47Z</time></trkpt>
<trkpt lat="46.25948" lon="7.31031"><ele></ele><time>2025-8-26T7:41:50Z</time></trkpt>
<trkpt lat="46.25944" lon="7.3103"><ele></ele><time>2025-8-26T7:41:53Z</time></trkpt>
<trkpt lat="46.2593" lon="7.31024"><ele></ele><time>2025-8-26T7:41:56Z</time></trkpt>
<trkpt lat="46.25926" lon="7.3102"><ele></ele><time>2025-8-26T7:41:59Z</time></trkpt>
<trkpt lat="46.25921" lon="7.31015"><ele></ele><time>2025-8-26T7:42:2Z</time></trkpt>
<trkpt lat="46.25916" lon="7.31009"><ele></ele><time>2025-8-26T7:42:5Z</time></trkpt>
<trkpt lat="46.25909" lon="7.31004"><ele></ele><time>2025-8-26T7:42:8Z</time></trkpt>
<trkpt lat="46.25902" lon="7.30999"><ele></ele><time>2025-8-26T7:42:11Z</time></trkpt>
<trkpt lat="46.25887" lon="7.30985"><ele></ele><time>2025-8-26T7:42:14Z</time></trkpt>
<trkpt lat="46.25873" lon="7.30967"><ele></ele><time>2025-8-26T7:42:17Z</time></trkpt>
<trkpt lat="46.25862" lon="7.30946"><ele></ele><time>2025-8-26T7:42:20Z</time></trkpt>
<trkpt lat="46.25858" lon="7.30935"><ele></ele><time>2025-8-26T7:42:23Z</time></trkpt>
<trkpt lat="46.25854" lon="7.30923"><ele></ele><time>2025-8-26T7:42:26Z</time></trkpt>
<trkpt lat="46.25851" lon="7.3091"><ele></ele><time>2025-8-26T7:42:29Z</time></trkpt>
<trkpt lat="46.25847" lon="7.30884"><ele></ele><time>2025-8-26T7:42:32Z</time></trkpt>
<trkpt lat="46.25843" lon="7.30858"><ele></ele><time>2025-8-26T7:42:35Z</time></trkpt>
<trkpt lat="46.25836" lon="7.30832"><ele></ele><time>2025-8-26T7:42:38Z</time></trkpt>
<trkpt lat="46.25824" lon="7.3081"><ele></ele><time>2025-8-26T7:42:41Z</time></trkpt>
<trkpt lat="46.25808" lon="7.30774"><ele></ele><time>2025-8-26T7:42:44Z</time></trkpt>
<trkpt lat="46.25805" lon="7.30761"><ele></ele><time>2025-8-26T7:42:47Z</time></trkpt>
<trkpt lat="46.25804" lon="7.30747"><ele></ele><time>2025-8-26T7:42:50Z</time></trkpt>
<trkpt lat="46.25803" lon="7.30733"><ele></ele><time>2025-8-26T7:42:53Z</time></trkpt>
<trkpt lat="46.25797" lon="7.30708"><ele></ele><time>2025-8-26T7:42:56Z</time></trkpt>
<trkpt lat="46.25791" lon="7.30699"><ele></ele><time>2025-8-26T7:42:59Z</time></trkpt>
<trkpt lat="46.25782" lon="7.30694"><ele></ele><time>2025-8-26T7:43:2Z</time></trkpt>
<trkpt lat="46.25772" lon="7.30693"><ele></ele><time>2025-8-26T7:43:5Z</time></trkpt>
<trkpt lat="46.25752" lon="7.30691"><ele></ele><time>2025-8-26T7:43:8Z</time></trkpt>
<trkpt lat="46.25742" lon="7.30688"><ele></ele><time>2025-8-26T7:43:11Z</time></trkpt>
<trkpt lat="46.25733" lon="7.30682"><ele></ele><time>2025-8-26T7:43:14Z</time></trkpt>
<trkpt lat="46.25725" lon="7.30674"><ele></ele><time>2025-8-26T7:43:17Z</time></trkpt>
<trkpt lat="46.2571" lon="7.30655"><ele></ele><time>2025-8-26T7:43:20Z</time></trkpt>
<trkpt lat="46.25693" lon="7.30637"><ele></ele><time>2025-8-26T7:43:23Z</time></trkpt>
<trkpt lat="46.25684" lon="7.3063"><ele></ele><time>2025-8-26T7:43:26Z</time></trkpt>
<trkpt lat="46.25665" lon="7.30618"><ele></ele><time>2025-8-26T7:43:29Z</time></trkpt>
<trkpt lat="46.25647" lon="7.30608"><ele></ele><time>2025-8-26T7:43:32Z</time></trkpt>
<trkpt lat="46.25636" lon="7.30591"><ele></ele><time>2025-8-26T7:43:35Z</time></trkpt>
<trkpt lat="46.25628" lon="7.30575"><ele></ele><time>2025-8-26T7:43:38Z</time></trkpt>
<trkpt lat="46.25622" lon="7.30572"><ele></ele><time>2025-8-26T7:43:41Z</time></trkpt>
<trkpt lat="46.25617" lon="7.30573"><ele></ele><time>2025-8-26T7:43:44Z</time></trkpt>
<trkpt lat="46.25615" lon="7.30578"><ele></ele><time>2025-8-26T7:43:47Z</time></trkpt>
<trkpt lat="46.25619" lon="7.30589"><ele></ele><time>2025-8-26T7:43:50Z</time></trkpt>
<trkpt lat="46.25623" lon="7.30594"><ele></ele><time>2025-8-26T7:43:53Z</time></trkpt>
<trkpt lat="46.25631" lon="7.30606"><ele></ele><time>2025-8-26T7:43:56Z</time></trkpt>
<trkpt lat="46.25635" lon="7.30613"><ele></ele><time>2025-8-26T7:43:59Z</time></trkpt>
<trkpt lat="46.2564" lon="7.3062"><ele></ele><time>2025-8-26T7:44:2Z</time></trkpt>
<trkpt lat="46.25651" lon="7.30634"><ele></ele><time>2025-8-26T7:44:5Z</time></trkpt>
<trkpt lat="46.25658" lon="7.30641"><ele></ele><time>2025-8-26T7:44:8Z</time></trkpt>
<trkpt lat="46.25664" lon="7.30649"><ele></ele><time>2025-8-26T7:44:11Z</time></trkpt>
<trkpt lat="46.25684" lon="7.30679"><ele></ele><time>2025-8-26T7:44:14Z</time></trkpt>
<trkpt lat="46.2569" lon="7.3069"><ele></ele><time>2025-8-26T7:44:17Z</time></trkpt>
<trkpt lat="46.25697" lon="7.307"><ele></ele><time>2025-8-26T7:44:20Z</time></trkpt>
<trkpt lat="46.25705" lon="7.3071"><ele></ele><time>2025-8-26T7:44:23Z</time></trkpt>
<trkpt lat="46.25713" lon="7.30719"><ele></ele><time>2025-8-26T7:44:26Z</time></trkpt>
<trkpt lat="46.25722" lon="7.30726"><ele></ele><time>2025-8-26T7:44:29Z</time></trkpt>
<trkpt lat="46.25731" lon="7.30731"><ele></ele><time>2025-8-26T7:44:32Z</time></trkpt>
<trkpt lat="46.25747" lon="7.3074"><ele></ele><time>2025-8-26T7:44:35Z</time></trkpt>
<trkpt lat="46.25753" lon="7.30746"><ele></ele><time>2025-8-26T7:44:38Z</time></trkpt>
<trkpt lat="46.25755" lon="7.30753"><ele></ele><time>2025-8-26T7:44:41Z</time></trkpt>
<trkpt lat="46.25753" lon="7.3076"><ele></ele><time>2025-8-26T7:44:44Z</time></trkpt>
<trkpt lat="46.25748" lon="7.30763"><ele></ele><time>2025-8-26T7:44:47Z</time></trkpt>
<trkpt lat="46.25736" lon="7.30754"><ele></ele><time>2025-8-26T7:44:50Z</time></trkpt>
<trkpt lat="46.25731" lon="7.3075"><ele></ele><time>2025-8-26T7:44:53Z</time></trkpt>
<trkpt lat="46.25718" lon="7.30743"><ele></ele><time>2025-8-26T7:44:56Z</time></trkpt>
<trkpt lat="46.2571" lon="7.30742"><ele></ele><time>2025-8-26T7:44:59Z</time></trkpt>
<trkpt lat="46.25702" lon="7.30741"><ele></ele><time>2025-8-26T7:45:2Z</time></trkpt>
<trkpt lat="46.25692" lon="7.3074"><ele></ele><time>2025-8-26T7:45:5Z</time></trkpt>
<trkpt lat="46.25682" lon="7.30737"><ele></ele><time>2025-8-26T7:45:8Z</time></trkpt>
<trkpt lat="46.25672" lon="7.30733"><ele></ele><time>2025-8-26T7:45:11Z</time></trkpt>
<trkpt lat="46.25662" lon="7.30728"><ele></ele><time>2025-8-26T7:45:14Z</time></trkpt>
<trkpt lat="46.25651" lon="7.30723"><ele></ele><time>2025-8-26T7:45:17Z</time></trkpt>
<trkpt lat="46.2564" lon="7.30719"><ele></ele><time>2025-8-26T7:45:20Z</time></trkpt>
<trkpt lat="46.2563" lon="7.30717"><ele></ele><time>2025-8-26T7:45:23Z</time></trkpt>
<trkpt lat="46.2562" lon="7.30718"><ele></ele><time>2025-8-26T7:45:26Z</time></trkpt>
<trkpt lat="46.2561" lon="7.30721"><ele></ele><time>2025-8-26T7:45:29Z</time></trkpt>
<trkpt lat="46.25593" lon="7.30728"><ele></ele><time>2025-8-26T7:45:32Z</time></trkpt>
<trkpt lat="46.25577" lon="7.30733"><ele></ele><time>2025-8-26T7:45:35Z</time></trkpt>
<trkpt lat="46.25562" lon="7.30737"><ele></ele><time>2025-8-26T7:45:38Z</time></trkpt>
<trkpt lat="46.25549" lon="7.3073"><ele></ele><time>2025-8-26T7:45:41Z</time></trkpt>
<trkpt lat="46.25543" lon="7.30724"><ele></ele><time>2025-8-26T7:45:44Z</time></trkpt>
<trkpt lat="46.25538" lon="7.30716"><ele></ele><time>2025-8-26T7:45:47Z</time></trkpt>
<trkpt lat="46.25533" lon="7.30709"><ele></ele><time>2025-8-26T7:45:50Z</time></trkpt>
<trkpt lat="46.25524" lon="7.30696"><ele></ele><time>2025-8-26T7:45:53Z</time></trkpt>
<trkpt lat="46.2551" lon="7.30669"><ele></ele><time>2025-8-26T7:45:56Z</time></trkpt>
<trkpt lat="46.25508" lon="7.30663"><ele></ele><time>2025-8-26T7:45:59Z</time></trkpt>
<trkpt lat="46.25503" lon="7.30649"><ele></ele><time>2025-8-26T7:46:2Z</time></trkpt>
<trkpt lat="46.255" lon="7.30644"><ele></ele><time>2025-8-26T7:46:5Z</time></trkpt>
<trkpt lat="46.25495" lon="7.30639"><ele></ele><time>2025-8-26T7:46:8Z</time></trkpt>
<trkpt lat="46.2549" lon="7.30635"><ele></ele><time>2025-8-26T7:46:11Z</time></trkpt>
<trkpt lat="46.25485" lon="7.30632"><ele></ele><time>2025-8-26T7:46:14Z</time></trkpt>
<trkpt lat="46.25479" lon="7.30629"><ele></ele><time>2025-8-26T7:46:17Z</time></trkpt>
<trkpt lat="46.25465" lon="7.30623"><ele></ele><time>2025-8-26T7:46:20Z</time></trkpt>
<trkpt lat="46.25457" lon="7.30619"><ele></ele><time>2025-8-26T7:46:23Z</time></trkpt>
<trkpt lat="46.25443" lon="7.3061"><ele></ele><time>2025-8-26T7:46:26Z</time></trkpt>
<trkpt lat="46.25431" lon="7.30602"><ele></ele><time>2025-8-26T7:46:29Z</time></trkpt>
<trkpt lat="46.25418" lon="7.30596"><ele></ele><time>2025-8-26T7:46:32Z</time></trkpt>
<trkpt lat="46.25405" lon="7.30592"><ele></ele><time>2025-8-26T7:46:35Z</time></trkpt>
<trkpt lat="46.25399" lon="7.30591"><ele></ele><time>2025-8-26T7:46:38Z</time></trkpt>
<trkpt lat="46.25385" lon="7.30588"><ele></ele><time>2025-8-26T7:46:41Z</time></trkpt>
<trkpt lat="46.25372" lon="7.30586"><ele></ele><time>2025-8-26T7:46:44Z</time></trkpt>
<trkpt lat="46.25359" lon="7.30584"><ele></ele><time>2025-8-26T7:46:47Z</time></trkpt>
<trkpt lat="46.25345" lon="7.30578"><ele></ele><time>2025-8-26T7:46:50Z</time></trkpt>
<trkpt lat="46.25334" lon="7.30569"><ele></ele><time>2025-8-26T7:46:53Z</time></trkpt>
<trkpt lat="46.25329" lon="7.30564"><ele></ele><time>2025-8-26T7:46:56Z</time></trkpt>
<trkpt lat="46.25324" lon="7.30558"><ele></ele><time>2025-8-26T7:46:59Z</time></trkpt>
<trkpt lat="46.2532" lon="7.30551"><ele></ele><time>2025-8-26T7:47:2Z</time></trkpt>
<trkpt lat="46.25307" lon="7.30538"><ele></ele><time>2025-8-26T7:47:5Z</time></trkpt>
<trkpt lat="46.253" lon="7.30531"><ele></ele><time>2025-8-26T7:47:8Z</time></trkpt>
<trkpt lat="46.25293" lon="7.30523"><ele></ele><time>2025-8-26T7:47:11Z</time></trkpt>
<trkpt lat="46.25284" lon="7.30516"><ele></ele><time>2025-8-26T7:47:14Z</time></trkpt>
<trkpt lat="46.25266" lon="7.30502"><ele></ele><time>2025-8-26T7:47:17Z</time></trkpt>
<trkpt lat="46.25259" lon="7.30492"><ele></ele><time>2025-8-26T7:47:20Z</time></trkpt>
<trkpt lat="46.25253" lon="7.3048"><ele></ele><time>2025-8-26T7:47:23Z</time></trkpt>
<trkpt lat="46.25249" lon="7.30465"><ele></ele><time>2025-8-26T7:47:26Z</time></trkpt>
<trkpt lat="46.25245" lon="7.3045"><ele></ele><time>2025-8-26T7:47:29Z</time></trkpt>
<trkpt lat="46.2524" lon="7.30435"><ele></ele><time>2025-8-26T7:47:32Z</time></trkpt>
<trkpt lat="46.25234" lon="7.3042"><ele></ele><time>2025-8-26T7:47:35Z</time></trkpt>
<trkpt lat="46.25226" lon="7.30408"><ele></ele><time>2025-8-26T7:47:38Z</time></trkpt>
<trkpt lat="46.25217" lon="7.30395"><ele></ele><time>2025-8-26T7:47:41Z</time></trkpt>
<trkpt lat="46.25198" lon="7.30372"><ele></ele><time>2025-8-26T7:47:44Z</time></trkpt>
<trkpt lat="46.25189" lon="7.30361"><ele></ele><time>2025-8-26T7:47:47Z</time></trkpt>
<trkpt lat="46.25179" lon="7.3035"><ele></ele><time>2025-8-26T7:47:50Z</time></trkpt>
<trkpt lat="46.2516" lon="7.30327"><ele></ele><time>2025-8-26T7:47:53Z</time></trkpt>
<trkpt lat="46.2514" lon="7.30305"><ele></ele><time>2025-8-26T7:47:56Z</time></trkpt>
<trkpt lat="46.2512" lon="7.30283"><ele></ele><time>2025-8-26T7:47:59Z</time></trkpt>
<trkpt lat="46.2511" lon="7.30272"><ele></ele><time>2025-8-26T7:48:2Z</time></trkpt>
<trkpt lat="46.251" lon="7.30261"><ele></ele><time>2025-8-26T7:48:5Z</time></trkpt>
<trkpt lat="46.25089" lon="7.3025"><ele></ele><time>2025-8-26T7:48:8Z</time></trkpt>
<trkpt lat="46.25078" lon="7.3024"><ele></ele><time>2025-8-26T7:48:11Z</time></trkpt>
<trkpt lat="46.25067" lon="7.30231"><ele></ele><time>2025-8-26T7:48:14Z</time></trkpt>
<trkpt lat="46.25055" lon="7.30224"><ele></ele><time>2025-8-26T7:48:17Z</time></trkpt>
<trkpt lat="46.25043" lon="7.30218"><ele></ele><time>2025-8-26T7:48:20Z</time></trkpt>
<trkpt lat="46.25031" lon="7.30213"><ele></ele><time>2025-8-26T7:48:23Z</time></trkpt>
<trkpt lat="46.25018" lon="7.30208"><ele></ele><time>2025-8-26T7:48:26Z</time></trkpt>
<trkpt lat="46.25005" lon="7.30204"><ele></ele><time>2025-8-26T7:48:29Z</time></trkpt>
<trkpt lat="46.24993" lon="7.30199"><ele></ele><time>2025-8-26T7:48:32Z</time></trkpt>
<trkpt lat="46.2498" lon="7.30194"><ele></ele><time>2025-8-26T7:48:35Z</time></trkpt>
<trkpt lat="46.24955" lon="7.30187"><ele></ele><time>2025-8-26T7:48:38Z</time></trkpt>
<trkpt lat="46.24942" lon="7.30186"><ele></ele><time>2025-8-26T7:48:41Z</time></trkpt>
<trkpt lat="46.24929" lon="7.30188"><ele></ele><time>2025-8-26T7:48:44Z</time></trkpt>
<trkpt lat="46.24916" lon="7.30193"><ele></ele><time>2025-8-26T7:48:47Z</time></trkpt>
<trkpt lat="46.24892" lon="7.30202"><ele></ele><time>2025-8-26T7:48:50Z</time></trkpt>
<trkpt lat="46.2488" lon="7.30207"><ele></ele><time>2025-8-26T7:48:53Z</time></trkpt>
<trkpt lat="46.24867" lon="7.3021"><ele></ele><time>2025-8-26T7:48:56Z</time></trkpt>
<trkpt lat="46.24854" lon="7.30211"><ele></ele><time>2025-8-26T7:48:59Z</time></trkpt>
<trkpt lat="46.24841" lon="7.30212"><ele></ele><time>2025-8-26T7:49:2Z</time></trkpt>
<trkpt lat="46.24828" lon="7.30212"><ele></ele><time>2025-8-26T7:49:5Z</time></trkpt>
<trkpt lat="46.24803" lon="7.30209"><ele></ele><time>2025-8-26T7:49:8Z</time></trkpt>
<trkpt lat="46.2479" lon="7.30208"><ele></ele><time>2025-8-26T7:49:11Z</time></trkpt>
<trkpt lat="46.24777" lon="7.30209"><ele></ele><time>2025-8-26T7:49:14Z</time></trkpt>
<trkpt lat="46.24765" lon="7.30213"><ele></ele><time>2025-8-26T7:49:17Z</time></trkpt>
<trkpt lat="46.24754" lon="7.3022"><ele></ele><time>2025-8-26T7:49:20Z</time></trkpt>
<trkpt lat="46.24743" lon="7.30229"><ele></ele><time>2025-8-26T7:49:23Z</time></trkpt>
<trkpt lat="46.24722" lon="7.30248"><ele></ele><time>2025-8-26T7:49:26Z</time></trkpt>
<trkpt lat="46.247" lon="7.30268"><ele></ele><time>2025-8-26T7:49:29Z</time></trkpt>
<trkpt lat="46.24688" lon="7.30277"><ele></ele><time>2025-8-26T7:49:32Z</time></trkpt>
<trkpt lat="46.24676" lon="7.30282"><ele></ele><time>2025-8-26T7:49:35Z</time></trkpt>
<trkpt lat="46.2465" lon="7.30283"><ele></ele><time>2025-8-26T7:49:38Z</time></trkpt>
<trkpt lat="46.24629" lon="7.30267"><ele></ele><time>2025-8-26T7:49:41Z</time></trkpt>
<trkpt lat="46.24621" lon="7.30255"><ele></ele><time>2025-8-26T7:49:44Z</time></trkpt>
<trkpt lat="46.24615" lon="7.30242"><ele></ele><time>2025-8-26T7:49:47Z</time></trkpt>
<trkpt lat="46.24609" lon="7.30229"><ele></ele><time>2025-8-26T7:49:50Z</time></trkpt>
<trkpt lat="46.24604" lon="7.30215"><ele></ele><time>2025-8-26T7:49:53Z</time></trkpt>
<trkpt lat="46.24591" lon="7.30176"><ele></ele><time>2025-8-26T7:49:56Z</time></trkpt>
<trkpt lat="46.24587" lon="7.30163"><ele></ele><time>2025-8-26T7:49:59Z</time></trkpt>
<trkpt lat="46.24572" lon="7.30113"><ele></ele><time>2025-8-26T7:50:2Z</time></trkpt>
<trkpt lat="46.24563" lon="7.30089"><ele></ele><time>2025-8-26T7:50:5Z</time></trkpt>
<trkpt lat="46.24557" lon="7.30078"><ele></ele><time>2025-8-26T7:50:8Z</time></trkpt>
<trkpt lat="46.24551" lon="7.30067"><ele></ele><time>2025-8-26T7:50:11Z</time></trkpt>
<trkpt lat="46.24534" lon="7.30033"><ele></ele><time>2025-8-26T7:50:14Z</time></trkpt>
<trkpt lat="46.2453" lon="7.3002"><ele></ele><time>2025-8-26T7:50:17Z</time></trkpt>
<trkpt lat="46.24526" lon="7.29993"><ele></ele><time>2025-8-26T7:50:20Z</time></trkpt>
<trkpt lat="46.24525" lon="7.29966"><ele></ele><time>2025-8-26T7:50:23Z</time></trkpt>
<trkpt lat="46.24524" lon="7.29924"><ele></ele><time>2025-8-26T7:50:26Z</time></trkpt>
<trkpt lat="46.24523" lon="7.2991"><ele></ele><time>2025-8-26T7:50:29Z</time></trkpt>
<trkpt lat="46.24518" lon="7.29868"><ele></ele><time>2025-8-26T7:50:32Z</time></trkpt>
<trkpt lat="46.24515" lon="7.29855"><ele></ele><time>2025-8-26T7:50:35Z</time></trkpt>
<trkpt lat="46.2451" lon="7.29842"><ele></ele><time>2025-8-26T7:50:38Z</time></trkpt>
<trkpt lat="46.24499" lon="7.29818"><ele></ele><time>2025-8-26T7:50:41Z</time></trkpt>
<trkpt lat="46.24493" lon="7.29808"><ele></ele><time>2025-8-26T7:50:44Z</time></trkpt>
<trkpt lat="46.24479" lon="7.29789"><ele></ele><time>2025-8-26T7:50:47Z</time></trkpt>
<trkpt lat="46.24453" lon="7.29753"><ele></ele><time>2025-8-26T7:50:50Z</time></trkpt>
<trkpt lat="46.2444" lon="7.29734"><ele></ele><time>2025-8-26T7:50:53Z</time></trkpt>
<trkpt lat="46.24427" lon="7.29717"><ele></ele><time>2025-8-26T7:50:56Z</time></trkpt>
<trkpt lat="46.24401" lon="7.29684"><ele></ele><time>2025-8-26T7:50:59Z</time></trkpt>
<trkpt lat="46.24386" lon="7.2967"><ele></ele><time>2025-8-26T7:51:2Z</time></trkpt>
<trkpt lat="46.24373" lon="7.29655"><ele></ele><time>2025-8-26T7:51:5Z</time></trkpt>
<trkpt lat="46.24366" lon="7.29649"><ele></ele><time>2025-8-26T7:51:8Z</time></trkpt>
<trkpt lat="46.24345" lon="7.29634"><ele></ele><time>2025-8-26T7:51:11Z</time></trkpt>
<trkpt lat="46.24318" lon="7.29627"><ele></ele><time>2025-8-26T7:51:14Z</time></trkpt>
<trkpt lat="46.24281" lon="7.29613"><ele></ele><time>2025-8-26T7:51:17Z</time></trkpt>
<trkpt lat="46.24269" lon="7.29608"><ele></ele><time>2025-8-26T7:51:20Z</time></trkpt>
<trkpt lat="46.24232" lon="7.29592"><ele></ele><time>2025-8-26T7:51:23Z</time></trkpt>
<trkpt lat="46.24211" lon="7.29583"><ele></ele><time>2025-8-26T7:51:26Z</time></trkpt>
<trkpt lat="46.24196" lon="7.29581"><ele></ele><time>2025-8-26T7:51:29Z</time></trkpt>
<trkpt lat="46.24149" lon="7.29579"><ele></ele><time>2025-8-26T7:51:32Z</time></trkpt>
<trkpt lat="46.24136" lon="7.29579"><ele></ele><time>2025-8-26T7:51:35Z</time></trkpt>
<trkpt lat="46.24096" lon="7.29575"><ele></ele><time>2025-8-26T7:51:38Z</time></trkpt>
<trkpt lat="46.24083" lon="7.29569"><ele></ele><time>2025-8-26T7:51:41Z</time></trkpt>
<trkpt lat="46.24065" lon="7.29558"><ele></ele><time>2025-8-26T7:51:44Z</time></trkpt>
<trkpt lat="46.2406" lon="7.29554"><ele></ele><time>2025-8-26T7:51:47Z</time></trkpt>
<trkpt lat="46.24057" lon="7.29549"><ele></ele><time>2025-8-26T7:51:50Z</time></trkpt>
<trkpt lat="46.24057" lon="7.29543"><ele></ele><time>2025-8-26T7:51:53Z</time></trkpt>
<trkpt lat="46.24058" lon="7.29538"><ele></ele><time>2025-8-26T7:51:56Z</time></trkpt>
<trkpt lat="46.24062" lon="7.29534"><ele></ele><time>2025-8-26T7:51:59Z</time></trkpt>
<trkpt lat="46.24064" lon="7.29532"><ele></ele><time>2025-8-26T7:52:2Z</time></trkpt>
<trkpt lat="46.24064" lon="7.2953"><ele></ele><time>2025-8-26T7:52:5Z</time></trkpt>
<trkpt lat="46.24061" lon="7.29532"><ele></ele><time>2025-8-26T7:52:8Z</time></trkpt>
<trkpt lat="46.24044" lon="7.29537"><ele></ele><time>2025-8-26T7:52:11Z</time></trkpt>
<trkpt lat="46.24032" lon="7.29529"><ele></ele><time>2025-8-26T7:52:14Z</time></trkpt>
<trkpt lat="46.24029" lon="7.29526"><ele></ele><time>2025-8-26T7:52:17Z</time></trkpt>
<trkpt lat="46.24027" lon="7.29523"><ele></ele><time>2025-8-26T7:52:20Z</time></trkpt>
<trkpt lat="46.24023" lon="7.29516"><ele></ele><time>2025-8-26T7:52:23Z</time></trkpt>
<trkpt lat="46.24016" lon="7.29507"><ele></ele><time>2025-8-26T7:52:26Z</time></trkpt>
<trkpt lat="46.24017" lon="7.29507"><ele></ele><time>2025-8-26T7:52:29Z</time></trkpt>
<trkpt lat="46.24016" lon="7.29506"><ele></ele><time>2025-8-26T7:52:32Z</time></trkpt>
<trkpt lat="46.24017" lon="7.29507"><ele></ele><time>2025-8-26T7:52:35Z</time></trkpt>
<trkpt lat="46.24017" lon="7.29507"><ele></ele><time>2025-8-26T7:52:38Z</time></trkpt>
<trkpt lat="46.24017" lon="7.29507"><ele></ele><time>2025-8-26T7:52:41Z</time></trkpt>
<trkpt lat="46.24018" lon="7.29506"><ele></ele><time>2025-8-26T7:52:44Z</time></trkpt>
<trkpt lat="46.24018" lon="7.29506"><ele></ele><time>2025-8-26T7:52:47Z</time></trkpt>
<trkpt lat="46.24018" lon="7.29506"><ele></ele><time>2025-8-26T7:52:50Z</time></trkpt>
<trkpt lat="46.24017" lon="7.29506"><ele></ele><time>2025-8-26T7:52:53Z</time></trkpt>
<trkpt lat="46.24016" lon="7.29507"><ele></ele><time>2025-8-26T7:52:56Z</time></trkpt>
<trkpt lat="46.24016" lon="7.29506"><ele></ele><time>2025-8-26T7:52:59Z</time></trkpt>
<trkpt lat="46.24016" lon="7.29506"><ele></ele><time>2025-8-26T7:53:2Z</time></trkpt>
<trkpt lat="46.24016" lon="7.29507"><ele></ele><time>2025-8-26T7:53:5Z</time></trkpt>
<trkpt lat="46.24016" lon="7.29507"><ele></ele><time>2025-8-26T7:53:8Z</time></trkpt>
<trkpt lat="46.24016" lon="7.29507"><ele></ele><time>2025-8-26T7:53:11Z</time></trkpt>
<trkpt lat="46.24016" lon="7.29507"><ele></ele><time>2025-8-26T7:53:14Z</time></trkpt>
<trkpt lat="46.24017" lon="7.29507"><ele></ele><time>2025-8-26T7:53:17Z</time></trkpt>
<trkpt lat="46.24017" lon="7.29507"><ele></ele><time>2025-8-26T7:53:20Z</time></trkpt>
<trkpt lat="46.24017" lon="7.29507"><ele></ele><time>2025-8-26T7:53:23Z</time></trkpt>
<trkpt lat="46.24016" lon="7.29507"><ele></ele><time>2025-8-26T7:53:26Z</time></trkpt>
<trkpt lat="46.24017" lon="7.29508"><ele></ele><time>2025-8-26T7:53:29Z</time></trkpt>
<trkpt lat="46.24017" lon="7.29506"><ele></ele><time>2025-8-26T7:53:32Z</time></trkpt>
<trkpt lat="46.24015" lon="7.29506"><ele></ele><time>2025-8-26T7:53:35Z</time></trkpt>
<trkpt lat="46.24014" lon="7.29506"><ele></ele><time>2025-8-26T7:53:38Z</time></trkpt>
<trkpt lat="46.24005" lon="7.29496"><ele></ele><time>2025-8-26T7:53:41Z</time></trkpt>
<trkpt lat="46.23988" lon="7.29475"><ele></ele><time>2025-8-26T7:53:44Z</time></trkpt>
<trkpt lat="46.23984" lon="7.29469"><ele></ele><time>2025-8-26T7:53:47Z</time></trkpt>
<trkpt lat="46.23975" lon="7.29458"><ele></ele><time>2025-8-26T7:53:50Z</time></trkpt>
<trkpt lat="46.23959" lon="7.29441"><ele></ele><time>2025-8-26T7:53:53Z</time></trkpt>
<trkpt lat="46.23954" lon="7.29435"><ele></ele><time>2025-8-26T7:53:56Z</time></trkpt>
<trkpt lat="46.23941" lon="7.29423"><ele></ele><time>2025-8-26T7:53:59Z</time></trkpt>
<trkpt lat="46.23923" lon="7.29404"><ele></ele><time>2025-8-26T7:54:2Z</time></trkpt>
<trkpt lat="46.23916" lon="7.29398"><ele></ele><time>2025-8-26T7:54:5Z</time></trkpt>
<trkpt lat="46.23903" lon="7.29385"><ele></ele><time>2025-8-26T7:54:8Z</time></trkpt>
<trkpt lat="46.2389" lon="7.2937"><ele></ele><time>2025-8-26T7:54:11Z</time></trkpt>
<trkpt lat="46.23878" lon="7.29353"><ele></ele><time>2025-8-26T7:54:14Z</time></trkpt>
<trkpt lat="46.23873" lon="7.29343"><ele></ele><time>2025-8-26T7:54:17Z</time></trkpt>
<trkpt lat="46.23863" lon="7.29324"><ele></ele><time>2025-8-26T7:54:20Z</time></trkpt>
<trkpt lat="46.23849" lon="7.29294"><ele></ele><time>2025-8-26T7:54:23Z</time></trkpt>
<trkpt lat="46.23845" lon="7.29285"><ele></ele><time>2025-8-26T7:54:26Z</time></trkpt>
<trkpt lat="46.23827" lon="7.29248"><ele></ele><time>2025-8-26T7:54:29Z</time></trkpt>
<trkpt lat="46.23825" lon="7.29241"><ele></ele><time>2025-8-26T7:54:32Z</time></trkpt>
<trkpt lat="46.23825" lon="7.29235"><ele></ele><time>2025-8-26T7:54:35Z</time></trkpt>
<trkpt lat="46.23823" lon="7.29232"><ele></ele><time>2025-8-26T7:54:38Z</time></trkpt>
<trkpt lat="46.23823" lon="7.29229"><ele></ele><time>2025-8-26T7:54:41Z</time></trkpt>
<trkpt lat="46.23824" lon="7.29227"><ele></ele><time>2025-8-26T7:54:44Z</time></trkpt>
<trkpt lat="46.23825" lon="7.29226"><ele></ele><time>2025-8-26T7:54:47Z</time></trkpt>
<trkpt lat="46.2383" lon="7.2922"><ele></ele><time>2025-8-26T7:54:50Z</time></trkpt>
<trkpt lat="46.23836" lon="7.29213"><ele></ele><time>2025-8-26T7:54:53Z</time></trkpt>
<trkpt lat="46.23837" lon="7.2921"><ele></ele><time>2025-8-26T7:54:56Z</time></trkpt>
<trkpt lat="46.23842" lon="7.29195"><ele></ele><time>2025-8-26T7:54:59Z</time></trkpt>
<trkpt lat="46.23842" lon="7.29192"><ele></ele><time>2025-8-26T7:55:2Z</time></trkpt>
<trkpt lat="46.23844" lon="7.29179"><ele></ele><time>2025-8-26T7:55:5Z</time></trkpt>
<trkpt lat="46.23844" lon="7.29176"><ele></ele><time>2025-8-26T7:55:8Z</time></trkpt>
<trkpt lat="46.23843" lon="7.29167"><ele></ele><time>2025-8-26T7:55:11Z</time></trkpt>
<trkpt lat="46.2384" lon="7.29156"><ele></ele><time>2025-8-26T7:55:14Z</time></trkpt>
<trkpt lat="46.23837" lon="7.29144"><ele></ele><time>2025-8-26T7:55:17Z</time></trkpt>
<trkpt lat="46.23828" lon="7.2913"><ele></ele><time>2025-8-26T7:55:20Z</time></trkpt>
<trkpt lat="46.23812" lon="7.29102"><ele></ele><time>2025-8-26T7:55:23Z</time></trkpt>
<trkpt lat="46.23806" lon="7.29087"><ele></ele><time>2025-8-26T7:55:26Z</time></trkpt>
<trkpt lat="46.23802" lon="7.29069"><ele></ele><time>2025-8-26T7:55:29Z</time></trkpt>
<trkpt lat="46.23795" lon="7.29027"><ele></ele><time>2025-8-26T7:55:32Z</time></trkpt>
<trkpt lat="46.23795" lon="7.29016"><ele></ele><time>2025-8-26T7:55:35Z</time></trkpt>
<trkpt lat="46.23796" lon="7.29011"><ele></ele><time>2025-8-26T7:55:38Z</time></trkpt>
<trkpt lat="46.23799" lon="7.29002"><ele></ele><time>2025-8-26T7:55:41Z</time></trkpt>
<trkpt lat="46.23804" lon="7.28966"><ele></ele><time>2025-8-26T7:55:44Z</time></trkpt>
<trkpt lat="46.23799" lon="7.28932"><ele></ele><time>2025-8-26T7:55:47Z</time></trkpt>
<trkpt lat="46.23795" lon="7.28914"><ele></ele><time>2025-8-26T7:55:50Z</time></trkpt>
<trkpt lat="46.23794" lon="7.2889"><ele></ele><time>2025-8-26T7:55:53Z</time></trkpt>
<trkpt lat="46.23792" lon="7.28856"><ele></ele><time>2025-8-26T7:55:56Z</time></trkpt>
<trkpt lat="46.23791" lon="7.28848"><ele></ele><time>2025-8-26T7:55:59Z</time></trkpt>
<trkpt lat="46.2379" lon="7.28837"><ele></ele><time>2025-8-26T7:56:2Z</time></trkpt>
<trkpt lat="46.23791" lon="7.28834"><ele></ele><time>2025-8-26T7:56:5Z</time></trkpt>
<trkpt lat="46.23788" lon="7.28826"><ele></ele><time>2025-8-26T7:56:8Z</time></trkpt>
<trkpt lat="46.23784" lon="7.28822"><ele></ele><time>2025-8-26T7:56:11Z</time></trkpt>
<trkpt lat="46.23781" lon="7.28822"><ele></ele><time>2025-8-26T7:56:14Z</time></trkpt>
<trkpt lat="46.23768" lon="7.28823"><ele></ele><time>2025-8-26T7:56:17Z</time></trkpt>
<trkpt lat="46.23764" lon="7.28824"><ele></ele><time>2025-8-26T7:56:20Z</time></trkpt>
<trkpt lat="46.23755" lon="7.28823"><ele></ele><time>2025-8-26T7:56:23Z</time></trkpt>
<trkpt lat="46.23751" lon="7.2882"><ele></ele><time>2025-8-26T7:56:26Z</time></trkpt>
<trkpt lat="46.23746" lon="7.28816"><ele></ele><time>2025-8-26T7:56:29Z</time></trkpt>
<trkpt lat="46.23737" lon="7.28809"><ele></ele><time>2025-8-26T7:56:32Z</time></trkpt>
<trkpt lat="46.23721" lon="7.28799"><ele></ele><time>2025-8-26T7:56:35Z</time></trkpt>
<trkpt lat="46.23711" lon="7.28791"><ele></ele><time>2025-8-26T7:56:38Z</time></trkpt>
<trkpt lat="46.23706" lon="7.28787"><ele></ele><time>2025-8-26T7:56:41Z</time></trkpt>
<trkpt lat="46.23701" lon="7.28782"><ele></ele><time>2025-8-26T7:56:44Z</time></trkpt>
<trkpt lat="46.23695" lon="7.28776"><ele></ele><time>2025-8-26T7:56:47Z</time></trkpt>
<trkpt lat="46.23685" lon="7.28763"><ele></ele><time>2025-8-26T7:56:50Z</time></trkpt>
<trkpt lat="46.2368" lon="7.28757"><ele></ele><time>2025-8-26T7:56:53Z</time></trkpt>
<trkpt lat="46.23674" lon="7.28751"><ele></ele><time>2025-8-26T7:56:56Z</time></trkpt>
<trkpt lat="46.23664" lon="7.28738"><ele></ele><time>2025-8-26T7:56:59Z</time></trkpt>
<trkpt lat="46.23652" lon="7.28725"><ele></ele><time>2025-8-26T7:57:2Z</time></trkpt>
<trkpt lat="46.23642" lon="7.28709"><ele></ele><time>2025-8-26T7:57:5Z</time></trkpt>
<trkpt lat="46.23636" lon="7.28701"><ele></ele><time>2025-8-26T7:57:8Z</time></trkpt>
<trkpt lat="46.23631" lon="7.28692"><ele></ele><time>2025-8-26T7:57:11Z</time></trkpt>
<trkpt lat="46.2362" lon="7.28675"><ele></ele><time>2025-8-26T7:57:14Z</time></trkpt>
<trkpt lat="46.23609" lon="7.28659"><ele></ele><time>2025-8-26T7:57:17Z</time></trkpt>
<trkpt lat="46.236" lon="7.28646"><ele></ele><time>2025-8-26T7:57:20Z</time></trkpt>
<trkpt lat="46.23591" lon="7.28636"><ele></ele><time>2025-8-26T7:57:23Z</time></trkpt>
<trkpt lat="46.23588" lon="7.28631"><ele></ele><time>2025-8-26T7:57:26Z</time></trkpt>
<trkpt lat="46.23584" lon="7.28618"><ele></ele><time>2025-8-26T7:57:29Z</time></trkpt>
<trkpt lat="46.23581" lon="7.28602"><ele></ele><time>2025-8-26T7:57:32Z</time></trkpt>
<trkpt lat="46.23579" lon="7.28581"><ele></ele><time>2025-8-26T7:57:35Z</time></trkpt>
<trkpt lat="46.23575" lon="7.28559"><ele></ele><time>2025-8-26T7:57:38Z</time></trkpt>
<trkpt lat="46.23568" lon="7.28535"><ele></ele><time>2025-8-26T7:57:41Z</time></trkpt>
<trkpt lat="46.23561" lon="7.28509"><ele></ele><time>2025-8-26T7:57:44Z</time></trkpt>
<trkpt lat="46.23557" lon="7.28497"><ele></ele><time>2025-8-26T7:57:47Z</time></trkpt>
<trkpt lat="46.23553" lon="7.28484"><ele></ele><time>2025-8-26T7:57:50Z</time></trkpt>
<trkpt lat="46.2355" lon="7.2847"><ele></ele><time>2025-8-26T7:57:53Z</time></trkpt>
<trkpt lat="46.23548" lon="7.28457"><ele></ele><time>2025-8-26T7:57:56Z</time></trkpt>
<trkpt lat="46.23546" lon="7.28443"><ele></ele><time>2025-8-26T7:57:59Z</time></trkpt>
<trkpt lat="46.23544" lon="7.28416"><ele></ele><time>2025-8-26T7:58:2Z</time></trkpt>
<trkpt lat="46.2354" lon="7.28391"><ele></ele><time>2025-8-26T7:58:5Z</time></trkpt>
<trkpt lat="46.23536" lon="7.28381"><ele></ele><time>2025-8-26T7:58:8Z</time></trkpt>
<trkpt lat="46.2353" lon="7.28374"><ele></ele><time>2025-8-26T7:58:11Z</time></trkpt>
<trkpt lat="46.23522" lon="7.2836"><ele></ele><time>2025-8-26T7:58:14Z</time></trkpt>
<trkpt lat="46.2352" lon="7.28352"><ele></ele><time>2025-8-26T7:58:17Z</time></trkpt>
<trkpt lat="46.2352" lon="7.28343"><ele></ele><time>2025-8-26T7:58:20Z</time></trkpt>
<trkpt lat="46.23521" lon="7.28333"><ele></ele><time>2025-8-26T7:58:23Z</time></trkpt>
<trkpt lat="46.23524" lon="7.28312"><ele></ele><time>2025-8-26T7:58:26Z</time></trkpt>
<trkpt lat="46.23524" lon="7.283"><ele></ele><time>2025-8-26T7:58:29Z</time></trkpt>
<trkpt lat="46.23522" lon="7.28288"><ele></ele><time>2025-8-26T7:58:32Z</time></trkpt>
<trkpt lat="46.23519" lon="7.28277"><ele></ele><time>2025-8-26T7:58:35Z</time></trkpt>
<trkpt lat="46.23514" lon="7.28266"><ele></ele><time>2025-8-26T7:58:38Z</time></trkpt>
<trkpt lat="46.23509" lon="7.28257"><ele></ele><time>2025-8-26T7:58:41Z</time></trkpt>
<trkpt lat="46.23505" lon="7.28247"><ele></ele><time>2025-8-26T7:58:44Z</time></trkpt>
<trkpt lat="46.23502" lon="7.28238"><ele></ele><time>2025-8-26T7:58:47Z</time></trkpt>
<trkpt lat="46.235" lon="7.28227"><ele></ele><time>2025-8-26T7:58:50Z</time></trkpt>
<trkpt lat="46.23501" lon="7.28216"><ele></ele><time>2025-8-26T7:58:53Z</time></trkpt>
<trkpt lat="46.23498" lon="7.28192"><ele></ele><time>2025-8-26T7:58:56Z</time></trkpt>
<trkpt lat="46.23488" lon="7.2817"><ele></ele><time>2025-8-26T7:58:59Z</time></trkpt>
<trkpt lat="46.23482" lon="7.28159"><ele></ele><time>2025-8-26T7:59:2Z</time></trkpt>
<trkpt lat="46.23472" lon="7.28139"><ele></ele><time>2025-8-26T7:59:5Z</time></trkpt>
<trkpt lat="46.23463" lon="7.28121"><ele></ele><time>2025-8-26T7:59:8Z</time></trkpt>
<trkpt lat="46.23458" lon="7.28115"><ele></ele><time>2025-8-26T7:59:11Z</time></trkpt>
<trkpt lat="46.23453" lon="7.2811"><ele></ele><time>2025-8-26T7:59:14Z</time></trkpt>
<trkpt lat="46.23446" lon="7.28101"><ele></ele><time>2025-8-26T7:59:17Z</time></trkpt>
<trkpt lat="46.23444" lon="7.28095"><ele></ele><time>2025-8-26T7:59:20Z</time></trkpt>
<trkpt lat="46.23444" lon="7.28089"><ele></ele><time>2025-8-26T7:59:23Z</time></trkpt>
<trkpt lat="46.23447" lon="7.28076"><ele></ele><time>2025-8-26T7:59:26Z</time></trkpt>
<trkpt lat="46.23451" lon="7.28062"><ele></ele><time>2025-8-26T7:59:29Z</time></trkpt>
<trkpt lat="46.23455" lon="7.28056"><ele></ele><time>2025-8-26T7:59:32Z</time></trkpt>
<trkpt lat="46.2346" lon="7.2805"><ele></ele><time>2025-8-26T7:59:35Z</time></trkpt>
<trkpt lat="46.23463" lon="7.28043"><ele></ele><time>2025-8-26T7:59:38Z</time></trkpt>
<trkpt lat="46.23464" lon="7.28034"><ele></ele><time>2025-8-26T7:59:41Z</time></trkpt>
<trkpt lat="46.23463" lon="7.28024"><ele></ele><time>2025-8-26T7:59:44Z</time></trkpt>
<trkpt lat="46.2346" lon="7.28015"><ele></ele><time>2025-8-26T7:59:47Z</time></trkpt>
<trkpt lat="46.23455" lon="7.28006"><ele></ele><time>2025-8-26T7:59:50Z</time></trkpt>
<trkpt lat="46.23449" lon="7.27998"><ele></ele><time>2025-8-26T7:59:53Z</time></trkpt>
<trkpt lat="46.23444" lon="7.27987"><ele></ele><time>2025-8-26T7:59:56Z</time></trkpt>
<trkpt lat="46.23441" lon="7.27976"><ele></ele><time>2025-8-26T7:59:59Z</time></trkpt>
<trkpt lat="46.23437" lon="7.27965"><ele></ele><time>2025-8-26T8:0:2Z</time></trkpt>
<trkpt lat="46.23432" lon="7.27956"><ele></ele><time>2025-8-26T8:0:5Z</time></trkpt>
<trkpt lat="46.23425" lon="7.27949"><ele></ele><time>2025-8-26T8:0:8Z</time></trkpt>
<trkpt lat="46.23417" lon="7.27943"><ele></ele><time>2025-8-26T8:0:11Z</time></trkpt>
<trkpt lat="46.23409" lon="7.27938"><ele></ele><time>2025-8-26T8:0:14Z</time></trkpt>
<trkpt lat="46.23394" lon="7.27926"><ele></ele><time>2025-8-26T8:0:17Z</time></trkpt>
<trkpt lat="46.23387" lon="7.27918"><ele></ele><time>2025-8-26T8:0:20Z</time></trkpt>
<trkpt lat="46.23381" lon="7.27908"><ele></ele><time>2025-8-26T8:0:23Z</time></trkpt>
<trkpt lat="46.23369" lon="7.27888"><ele></ele><time>2025-8-26T8:0:26Z</time></trkpt>
<trkpt lat="46.23356" lon="7.2787"><ele></ele><time>2025-8-26T8:0:29Z</time></trkpt>
<trkpt lat="46.23349" lon="7.27863"><ele></ele><time>2025-8-26T8:0:32Z</time></trkpt>
<trkpt lat="46.23336" lon="7.27851"><ele></ele><time>2025-8-26T8:0:35Z</time></trkpt>
<trkpt lat="46.23331" lon="7.27844"><ele></ele><time>2025-8-26T8:0:38Z</time></trkpt>
<trkpt lat="46.23323" lon="7.27828"><ele></ele><time>2025-8-26T8:0:41Z</time></trkpt>
<trkpt lat="46.23316" lon="7.27813"><ele></ele><time>2025-8-26T8:0:44Z</time></trkpt>
<trkpt lat="46.23308" lon="7.27799"><ele></ele><time>2025-8-26T8:0:47Z</time></trkpt>
<trkpt lat="46.23297" lon="7.2778"><ele></ele><time>2025-8-26T8:0:50Z</time></trkpt>
<trkpt lat="46.23277" lon="7.27736"><ele></ele><time>2025-8-26T8:0:53Z</time></trkpt>
<trkpt lat="46.23274" lon="7.27728"><ele></ele><time>2025-8-26T8:0:56Z</time></trkpt>
<trkpt lat="46.23273" lon="7.27711"><ele></ele><time>2025-8-26T8:0:59Z</time></trkpt>
<trkpt lat="46.23273" lon="7.27703"><ele></ele><time>2025-8-26T8:1:2Z</time></trkpt>
<trkpt lat="46.23273" lon="7.2769"><ele></ele><time>2025-8-26T8:1:5Z</time></trkpt>
<trkpt lat="46.23273" lon="7.27669"><ele></ele><time>2025-8-26T8:1:8Z</time></trkpt>
<trkpt lat="46.2327" lon="7.27662"><ele></ele><time>2025-8-26T8:1:11Z</time></trkpt>
<trkpt lat="46.23266" lon="7.27657"><ele></ele><time>2025-8-26T8:1:14Z</time></trkpt>
<trkpt lat="46.2326" lon="7.27655"><ele></ele><time>2025-8-26T8:1:17Z</time></trkpt>
<trkpt lat="46.23255" lon="7.27654"><ele></ele><time>2025-8-26T8:1:20Z</time></trkpt>
<trkpt lat="46.23243" lon="7.27651"><ele></ele><time>2025-8-26T8:1:23Z</time></trkpt>
<trkpt lat="46.23238" lon="7.27647"><ele></ele><time>2025-8-26T8:1:26Z</time></trkpt>
<trkpt lat="46.23233" lon="7.27642"><ele></ele><time>2025-8-26T8:1:29Z</time></trkpt>
<trkpt lat="46.2322" lon="7.27625"><ele></ele><time>2025-8-26T8:1:32Z</time></trkpt>
<trkpt lat="46.23202" lon="7.27603"><ele></ele><time>2025-8-26T8:1:35Z</time></trkpt>
<trkpt lat="46.23195" lon="7.2759"><ele></ele><time>2025-8-26T8:1:38Z</time></trkpt>
<trkpt lat="46.23192" lon="7.27583"><ele></ele><time>2025-8-26T8:1:41Z</time></trkpt>
<trkpt lat="46.23183" lon="7.27562"><ele></ele><time>2025-8-26T8:1:44Z</time></trkpt>
<trkpt lat="46.23175" lon="7.27542"><ele></ele><time>2025-8-26T8:1:47Z</time></trkpt>
<trkpt lat="46.23157" lon="7.27511"><ele></ele><time>2025-8-26T8:1:50Z</time></trkpt>
<trkpt lat="46.23143" lon="7.27491"><ele></ele><time>2025-8-26T8:1:53Z</time></trkpt>
<trkpt lat="46.2314" lon="7.27488"><ele></ele><time>2025-8-26T8:1:56Z</time></trkpt>
<trkpt lat="46.23137" lon="7.27484"><ele></ele><time>2025-8-26T8:1:59Z</time></trkpt>
<trkpt lat="46.23127" lon="7.27467"><ele></ele><time>2025-8-26T8:2:2Z</time></trkpt>
<trkpt lat="46.23125" lon="7.27464"><ele></ele><time>2025-8-26T8:2:5Z</time></trkpt>
<trkpt lat="46.23121" lon="7.27454"><ele></ele><time>2025-8-26T8:2:8Z</time></trkpt>
<trkpt lat="46.23116" lon="7.2744"><ele></ele><time>2025-8-26T8:2:11Z</time></trkpt>
<trkpt lat="46.23111" lon="7.27426"><ele></ele><time>2025-8-26T8:2:14Z</time></trkpt>
<trkpt lat="46.23107" lon="7.27413"><ele></ele><time>2025-8-26T8:2:17Z</time></trkpt>
<trkpt lat="46.23103" lon="7.27402"><ele></ele><time>2025-8-26T8:2:20Z</time></trkpt>
<trkpt lat="46.23093" lon="7.27383"><ele></ele><time>2025-8-26T8:2:23Z</time></trkpt>
<trkpt lat="46.23087" lon="7.2737"><ele></ele><time>2025-8-26T8:2:26Z</time></trkpt>
<trkpt lat="46.23079" lon="7.27354"><ele></ele><time>2025-8-26T8:2:29Z</time></trkpt>
<trkpt lat="46.23069" lon="7.27332"><ele></ele><time>2025-8-26T8:2:32Z</time></trkpt>
<trkpt lat="46.23067" lon="7.27325"><ele></ele><time>2025-8-26T8:2:35Z</time></trkpt>
<trkpt lat="46.23065" lon="7.27318"><ele></ele><time>2025-8-26T8:2:38Z</time></trkpt>
<trkpt lat="46.23063" lon="7.27315"><ele></ele><time>2025-8-26T8:2:41Z</time></trkpt>
<trkpt lat="46.23063" lon="7.27311"><ele></ele><time>2025-8-26T8:2:44Z</time></trkpt>
<trkpt lat="46.23058" lon="7.27294"><ele></ele><time>2025-8-26T8:2:47Z</time></trkpt>
<trkpt lat="46.23051" lon="7.27282"><ele></ele><time>2025-8-26T8:2:50Z</time></trkpt>
<trkpt lat="46.23042" lon="7.2727"><ele></ele><time>2025-8-26T8:2:53Z</time></trkpt>
<trkpt lat="46.23038" lon="7.27263"><ele></ele><time>2025-8-26T8:2:56Z</time></trkpt>
<trkpt lat="46.23025" lon="7.27243"><ele></ele><time>2025-8-26T8:2:59Z</time></trkpt>
<trkpt lat="46.23013" lon="7.27221"><ele></ele><time>2025-8-26T8:3:2Z</time></trkpt>
<trkpt lat="46.23008" lon="7.27214"><ele></ele><time>2025-8-26T8:3:5Z</time></trkpt>
<trkpt lat="46.23002" lon="7.27209"><ele></ele><time>2025-8-26T8:3:8Z</time></trkpt>
<trkpt lat="46.22989" lon="7.27202"><ele></ele><time>2025-8-26T8:3:11Z</time></trkpt>
<trkpt lat="46.22969" lon="7.27194"><ele></ele><time>2025-8-26T8:3:14Z</time></trkpt>
<trkpt lat="46.2295" lon="7.27182"><ele></ele><time>2025-8-26T8:3:17Z</time></trkpt>
<trkpt lat="46.22939" lon="7.27175"><ele></ele><time>2025-8-26T8:3:20Z</time></trkpt>
<trkpt lat="46.22929" lon="7.27166"><ele></ele><time>2025-8-26T8:3:23Z</time></trkpt>
<trkpt lat="46.22925" lon="7.2716"><ele></ele><time>2025-8-26T8:3:26Z</time></trkpt>
<trkpt lat="46.22917" lon="7.27147"><ele></ele><time>2025-8-26T8:3:29Z</time></trkpt>
<trkpt lat="46.22912" lon="7.27133"><ele></ele><time>2025-8-26T8:3:32Z</time></trkpt>
<trkpt lat="46.2291" lon="7.27125"><ele></ele><time>2025-8-26T8:3:35Z</time></trkpt>
<trkpt lat="46.22902" lon="7.27096"><ele></ele><time>2025-8-26T8:3:38Z</time></trkpt>
<trkpt lat="46.22897" lon="7.27083"><ele></ele><time>2025-8-26T8:3:41Z</time></trkpt>
<trkpt lat="46.22892" lon="7.27072"><ele></ele><time>2025-8-26T8:3:44Z</time></trkpt>
<trkpt lat="46.22884" lon="7.27048"><ele></ele><time>2025-8-26T8:3:47Z</time></trkpt>
<trkpt lat="46.22879" lon="7.27037"><ele></ele><time>2025-8-26T8:3:50Z</time></trkpt>
<trkpt lat="46.22872" lon="7.27029"><ele></ele><time>2025-8-26T8:3:53Z</time></trkpt>
<trkpt lat="46.22868" lon="7.27026"><ele></ele><time>2025-8-26T8:3:56Z</time></trkpt>
<trkpt lat="46.22863" lon="7.27023"><ele></ele><time>2025-8-26T8:3:59Z</time></trkpt>
<trkpt lat="46.22845" lon="7.27013"><ele></ele><time>2025-8-26T8:4:2Z</time></trkpt>
<trkpt lat="46.22842" lon="7.2701"><ele></ele><time>2025-8-26T8:4:5Z</time></trkpt>
<trkpt lat="46.22839" lon="7.27005"><ele></ele><time>2025-8-26T8:4:8Z</time></trkpt>
<trkpt lat="46.22832" lon="7.26995"><ele></ele><time>2025-8-26T8:4:11Z</time></trkpt>
<trkpt lat="46.22827" lon="7.26982"><ele></ele><time>2025-8-26T8:4:14Z</time></trkpt>
<trkpt lat="46.22808" lon="7.26943"><ele></ele><time>2025-8-26T8:4:17Z</time></trkpt>
<trkpt lat="46.22791" lon="7.26921"><ele></ele><time>2025-8-26T8:4:20Z</time></trkpt>
<trkpt lat="46.22779" lon="7.26905"><ele></ele><time>2025-8-26T8:4:23Z</time></trkpt>
<trkpt lat="46.22773" lon="7.26897"><ele></ele><time>2025-8-26T8:4:26Z</time></trkpt>
<trkpt lat="46.22757" lon="7.26871"><ele></ele><time>2025-8-26T8:4:29Z</time></trkpt>
<trkpt lat="46.22745" lon="7.26856"><ele></ele><time>2025-8-26T8:4:32Z</time></trkpt>
<trkpt lat="46.22734" lon="7.26843"><ele></ele><time>2025-8-26T8:4:35Z</time></trkpt>
<trkpt lat="46.22716" lon="7.26818"><ele></ele><time>2025-8-26T8:4:38Z</time></trkpt>
<trkpt lat="46.22705" lon="7.268"><ele></ele><time>2025-8-26T8:4:41Z</time></trkpt>
<trkpt lat="46.22699" lon="7.26787"><ele></ele><time>2025-8-26T8:4:44Z</time></trkpt>
<trkpt lat="46.22696" lon="7.26771"><ele></ele><time>2025-8-26T8:4:47Z</time></trkpt>
<trkpt lat="46.22692" lon="7.26756"><ele></ele><time>2025-8-26T8:4:50Z</time></trkpt>
<trkpt lat="46.22689" lon="7.26748"><ele></ele><time>2025-8-26T8:4:53Z</time></trkpt>
<trkpt lat="46.22685" lon="7.26741"><ele></ele><time>2025-8-26T8:4:56Z</time></trkpt>
<trkpt lat="46.2268" lon="7.26736"><ele></ele><time>2025-8-26T8:4:59Z</time></trkpt>
<trkpt lat="46.22662" lon="7.26715"><ele></ele><time>2025-8-26T8:5:2Z</time></trkpt>
<trkpt lat="46.2266" lon="7.26708"><ele></ele><time>2025-8-26T8:5:5Z</time></trkpt>
<trkpt lat="46.22659" lon="7.267"><ele></ele><time>2025-8-26T8:5:8Z</time></trkpt>
<trkpt lat="46.22657" lon="7.26677"><ele></ele><time>2025-8-26T8:5:11Z</time></trkpt>
<trkpt lat="46.22652" lon="7.26663"><ele></ele><time>2025-8-26T8:5:14Z</time></trkpt>
<trkpt lat="46.22649" lon="7.26657"><ele></ele><time>2025-8-26T8:5:17Z</time></trkpt>
<trkpt lat="46.22647" lon="7.2665"><ele></ele><time>2025-8-26T8:5:20Z</time></trkpt>
<trkpt lat="46.22644" lon="7.26643"><ele></ele><time>2025-8-26T8:5:23Z</time></trkpt>
<trkpt lat="46.2264" lon="7.26638"><ele></ele><time>2025-8-26T8:5:26Z</time></trkpt>
<trkpt lat="46.22632" lon="7.26628"><ele></ele><time>2025-8-26T8:5:29Z</time></trkpt>
<trkpt lat="46.22628" lon="7.26624"><ele></ele><time>2025-8-26T8:5:32Z</time></trkpt>
<trkpt lat="46.22622" lon="7.26616"><ele></ele><time>2025-8-26T8:5:35Z</time></trkpt>
<trkpt lat="46.22618" lon="7.26604"><ele></ele><time>2025-8-26T8:5:38Z</time></trkpt>
<trkpt lat="46.22615" lon="7.26589"><ele></ele><time>2025-8-26T8:5:41Z</time></trkpt>
<trkpt lat="46.22612" lon="7.26574"><ele></ele><time>2025-8-26T8:5:44Z</time></trkpt>
<trkpt lat="46.22608" lon="7.26567"><ele></ele><time>2025-8-26T8:5:47Z</time></trkpt>
<trkpt lat="46.22604" lon="7.26561"><ele></ele><time>2025-8-26T8:5:50Z</time></trkpt>
<trkpt lat="46.22591" lon="7.26539"><ele></ele><time>2025-8-26T8:5:53Z</time></trkpt>
<trkpt lat="46.22582" lon="7.26523"><ele></ele><time>2025-8-26T8:5:56Z</time></trkpt>
<trkpt lat="46.22575" lon="7.26504"><ele></ele><time>2025-8-26T8:5:59Z</time></trkpt>
<trkpt lat="46.22573" lon="7.26494"><ele></ele><time>2025-8-26T8:6:2Z</time></trkpt>
<trkpt lat="46.22566" lon="7.26475"><ele></ele><time>2025-8-26T8:6:5Z</time></trkpt>
<trkpt lat="46.22561" lon="7.26469"><ele></ele><time>2025-8-26T8:6:8Z</time></trkpt>
<trkpt lat="46.22556" lon="7.26463"><ele></ele><time>2025-8-26T8:6:11Z</time></trkpt>
<trkpt lat="46.2255" lon="7.26458"><ele></ele><time>2025-8-26T8:6:14Z</time></trkpt>
<trkpt lat="46.22538" lon="7.26444"><ele></ele><time>2025-8-26T8:6:17Z</time></trkpt>
<trkpt lat="46.22535" lon="7.26439"><ele></ele><time>2025-8-26T8:6:20Z</time></trkpt>
<trkpt lat="46.22529" lon="7.26431"><ele></ele><time>2025-8-26T8:6:23Z</time></trkpt>
<trkpt lat="46.22527" lon="7.26433"><ele></ele><time>2025-8-26T8:6:26Z</time></trkpt>
<trkpt lat="46.22525" lon="7.26439"><ele></ele><time>2025-8-26T8:6:29Z</time></trkpt>
<trkpt lat="46.22525" lon="7.2645"><ele></ele><time>2025-8-26T8:6:32Z</time></trkpt>
<trkpt lat="46.22527" lon="7.26462"><ele></ele><time>2025-8-26T8:6:35Z</time></trkpt>
<trkpt lat="46.22527" lon="7.26469"><ele></ele><time>2025-8-26T8:6:38Z</time></trkpt>
<trkpt lat="46.22524" lon="7.26479"><ele></ele><time>2025-8-26T8:6:41Z</time></trkpt>
<trkpt lat="46.22521" lon="7.26484"><ele></ele><time>2025-8-26T8:6:44Z</time></trkpt>
<trkpt lat="46.22518" lon="7.26489"><ele></ele><time>2025-8-26T8:6:47Z</time></trkpt>
<trkpt lat="46.22515" lon="7.26494"><ele></ele><time>2025-8-26T8:6:50Z</time></trkpt>
<trkpt lat="46.22511" lon="7.265"><ele></ele><time>2025-8-26T8:6:53Z</time></trkpt>
<trkpt lat="46.22509" lon="7.26507"><ele></ele><time>2025-8-26T8:6:56Z</time></trkpt>
<trkpt lat="46.22505" lon="7.26519"><ele></ele><time>2025-8-26T8:6:59Z</time></trkpt>
<trkpt lat="46.22501" lon="7.26528"><ele></ele><time>2025-8-26T8:7:2Z</time></trkpt>
<trkpt lat="46.22496" lon="7.26533"><ele></ele><time>2025-8-26T8:7:5Z</time></trkpt>
<trkpt lat="46.22493" lon="7.26533"><ele></ele><time>2025-8-26T8:7:8Z</time></trkpt>
<trkpt lat="46.22491" lon="7.26532"><ele></ele><time>2025-8-26T8:7:11Z</time></trkpt>
<trkpt lat="46.2248" lon="7.26525"><ele></ele><time>2025-8-26T8:7:14Z</time></trkpt>
<trkpt lat="46.22477" lon="7.26524"><ele></ele><time>2025-8-26T8:7:17Z</time></trkpt>
<trkpt lat="46.22475" lon="7.26524"><ele></ele><time>2025-8-26T8:7:20Z</time></trkpt>
<trkpt lat="46.22473" lon="7.26526"><ele></ele><time>2025-8-26T8:7:23Z</time></trkpt>
<trkpt lat="46.22476" lon="7.26535"><ele></ele><time>2025-8-26T8:7:26Z</time></trkpt>
<trkpt lat="46.22482" lon="7.26542"><ele></ele><time>2025-8-26T8:7:29Z</time></trkpt>
<trkpt lat="46.22486" lon="7.26546"><ele></ele><time>2025-8-26T8:7:32Z</time></trkpt>
<trkpt lat="46.22489" lon="7.2655"><ele></ele><time>2025-8-26T8:7:35Z</time></trkpt>
<trkpt lat="46.22494" lon="7.26555"><ele></ele><time>2025-8-26T8:7:38Z</time></trkpt>
<trkpt lat="46.22497" lon="7.26561"><ele></ele><time>2025-8-26T8:7:41Z</time></trkpt>
<trkpt lat="46.22504" lon="7.26573"><ele></ele><time>2025-8-26T8:7:44Z</time></trkpt>
<trkpt lat="46.22506" lon="7.26579"><ele></ele><time>2025-8-26T8:7:47Z</time></trkpt>
<trkpt lat="46.22506" lon="7.26586"><ele></ele><time>2025-8-26T8:7:50Z</time></trkpt>
<trkpt lat="46.22505" lon="7.26592"><ele></ele><time>2025-8-26T8:7:53Z</time></trkpt>
<trkpt lat="46.22503" lon="7.26598"><ele></ele><time>2025-8-26T8:7:56Z</time></trkpt>
<trkpt lat="46.22498" lon="7.26602"><ele></ele><time>2025-8-26T8:7:59Z</time></trkpt>
<trkpt lat="46.22495" lon="7.26607"><ele></ele><time>2025-8-26T8:8:2Z</time></trkpt>
<trkpt lat="46.22492" lon="7.26614"><ele></ele><time>2025-8-26T8:8:5Z</time></trkpt>
<trkpt lat="46.22491" lon="7.26621"><ele></ele><time>2025-8-26T8:8:8Z</time></trkpt>
<trkpt lat="46.2249" lon="7.26629"><ele></ele><time>2025-8-26T8:8:11Z</time></trkpt>
<trkpt lat="46.22489" lon="7.26637"><ele></ele><time>2025-8-26T8:8:14Z</time></trkpt>
<trkpt lat="46.22487" lon="7.26645"><ele></ele><time>2025-8-26T8:8:17Z</time></trkpt>
<trkpt lat="46.22483" lon="7.26656"><ele></ele><time>2025-8-26T8:8:20Z</time></trkpt>
<trkpt lat="46.22482" lon="7.2666"><ele></ele><time>2025-8-26T8:8:23Z</time></trkpt>
<trkpt lat="46.2248" lon="7.26666"><ele></ele><time>2025-8-26T8:8:26Z</time></trkpt>
<trkpt lat="46.2248" lon="7.26673"><ele></ele><time>2025-8-26T8:8:29Z</time></trkpt>
<trkpt lat="46.22483" lon="7.26682"><ele></ele><time>2025-8-26T8:8:32Z</time></trkpt>
<trkpt lat="46.22483" lon="7.26682"><ele></ele><time>2025-8-26T8:8:35Z</time></trkpt>
<trkpt lat="46.22483" lon="7.26682"><ele></ele><time>2025-8-26T8:8:38Z</time></trkpt>
<trkpt lat="46.22483" lon="7.26682"><ele></ele><time>2025-8-26T8:8:41Z</time></trkpt>
<trkpt lat="46.22484" lon="7.26682"><ele></ele><time>2025-8-26T8:8:44Z</time></trkpt>
<trkpt lat="46.22483" lon="7.26679"><ele></ele><time>2025-8-26T8:8:47Z</time></trkpt>
<trkpt lat="46.22481" lon="7.26677"><ele></ele><time>2025-8-26T8:8:50Z</time></trkpt>
<trkpt lat="46.22476" lon="7.26669"><ele></ele><time>2025-8-26T8:8:53Z</time></trkpt>
<trkpt lat="46.22467" lon="7.2666"><ele></ele><time>2025-8-26T8:8:56Z</time></trkpt>
<trkpt lat="46.22463" lon="7.26658"><ele></ele><time>2025-8-26T8:8:59Z</time></trkpt>
<trkpt lat="46.22459" lon="7.26656"><ele></ele><time>2025-8-26T8:9:2Z</time></trkpt>
<trkpt lat="46.22451" lon="7.26653"><ele></ele><time>2025-8-26T8:9:5Z</time></trkpt>
<trkpt lat="46.22449" lon="7.26652"><ele></ele><time>2025-8-26T8:9:8Z</time></trkpt>
<trkpt lat="46.22447" lon="7.2665"><ele></ele><time>2025-8-26T8:9:11Z</time></trkpt>
<trkpt lat="46.22441" lon="7.26648"><ele></ele><time>2025-8-26T8:9:14Z</time></trkpt>
<trkpt lat="46.22433" lon="7.26645"><ele></ele><time>2025-8-26T8:9:17Z</time></trkpt>
<trkpt lat="46.22425" lon="7.2664"><ele></ele><time>2025-8-26T8:9:20Z</time></trkpt>
<trkpt lat="46.22421" lon="7.26638"><ele></ele><time>2025-8-26T8:9:23Z</time></trkpt>
<trkpt lat="46.22415" lon="7.26636"><ele></ele><time>2025-8-26T8:9:26Z</time></trkpt>
<trkpt lat="46.22413" lon="7.26636"><ele></ele><time>2025-8-26T8:9:29Z</time></trkpt>
<trkpt lat="46.22412" lon="7.26636"><ele></ele><time>2025-8-26T8:9:32Z</time></trkpt>
<trkpt lat="46.2241" lon="7.26639"><ele></ele><time>2025-8-26T8:9:35Z</time></trkpt>
<trkpt lat="46.22409" lon="7.26641"><ele></ele><time>2025-8-26T8:9:38Z</time></trkpt>
<trkpt lat="46.22407" lon="7.26642"><ele></ele><time>2025-8-26T8:9:41Z</time></trkpt>
<trkpt lat="46.22404" lon="7.26637"><ele></ele><time>2025-8-26T8:9:44Z</time></trkpt>
<trkpt lat="46.22406" lon="7.26631"><ele></ele><time>2025-8-26T8:9:47Z</time></trkpt>
<trkpt lat="46.22407" lon="7.26628"><ele></ele><time>2025-8-26T8:9:50Z</time></trkpt>
<trkpt lat="46.22408" lon="7.26621"><ele></ele><time>2025-8-26T8:9:53Z</time></trkpt>
<trkpt lat="46.22409" lon="7.26606"><ele></ele><time>2025-8-26T8:9:56Z</time></trkpt>
<trkpt lat="46.22411" lon="7.26588"><ele></ele><time>2025-8-26T8:9:59Z</time></trkpt>
<trkpt lat="46.22411" lon="7.26576"><ele></ele><time>2025-8-26T8:10:2Z</time></trkpt>
<trkpt lat="46.2241" lon="7.26561"><ele></ele><time>2025-8-26T8:10:5Z</time></trkpt>
<trkpt lat="46.22409" lon="7.26569"><ele></ele><time>2025-8-26T8:10:8Z</time></trkpt>
<trkpt lat="46.22411" lon="7.2659"><ele></ele><time>2025-8-26T8:10:11Z</time></trkpt>
<trkpt lat="46.2241" lon="7.26618"><ele></ele><time>2025-8-26T8:10:14Z</time></trkpt>
<trkpt lat="46.22409" lon="7.26652"><ele></ele><time>2025-8-26T8:10:17Z</time></trkpt>
<trkpt lat="46.22413" lon="7.26664"><ele></ele><time>2025-8-26T8:10:20Z</time></trkpt>
<trkpt lat="46.22415" lon="7.2667"><ele></ele><time>2025-8-26T8:10:23Z</time></trkpt>
<trkpt lat="46.22417" lon="7.26676"><ele></ele><time>2025-8-26T8:10:26Z</time></trkpt>
<trkpt lat="46.22428" lon="7.26701"><ele></ele><time>2025-8-26T8:10:29Z</time></trkpt>
<trkpt lat="46.22436" lon="7.26711"><ele></ele><time>2025-8-26T8:10:32Z</time></trkpt>
<trkpt lat="46.22445" lon="7.26722"><ele></ele><time>2025-8-26T8:10:35Z</time></trkpt>
<trkpt lat="46.22459" lon="7.2674"><ele></ele><time>2025-8-26T8:10:38Z</time></trkpt>
<trkpt lat="46.22464" lon="7.26748"><ele></ele><time>2025-8-26T8:10:41Z</time></trkpt>
<trkpt lat="46.22468" lon="7.26757"><ele></ele><time>2025-8-26T8:10:44Z</time></trkpt>
<trkpt lat="46.22478" lon="7.26777"><ele></ele><time>2025-8-26T8:10:47Z</time></trkpt>
<trkpt lat="46.22487" lon="7.26798"><ele></ele><time>2025-8-26T8:10:50Z</time></trkpt>
<trkpt lat="46.22494" lon="7.26819"><ele></ele><time>2025-8-26T8:10:53Z</time></trkpt>
<trkpt lat="46.22501" lon="7.26841"><ele></ele><time>2025-8-26T8:10:56Z</time></trkpt>
<trkpt lat="46.22506" lon="7.26852"><ele></ele><time>2025-8-26T8:10:59Z</time></trkpt>
<trkpt lat="46.2251" lon="7.26863"><ele></ele><time>2025-8-26T8:11:2Z</time></trkpt>
<trkpt lat="46.22517" lon="7.26885"><ele></ele><time>2025-8-26T8:11:5Z</time></trkpt>
<trkpt lat="46.22524" lon="7.26906"><ele></ele><time>2025-8-26T8:11:8Z</time></trkpt>
<trkpt lat="46.22529" lon="7.26917"><ele></ele><time>2025-8-26T8:11:11Z</time></trkpt>
<trkpt lat="46.22534" lon="7.26927"><ele></ele><time>2025-8-26T8:11:14Z</time></trkpt>
<trkpt lat="46.2254" lon="7.26937"><ele></ele><time>2025-8-26T8:11:17Z</time></trkpt>
<trkpt lat="46.22549" lon="7.26958"><ele></ele><time>2025-8-26T8:11:20Z</time></trkpt>
<trkpt lat="46.22558" lon="7.26981"><ele></ele><time>2025-8-26T8:11:23Z</time></trkpt>
<trkpt lat="46.22567" lon="7.27002"><ele></ele><time>2025-8-26T8:11:26Z</time></trkpt>
<trkpt lat="46.22577" lon="7.27024"><ele></ele><time>2025-8-26T8:11:29Z</time></trkpt>
<trkpt lat="46.22587" lon="7.27046"><ele></ele><time>2025-8-26T8:11:32Z</time></trkpt>
<trkpt lat="46.22595" lon="7.27068"><ele></ele><time>2025-8-26T8:11:35Z</time></trkpt>
<trkpt lat="46.226" lon="7.2709"><ele></ele><time>2025-8-26T8:11:38Z</time></trkpt>
<trkpt lat="46.22606" lon="7.27108"><ele></ele><time>2025-8-26T8:11:41Z</time></trkpt>
<trkpt lat="46.22611" lon="7.27116"><ele></ele><time>2025-8-26T8:11:44Z</time></trkpt>
<trkpt lat="46.22621" lon="7.27131"><ele></ele><time>2025-8-26T8:11:47Z</time></trkpt>
<trkpt lat="46.22631" lon="7.27147"><ele></ele><time>2025-8-26T8:11:50Z</time></trkpt>
<trkpt lat="46.22641" lon="7.27164"><ele></ele><time>2025-8-26T8:11:53Z</time></trkpt>
<trkpt lat="46.2265" lon="7.27182"><ele></ele><time>2025-8-26T8:11:56Z</time></trkpt>
<trkpt lat="46.22655" lon="7.27191"><ele></ele><time>2025-8-26T8:11:59Z</time></trkpt>
<trkpt lat="46.22664" lon="7.2721"><ele></ele><time>2025-8-26T8:12:2Z</time></trkpt>
<trkpt lat="46.22672" lon="7.27228"><ele></ele><time>2025-8-26T8:12:5Z</time></trkpt>
<trkpt lat="46.22675" lon="7.27237"><ele></ele><time>2025-8-26T8:12:8Z</time></trkpt>
<trkpt lat="46.22681" lon="7.27253"><ele></ele><time>2025-8-26T8:12:11Z</time></trkpt>
<trkpt lat="46.22681" lon="7.27259"><ele></ele><time>2025-8-26T8:12:14Z</time></trkpt>
<trkpt lat="46.22679" lon="7.27262"><ele></ele><time>2025-8-26T8:12:17Z</time></trkpt>
<trkpt lat="46.22673" lon="7.27262"><ele></ele><time>2025-8-26T8:12:20Z</time></trkpt>
<trkpt lat="46.2267" lon="7.2726"><ele></ele><time>2025-8-26T8:12:23Z</time></trkpt>
<trkpt lat="46.22665" lon="7.27257"><ele></ele><time>2025-8-26T8:12:26Z</time></trkpt>
<trkpt lat="46.22661" lon="7.27252"><ele></ele><time>2025-8-26T8:12:29Z</time></trkpt>
<trkpt lat="46.22656" lon="7.27246"><ele></ele><time>2025-8-26T8:12:32Z</time></trkpt>
<trkpt lat="46.22652" lon="7.2724"><ele></ele><time>2025-8-26T8:12:35Z</time></trkpt>
<trkpt lat="46.22647" lon="7.27232"><ele></ele><time>2025-8-26T8:12:38Z</time></trkpt>
<trkpt lat="46.22643" lon="7.27224"><ele></ele><time>2025-8-26T8:12:41Z</time></trkpt>
<trkpt lat="46.22638" lon="7.27216"><ele></ele><time>2025-8-26T8:12:44Z</time></trkpt>
<trkpt lat="46.22627" lon="7.272"><ele></ele><time>2025-8-26T8:12:47Z</time></trkpt>
<trkpt lat="46.22615" lon="7.27187"><ele></ele><time>2025-8-26T8:12:50Z</time></trkpt>
<trkpt lat="46.22608" lon="7.27181"><ele></ele><time>2025-8-26T8:12:53Z</time></trkpt>
<trkpt lat="46.22594" lon="7.2717"><ele></ele><time>2025-8-26T8:12:56Z</time></trkpt>
<trkpt lat="46.22587" lon="7.27164"><ele></ele><time>2025-8-26T8:12:59Z</time></trkpt>
<trkpt lat="46.22576" lon="7.27154"><ele></ele><time>2025-8-26T8:13:2Z</time></trkpt>
<trkpt lat="46.22564" lon="7.27143"><ele></ele><time>2025-8-26T8:13:5Z</time></trkpt>
<trkpt lat="46.22561" lon="7.27139"><ele></ele><time>2025-8-26T8:13:8Z</time></trkpt>
<trkpt lat="46.22554" lon="7.27132"><ele></ele><time>2025-8-26T8:13:11Z</time></trkpt>
<trkpt lat="46.22549" lon="7.27129"><ele></ele><time>2025-8-26T8:13:14Z</time></trkpt>
<trkpt lat="46.22544" lon="7.27125"><ele></ele><time>2025-8-26T8:13:17Z</time></trkpt>
<trkpt lat="46.22539" lon="7.27121"><ele></ele><time>2025-8-26T8:13:20Z</time></trkpt>
<trkpt lat="46.22533" lon="7.27116"><ele></ele><time>2025-8-26T8:13:23Z</time></trkpt>
<trkpt lat="46.22522" lon="7.27108"><ele></ele><time>2025-8-26T8:13:26Z</time></trkpt>
<trkpt lat="46.22511" lon="7.27098"><ele></ele><time>2025-8-26T8:13:29Z</time></trkpt>
<trkpt lat="46.22506" lon="7.27092"><ele></ele><time>2025-8-26T8:13:32Z</time></trkpt>
<trkpt lat="46.22501" lon="7.27086"><ele></ele><time>2025-8-26T8:13:35Z</time></trkpt>
<trkpt lat="46.22495" lon="7.2708"><ele></ele><time>2025-8-26T8:13:38Z</time></trkpt>
<trkpt lat="46.2249" lon="7.27074"><ele></ele><time>2025-8-26T8:13:41Z</time></trkpt>
<trkpt lat="46.22484" lon="7.2707"><ele></ele><time>2025-8-26T8:13:44Z</time></trkpt>
<trkpt lat="46.22478" lon="7.27066"><ele></ele><time>2025-8-26T8:13:47Z</time></trkpt>
<trkpt lat="46.22471" lon="7.27063"><ele></ele><time>2025-8-26T8:13:50Z</time></trkpt>
<trkpt lat="46.22466" lon="7.27059"><ele></ele><time>2025-8-26T8:13:53Z</time></trkpt>
<trkpt lat="46.2246" lon="7.27055"><ele></ele><time>2025-8-26T8:13:56Z</time></trkpt>
<trkpt lat="46.22448" lon="7.27046"><ele></ele><time>2025-8-26T8:13:59Z</time></trkpt>
<trkpt lat="46.22441" lon="7.27041"><ele></ele><time>2025-8-26T8:14:2Z</time></trkpt>
<trkpt lat="46.22434" lon="7.27037"><ele></ele><time>2025-8-26T8:14:5Z</time></trkpt>
<trkpt lat="46.22427" lon="7.27032"><ele></ele><time>2025-8-26T8:14:8Z</time></trkpt>
<trkpt lat="46.22414" lon="7.27021"><ele></ele><time>2025-8-26T8:14:11Z</time></trkpt>
<trkpt lat="46.22401" lon="7.27009"><ele></ele><time>2025-8-26T8:14:14Z</time></trkpt>
<trkpt lat="46.22394" lon="7.27004"><ele></ele><time>2025-8-26T8:14:17Z</time></trkpt>
<trkpt lat="46.22388" lon="7.26998"><ele></ele><time>2025-8-26T8:14:20Z</time></trkpt>
<trkpt lat="46.22382" lon="7.26992"><ele></ele><time>2025-8-26T8:14:23Z</time></trkpt>
<trkpt lat="46.22371" lon="7.26979"><ele></ele><time>2025-8-26T8:14:26Z</time></trkpt>
<trkpt lat="46.22361" lon="7.26964"><ele></ele><time>2025-8-26T8:14:29Z</time></trkpt>
<trkpt lat="46.22355" lon="7.26957"><ele></ele><time>2025-8-26T8:14:32Z</time></trkpt>
<trkpt lat="46.22348" lon="7.26951"><ele></ele><time>2025-8-26T8:14:35Z</time></trkpt>
<trkpt lat="46.22336" lon="7.2694"><ele></ele><time>2025-8-26T8:14:38Z</time></trkpt>
<trkpt lat="46.22326" lon="7.2693"><ele></ele><time>2025-8-26T8:14:41Z</time></trkpt>
<trkpt lat="46.22321" lon="7.26925"><ele></ele><time>2025-8-26T8:14:44Z</time></trkpt>
<trkpt lat="46.22312" lon="7.26913"><ele></ele><time>2025-8-26T8:14:47Z</time></trkpt>
<trkpt lat="46.22304" lon="7.26896"><ele></ele><time>2025-8-26T8:14:50Z</time></trkpt>
<trkpt lat="46.22302" lon="7.26888"><ele></ele><time>2025-8-26T8:14:53Z</time></trkpt>
<trkpt lat="46.22301" lon="7.26882"><ele></ele><time>2025-8-26T8:14:56Z</time></trkpt>
<trkpt lat="46.223" lon="7.26877"><ele></ele><time>2025-8-26T8:14:59Z</time></trkpt>
<trkpt lat="46.22298" lon="7.26874"><ele></ele><time>2025-8-26T8:15:2Z</time></trkpt>
<trkpt lat="46.22295" lon="7.26866"><ele></ele><time>2025-8-26T8:15:5Z</time></trkpt>
<trkpt lat="46.22293" lon="7.2686"><ele></ele><time>2025-8-26T8:15:8Z</time></trkpt>
<trkpt lat="46.22288" lon="7.26847"><ele></ele><time>2025-8-26T8:15:11Z</time></trkpt>
<trkpt lat="46.22281" lon="7.26831"><ele></ele><time>2025-8-26T8:15:14Z</time></trkpt>
<trkpt lat="46.22277" lon="7.26822"><ele></ele><time>2025-8-26T8:15:17Z</time></trkpt>
<trkpt lat="46.2227" lon="7.26806"><ele></ele><time>2025-8-26T8:15:20Z</time></trkpt>
<trkpt lat="46.22265" lon="7.26799"><ele></ele><time>2025-8-26T8:15:23Z</time></trkpt>
<trkpt lat="46.22256" lon="7.26786"><ele></ele><time>2025-8-26T8:15:26Z</time></trkpt>
<trkpt lat="46.22245" lon="7.26774"><ele></ele><time>2025-8-26T8:15:29Z</time></trkpt>
<trkpt lat="46.22239" lon="7.26768"><ele></ele><time>2025-8-26T8:15:32Z</time></trkpt>
<trkpt lat="46.22234" lon="7.26762"><ele></ele><time>2025-8-26T8:15:35Z</time></trkpt>
<trkpt lat="46.22223" lon="7.26752"><ele></ele><time>2025-8-26T8:15:38Z</time></trkpt>
<trkpt lat="46.22218" lon="7.26747"><ele></ele><time>2025-8-26T8:15:41Z</time></trkpt>
<trkpt lat="46.22212" lon="7.26743"><ele></ele><time>2025-8-26T8:15:44Z</time></trkpt>
<trkpt lat="46.222" lon="7.26739"><ele></ele><time>2025-8-26T8:15:47Z</time></trkpt>
<trkpt lat="46.22187" lon="7.26743"><ele></ele><time>2025-8-26T8:15:50Z</time></trkpt>
<trkpt lat="46.22181" lon="7.26746"><ele></ele><time>2025-8-26T8:15:53Z</time></trkpt>
<trkpt lat="46.22175" lon="7.2675"><ele></ele><time>2025-8-26T8:15:56Z</time></trkpt>
<trkpt lat="46.22162" lon="7.26756"><ele></ele><time>2025-8-26T8:15:59Z</time></trkpt>
<trkpt lat="46.2215" lon="7.26762"><ele></ele><time>2025-8-26T8:16:2Z</time></trkpt>
<trkpt lat="46.22144" lon="7.26766"><ele></ele><time>2025-8-26T8:16:5Z</time></trkpt>
<trkpt lat="46.22134" lon="7.26774"><ele></ele><time>2025-8-26T8:16:8Z</time></trkpt>
<trkpt lat="46.22127" lon="7.26781"><ele></ele><time>2025-8-26T8:16:11Z</time></trkpt>
<trkpt lat="46.22124" lon="7.26783"><ele></ele><time>2025-8-26T8:16:14Z</time></trkpt>
<trkpt lat="46.22118" lon="7.26787"><ele></ele><time>2025-8-26T8:16:17Z</time></trkpt>
<trkpt lat="46.22116" lon="7.26788"><ele></ele><time>2025-8-26T8:16:20Z</time></trkpt>
<trkpt lat="46.22113" lon="7.26792"><ele></ele><time>2025-8-26T8:16:23Z</time></trkpt>
<trkpt lat="46.22103" lon="7.26802"><ele></ele><time>2025-8-26T8:16:26Z</time></trkpt>
<trkpt lat="46.22098" lon="7.26807"><ele></ele><time>2025-8-26T8:16:29Z</time></trkpt>
<trkpt lat="46.22084" lon="7.26823"><ele></ele><time>2025-8-26T8:16:32Z</time></trkpt>
<trkpt lat="46.22065" lon="7.2684"><ele></ele><time>2025-8-26T8:16:35Z</time></trkpt>
<trkpt lat="46.22048" lon="7.26852"><ele></ele><time>2025-8-26T8:16:38Z</time></trkpt>
<trkpt lat="46.22023" lon="7.26864"><ele></ele><time>2025-8-26T8:16:41Z</time></trkpt>
<trkpt lat="46.22011" lon="7.26869"><ele></ele><time>2025-8-26T8:16:44Z</time></trkpt>
<trkpt lat="46.21992" lon="7.2688"><ele></ele><time>2025-8-26T8:16:47Z</time></trkpt>
<trkpt lat="46.21981" lon="7.26889"><ele></ele><time>2025-8-26T8:16:50Z</time></trkpt>
<trkpt lat="46.2196" lon="7.26914"><ele></ele><time>2025-8-26T8:16:53Z</time></trkpt>
<trkpt lat="46.21956" lon="7.26919"><ele></ele><time>2025-8-26T8:16:56Z</time></trkpt>
<trkpt lat="46.21944" lon="7.26938"><ele></ele><time>2025-8-26T8:16:59Z</time></trkpt>
<trkpt lat="46.2194" lon="7.26946"><ele></ele><time>2025-8-26T8:17:2Z</time></trkpt>
<trkpt lat="46.21928" lon="7.26973"><ele></ele><time>2025-8-26T8:17:5Z</time></trkpt>
<trkpt lat="46.21912" lon="7.26992"><ele></ele><time>2025-8-26T8:17:8Z</time></trkpt>
<trkpt lat="46.21906" lon="7.26999"><ele></ele><time>2025-8-26T8:17:11Z</time></trkpt>
<trkpt lat="46.21886" lon="7.27019"><ele></ele><time>2025-8-26T8:17:14Z</time></trkpt>
<trkpt lat="46.21877" lon="7.27029"><ele></ele><time>2025-8-26T8:17:17Z</time></trkpt>
<trkpt lat="46.21873" lon="7.27032"><ele></ele><time>2025-8-26T8:17:20Z</time></trkpt>
<trkpt lat="46.21863" lon="7.27042"><ele></ele><time>2025-8-26T8:17:23Z</time></trkpt>
<trkpt lat="46.21856" lon="7.27049"><ele></ele><time>2025-8-26T8:17:26Z</time></trkpt>
<trkpt lat="46.21838" lon="7.27065"><ele></ele><time>2025-8-26T8:17:29Z</time></trkpt>
<trkpt lat="46.21832" lon="7.27071"><ele></ele><time>2025-8-26T8:17:32Z</time></trkpt>
<trkpt lat="46.21816" lon="7.2708"><ele></ele><time>2025-8-26T8:17:35Z</time></trkpt>
<trkpt lat="46.21803" lon="7.27069"><ele></ele><time>2025-8-26T8:17:38Z</time></trkpt>
<trkpt lat="46.21785" lon="7.2704"><ele></ele><time>2025-8-26T8:17:41Z</time></trkpt>
<trkpt lat="46.21768" lon="7.27013"><ele></ele><time>2025-8-26T8:17:44Z</time></trkpt>
<trkpt lat="46.21758" lon="7.26995"><ele></ele><time>2025-8-26T8:17:47Z</time></trkpt>
<trkpt lat="46.2175" lon="7.26981"><ele></ele><time>2025-8-26T8:17:50Z</time></trkpt>
<trkpt lat="46.21729" lon="7.26946"><ele></ele><time>2025-8-26T8:17:53Z</time></trkpt>
<trkpt lat="46.21709" lon="7.26913"><ele></ele><time>2025-8-26T8:17:56Z</time></trkpt>
<trkpt lat="46.21698" lon="7.26895"><ele></ele><time>2025-8-26T8:17:59Z</time></trkpt>
<trkpt lat="46.2169" lon="7.26881"><ele></ele><time>2025-8-26T8:18:2Z</time></trkpt>
<trkpt lat="46.21683" lon="7.2687"><ele></ele><time>2025-8-26T8:18:5Z</time></trkpt>
<trkpt lat="46.21673" lon="7.26855"><ele></ele><time>2025-8-26T8:18:8Z</time></trkpt>
<trkpt lat="46.2167" lon="7.26852"><ele></ele><time>2025-8-26T8:18:11Z</time></trkpt>
<trkpt lat="46.21668" lon="7.26848"><ele></ele><time>2025-8-26T8:18:14Z</time></trkpt>
<trkpt lat="46.21657" lon="7.26833"><ele></ele><time>2025-8-26T8:18:17Z</time></trkpt>
<trkpt lat="46.21644" lon="7.26815"><ele></ele><time>2025-8-26T8:18:20Z</time></trkpt>
<trkpt lat="46.21627" lon="7.26791"><ele></ele><time>2025-8-26T8:18:23Z</time></trkpt>
<trkpt lat="46.21608" lon="7.26764"><ele></ele><time>2025-8-26T8:18:26Z</time></trkpt>
<trkpt lat="46.21591" lon="7.26739"><ele></ele><time>2025-8-26T8:18:29Z</time></trkpt>
<trkpt lat="46.21588" lon="7.26735"><ele></ele><time>2025-8-26T8:18:32Z</time></trkpt>
<trkpt lat="46.21582" lon="7.26727"><ele></ele><time>2025-8-26T8:18:35Z</time></trkpt>
<trkpt lat="46.21572" lon="7.26712"><ele></ele><time>2025-8-26T8:18:38Z</time></trkpt>
<trkpt lat="46.21564" lon="7.26702"><ele></ele><time>2025-8-26T8:18:41Z</time></trkpt>
<trkpt lat="46.21555" lon="7.26688"><ele></ele><time>2025-8-26T8:18:44Z</time></trkpt>
<trkpt lat="46.21548" lon="7.26677"><ele></ele><time>2025-8-26T8:18:47Z</time></trkpt>
<trkpt lat="46.21541" lon="7.26656"><ele></ele><time>2025-8-26T8:18:50Z</time></trkpt>
<trkpt lat="46.21536" lon="7.26644"><ele></ele><time>2025-8-26T8:18:53Z</time></trkpt>
<trkpt lat="46.21525" lon="7.26618"><ele></ele><time>2025-8-26T8:18:56Z</time></trkpt>
<trkpt lat="46.21512" lon="7.26583"><ele></ele><time>2025-8-26T8:18:59Z</time></trkpt>
<trkpt lat="46.21505" lon="7.26578"><ele></ele><time>2025-8-26T8:19:2Z</time></trkpt>
<trkpt lat="46.21502" lon="7.2658"><ele></ele><time>2025-8-26T8:19:5Z</time></trkpt>
<trkpt lat="46.21489" lon="7.26596"><ele></ele><time>2025-8-26T8:19:8Z</time></trkpt>
<trkpt lat="46.21486" lon="7.26601"><ele></ele><time>2025-8-26T8:19:11Z</time></trkpt>
<trkpt lat="46.21474" lon="7.26634"><ele></ele><time>2025-8-26T8:19:14Z</time></trkpt>
<trkpt lat="46.21461" lon="7.26676"><ele></ele><time>2025-8-26T8:19:17Z</time></trkpt>
<trkpt lat="46.21454" lon="7.26697"><ele></ele><time>2025-8-26T8:19:20Z</time></trkpt>
<trkpt lat="46.2145" lon="7.26712"><ele></ele><time>2025-8-26T8:19:23Z</time></trkpt>
<trkpt lat="46.21445" lon="7.26725"><ele></ele><time>2025-8-26T8:19:26Z</time></trkpt>
<trkpt lat="46.21435" lon="7.26758"><ele></ele><time>2025-8-26T8:19:29Z</time></trkpt>
<trkpt lat="46.21429" lon="7.26781"><ele></ele><time>2025-8-26T8:19:32Z</time></trkpt>
<trkpt lat="46.21412" lon="7.2683"><ele></ele><time>2025-8-26T8:19:35Z</time></trkpt>
<trkpt lat="46.21407" lon="7.26847"><ele></ele><time>2025-8-26T8:19:38Z</time></trkpt>
<trkpt lat="46.21387" lon="7.26914"><ele></ele><time>2025-8-26T8:19:41Z</time></trkpt>
<trkpt lat="46.21385" lon="7.26921"><ele></ele><time>2025-8-26T8:19:44Z</time></trkpt>
<trkpt lat="46.21373" lon="7.26961"><ele></ele><time>2025-8-26T8:19:47Z</time></trkpt>
<trkpt lat="46.21369" lon="7.26978"><ele></ele><time>2025-8-26T8:19:50Z</time></trkpt>
<trkpt lat="46.21356" lon="7.27031"><ele></ele><time>2025-8-26T8:19:53Z</time></trkpt>
<trkpt lat="46.21354" lon="7.2704"><ele></ele><time>2025-8-26T8:19:56Z</time></trkpt>
<trkpt lat="46.21345" lon="7.27075"><ele></ele><time>2025-8-26T8:19:59Z</time></trkpt>
<trkpt lat="46.21343" lon="7.27085"><ele></ele><time>2025-8-26T8:20:2Z</time></trkpt>
<trkpt lat="46.21339" lon="7.271"><ele></ele><time>2025-8-26T8:20:5Z</time></trkpt>
<trkpt lat="46.21333" lon="7.27116"><ele></ele><time>2025-8-26T8:20:8Z</time></trkpt>
<trkpt lat="46.21325" lon="7.27118"><ele></ele><time>2025-8-26T8:20:11Z</time></trkpt>
<trkpt lat="46.21321" lon="7.27117"><ele></ele><time>2025-8-26T8:20:14Z</time></trkpt>
<trkpt lat="46.21297" lon="7.27113"><ele></ele><time>2025-8-26T8:20:17Z</time></trkpt>
<trkpt lat="46.21287" lon="7.27111"><ele></ele><time>2025-8-26T8:20:20Z</time></trkpt>
<trkpt lat="46.21265" lon="7.27108"><ele></ele><time>2025-8-26T8:20:23Z</time></trkpt>
<trkpt lat="46.21231" lon="7.27102"><ele></ele><time>2025-8-26T8:20:26Z</time></trkpt>
<trkpt lat="46.21175" lon="7.27092"><ele></ele><time>2025-8-26T8:20:29Z</time></trkpt>
<trkpt lat="46.2117" lon="7.27091"><ele></ele><time>2025-8-26T8:20:32Z</time></trkpt>
<trkpt lat="46.21118" lon="7.27081"><ele></ele><time>2025-8-26T8:20:35Z</time></trkpt>
<trkpt lat="46.21067" lon="7.27073"><ele></ele><time>2025-8-26T8:20:38Z</time></trkpt>
<trkpt lat="46.21011" lon="7.27065"><ele></ele><time>2025-8-26T8:20:41Z</time></trkpt>
<trkpt lat="46.20991" lon="7.27061"><ele></ele><time>2025-8-26T8:20:44Z</time></trkpt>
<trkpt lat="46.20981" lon="7.27058"><ele></ele><time>2025-8-26T8:20:47Z</time></trkpt>
<trkpt lat="46.20977" lon="7.27055"><ele></ele><time>2025-8-26T8:20:50Z</time></trkpt>
<trkpt lat="46.20973" lon="7.27052"><ele></ele><time>2025-8-26T8:20:53Z</time></trkpt>
<trkpt lat="46.20961" lon="7.27038"><ele></ele><time>2025-8-26T8:20:56Z</time></trkpt>
<trkpt lat="46.20946" lon="7.27024"><ele></ele><time>2025-8-26T8:20:59Z</time></trkpt>
<trkpt lat="46.20935" lon="7.27028"><ele></ele><time>2025-8-26T8:21:2Z</time></trkpt>
<trkpt lat="46.20931" lon="7.27031"><ele></ele><time>2025-8-26T8:21:5Z</time></trkpt>
<trkpt lat="46.209" lon="7.27058"><ele></ele><time>2025-8-26T8:21:8Z</time></trkpt>
<trkpt lat="46.20889" lon="7.27069"><ele></ele><time>2025-8-26T8:21:11Z</time></trkpt>
<trkpt lat="46.2088" lon="7.27072"><ele></ele><time>2025-8-26T8:21:14Z</time></trkpt>
<trkpt lat="46.20873" lon="7.27065"><ele></ele><time>2025-8-26T8:21:17Z</time></trkpt>
<trkpt lat="46.20871" lon="7.27059"><ele></ele><time>2025-8-26T8:21:20Z</time></trkpt>
<trkpt lat="46.20855" lon="7.27017"><ele></ele><time>2025-8-26T8:21:23Z</time></trkpt>
<trkpt lat="46.20853" lon="7.27011"><ele></ele><time>2025-8-26T8:21:26Z</time></trkpt>
<trkpt lat="46.20831" lon="7.26967"><ele></ele><time>2025-8-26T8:21:29Z</time></trkpt>
<trkpt lat="46.20825" lon="7.26955"><ele></ele><time>2025-8-26T8:21:32Z</time></trkpt>
<trkpt lat="46.20811" lon="7.26929"><ele></ele><time>2025-8-26T8:21:35Z</time></trkpt>
<trkpt lat="46.20803" lon="7.26914"><ele></ele><time>2025-8-26T8:21:38Z</time></trkpt>
<trkpt lat="46.20795" lon="7.26901"><ele></ele><time>2025-8-26T8:21:41Z</time></trkpt>
<trkpt lat="46.20786" lon="7.26884"><ele></ele><time>2025-8-26T8:21:44Z</time></trkpt>
<trkpt lat="46.20783" lon="7.2688"><ele></ele><time>2025-8-26T8:21:47Z</time></trkpt>
<trkpt lat="46.20781" lon="7.26873"><ele></ele><time>2025-8-26T8:21:50Z</time></trkpt>
<trkpt lat="46.20775" lon="7.26871"><ele></ele><time>2025-8-26T8:21:53Z</time></trkpt>
<trkpt lat="46.20759" lon="7.26879"><ele></ele><time>2025-8-26T8:21:56Z</time></trkpt>
<trkpt lat="46.2073" lon="7.26902"><ele></ele><time>2025-8-26T8:21:59Z</time></trkpt>
<trkpt lat="46.2071" lon="7.26916"><ele></ele><time>2025-8-26T8:22:2Z</time></trkpt>
<trkpt lat="46.20701" lon="7.26924"><ele></ele><time>2025-8-26T8:22:5Z</time></trkpt>
<trkpt lat="46.20676" lon="7.26945"><ele></ele><time>2025-8-26T8:22:8Z</time></trkpt>
<trkpt lat="46.20673" lon="7.26947"><ele></ele><time>2025-8-26T8:22:11Z</time></trkpt>
<trkpt lat="46.20664" lon="7.26952"><ele></ele><time>2025-8-26T8:22:14Z</time></trkpt>
<trkpt lat="46.20658" lon="7.2696"><ele></ele><time>2025-8-26T8:22:17Z</time></trkpt>
<trkpt lat="46.20656" lon="7.26964"><ele></ele><time>2025-8-26T8:22:20Z</time></trkpt>
<trkpt lat="46.20655" lon="7.26966"><ele></ele><time>2025-8-26T8:22:23Z</time></trkpt>
<trkpt lat="46.20654" lon="7.26967"><ele></ele><time>2025-8-26T8:22:26Z</time></trkpt>
<trkpt lat="46.2065" lon="7.26972"><ele></ele><time>2025-8-26T8:22:29Z</time></trkpt>
<trkpt lat="46.20652" lon="7.26981"><ele></ele><time>2025-8-26T8:22:32Z</time></trkpt>
<trkpt lat="46.20666" lon="7.27015"><ele></ele><time>2025-8-26T8:22:35Z</time></trkpt>
<trkpt lat="46.20686" lon="7.27065"><ele></ele><time>2025-8-26T8:22:38Z</time></trkpt>
<trkpt lat="46.20688" lon="7.2707"><ele></ele><time>2025-8-26T8:22:41Z</time></trkpt>
<trkpt lat="46.20706" lon="7.27113"><ele></ele><time>2025-8-26T8:22:44Z</time></trkpt>
<trkpt lat="46.20715" lon="7.27133"><ele></ele><time>2025-8-26T8:22:47Z</time></trkpt>
<trkpt lat="46.20715" lon="7.27138"><ele></ele><time>2025-8-26T8:22:50Z</time></trkpt>
<trkpt lat="46.20714" lon="7.27143"><ele></ele><time>2025-8-26T8:22:53Z</time></trkpt>
<trkpt lat="46.20705" lon="7.27153"><ele></ele><time>2025-8-26T8:22:56Z</time></trkpt>
<trkpt lat="46.20701" lon="7.27156"><ele></ele><time>2025-8-26T8:22:59Z</time></trkpt>
<trkpt lat="46.20681" lon="7.27172"><ele></ele><time>2025-8-26T8:23:2Z</time></trkpt>
<trkpt lat="46.20665" lon="7.27185"><ele></ele><time>2025-8-26T8:23:5Z</time></trkpt>
<trkpt lat="46.20648" lon="7.27199"><ele></ele><time>2025-8-26T8:23:8Z</time></trkpt>
<trkpt lat="46.20609" lon="7.27236"><ele></ele><time>2025-8-26T8:23:11Z</time></trkpt>
<trkpt lat="46.20584" lon="7.27262"><ele></ele><time>2025-8-26T8:23:14Z</time></trkpt>
<trkpt lat="46.20575" lon="7.27271"><ele></ele><time>2025-8-26T8:23:17Z</time></trkpt>
<trkpt lat="46.20535" lon="7.27317"><ele></ele><time>2025-8-26T8:23:20Z</time></trkpt>
<trkpt lat="46.205" lon="7.27354"><ele></ele><time>2025-8-26T8:23:23Z</time></trkpt>
<trkpt lat="46.2046" lon="7.27397"><ele></ele><time>2025-8-26T8:23:26Z</time></trkpt>
<trkpt lat="46.20442" lon="7.27417"><ele></ele><time>2025-8-26T8:23:29Z</time></trkpt>
<trkpt lat="46.20422" lon="7.27438"><ele></ele><time>2025-8-26T8:23:32Z</time></trkpt>
<trkpt lat="46.20417" lon="7.27443"><ele></ele><time>2025-8-26T8:23:35Z</time></trkpt>
<trkpt lat="46.20413" lon="7.27447"><ele></ele><time>2025-8-26T8:23:38Z</time></trkpt>
<trkpt lat="46.20384" lon="7.27478"><ele></ele><time>2025-8-26T8:23:41Z</time></trkpt>
<trkpt lat="46.20365" lon="7.27499"><ele></ele><time>2025-8-26T8:23:44Z</time></trkpt>
<trkpt lat="46.20354" lon="7.2751"><ele></ele><time>2025-8-26T8:23:47Z</time></trkpt>
<trkpt lat="46.20347" lon="7.27521"><ele></ele><time>2025-8-26T8:23:50Z</time></trkpt>
<trkpt lat="46.20333" lon="7.27534"><ele></ele><time>2025-8-26T8:23:53Z</time></trkpt>
<trkpt lat="46.20317" lon="7.27551"><ele></ele><time>2025-8-26T8:23:56Z</time></trkpt>
<trkpt lat="46.20297" lon="7.27573"><ele></ele><time>2025-8-26T8:23:59Z</time></trkpt>
<trkpt lat="46.20293" lon="7.27576"><ele></ele><time>2025-8-26T8:24:2Z</time></trkpt>
<trkpt lat="46.20273" lon="7.27598"><ele></ele><time>2025-8-26T8:24:5Z</time></trkpt>
<trkpt lat="46.20257" lon="7.27618"><ele></ele><time>2025-8-26T8:24:8Z</time></trkpt>
<trkpt lat="46.20243" lon="7.27632"><ele></ele><time>2025-8-26T8:24:11Z</time></trkpt>
<trkpt lat="46.20225" lon="7.27651"><ele></ele><time>2025-8-26T8:24:14Z</time></trkpt>
<trkpt lat="46.2021" lon="7.27668"><ele></ele><time>2025-8-26T8:24:17Z</time></trkpt>
<trkpt lat="46.20191" lon="7.27687"><ele></ele><time>2025-8-26T8:24:20Z</time></trkpt>
<trkpt lat="46.20181" lon="7.277"><ele></ele><time>2025-8-26T8:24:23Z</time></trkpt>
<trkpt lat="46.20175" lon="7.27706"><ele></ele><time>2025-8-26T8:24:26Z</time></trkpt>
<trkpt lat="46.20155" lon="7.27726"><ele></ele><time>2025-8-26T8:24:29Z</time></trkpt>
<trkpt lat="46.2014" lon="7.27742"><ele></ele><time>2025-8-26T8:24:32Z</time></trkpt>
<trkpt lat="46.20139" lon="7.27747"><ele></ele><time>2025-8-26T8:24:35Z</time></trkpt>
<trkpt lat="46.20141" lon="7.27747"><ele></ele><time>2025-8-26T8:24:38Z</time></trkpt>
<trkpt lat="46.20151" lon="7.27756"><ele></ele><time>2025-8-26T8:24:41Z</time></trkpt>
<trkpt lat="46.20165" lon="7.27783"><ele></ele><time>2025-8-26T8:24:44Z</time></trkpt>
<trkpt lat="46.20179" lon="7.27807"><ele></ele><time>2025-8-26T8:24:47Z</time></trkpt>
<trkpt lat="46.20183" lon="7.27816"><ele></ele><time>2025-8-26T8:24:50Z</time></trkpt>
<trkpt lat="46.20203" lon="7.27853"><ele></ele><time>2025-8-26T8:24:53Z</time></trkpt>
<trkpt lat="46.20215" lon="7.27879"><ele></ele><time>2025-8-26T8:24:56Z</time></trkpt>
<trkpt lat="46.20217" lon="7.27884"><ele></ele><time>2025-8-26T8:24:59Z</time></trkpt>
<trkpt lat="46.20229" lon="7.27909"><ele></ele><time>2025-8-26T8:25:2Z</time></trkpt>
<trkpt lat="46.20231" lon="7.27912"><ele></ele><time>2025-8-26T8:25:5Z</time></trkpt>
<trkpt lat="46.20236" lon="7.27928"><ele></ele><time>2025-8-26T8:25:8Z</time></trkpt>
<trkpt lat="46.2024" lon="7.27946"><ele></ele><time>2025-8-26T8:25:11Z</time></trkpt>
<trkpt lat="46.2024" lon="7.27949"><ele></ele><time>2025-8-26T8:25:14Z</time></trkpt>
<trkpt lat="46.20244" lon="7.27969"><ele></ele><time>2025-8-26T8:25:17Z</time></trkpt>
<trkpt lat="46.20242" lon="7.27985"><ele></ele><time>2025-8-26T8:25:20Z</time></trkpt>
<trkpt lat="46.20233" lon="7.28003"><ele></ele><time>2025-8-26T8:25:23Z</time></trkpt>
<trkpt lat="46.20231" lon="7.28006"><ele></ele><time>2025-8-26T8:25:26Z</time></trkpt>
<trkpt lat="46.20214" lon="7.28032"><ele></ele><time>2025-8-26T8:25:29Z</time></trkpt>
<trkpt lat="46.20193" lon="7.28062"><ele></ele><time>2025-8-26T8:25:32Z</time></trkpt>
<trkpt lat="46.20167" lon="7.28095"><ele></ele><time>2025-8-26T8:25:35Z</time></trkpt>
<trkpt lat="46.2014" lon="7.28131"><ele></ele><time>2025-8-26T8:25:38Z</time></trkpt>
<trkpt lat="46.2011" lon="7.28162"><ele></ele><time>2025-8-26T8:25:41Z</time></trkpt>
<trkpt lat="46.20097" lon="7.28174"><ele></ele><time>2025-8-26T8:25:44Z</time></trkpt>
<trkpt lat="46.20079" lon="7.28191"><ele></ele><time>2025-8-26T8:25:47Z</time></trkpt>
<trkpt lat="46.20074" lon="7.28194"><ele></ele><time>2025-8-26T8:25:50Z</time></trkpt>
<trkpt lat="46.20055" lon="7.28207"><ele></ele><time>2025-8-26T8:25:53Z</time></trkpt>
<trkpt lat="46.20021" lon="7.28226"><ele></ele><time>2025-8-26T8:25:56Z</time></trkpt>
<trkpt lat="46.20003" lon="7.28235"><ele></ele><time>2025-8-26T8:25:59Z</time></trkpt>
<trkpt lat="46.19994" lon="7.28237"><ele></ele><time>2025-8-26T8:26:2Z</time></trkpt>
<trkpt lat="46.19972" lon="7.28237"><ele></ele><time>2025-8-26T8:26:5Z</time></trkpt>
<trkpt lat="46.19967" lon="7.28236"><ele></ele><time>2025-8-26T8:26:8Z</time></trkpt>
<trkpt lat="46.19966" lon="7.28238"><ele></ele><time>2025-8-26T8:26:11Z</time></trkpt>
<trkpt lat="46.19968" lon="7.28243"><ele></ele><time>2025-8-26T8:26:14Z</time></trkpt>
<trkpt lat="46.1997" lon="7.28247"><ele></ele><time>2025-8-26T8:26:17Z</time></trkpt>
<trkpt lat="46.19971" lon="7.28251"><ele></ele><time>2025-8-26T8:26:20Z</time></trkpt>
<trkpt lat="46.19973" lon="7.28259"><ele></ele><time>2025-8-26T8:26:23Z</time></trkpt>
<trkpt lat="46.19975" lon="7.28266"><ele></ele><time>2025-8-26T8:26:26Z</time></trkpt>
<trkpt lat="46.19975" lon="7.28272"><ele></ele><time>2025-8-26T8:26:29Z</time></trkpt>
<trkpt lat="46.19976" lon="7.28274"><ele></ele><time>2025-8-26T8:26:32Z</time></trkpt>
<trkpt lat="46.19978" lon="7.28287"><ele></ele><time>2025-8-26T8:26:35Z</time></trkpt>
<trkpt lat="46.19979" lon="7.28292"><ele></ele><time>2025-8-26T8:26:38Z</time></trkpt>
<trkpt lat="46.19979" lon="7.283"><ele></ele><time>2025-8-26T8:26:41Z</time></trkpt>
<trkpt lat="46.19984" lon="7.2832"><ele></ele><time>2025-8-26T8:26:44Z</time></trkpt>
<trkpt lat="46.19988" lon="7.28346"><ele></ele><time>2025-8-26T8:26:47Z</time></trkpt>
<trkpt lat="46.19994" lon="7.28384"><ele></ele><time>2025-8-26T8:26:50Z</time></trkpt>
<trkpt lat="46.19998" lon="7.28408"><ele></ele><time>2025-8-26T8:26:53Z</time></trkpt>
<trkpt lat="46.20001" lon="7.28425"><ele></ele><time>2025-8-26T8:26:56Z</time></trkpt>
<trkpt lat="46.20009" lon="7.28469"><ele></ele><time>2025-8-26T8:26:59Z</time></trkpt>
<trkpt lat="46.20011" lon="7.28496"><ele></ele><time>2025-8-26T8:27:2Z</time></trkpt>
<trkpt lat="46.20019" lon="7.2854"><ele></ele><time>2025-8-26T8:27:5Z</time></trkpt>
<trkpt lat="46.20028" lon="7.28592"><ele></ele><time>2025-8-26T8:27:8Z</time></trkpt>
<trkpt lat="46.20033" lon="7.28615"><ele></ele><time>2025-8-26T8:27:11Z</time></trkpt>
<trkpt lat="46.20034" lon="7.28627"><ele></ele><time>2025-8-26T8:27:14Z</time></trkpt>
<trkpt lat="46.20042" lon="7.28676"><ele></ele><time>2025-8-26T8:27:17Z</time></trkpt>
<trkpt lat="46.20048" lon="7.28712"><ele></ele><time>2025-8-26T8:27:20Z</time></trkpt>
<trkpt lat="46.20051" lon="7.28729"><ele></ele><time>2025-8-26T8:27:23Z</time></trkpt>
<trkpt lat="46.20058" lon="7.28748"><ele></ele><time>2025-8-26T8:27:26Z</time></trkpt>
<trkpt lat="46.20059" lon="7.28753"><ele></ele><time>2025-8-26T8:27:29Z</time></trkpt>
<trkpt lat="46.20059" lon="7.28776"><ele></ele><time>2025-8-26T8:27:32Z</time></trkpt>
<trkpt lat="46.20059" lon="7.28782"><ele></ele><time>2025-8-26T8:27:35Z</time></trkpt>
<trkpt lat="46.20068" lon="7.28836"><ele></ele><time>2025-8-26T8:27:38Z</time></trkpt>
<trkpt lat="46.20074" lon="7.28869"><ele></ele><time>2025-8-26T8:27:41Z</time></trkpt>
<trkpt lat="46.20077" lon="7.28896"><ele></ele><time>2025-8-26T8:27:44Z</time></trkpt>
<trkpt lat="46.20083" lon="7.28934"><ele></ele><time>2025-8-26T8:27:47Z</time></trkpt>
<trkpt lat="46.20092" lon="7.28957"><ele></ele><time>2025-8-26T8:27:50Z</time></trkpt>
<trkpt lat="46.201" lon="7.28953"><ele></ele><time>2025-8-26T8:27:53Z</time></trkpt>
<trkpt lat="46.20103" lon="7.28948"><ele></ele><time>2025-8-26T8:27:56Z</time></trkpt>
<trkpt lat="46.20108" lon="7.28942"><ele></ele><time>2025-8-26T8:27:59Z</time></trkpt>
<trkpt lat="46.20124" lon="7.28921"><ele></ele><time>2025-8-26T8:28:2Z</time></trkpt>
<trkpt lat="46.20136" lon="7.28907"><ele></ele><time>2025-8-26T8:28:5Z</time></trkpt>
<trkpt lat="46.20153" lon="7.28886"><ele></ele><time>2025-8-26T8:28:8Z</time></trkpt>
<trkpt lat="46.20169" lon="7.28865"><ele></ele><time>2025-8-26T8:28:11Z</time></trkpt>
<trkpt lat="46.20174" lon="7.28859"><ele></ele><time>2025-8-26T8:28:14Z</time></trkpt>
<trkpt lat="46.20216" lon="7.28805"><ele></ele><time>2025-8-26T8:28:17Z</time></trkpt>
<trkpt lat="46.20251" lon="7.28757"><ele></ele><time>2025-8-26T8:28:20Z</time></trkpt>
<trkpt lat="46.20264" lon="7.28738"><ele></ele><time>2025-8-26T8:28:23Z</time></trkpt>
<trkpt lat="46.2031" lon="7.28683"><ele></ele><time>2025-8-26T8:28:26Z</time></trkpt>
<trkpt lat="46.20314" lon="7.28677"><ele></ele><time>2025-8-26T8:28:29Z</time></trkpt>
<trkpt lat="46.20347" lon="7.28635"><ele></ele><time>2025-8-26T8:28:32Z</time></trkpt>
<trkpt lat="46.20374" lon="7.28597"><ele></ele><time>2025-8-26T8:28:35Z</time></trkpt>
<trkpt lat="46.2039" lon="7.28581"><ele></ele><time>2025-8-26T8:28:38Z</time></trkpt>
<trkpt lat="46.20406" lon="7.28562"><ele></ele><time>2025-8-26T8:28:41Z</time></trkpt>
<trkpt lat="46.20438" lon="7.28519"><ele></ele><time>2025-8-26T8:28:44Z</time></trkpt>
<trkpt lat="46.20469" lon="7.28478"><ele></ele><time>2025-8-26T8:28:47Z</time></trkpt>
<trkpt lat="46.20472" lon="7.28473"><ele></ele><time>2025-8-26T8:28:50Z</time></trkpt>
<trkpt lat="46.20515" lon="7.28416"><ele></ele><time>2025-8-26T8:28:53Z</time></trkpt>
<trkpt lat="46.20556" lon="7.28363"><ele></ele><time>2025-8-26T8:28:56Z</time></trkpt>
<trkpt lat="46.20585" lon="7.28323"><ele></ele><time>2025-8-26T8:28:59Z</time></trkpt>
<trkpt lat="46.20613" lon="7.28281"><ele></ele><time>2025-8-26T8:29:2Z</time></trkpt>
<trkpt lat="46.20645" lon="7.28245"><ele></ele><time>2025-8-26T8:29:5Z</time></trkpt>
<trkpt lat="46.20682" lon="7.282"><ele></ele><time>2025-8-26T8:29:8Z</time></trkpt>
<trkpt lat="46.20723" lon="7.28147"><ele></ele><time>2025-8-26T8:29:11Z</time></trkpt>
<trkpt lat="46.20727" lon="7.28142"><ele></ele><time>2025-8-26T8:29:14Z</time></trkpt>
<trkpt lat="46.20747" lon="7.28116"><ele></ele><time>2025-8-26T8:29:17Z</time></trkpt>
<trkpt lat="46.2077" lon="7.28087"><ele></ele><time>2025-8-26T8:29:20Z</time></trkpt>
<trkpt lat="46.20804" lon="7.28034"><ele></ele><time>2025-8-26T8:29:23Z</time></trkpt>
<trkpt lat="46.20845" lon="7.27986"><ele></ele><time>2025-8-26T8:29:26Z</time></trkpt>
<trkpt lat="46.20866" lon="7.27962"><ele></ele><time>2025-8-26T8:29:29Z</time></trkpt>
<trkpt lat="46.20885" lon="7.27943"><ele></ele><time>2025-8-26T8:29:32Z</time></trkpt>
<trkpt lat="46.20922" lon="7.27906"><ele></ele><time>2025-8-26T8:29:35Z</time></trkpt>
<trkpt lat="46.20933" lon="7.27895"><ele></ele><time>2025-8-26T8:29:38Z</time></trkpt>
<trkpt lat="46.20941" lon="7.27889"><ele></ele><time>2025-8-26T8:29:41Z</time></trkpt>
<trkpt lat="46.20958" lon="7.27873"><ele></ele><time>2025-8-26T8:29:44Z</time></trkpt>
<trkpt lat="46.20985" lon="7.2785"><ele></ele><time>2025-8-26T8:29:47Z</time></trkpt>
<trkpt lat="46.2102" lon="7.27827"><ele></ele><time>2025-8-26T8:29:50Z</time></trkpt>
<trkpt lat="46.21051" lon="7.27809"><ele></ele><time>2025-8-26T8:29:53Z</time></trkpt>
<trkpt lat="46.21073" lon="7.27795"><ele></ele><time>2025-8-26T8:29:56Z</time></trkpt>
<trkpt lat="46.21077" lon="7.27793"><ele></ele><time>2025-8-26T8:29:59Z</time></trkpt>
<trkpt lat="46.21092" lon="7.27783"><ele></ele><time>2025-8-26T8:30:2Z</time></trkpt>
<trkpt lat="46.21103" lon="7.27775"><ele></ele><time>2025-8-26T8:30:5Z</time></trkpt>
<trkpt lat="46.21123" lon="7.27764"><ele></ele><time>2025-8-26T8:30:8Z</time></trkpt>
<trkpt lat="46.21163" lon="7.27737"><ele></ele><time>2025-8-26T8:30:11Z</time></trkpt>
<trkpt lat="46.21175" lon="7.27733"><ele></ele><time>2025-8-26T8:30:14Z</time></trkpt>
<trkpt lat="46.21177" lon="7.27737"><ele></ele><time>2025-8-26T8:30:17Z</time></trkpt>
<trkpt lat="46.21174" lon="7.27751"><ele></ele><time>2025-8-26T8:30:20Z</time></trkpt>
<trkpt lat="46.21167" lon="7.27773"><ele></ele><time>2025-8-26T8:30:23Z</time></trkpt>
<trkpt lat="46.21166" lon="7.2778"><ele></ele><time>2025-8-26T8:30:26Z</time></trkpt>
<trkpt lat="46.21163" lon="7.27792"><ele></ele><time>2025-8-26T8:30:29Z</time></trkpt>
<trkpt lat="46.21156" lon="7.27815"><ele></ele><time>2025-8-26T8:30:32Z</time></trkpt>
<trkpt lat="46.21155" lon="7.27821"><ele></ele><time>2025-8-26T8:30:35Z</time></trkpt>
<trkpt lat="46.21153" lon="7.27827"><ele></ele><time>2025-8-26T8:30:38Z</time></trkpt>
<trkpt lat="46.21152" lon="7.27833"><ele></ele><time>2025-8-26T8:30:41Z</time></trkpt>
<trkpt lat="46.21146" lon="7.27858"><ele></ele><time>2025-8-26T8:30:44Z</time></trkpt>
<trkpt lat="46.21135" lon="7.279"><ele></ele><time>2025-8-26T8:30:47Z</time></trkpt>
<trkpt lat="46.2113" lon="7.27924"><ele></ele><time>2025-8-26T8:30:50Z</time></trkpt>
<trkpt lat="46.21127" lon="7.27935"><ele></ele><time>2025-8-26T8:30:53Z</time></trkpt>
<trkpt lat="46.21123" lon="7.27945"><ele></ele><time>2025-8-26T8:30:56Z</time></trkpt>
<trkpt lat="46.21118" lon="7.27969"><ele></ele><time>2025-8-26T8:30:59Z</time></trkpt>
<trkpt lat="46.2111" lon="7.27992"><ele></ele><time>2025-8-26T8:31:2Z</time></trkpt>
<trkpt lat="46.21106" lon="7.28003"><ele></ele><time>2025-8-26T8:31:5Z</time></trkpt>
<trkpt lat="46.21105" lon="7.28009"><ele></ele><time>2025-8-26T8:31:8Z</time></trkpt>
<trkpt lat="46.21104" lon="7.28015"><ele></ele><time>2025-8-26T8:31:11Z</time></trkpt>
<trkpt lat="46.21104" lon="7.28029"><ele></ele><time>2025-8-26T8:31:14Z</time></trkpt>
<trkpt lat="46.21106" lon="7.28042"><ele></ele><time>2025-8-26T8:31:17Z</time></trkpt>
<trkpt lat="46.21121" lon="7.28108"><ele></ele><time>2025-8-26T8:31:20Z</time></trkpt>
<trkpt lat="46.21123" lon="7.28115"><ele></ele><time>2025-8-26T8:31:23Z</time></trkpt>
<trkpt lat="46.21133" lon="7.28164"><ele></ele><time>2025-8-26T8:31:26Z</time></trkpt>
<trkpt lat="46.21137" lon="7.28184"><ele></ele><time>2025-8-26T8:31:29Z</time></trkpt>
<trkpt lat="46.21145" lon="7.28231"><ele></ele><time>2025-8-26T8:31:32Z</time></trkpt>
<trkpt lat="46.21153" lon="7.28273"><ele></ele><time>2025-8-26T8:31:35Z</time></trkpt>
<trkpt lat="46.21156" lon="7.28278"><ele></ele><time>2025-8-26T8:31:38Z</time></trkpt>
<trkpt lat="46.2116" lon="7.28281"><ele></ele><time>2025-8-26T8:31:41Z</time></trkpt>
<trkpt lat="46.2117" lon="7.28283"><ele></ele><time>2025-8-26T8:31:44Z</time></trkpt>
<trkpt lat="46.21179" lon="7.2828"><ele></ele><time>2025-8-26T8:31:47Z</time></trkpt>
<trkpt lat="46.21193" lon="7.28273"><ele></ele><time>2025-8-26T8:31:50Z</time></trkpt>
<trkpt lat="46.21217" lon="7.28262"><ele></ele><time>2025-8-26T8:31:53Z</time></trkpt>
<trkpt lat="46.21221" lon="7.28262"><ele></ele><time>2025-8-26T8:31:56Z</time></trkpt>
<trkpt lat="46.21236" lon="7.28261"><ele></ele><time>2025-8-26T8:31:59Z</time></trkpt>
<trkpt lat="46.21249" lon="7.28254"><ele></ele><time>2025-8-26T8:32:2Z</time></trkpt>
<trkpt lat="46.21291" lon="7.28226"><ele></ele><time>2025-8-26T8:32:5Z</time></trkpt>
<trkpt lat="46.2134" lon="7.28193"><ele></ele><time>2025-8-26T8:32:8Z</time></trkpt>
<trkpt lat="46.21383" lon="7.28167"><ele></ele><time>2025-8-26T8:32:11Z</time></trkpt>
<trkpt lat="46.21436" lon="7.28132"><ele></ele><time>2025-8-26T8:32:14Z</time></trkpt>
<trkpt lat="46.21441" lon="7.28129"><ele></ele><time>2025-8-26T8:32:17Z</time></trkpt>
<trkpt lat="46.21494" lon="7.28094"><ele></ele><time>2025-8-26T8:32:20Z</time></trkpt>
<trkpt lat="46.21542" lon="7.28063"><ele></ele><time>2025-8-26T8:32:23Z</time></trkpt>
<trkpt lat="46.2159" lon="7.28031"><ele></ele><time>2025-8-26T8:32:26Z</time></trkpt>
<trkpt lat="46.21625" lon="7.28008"><ele></ele><time>2025-8-26T8:32:29Z</time></trkpt>
<trkpt lat="46.21641" lon="7.27998"><ele></ele><time>2025-8-26T8:32:32Z</time></trkpt>
<trkpt lat="46.21672" lon="7.27977"><ele></ele><time>2025-8-26T8:32:35Z</time></trkpt>
<trkpt lat="46.21691" lon="7.27964"><ele></ele><time>2025-8-26T8:32:38Z</time></trkpt>
<trkpt lat="46.21716" lon="7.27948"><ele></ele><time>2025-8-26T8:32:41Z</time></trkpt>
<trkpt lat="46.2172" lon="7.27946"><ele></ele><time>2025-8-26T8:32:44Z</time></trkpt>
<trkpt lat="46.21729" lon="7.2794"><ele></ele><time>2025-8-26T8:32:47Z</time></trkpt>
<trkpt lat="46.21763" lon="7.27919"><ele></ele><time>2025-8-26T8:32:50Z</time></trkpt>
<trkpt lat="46.21779" lon="7.27908"><ele></ele><time>2025-8-26T8:32:53Z</time></trkpt>
<trkpt lat="46.21792" lon="7.27899"><ele></ele><time>2025-8-26T8:32:56Z</time></trkpt>
<trkpt lat="46.21796" lon="7.27896"><ele></ele><time>2025-8-26T8:32:59Z</time></trkpt>
<trkpt lat="46.21829" lon="7.27875"><ele></ele><time>2025-8-26T8:33:2Z</time></trkpt>
<trkpt lat="46.21851" lon="7.2786"><ele></ele><time>2025-8-26T8:33:5Z</time></trkpt>
<trkpt lat="46.21867" lon="7.27855"><ele></ele><time>2025-8-26T8:33:8Z</time></trkpt>
<trkpt lat="46.2187" lon="7.27858"><ele></ele><time>2025-8-26T8:33:11Z</time></trkpt>
<trkpt lat="46.2187" lon="7.27865"><ele></ele><time>2025-8-26T8:33:14Z</time></trkpt>
<trkpt lat="46.21868" lon="7.27876"><ele></ele><time>2025-8-26T8:33:17Z</time></trkpt>
<trkpt lat="46.21864" lon="7.27891"><ele></ele><time>2025-8-26T8:33:20Z</time></trkpt>
<trkpt lat="46.21864" lon="7.27896"><ele></ele><time>2025-8-26T8:33:23Z</time></trkpt>
<trkpt lat="46.21865" lon="7.27922"><ele></ele><time>2025-8-26T8:33:26Z</time></trkpt>
<trkpt lat="46.21868" lon="7.27958"><ele></ele><time>2025-8-26T8:33:29Z</time></trkpt>
<trkpt lat="46.21871" lon="7.2798"><ele></ele><time>2025-8-26T8:33:32Z</time></trkpt>
<trkpt lat="46.21875" lon="7.28022"><ele></ele><time>2025-8-26T8:33:35Z</time></trkpt>
<trkpt lat="46.21879" lon="7.28064"><ele></ele><time>2025-8-26T8:33:38Z</time></trkpt>
<trkpt lat="46.2188" lon="7.28071"><ele></ele><time>2025-8-26T8:33:41Z</time></trkpt>
<trkpt lat="46.21881" lon="7.28077"><ele></ele><time>2025-8-26T8:33:44Z</time></trkpt>
<trkpt lat="46.21884" lon="7.28099"><ele></ele><time>2025-8-26T8:33:47Z</time></trkpt>
<trkpt lat="46.21886" lon="7.28103"><ele></ele><time>2025-8-26T8:33:50Z</time></trkpt>
<trkpt lat="46.21892" lon="7.28104"><ele></ele><time>2025-8-26T8:33:53Z</time></trkpt>
<trkpt lat="46.21915" lon="7.28093"><ele></ele><time>2025-8-26T8:33:56Z</time></trkpt>
<trkpt lat="46.21958" lon="7.28073"><ele></ele><time>2025-8-26T8:33:59Z</time></trkpt>
<trkpt lat="46.21983" lon="7.28063"><ele></ele><time>2025-8-26T8:34:2Z</time></trkpt>
<trkpt lat="46.2199" lon="7.28059"><ele></ele><time>2025-8-26T8:34:5Z</time></trkpt>
<trkpt lat="46.22009" lon="7.28051"><ele></ele><time>2025-8-26T8:34:8Z</time></trkpt>
<trkpt lat="46.22041" lon="7.28035"><ele></ele><time>2025-8-26T8:34:11Z</time></trkpt>
<trkpt lat="46.22074" lon="7.28019"><ele></ele><time>2025-8-26T8:34:14Z</time></trkpt>
<trkpt lat="46.22117" lon="7.27999"><ele></ele><time>2025-8-26T8:34:17Z</time></trkpt>
<trkpt lat="46.22127" lon="7.27996"><ele></ele><time>2025-8-26T8:34:20Z</time></trkpt>
<trkpt lat="46.22149" lon="7.27986"><ele></ele><time>2025-8-26T8:34:23Z</time></trkpt>
<trkpt lat="46.22175" lon="7.27981"><ele></ele><time>2025-8-26T8:34:26Z</time></trkpt>
<trkpt lat="46.22177" lon="7.27984"><ele></ele><time>2025-8-26T8:34:29Z</time></trkpt>
<trkpt lat="46.22182" lon="7.27998"><ele></ele><time>2025-8-26T8:34:32Z</time></trkpt>
<trkpt lat="46.22201" lon="7.28041"><ele></ele><time>2025-8-26T8:34:35Z</time></trkpt>
<trkpt lat="46.22217" lon="7.28082"><ele></ele><time>2025-8-26T8:34:38Z</time></trkpt>
<trkpt lat="46.22236" lon="7.28121"><ele></ele><time>2025-8-26T8:34:41Z</time></trkpt>
<trkpt lat="46.22253" lon="7.28161"><ele></ele><time>2025-8-26T8:34:44Z</time></trkpt>
<trkpt lat="46.22272" lon="7.28203"><ele></ele><time>2025-8-26T8:34:47Z</time></trkpt>
<trkpt lat="46.22287" lon="7.28241"><ele></ele><time>2025-8-26T8:34:50Z</time></trkpt>
<trkpt lat="46.22289" lon="7.28246"><ele></ele><time>2025-8-26T8:34:53Z</time></trkpt>
<trkpt lat="46.22307" lon="7.28285"><ele></ele><time>2025-8-26T8:34:56Z</time></trkpt>
<trkpt lat="46.22314" lon="7.28302"><ele></ele><time>2025-8-26T8:34:59Z</time></trkpt>
<trkpt lat="46.22318" lon="7.28308"><ele></ele><time>2025-8-26T8:35:2Z</time></trkpt>
<trkpt lat="46.22319" lon="7.28317"><ele></ele><time>2025-8-26T8:35:5Z</time></trkpt>
<trkpt lat="46.22318" lon="7.2832"><ele></ele><time>2025-8-26T8:35:8Z</time></trkpt>
<trkpt lat="46.22317" lon="7.28321"><ele></ele><time>2025-8-26T8:35:11Z</time></trkpt>
<trkpt lat="46.22317" lon="7.28321"><ele></ele><time>2025-8-26T8:35:14Z</time></trkpt>
</trkseg></trk></gpx>